<?xml version="1.0" encoding="UTF-8" standalone="no" ?>
<gpx xmlns="http://www.topografix.com/GPX/1/1" xmlns:xsi="http://www.w3.org/2001/XMLSchema-instance" xsi:schemaLocation="http://www.topografix.com/GPX/1/1 http://www.topografix.com/GPX/1/1/gpx.xsd" version="1.1" creator="VisuGPX - https://www.visugpx.com">
  <metadata>
    <name>laval st berthevin parne</name>
    <desc><![CDATA[belle randonnee]]></desc>
  </metadata>
  <trk>
    <name><![CDATA[Laval Entrammes Parne Force]]></name>
    <desc><![CDATA[26 juin 2011  8:11 am]]></desc>
    <trkseg>
      <trkpt lat="48.0769" lon="-0.79121">
        <ele>88.369122</ele>
        <time>2011-06-26T06:11:57Z</time>
      </trkpt>
      <trkpt lat="48.077" lon="-0.7911">
        <ele>88.353903</ele>
        <time>2011-06-26T06:12:03Z</time>
      </trkpt>
      <trkpt lat="48.07708" lon="-0.79114">
        <ele>88.354082</ele>
        <time>2011-06-26T06:12:06Z</time>
      </trkpt>
      <trkpt lat="48.07713" lon="-0.79123">
        <ele>88.358553</ele>
        <time>2011-06-26T06:12:09Z</time>
      </trkpt>
      <trkpt lat="48.07716" lon="-0.7913">
        <ele>88.372008</ele>
        <time>2011-06-26T06:12:11Z</time>
      </trkpt>
      <trkpt lat="48.07721" lon="-0.79141">
        <ele>88.410048</ele>
        <time>2011-06-26T06:12:14Z</time>
      </trkpt>
      <trkpt lat="48.07724" lon="-0.79149">
        <ele>88.477763</ele>
        <time>2011-06-26T06:12:16Z</time>
      </trkpt>
      <trkpt lat="48.07728" lon="-0.79161">
        <ele>88.563229</ele>
        <time>2011-06-26T06:12:19Z</time>
      </trkpt>
      <trkpt lat="48.07734" lon="-0.7917">
        <ele>88.654977</ele>
        <time>2011-06-26T06:12:22Z</time>
      </trkpt>
      <trkpt lat="48.07738" lon="-0.7918">
        <ele>88.748262</ele>
        <time>2011-06-26T06:12:25Z</time>
      </trkpt>
      <trkpt lat="48.07741" lon="-0.7919">
        <ele>88.848637</ele>
        <time>2011-06-26T06:12:27Z</time>
      </trkpt>
      <trkpt lat="48.07746" lon="-0.79205">
        <ele>88.94722</ele>
        <time>2011-06-26T06:12:30Z</time>
      </trkpt>
      <trkpt lat="48.07753" lon="-0.79219">
        <ele>89.013531</ele>
        <time>2011-06-26T06:12:33Z</time>
      </trkpt>
      <trkpt lat="48.07759" lon="-0.79232">
        <ele>89.035305</ele>
        <time>2011-06-26T06:12:36Z</time>
      </trkpt>
      <trkpt lat="48.07764" lon="-0.79244">
        <ele>89.016675</ele>
        <time>2011-06-26T06:12:39Z</time>
      </trkpt>
      <trkpt lat="48.07767" lon="-0.79251">
        <ele>88.923787</ele>
        <time>2011-06-26T06:12:41Z</time>
      </trkpt>
      <trkpt lat="48.07771" lon="-0.79264">
        <ele>88.698309</ele>
        <time>2011-06-26T06:12:44Z</time>
      </trkpt>
      <trkpt lat="48.07776" lon="-0.79275">
        <ele>88.316221</ele>
        <time>2011-06-26T06:12:47Z</time>
      </trkpt>
      <trkpt lat="48.0778" lon="-0.79283">
        <ele>87.842011</ele>
        <time>2011-06-26T06:12:49Z</time>
      </trkpt>
      <trkpt lat="48.07787" lon="-0.79293">
        <ele>87.367114</ele>
        <time>2011-06-26T06:12:52Z</time>
      </trkpt>
      <trkpt lat="48.07791" lon="-0.79301">
        <ele>86.925976</ele>
        <time>2011-06-26T06:12:54Z</time>
      </trkpt>
      <trkpt lat="48.07795" lon="-0.79309">
        <ele>86.5468</ele>
        <time>2011-06-26T06:12:56Z</time>
      </trkpt>
      <trkpt lat="48.07798" lon="-0.79319">
        <ele>86.271511</ele>
        <time>2011-06-26T06:12:59Z</time>
      </trkpt>
      <trkpt lat="48.07801" lon="-0.79327">
        <ele>86.107754</ele>
        <time>2011-06-26T06:13:01Z</time>
      </trkpt>
      <trkpt lat="48.07805" lon="-0.79334">
        <ele>86.040285</ele>
        <time>2011-06-26T06:13:03Z</time>
      </trkpt>
      <trkpt lat="48.07808" lon="-0.79342">
        <ele>86.03621</ele>
        <time>2011-06-26T06:13:05Z</time>
      </trkpt>
      <trkpt lat="48.07814" lon="-0.79354">
        <ele>86.085337</ele>
        <time>2011-06-26T06:13:08Z</time>
      </trkpt>
      <trkpt lat="48.0782" lon="-0.79366">
        <ele>86.218337</ele>
        <time>2011-06-26T06:13:11Z</time>
      </trkpt>
      <trkpt lat="48.07826" lon="-0.79378">
        <ele>86.436863</ele>
        <time>2011-06-26T06:13:14Z</time>
      </trkpt>
      <trkpt lat="48.07834" lon="-0.79389">
        <ele>86.72571</ele>
        <time>2011-06-26T06:13:17Z</time>
      </trkpt>
      <trkpt lat="48.07839" lon="-0.79397">
        <ele>87.093398</ele>
        <time>2011-06-26T06:13:19Z</time>
      </trkpt>
      <trkpt lat="48.07844" lon="-0.7941">
        <ele>87.530689</ele>
        <time>2011-06-26T06:13:22Z</time>
      </trkpt>
      <trkpt lat="48.07847" lon="-0.79419">
        <ele>87.999984</ele>
        <time>2011-06-26T06:13:24Z</time>
      </trkpt>
      <trkpt lat="48.07851" lon="-0.79431">
        <ele>88.450336</ele>
        <time>2011-06-26T06:13:27Z</time>
      </trkpt>
      <trkpt lat="48.07855" lon="-0.79445">
        <ele>88.858952</ele>
        <time>2011-06-26T06:13:30Z</time>
      </trkpt>
      <trkpt lat="48.07859" lon="-0.79453">
        <ele>89.23871</ele>
        <time>2011-06-26T06:13:32Z</time>
      </trkpt>
      <trkpt lat="48.07861" lon="-0.79461">
        <ele>89.606976</ele>
        <time>2011-06-26T06:13:34Z</time>
      </trkpt>
      <trkpt lat="48.07864" lon="-0.7947">
        <ele>89.978204</ele>
        <time>2011-06-26T06:13:36Z</time>
      </trkpt>
      <trkpt lat="48.07868" lon="-0.79481">
        <ele>90.340528</ele>
        <time>2011-06-26T06:13:39Z</time>
      </trkpt>
      <trkpt lat="48.07864" lon="-0.79489">
        <ele>90.65563</ele>
        <time>2011-06-26T06:13:42Z</time>
      </trkpt>
      <trkpt lat="48.07857" lon="-0.79494">
        <ele>90.928827</ele>
        <time>2011-06-26T06:13:44Z</time>
      </trkpt>
      <trkpt lat="48.07857" lon="-0.79494">
        <ele>91.155912</ele>
        <time>2011-06-26T06:13:45Z</time>
      </trkpt>
      <trkpt lat="48.07848" lon="-0.79501">
        <ele>91.354124</ele>
        <time>2011-06-26T06:13:47Z</time>
      </trkpt>
      <trkpt lat="48.07843" lon="-0.79506">
        <ele>91.622177</ele>
        <time>2011-06-26T06:13:49Z</time>
      </trkpt>
      <trkpt lat="48.07833" lon="-0.79515">
        <ele>91.991176</ele>
        <time>2011-06-26T06:13:52Z</time>
      </trkpt>
      <trkpt lat="48.07825" lon="-0.79518">
        <ele>92.384218</ele>
        <time>2011-06-26T06:13:54Z</time>
      </trkpt>
      <trkpt lat="48.07811" lon="-0.79517">
        <ele>92.744847</ele>
        <time>2011-06-26T06:13:57Z</time>
      </trkpt>
      <trkpt lat="48.078" lon="-0.79526">
        <ele>93.17511</ele>
        <time>2011-06-26T06:14:00Z</time>
      </trkpt>
      <trkpt lat="48.07795" lon="-0.79536">
        <ele>93.883805</ele>
        <time>2011-06-26T06:14:02Z</time>
      </trkpt>
      <trkpt lat="48.07791" lon="-0.79548">
        <ele>94.915739</ele>
        <time>2011-06-26T06:14:04Z</time>
      </trkpt>
      <trkpt lat="48.07789" lon="-0.7956">
        <ele>96.015144</ele>
        <time>2011-06-26T06:14:06Z</time>
      </trkpt>
      <trkpt lat="48.0779" lon="-0.79571">
        <ele>96.832297</ele>
        <time>2011-06-26T06:14:08Z</time>
      </trkpt>
      <trkpt lat="48.07783" lon="-0.79584">
        <ele>97.209157</ele>
        <time>2011-06-26T06:14:11Z</time>
      </trkpt>
      <trkpt lat="48.07776" lon="-0.79595">
        <ele>97.267734</ele>
        <time>2011-06-26T06:14:13Z</time>
      </trkpt>
      <trkpt lat="48.07772" lon="-0.79614">
        <ele>97.204406</ele>
        <time>2011-06-26T06:14:16Z</time>
      </trkpt>
      <trkpt lat="48.07773" lon="-0.79629">
        <ele>97.095264</ele>
        <time>2011-06-26T06:14:18Z</time>
      </trkpt>
      <trkpt lat="48.07775" lon="-0.7965">
        <ele>96.921976</ele>
        <time>2011-06-26T06:14:21Z</time>
      </trkpt>
      <trkpt lat="48.07776" lon="-0.79664">
        <ele>96.706859</ele>
        <time>2011-06-26T06:14:23Z</time>
      </trkpt>
      <trkpt lat="48.07777" lon="-0.79678">
        <ele>96.513284</ele>
        <time>2011-06-26T06:14:25Z</time>
      </trkpt>
      <trkpt lat="48.0778" lon="-0.79699">
        <ele>96.362809</ele>
        <time>2011-06-26T06:14:28Z</time>
      </trkpt>
      <trkpt lat="48.07782" lon="-0.79714">
        <ele>96.240157</ele>
        <time>2011-06-26T06:14:30Z</time>
      </trkpt>
      <trkpt lat="48.07784" lon="-0.79729">
        <ele>96.131252</ele>
        <time>2011-06-26T06:14:32Z</time>
      </trkpt>
      <trkpt lat="48.07787" lon="-0.79752">
        <ele>96.040071</ele>
        <time>2011-06-26T06:14:35Z</time>
      </trkpt>
      <trkpt lat="48.0779" lon="-0.79774">
        <ele>95.970286</ele>
        <time>2011-06-26T06:14:38Z</time>
      </trkpt>
      <trkpt lat="48.07792" lon="-0.79787">
        <ele>95.923257</ele>
        <time>2011-06-26T06:14:40Z</time>
      </trkpt>
      <trkpt lat="48.07793" lon="-0.79801">
        <ele>95.888182</ele>
        <time>2011-06-26T06:14:42Z</time>
      </trkpt>
      <trkpt lat="48.07796" lon="-0.79822">
        <ele>95.832515</ele>
        <time>2011-06-26T06:14:45Z</time>
      </trkpt>
      <trkpt lat="48.078" lon="-0.7984">
        <ele>95.741692</ele>
        <time>2011-06-26T06:14:48Z</time>
      </trkpt>
      <trkpt lat="48.07804" lon="-0.79856">
        <ele>95.638059</ele>
        <time>2011-06-26T06:14:51Z</time>
      </trkpt>
      <trkpt lat="48.07809" lon="-0.79863">
        <ele>95.507766</ele>
        <time>2011-06-26T06:14:53Z</time>
      </trkpt>
      <trkpt lat="48.07818" lon="-0.79878">
        <ele>95.289451</ele>
        <time>2011-06-26T06:14:56Z</time>
      </trkpt>
      <trkpt lat="48.07821" lon="-0.79898">
        <ele>94.969462</ele>
        <time>2011-06-26T06:14:59Z</time>
      </trkpt>
      <trkpt lat="48.07818" lon="-0.79911">
        <ele>94.612994</ele>
        <time>2011-06-26T06:15:01Z</time>
      </trkpt>
      <trkpt lat="48.07817" lon="-0.79924">
        <ele>94.264958</ele>
        <time>2011-06-26T06:15:03Z</time>
      </trkpt>
      <trkpt lat="48.07818" lon="-0.79938">
        <ele>93.87004</ele>
        <time>2011-06-26T06:15:05Z</time>
      </trkpt>
      <trkpt lat="48.0782" lon="-0.79951">
        <ele>93.432724</ele>
        <time>2011-06-26T06:15:07Z</time>
      </trkpt>
      <trkpt lat="48.07824" lon="-0.7997">
        <ele>93.104495</ele>
        <time>2011-06-26T06:15:10Z</time>
      </trkpt>
      <trkpt lat="48.07828" lon="-0.79989">
        <ele>92.971778</ele>
        <time>2011-06-26T06:15:13Z</time>
      </trkpt>
      <trkpt lat="48.07834" lon="-0.80007">
        <ele>92.965498</ele>
        <time>2011-06-26T06:15:16Z</time>
      </trkpt>
      <trkpt lat="48.07836" lon="-0.80019">
        <ele>93.065225</ele>
        <time>2011-06-26T06:15:18Z</time>
      </trkpt>
      <trkpt lat="48.07839" lon="-0.80031">
        <ele>93.312133</ele>
        <time>2011-06-26T06:15:20Z</time>
      </trkpt>
      <trkpt lat="48.07843" lon="-0.8005">
        <ele>93.6225</ele>
        <time>2011-06-26T06:15:23Z</time>
      </trkpt>
      <trkpt lat="48.07847" lon="-0.80071">
        <ele>93.832217</ele>
        <time>2011-06-26T06:15:26Z</time>
      </trkpt>
      <trkpt lat="48.07849" lon="-0.80085">
        <ele>93.901486</ele>
        <time>2011-06-26T06:15:28Z</time>
      </trkpt>
      <trkpt lat="48.07852" lon="-0.80106">
        <ele>93.844359</ele>
        <time>2011-06-26T06:15:31Z</time>
      </trkpt>
      <trkpt lat="48.07852" lon="-0.80106">
        <ele>93.690034</ele>
        <time>2011-06-26T06:15:32Z</time>
      </trkpt>
      <trkpt lat="48.07855" lon="-0.8012">
        <ele>93.470116</ele>
        <time>2011-06-26T06:15:33Z</time>
      </trkpt>
      <trkpt lat="48.07859" lon="-0.80138">
        <ele>93.191887</ele>
        <time>2011-06-26T06:15:36Z</time>
      </trkpt>
      <trkpt lat="48.07863" lon="-0.80149">
        <ele>92.864591</ele>
        <time>2011-06-26T06:15:38Z</time>
      </trkpt>
      <trkpt lat="48.0787" lon="-0.80164">
        <ele>92.522825</ele>
        <time>2011-06-26T06:15:41Z</time>
      </trkpt>
      <trkpt lat="48.07877" lon="-0.80173">
        <ele>92.182678</ele>
        <time>2011-06-26T06:15:43Z</time>
      </trkpt>
      <trkpt lat="48.07883" lon="-0.80184">
        <ele>91.873983</ele>
        <time>2011-06-26T06:15:45Z</time>
      </trkpt>
      <trkpt lat="48.07886" lon="-0.80204">
        <ele>91.623848</ele>
        <time>2011-06-26T06:15:48Z</time>
      </trkpt>
      <trkpt lat="48.07885" lon="-0.80218">
        <ele>91.457481</ele>
        <time>2011-06-26T06:15:50Z</time>
      </trkpt>
      <trkpt lat="48.07886" lon="-0.80237">
        <ele>91.379346</ele>
        <time>2011-06-26T06:15:53Z</time>
      </trkpt>
      <trkpt lat="48.07891" lon="-0.8026">
        <ele>91.367993</ele>
        <time>2011-06-26T06:15:56Z</time>
      </trkpt>
      <trkpt lat="48.07893" lon="-0.80272">
        <ele>91.402889</ele>
        <time>2011-06-26T06:15:58Z</time>
      </trkpt>
      <trkpt lat="48.07897" lon="-0.80284">
        <ele>91.504247</ele>
        <time>2011-06-26T06:16:00Z</time>
      </trkpt>
      <trkpt lat="48.07901" lon="-0.80303">
        <ele>91.675387</ele>
        <time>2011-06-26T06:16:03Z</time>
      </trkpt>
      <trkpt lat="48.07906" lon="-0.80321">
        <ele>91.878905</ele>
        <time>2011-06-26T06:16:06Z</time>
      </trkpt>
      <trkpt lat="48.0791" lon="-0.80333">
        <ele>92.091689</ele>
        <time>2011-06-26T06:16:08Z</time>
      </trkpt>
      <trkpt lat="48.07913" lon="-0.80354">
        <ele>92.283457</ele>
        <time>2011-06-26T06:16:11Z</time>
      </trkpt>
      <trkpt lat="48.07916" lon="-0.80368">
        <ele>92.400317</ele>
        <time>2011-06-26T06:16:13Z</time>
      </trkpt>
      <trkpt lat="48.0792" lon="-0.80387">
        <ele>92.433553</ele>
        <time>2011-06-26T06:16:16Z</time>
      </trkpt>
      <trkpt lat="48.07923" lon="-0.80405">
        <ele>92.35608</ele>
        <time>2011-06-26T06:16:19Z</time>
      </trkpt>
      <trkpt lat="48.07927" lon="-0.80422">
        <ele>92.141263</ele>
        <time>2011-06-26T06:16:22Z</time>
      </trkpt>
      <trkpt lat="48.07933" lon="-0.80437">
        <ele>91.88296</ele>
        <time>2011-06-26T06:16:25Z</time>
      </trkpt>
      <trkpt lat="48.07939" lon="-0.80446">
        <ele>91.702842</ele>
        <time>2011-06-26T06:16:27Z</time>
      </trkpt>
      <trkpt lat="48.07948" lon="-0.80464">
        <ele>91.621799</ele>
        <time>2011-06-26T06:16:30Z</time>
      </trkpt>
      <trkpt lat="48.07948" lon="-0.80464">
        <ele>91.596558</ele>
        <time>2011-06-26T06:16:31Z</time>
      </trkpt>
      <trkpt lat="48.07947" lon="-0.80486">
        <ele>91.573846</ele>
        <time>2011-06-26T06:16:33Z</time>
      </trkpt>
      <trkpt lat="48.07949" lon="-0.80506">
        <ele>91.528272</ele>
        <time>2011-06-26T06:16:36Z</time>
      </trkpt>
      <trkpt lat="48.07954" lon="-0.80522">
        <ele>91.4674</ele>
        <time>2011-06-26T06:16:39Z</time>
      </trkpt>
      <trkpt lat="48.07959" lon="-0.80537">
        <ele>91.420048</ele>
        <time>2011-06-26T06:16:42Z</time>
      </trkpt>
      <trkpt lat="48.07962" lon="-0.80549">
        <ele>91.401784</ele>
        <time>2011-06-26T06:16:44Z</time>
      </trkpt>
      <trkpt lat="48.07968" lon="-0.80568">
        <ele>91.401542</ele>
        <time>2011-06-26T06:16:47Z</time>
      </trkpt>
      <trkpt lat="48.07973" lon="-0.80581">
        <ele>91.405415</ele>
        <time>2011-06-26T06:16:49Z</time>
      </trkpt>
      <trkpt lat="48.07978" lon="-0.80593">
        <ele>91.406267</ele>
        <time>2011-06-26T06:16:51Z</time>
      </trkpt>
      <trkpt lat="48.07982" lon="-0.80606">
        <ele>91.355732</ele>
        <time>2011-06-26T06:16:53Z</time>
      </trkpt>
      <trkpt lat="48.07987" lon="-0.80625">
        <ele>91.200368</ele>
        <time>2011-06-26T06:16:56Z</time>
      </trkpt>
      <trkpt lat="48.07991" lon="-0.80637">
        <ele>90.997622</ele>
        <time>2011-06-26T06:16:58Z</time>
      </trkpt>
      <trkpt lat="48.07995" lon="-0.80651">
        <ele>90.84893</ele>
        <time>2011-06-26T06:17:00Z</time>
      </trkpt>
      <trkpt lat="48.08001" lon="-0.80669">
        <ele>90.769193</ele>
        <time>2011-06-26T06:17:03Z</time>
      </trkpt>
      <trkpt lat="48.08005" lon="-0.80681">
        <ele>90.724477</ele>
        <time>2011-06-26T06:17:05Z</time>
      </trkpt>
      <trkpt lat="48.08006" lon="-0.80699">
        <ele>90.674952</ele>
        <time>2011-06-26T06:17:08Z</time>
      </trkpt>
      <trkpt lat="48.08001" lon="-0.80708">
        <ele>90.602982</ele>
        <time>2011-06-26T06:17:10Z</time>
      </trkpt>
      <trkpt lat="48.08001" lon="-0.80708">
        <ele>90.534768</ele>
        <time>2011-06-26T06:17:11Z</time>
      </trkpt>
      <trkpt lat="48.0799" lon="-0.8072">
        <ele>90.497479</ele>
        <time>2011-06-26T06:17:13Z</time>
      </trkpt>
      <trkpt lat="48.07978" lon="-0.80731">
        <ele>90.487217</ele>
        <time>2011-06-26T06:17:16Z</time>
      </trkpt>
      <trkpt lat="48.07966" lon="-0.8074">
        <ele>90.489561</ele>
        <time>2011-06-26T06:17:19Z</time>
      </trkpt>
      <trkpt lat="48.07953" lon="-0.80749">
        <ele>90.493942</ele>
        <time>2011-06-26T06:17:22Z</time>
      </trkpt>
      <trkpt lat="48.07945" lon="-0.80754">
        <ele>90.482972</ele>
        <time>2011-06-26T06:17:24Z</time>
      </trkpt>
      <trkpt lat="48.07937" lon="-0.80759">
        <ele>90.335669</ele>
        <time>2011-06-26T06:17:26Z</time>
      </trkpt>
      <trkpt lat="48.07925" lon="-0.80766">
        <ele>89.912744</ele>
        <time>2011-06-26T06:17:29Z</time>
      </trkpt>
      <trkpt lat="48.07913" lon="-0.80773">
        <ele>89.302019</ele>
        <time>2011-06-26T06:17:32Z</time>
      </trkpt>
      <trkpt lat="48.07904" lon="-0.80777">
        <ele>88.728071</ele>
        <time>2011-06-26T06:17:35Z</time>
      </trkpt>
      <trkpt lat="48.07894" lon="-0.80784">
        <ele>88.301068</ele>
        <time>2011-06-26T06:17:38Z</time>
      </trkpt>
      <trkpt lat="48.07889" lon="-0.80791">
        <ele>88.038041</ele>
        <time>2011-06-26T06:17:40Z</time>
      </trkpt>
      <trkpt lat="48.07887" lon="-0.80805">
        <ele>87.924765</ele>
        <time>2011-06-26T06:17:43Z</time>
      </trkpt>
      <trkpt lat="48.07892" lon="-0.80819">
        <ele>87.908973</ele>
        <time>2011-06-26T06:17:46Z</time>
      </trkpt>
      <trkpt lat="48.07898" lon="-0.80835">
        <ele>87.929374</ele>
        <time>2011-06-26T06:17:49Z</time>
      </trkpt>
      <trkpt lat="48.07903" lon="-0.8085">
        <ele>87.959132</ele>
        <time>2011-06-26T06:17:52Z</time>
      </trkpt>
      <trkpt lat="48.07907" lon="-0.80859">
        <ele>87.997587</ele>
        <time>2011-06-26T06:17:54Z</time>
      </trkpt>
      <trkpt lat="48.07914" lon="-0.80877">
        <ele>88.073148</ele>
        <time>2011-06-26T06:17:57Z</time>
      </trkpt>
      <trkpt lat="48.07919" lon="-0.8089">
        <ele>88.201605</ele>
        <time>2011-06-26T06:17:59Z</time>
      </trkpt>
      <trkpt lat="48.07926" lon="-0.80909">
        <ele>88.336359</ele>
        <time>2011-06-26T06:18:02Z</time>
      </trkpt>
      <trkpt lat="48.0793" lon="-0.80923">
        <ele>88.52117</ele>
        <time>2011-06-26T06:18:04Z</time>
      </trkpt>
      <trkpt lat="48.07937" lon="-0.80943">
        <ele>88.931302</ele>
        <time>2011-06-26T06:18:07Z</time>
      </trkpt>
      <trkpt lat="48.07943" lon="-0.80961">
        <ele>89.648117</ele>
        <time>2011-06-26T06:18:10Z</time>
      </trkpt>
      <trkpt lat="48.07946" lon="-0.80973">
        <ele>90.632207</ele>
        <time>2011-06-26T06:18:12Z</time>
      </trkpt>
      <trkpt lat="48.07953" lon="-0.80992">
        <ele>91.966873</ele>
        <time>2011-06-26T06:18:15Z</time>
      </trkpt>
      <trkpt lat="48.07959" lon="-0.81012">
        <ele>93.741013</ele>
        <time>2011-06-26T06:18:18Z</time>
      </trkpt>
      <trkpt lat="48.07964" lon="-0.81025">
        <ele>95.654114</ele>
        <time>2011-06-26T06:18:20Z</time>
      </trkpt>
      <trkpt lat="48.07974" lon="-0.81049">
        <ele>97.282746</ele>
        <time>2011-06-26T06:18:23Z</time>
      </trkpt>
      <trkpt lat="48.07982" lon="-0.81066">
        <ele>98.610858</ele>
        <time>2011-06-26T06:18:26Z</time>
      </trkpt>
      <trkpt lat="48.0799" lon="-0.81083">
        <ele>99.768901</ele>
        <time>2011-06-26T06:18:29Z</time>
      </trkpt>
      <trkpt lat="48.07996" lon="-0.81095">
        <ele>100.737295</ele>
        <time>2011-06-26T06:18:31Z</time>
      </trkpt>
      <trkpt lat="48.08002" lon="-0.81108">
        <ele>101.444225</ele>
        <time>2011-06-26T06:18:33Z</time>
      </trkpt>
      <trkpt lat="48.08009" lon="-0.81128">
        <ele>101.834093</ele>
        <time>2011-06-26T06:18:36Z</time>
      </trkpt>
      <trkpt lat="48.08015" lon="-0.81142">
        <ele>101.942905</ele>
        <time>2011-06-26T06:18:38Z</time>
      </trkpt>
      <trkpt lat="48.08019" lon="-0.81156">
        <ele>101.913645</ele>
        <time>2011-06-26T06:18:40Z</time>
      </trkpt>
      <trkpt lat="48.08026" lon="-0.81178">
        <ele>101.847608</ele>
        <time>2011-06-26T06:18:43Z</time>
      </trkpt>
      <trkpt lat="48.08033" lon="-0.81201">
        <ele>101.769442</ele>
        <time>2011-06-26T06:18:46Z</time>
      </trkpt>
      <trkpt lat="48.0804" lon="-0.81225">
        <ele>101.679272</ele>
        <time>2011-06-26T06:18:49Z</time>
      </trkpt>
      <trkpt lat="48.08045" lon="-0.81241">
        <ele>101.577527</ele>
        <time>2011-06-26T06:18:51Z</time>
      </trkpt>
      <trkpt lat="48.08045" lon="-0.81241">
        <ele>101.479293</ele>
        <time>2011-06-26T06:18:52Z</time>
      </trkpt>
      <trkpt lat="48.0805" lon="-0.81265">
        <ele>101.391998</ele>
        <time>2011-06-26T06:18:54Z</time>
      </trkpt>
      <trkpt lat="48.08054" lon="-0.81281">
        <ele>101.288515</ele>
        <time>2011-06-26T06:18:56Z</time>
      </trkpt>
      <trkpt lat="48.08059" lon="-0.81305">
        <ele>101.145608</ele>
        <time>2011-06-26T06:18:59Z</time>
      </trkpt>
      <trkpt lat="48.08061" lon="-0.8132">
        <ele>100.945341</ele>
        <time>2011-06-26T06:19:01Z</time>
      </trkpt>
      <trkpt lat="48.08064" lon="-0.81343">
        <ele>100.667555</ele>
        <time>2011-06-26T06:19:04Z</time>
      </trkpt>
      <trkpt lat="48.08064" lon="-0.81359">
        <ele>100.282299</ele>
        <time>2011-06-26T06:19:06Z</time>
      </trkpt>
      <trkpt lat="48.08063" lon="-0.81375">
        <ele>99.770961</ele>
        <time>2011-06-26T06:19:08Z</time>
      </trkpt>
      <trkpt lat="48.08064" lon="-0.81391">
        <ele>99.207471</ele>
        <time>2011-06-26T06:19:10Z</time>
      </trkpt>
      <trkpt lat="48.08067" lon="-0.81415">
        <ele>98.75506</ele>
        <time>2011-06-26T06:19:13Z</time>
      </trkpt>
      <trkpt lat="48.0807" lon="-0.81437">
        <ele>98.5151</ele>
        <time>2011-06-26T06:19:16Z</time>
      </trkpt>
      <trkpt lat="48.08073" lon="-0.81452">
        <ele>98.453257</ele>
        <time>2011-06-26T06:19:18Z</time>
      </trkpt>
      <trkpt lat="48.08079" lon="-0.81472">
        <ele>98.470238</ele>
        <time>2011-06-26T06:19:21Z</time>
      </trkpt>
      <trkpt lat="48.08083" lon="-0.81485">
        <ele>98.502816</ele>
        <time>2011-06-26T06:19:23Z</time>
      </trkpt>
      <trkpt lat="48.08088" lon="-0.81505">
        <ele>98.528898</ele>
        <time>2011-06-26T06:19:26Z</time>
      </trkpt>
      <trkpt lat="48.08091" lon="-0.81519">
        <ele>98.545933</ele>
        <time>2011-06-26T06:19:28Z</time>
      </trkpt>
      <trkpt lat="48.08096" lon="-0.81539">
        <ele>98.551311</ele>
        <time>2011-06-26T06:19:31Z</time>
      </trkpt>
      <trkpt lat="48.081" lon="-0.81553">
        <ele>98.545506</ele>
        <time>2011-06-26T06:19:33Z</time>
      </trkpt>
      <trkpt lat="48.08103" lon="-0.81567">
        <ele>98.536911</ele>
        <time>2011-06-26T06:19:35Z</time>
      </trkpt>
      <trkpt lat="48.08106" lon="-0.81588">
        <ele>98.519014</ele>
        <time>2011-06-26T06:19:38Z</time>
      </trkpt>
      <trkpt lat="48.08111" lon="-0.81609">
        <ele>98.455783</ele>
        <time>2011-06-26T06:19:41Z</time>
      </trkpt>
      <trkpt lat="48.08114" lon="-0.81621">
        <ele>98.323797</ele>
        <time>2011-06-26T06:19:43Z</time>
      </trkpt>
      <trkpt lat="48.08114" lon="-0.81621">
        <ele>98.168969</ele>
        <time>2011-06-26T06:19:43Z</time>
      </trkpt>
      <trkpt lat="48.08121" lon="-0.81639">
        <ele>98.055719</ele>
        <time>2011-06-26T06:19:46Z</time>
      </trkpt>
      <trkpt lat="48.08127" lon="-0.81658">
        <ele>97.991302</ele>
        <time>2011-06-26T06:19:49Z</time>
      </trkpt>
      <trkpt lat="48.0813" lon="-0.8167">
        <ele>97.952854</ele>
        <time>2011-06-26T06:19:51Z</time>
      </trkpt>
      <trkpt lat="48.08136" lon="-0.81687">
        <ele>97.931859</ele>
        <time>2011-06-26T06:19:54Z</time>
      </trkpt>
      <trkpt lat="48.08142" lon="-0.81705">
        <ele>97.924202</ele>
        <time>2011-06-26T06:19:57Z</time>
      </trkpt>
      <trkpt lat="48.08147" lon="-0.81723">
        <ele>97.924427</ele>
        <time>2011-06-26T06:20:00Z</time>
      </trkpt>
      <trkpt lat="48.08149" lon="-0.81734">
        <ele>97.924355</ele>
        <time>2011-06-26T06:20:02Z</time>
      </trkpt>
      <trkpt lat="48.08146" lon="-0.81743">
        <ele>97.908884</ele>
        <time>2011-06-26T06:20:04Z</time>
      </trkpt>
      <trkpt lat="48.08142" lon="-0.81748">
        <ele>97.863194</ele>
        <time>2011-06-26T06:20:07Z</time>
      </trkpt>
      <trkpt lat="48.08138" lon="-0.81754">
        <ele>97.798994</ele>
        <time>2011-06-26T06:20:10Z</time>
      </trkpt>
      <trkpt lat="48.08128" lon="-0.81763">
        <ele>97.743405</ele>
        <time>2011-06-26T06:20:13Z</time>
      </trkpt>
      <trkpt lat="48.08121" lon="-0.81771">
        <ele>97.708522</ele>
        <time>2011-06-26T06:20:15Z</time>
      </trkpt>
      <trkpt lat="48.08109" lon="-0.81784">
        <ele>97.691811</ele>
        <time>2011-06-26T06:20:18Z</time>
      </trkpt>
      <trkpt lat="48.08102" lon="-0.81793">
        <ele>97.679165</ele>
        <time>2011-06-26T06:20:20Z</time>
      </trkpt>
      <trkpt lat="48.08095" lon="-0.81804">
        <ele>97.654368</ele>
        <time>2011-06-26T06:20:22Z</time>
      </trkpt>
      <trkpt lat="48.08089" lon="-0.81821">
        <ele>97.623166</ele>
        <time>2011-06-26T06:20:25Z</time>
      </trkpt>
      <trkpt lat="48.08078" lon="-0.81835">
        <ele>97.614424</ele>
        <time>2011-06-26T06:20:28Z</time>
      </trkpt>
      <trkpt lat="48.0807" lon="-0.81843">
        <ele>97.647215</ele>
        <time>2011-06-26T06:20:30Z</time>
      </trkpt>
      <trkpt lat="48.08058" lon="-0.81854">
        <ele>97.701039</ele>
        <time>2011-06-26T06:20:33Z</time>
      </trkpt>
      <trkpt lat="48.0805" lon="-0.81861">
        <ele>97.819043</ele>
        <time>2011-06-26T06:20:35Z</time>
      </trkpt>
      <trkpt lat="48.08038" lon="-0.81872">
        <ele>98.097896</ele>
        <time>2011-06-26T06:20:38Z</time>
      </trkpt>
      <trkpt lat="48.08027" lon="-0.81888">
        <ele>98.546232</ele>
        <time>2011-06-26T06:20:41Z</time>
      </trkpt>
      <trkpt lat="48.08016" lon="-0.81902">
        <ele>99.079502</ele>
        <time>2011-06-26T06:20:44Z</time>
      </trkpt>
      <trkpt lat="48.08008" lon="-0.81909">
        <ele>99.577503</ele>
        <time>2011-06-26T06:20:46Z</time>
      </trkpt>
      <trkpt lat="48.07997" lon="-0.81919">
        <ele>99.916269</ele>
        <time>2011-06-26T06:20:49Z</time>
      </trkpt>
      <trkpt lat="48.0799" lon="-0.81927">
        <ele>100.106439</ele>
        <time>2011-06-26T06:20:51Z</time>
      </trkpt>
      <trkpt lat="48.07982" lon="-0.81934">
        <ele>100.257505</ele>
        <time>2011-06-26T06:20:53Z</time>
      </trkpt>
      <trkpt lat="48.07975" lon="-0.81941">
        <ele>100.590812</ele>
        <time>2011-06-26T06:20:55Z</time>
      </trkpt>
      <trkpt lat="48.07964" lon="-0.81951">
        <ele>101.285995</ele>
        <time>2011-06-26T06:20:58Z</time>
      </trkpt>
      <trkpt lat="48.07957" lon="-0.81955">
        <ele>102.203471</ele>
        <time>2011-06-26T06:21:00Z</time>
      </trkpt>
      <trkpt lat="48.07946" lon="-0.81956">
        <ele>103.072957</ele>
        <time>2011-06-26T06:21:03Z</time>
      </trkpt>
      <trkpt lat="48.07936" lon="-0.81955">
        <ele>103.841245</ele>
        <time>2011-06-26T06:21:06Z</time>
      </trkpt>
      <trkpt lat="48.07924" lon="-0.81958">
        <ele>104.467834</ele>
        <time>2011-06-26T06:21:09Z</time>
      </trkpt>
      <trkpt lat="48.07917" lon="-0.8196">
        <ele>104.840891</ele>
        <time>2011-06-26T06:21:11Z</time>
      </trkpt>
      <trkpt lat="48.07907" lon="-0.81969">
        <ele>105.01328</ele>
        <time>2011-06-26T06:21:14Z</time>
      </trkpt>
      <trkpt lat="48.07903" lon="-0.81983">
        <ele>105.246598</ele>
        <time>2011-06-26T06:21:17Z</time>
      </trkpt>
      <trkpt lat="48.07903" lon="-0.81995">
        <ele>105.685001</ele>
        <time>2011-06-26T06:21:19Z</time>
      </trkpt>
      <trkpt lat="48.07906" lon="-0.82012">
        <ele>106.219782</ele>
        <time>2011-06-26T06:21:22Z</time>
      </trkpt>
      <trkpt lat="48.07909" lon="-0.82026">
        <ele>106.694522</ele>
        <time>2011-06-26T06:21:25Z</time>
      </trkpt>
      <trkpt lat="48.07901" lon="-0.82034">
        <ele>107.05155</ele>
        <time>2011-06-26T06:21:28Z</time>
      </trkpt>
      <trkpt lat="48.07887" lon="-0.82041">
        <ele>107.281877</ele>
        <time>2011-06-26T06:21:31Z</time>
      </trkpt>
      <trkpt lat="48.07877" lon="-0.82046">
        <ele>107.405659</ele>
        <time>2011-06-26T06:21:33Z</time>
      </trkpt>
      <trkpt lat="48.07859" lon="-0.82056">
        <ele>107.49585</ele>
        <time>2011-06-26T06:21:36Z</time>
      </trkpt>
      <trkpt lat="48.07841" lon="-0.82066">
        <ele>107.638108</ele>
        <time>2011-06-26T06:21:39Z</time>
      </trkpt>
      <trkpt lat="48.0783" lon="-0.82072">
        <ele>107.82088</ele>
        <time>2011-06-26T06:21:41Z</time>
      </trkpt>
      <trkpt lat="48.07815" lon="-0.8208">
        <ele>107.952653</ele>
        <time>2011-06-26T06:21:44Z</time>
      </trkpt>
      <trkpt lat="48.07802" lon="-0.82087">
        <ele>107.999666</ele>
        <time>2011-06-26T06:21:47Z</time>
      </trkpt>
      <trkpt lat="48.07788" lon="-0.82095">
        <ele>107.973964</ele>
        <time>2011-06-26T06:21:50Z</time>
      </trkpt>
      <trkpt lat="48.07775" lon="-0.82103">
        <ele>107.892918</ele>
        <time>2011-06-26T06:21:53Z</time>
      </trkpt>
      <trkpt lat="48.07762" lon="-0.82112">
        <ele>107.799106</ele>
        <time>2011-06-26T06:21:56Z</time>
      </trkpt>
      <trkpt lat="48.0775" lon="-0.82121">
        <ele>107.723933</ele>
        <time>2011-06-26T06:21:59Z</time>
      </trkpt>
      <trkpt lat="48.07742" lon="-0.82128">
        <ele>107.668766</ele>
        <time>2011-06-26T06:22:01Z</time>
      </trkpt>
      <trkpt lat="48.07729" lon="-0.82139">
        <ele>107.634569</ele>
        <time>2011-06-26T06:22:04Z</time>
      </trkpt>
      <trkpt lat="48.0772" lon="-0.82145">
        <ele>107.596494</ele>
        <time>2011-06-26T06:22:06Z</time>
      </trkpt>
      <trkpt lat="48.07706" lon="-0.82157">
        <ele>107.505962</ele>
        <time>2011-06-26T06:22:09Z</time>
      </trkpt>
      <trkpt lat="48.07695" lon="-0.82165">
        <ele>107.346999</ele>
        <time>2011-06-26T06:22:11Z</time>
      </trkpt>
      <trkpt lat="48.07678" lon="-0.82179">
        <ele>107.162706</ele>
        <time>2011-06-26T06:22:14Z</time>
      </trkpt>
      <trkpt lat="48.07659" lon="-0.82193">
        <ele>107.004253</ele>
        <time>2011-06-26T06:22:17Z</time>
      </trkpt>
      <trkpt lat="48.07638" lon="-0.82206">
        <ele>106.887856</ele>
        <time>2011-06-26T06:22:20Z</time>
      </trkpt>
      <trkpt lat="48.07616" lon="-0.82216">
        <ele>106.813768</ele>
        <time>2011-06-26T06:22:23Z</time>
      </trkpt>
      <trkpt lat="48.07594" lon="-0.82223">
        <ele>106.781907</ele>
        <time>2011-06-26T06:22:26Z</time>
      </trkpt>
      <trkpt lat="48.07581" lon="-0.82242">
        <ele>106.773215</ele>
        <time>2011-06-26T06:22:29Z</time>
      </trkpt>
      <trkpt lat="48.07592" lon="-0.82267">
        <ele>106.76386</ele>
        <time>2011-06-26T06:22:32Z</time>
      </trkpt>
      <trkpt lat="48.07604" lon="-0.82285">
        <ele>106.749943</ele>
        <time>2011-06-26T06:22:34Z</time>
      </trkpt>
      <trkpt lat="48.07618" lon="-0.82315">
        <ele>106.696188</ele>
        <time>2011-06-26T06:22:37Z</time>
      </trkpt>
      <trkpt lat="48.07626" lon="-0.82336">
        <ele>106.538987</ele>
        <time>2011-06-26T06:22:39Z</time>
      </trkpt>
      <trkpt lat="48.07632" lon="-0.82357">
        <ele>106.289556</ele>
        <time>2011-06-26T06:22:41Z</time>
      </trkpt>
      <trkpt lat="48.07636" lon="-0.82387">
        <ele>105.741394</ele>
        <time>2011-06-26T06:22:44Z</time>
      </trkpt>
      <trkpt lat="48.07636" lon="-0.82409">
        <ele>104.652107</ele>
        <time>2011-06-26T06:22:46Z</time>
      </trkpt>
      <trkpt lat="48.07637" lon="-0.82431">
        <ele>103.30517</ele>
        <time>2011-06-26T06:22:48Z</time>
      </trkpt>
      <trkpt lat="48.07641" lon="-0.82465">
        <ele>102.173091</ele>
        <time>2011-06-26T06:22:51Z</time>
      </trkpt>
      <trkpt lat="48.07648" lon="-0.825">
        <ele>101.439493</ele>
        <time>2011-06-26T06:22:54Z</time>
      </trkpt>
      <trkpt lat="48.07653" lon="-0.82523">
        <ele>101.12632</ele>
        <time>2011-06-26T06:22:56Z</time>
      </trkpt>
      <trkpt lat="48.07659" lon="-0.82558">
        <ele>101.099843</ele>
        <time>2011-06-26T06:22:59Z</time>
      </trkpt>
      <trkpt lat="48.07665" lon="-0.8259">
        <ele>101.169164</ele>
        <time>2011-06-26T06:23:02Z</time>
      </trkpt>
      <trkpt lat="48.07671" lon="-0.82605">
        <ele>101.228835</ele>
        <time>2011-06-26T06:23:04Z</time>
      </trkpt>
      <trkpt lat="48.07672" lon="-0.82626">
        <ele>101.253954</ele>
        <time>2011-06-26T06:23:07Z</time>
      </trkpt>
      <trkpt lat="48.07664" lon="-0.82631">
        <ele>101.246777</ele>
        <time>2011-06-26T06:23:09Z</time>
      </trkpt>
      <trkpt lat="48.07655" lon="-0.82627">
        <ele>101.201595</ele>
        <time>2011-06-26T06:23:11Z</time>
      </trkpt>
      <trkpt lat="48.07655" lon="-0.82627">
        <ele>101.131262</ele>
        <time>2011-06-26T06:23:13Z</time>
      </trkpt>
      <trkpt lat="48.07645" lon="-0.82631">
        <ele>101.07541</ele>
        <time>2011-06-26T06:23:14Z</time>
      </trkpt>
      <trkpt lat="48.07641" lon="-0.82636">
        <ele>101.053452</ele>
        <time>2011-06-26T06:23:16Z</time>
      </trkpt>
      <trkpt lat="48.07635" lon="-0.82635">
        <ele>101.055769</ele>
        <time>2011-06-26T06:23:19Z</time>
      </trkpt>
      <trkpt lat="48.07635" lon="-0.82635">
        <ele>101.069171</ele>
        <time>2011-06-26T06:23:29Z</time>
      </trkpt>
      <trkpt lat="48.07635" lon="-0.82635">
        <ele>101.081505</ele>
        <time>2011-06-26T06:23:48Z</time>
      </trkpt>
      <trkpt lat="48.07644" lon="-0.82613">
        <ele>101.086962</ele>
        <time>2011-06-26T06:34:12Z</time>
      </trkpt>
      <trkpt lat="48.07646" lon="-0.82606">
        <ele>101.069252</ele>
        <time>2011-06-26T06:34:14Z</time>
      </trkpt>
      <trkpt lat="48.07649" lon="-0.82598">
        <ele>101.01863</ele>
        <time>2011-06-26T06:34:17Z</time>
      </trkpt>
      <trkpt lat="48.07654" lon="-0.82591">
        <ele>100.880368</ele>
        <time>2011-06-26T06:34:20Z</time>
      </trkpt>
      <trkpt lat="48.07658" lon="-0.82585">
        <ele>100.634254</ele>
        <time>2011-06-26T06:34:23Z</time>
      </trkpt>
      <trkpt lat="48.07657" lon="-0.82576">
        <ele>100.405065</ele>
        <time>2011-06-26T06:34:26Z</time>
      </trkpt>
      <trkpt lat="48.07655" lon="-0.82568">
        <ele>100.302846</ele>
        <time>2011-06-26T06:34:28Z</time>
      </trkpt>
      <trkpt lat="48.07653" lon="-0.82558">
        <ele>100.299463</ele>
        <time>2011-06-26T06:34:30Z</time>
      </trkpt>
      <trkpt lat="48.07651" lon="-0.82547">
        <ele>100.349114</ele>
        <time>2011-06-26T06:34:32Z</time>
      </trkpt>
      <trkpt lat="48.07649" lon="-0.82538">
        <ele>100.416319</ele>
        <time>2011-06-26T06:34:34Z</time>
      </trkpt>
      <trkpt lat="48.07647" lon="-0.82528">
        <ele>100.477121</ele>
        <time>2011-06-26T06:34:36Z</time>
      </trkpt>
      <trkpt lat="48.07644" lon="-0.82513">
        <ele>100.522812</ele>
        <time>2011-06-26T06:34:39Z</time>
      </trkpt>
      <trkpt lat="48.07642" lon="-0.82498">
        <ele>100.551772</ele>
        <time>2011-06-26T06:34:42Z</time>
      </trkpt>
      <trkpt lat="48.07639" lon="-0.82488">
        <ele>100.564893</ele>
        <time>2011-06-26T06:34:44Z</time>
      </trkpt>
      <trkpt lat="48.07638" lon="-0.82478">
        <ele>100.567544</ele>
        <time>2011-06-26T06:34:46Z</time>
      </trkpt>
      <trkpt lat="48.07635" lon="-0.82464">
        <ele>100.567069</ele>
        <time>2011-06-26T06:34:49Z</time>
      </trkpt>
      <trkpt lat="48.07633" lon="-0.82449">
        <ele>100.56749</ele>
        <time>2011-06-26T06:34:52Z</time>
      </trkpt>
      <trkpt lat="48.07631" lon="-0.82434">
        <ele>100.56923</ele>
        <time>2011-06-26T06:34:55Z</time>
      </trkpt>
      <trkpt lat="48.07629" lon="-0.82424">
        <ele>100.574987</ele>
        <time>2011-06-26T06:34:57Z</time>
      </trkpt>
      <trkpt lat="48.07626" lon="-0.82409">
        <ele>100.591746</ele>
        <time>2011-06-26T06:35:00Z</time>
      </trkpt>
      <trkpt lat="48.07624" lon="-0.824">
        <ele>100.623904</ele>
        <time>2011-06-26T06:35:02Z</time>
      </trkpt>
      <trkpt lat="48.07622" lon="-0.8239">
        <ele>100.667219</ele>
        <time>2011-06-26T06:35:04Z</time>
      </trkpt>
      <trkpt lat="48.0762" lon="-0.82381">
        <ele>100.719173</ele>
        <time>2011-06-26T06:35:06Z</time>
      </trkpt>
      <trkpt lat="48.07617" lon="-0.82366">
        <ele>100.78207</ele>
        <time>2011-06-26T06:35:09Z</time>
      </trkpt>
      <trkpt lat="48.07615" lon="-0.82351">
        <ele>100.85178</ele>
        <time>2011-06-26T06:35:12Z</time>
      </trkpt>
      <trkpt lat="48.07614" lon="-0.82341">
        <ele>100.918331</ele>
        <time>2011-06-26T06:35:14Z</time>
      </trkpt>
      <trkpt lat="48.07612" lon="-0.82326">
        <ele>100.978729</ele>
        <time>2011-06-26T06:35:17Z</time>
      </trkpt>
      <trkpt lat="48.07609" lon="-0.8231">
        <ele>101.036705</ele>
        <time>2011-06-26T06:35:20Z</time>
      </trkpt>
      <trkpt lat="48.07606" lon="-0.82301">
        <ele>101.093364</ele>
        <time>2011-06-26T06:35:22Z</time>
      </trkpt>
      <trkpt lat="48.07603" lon="-0.82292">
        <ele>101.147026</ele>
        <time>2011-06-26T06:35:24Z</time>
      </trkpt>
      <trkpt lat="48.07599" lon="-0.82284">
        <ele>101.200729</ele>
        <time>2011-06-26T06:35:26Z</time>
      </trkpt>
      <trkpt lat="48.07593" lon="-0.82272">
        <ele>101.256772</ele>
        <time>2011-06-26T06:35:29Z</time>
      </trkpt>
      <trkpt lat="48.07586" lon="-0.8226">
        <ele>101.312753</ele>
        <time>2011-06-26T06:35:32Z</time>
      </trkpt>
      <trkpt lat="48.07577" lon="-0.82249">
        <ele>101.368333</ele>
        <time>2011-06-26T06:35:35Z</time>
      </trkpt>
      <trkpt lat="48.07577" lon="-0.82249">
        <ele>101.417265</ele>
        <time>2011-06-26T06:35:35Z</time>
      </trkpt>
      <trkpt lat="48.07571" lon="-0.82243">
        <ele>101.460004</ele>
        <time>2011-06-26T06:35:37Z</time>
      </trkpt>
      <trkpt lat="48.07564" lon="-0.82229">
        <ele>101.606165</ele>
        <time>2011-06-26T06:35:40Z</time>
      </trkpt>
      <trkpt lat="48.07563" lon="-0.82217">
        <ele>101.997334</ele>
        <time>2011-06-26T06:35:42Z</time>
      </trkpt>
      <trkpt lat="48.07565" lon="-0.82206">
        <ele>102.521508</ele>
        <time>2011-06-26T06:35:44Z</time>
      </trkpt>
      <trkpt lat="48.07566" lon="-0.82195">
        <ele>102.952111</ele>
        <time>2011-06-26T06:35:46Z</time>
      </trkpt>
      <trkpt lat="48.07566" lon="-0.82195">
        <ele>103.226768</ele>
        <time>2011-06-26T06:35:47Z</time>
      </trkpt>
      <trkpt lat="48.07564" lon="-0.8218">
        <ele>103.383133</ele>
        <time>2011-06-26T06:35:49Z</time>
      </trkpt>
      <trkpt lat="48.07563" lon="-0.82168">
        <ele>103.468762</ele>
        <time>2011-06-26T06:35:51Z</time>
      </trkpt>
      <trkpt lat="48.07562" lon="-0.82154">
        <ele>103.525996</ele>
        <time>2011-06-26T06:35:54Z</time>
      </trkpt>
      <trkpt lat="48.07558" lon="-0.82137">
        <ele>103.559243</ele>
        <time>2011-06-26T06:35:57Z</time>
      </trkpt>
      <trkpt lat="48.07556" lon="-0.82125">
        <ele>103.576288</ele>
        <time>2011-06-26T06:35:59Z</time>
      </trkpt>
      <trkpt lat="48.07554" lon="-0.82107">
        <ele>103.583504</ele>
        <time>2011-06-26T06:36:02Z</time>
      </trkpt>
      <trkpt lat="48.07551" lon="-0.82088">
        <ele>103.584073</ele>
        <time>2011-06-26T06:36:05Z</time>
      </trkpt>
      <trkpt lat="48.0755" lon="-0.82078">
        <ele>103.548725</ele>
        <time>2011-06-26T06:36:07Z</time>
      </trkpt>
      <trkpt lat="48.07551" lon="-0.82068">
        <ele>103.382533</ele>
        <time>2011-06-26T06:36:09Z</time>
      </trkpt>
      <trkpt lat="48.0755" lon="-0.82053">
        <ele>103.050804</ele>
        <time>2011-06-26T06:36:12Z</time>
      </trkpt>
      <trkpt lat="48.07552" lon="-0.82041">
        <ele>102.691052</ele>
        <time>2011-06-26T06:36:15Z</time>
      </trkpt>
      <trkpt lat="48.07553" lon="-0.82031">
        <ele>102.451342</ele>
        <time>2011-06-26T06:36:17Z</time>
      </trkpt>
      <trkpt lat="48.07553" lon="-0.82019">
        <ele>102.314793</ele>
        <time>2011-06-26T06:36:19Z</time>
      </trkpt>
      <trkpt lat="48.07556" lon="-0.82002">
        <ele>102.172004</ele>
        <time>2011-06-26T06:36:22Z</time>
      </trkpt>
      <trkpt lat="48.07558" lon="-0.8199">
        <ele>101.9674</ele>
        <time>2011-06-26T06:36:24Z</time>
      </trkpt>
      <trkpt lat="48.07562" lon="-0.81973">
        <ele>101.722609</ele>
        <time>2011-06-26T06:36:27Z</time>
      </trkpt>
      <trkpt lat="48.07564" lon="-0.81962">
        <ele>101.464723</ele>
        <time>2011-06-26T06:36:29Z</time>
      </trkpt>
      <trkpt lat="48.07563" lon="-0.81948">
        <ele>101.216553</ele>
        <time>2011-06-26T06:36:32Z</time>
      </trkpt>
      <trkpt lat="48.07562" lon="-0.81939">
        <ele>100.994356</ele>
        <time>2011-06-26T06:36:34Z</time>
      </trkpt>
      <trkpt lat="48.0756" lon="-0.81921">
        <ele>100.781286</ele>
        <time>2011-06-26T06:36:37Z</time>
      </trkpt>
      <trkpt lat="48.07556" lon="-0.81909">
        <ele>100.544733</ele>
        <time>2011-06-26T06:36:39Z</time>
      </trkpt>
      <trkpt lat="48.07552" lon="-0.8189">
        <ele>100.280272</ele>
        <time>2011-06-26T06:36:42Z</time>
      </trkpt>
      <trkpt lat="48.07549" lon="-0.81877">
        <ele>99.634021</ele>
        <time>2011-06-26T06:36:44Z</time>
      </trkpt>
      <trkpt lat="48.07546" lon="-0.81858">
        <ele>98.201965</ele>
        <time>2011-06-26T06:36:47Z</time>
      </trkpt>
      <trkpt lat="48.07541" lon="-0.81838">
        <ele>96.2238</ele>
        <time>2011-06-26T06:36:50Z</time>
      </trkpt>
      <trkpt lat="48.07538" lon="-0.81822">
        <ele>94.357194</ele>
        <time>2011-06-26T06:36:53Z</time>
      </trkpt>
      <trkpt lat="48.07538" lon="-0.81822">
        <ele>93.092135</ele>
        <time>2011-06-26T06:36:54Z</time>
      </trkpt>
      <trkpt lat="48.07535" lon="-0.81811">
        <ele>92.393087</ele>
        <time>2011-06-26T06:36:55Z</time>
      </trkpt>
      <trkpt lat="48.07531" lon="-0.81791">
        <ele>91.720877</ele>
        <time>2011-06-26T06:36:58Z</time>
      </trkpt>
      <trkpt lat="48.07527" lon="-0.8177">
        <ele>90.890888</ele>
        <time>2011-06-26T06:37:01Z</time>
      </trkpt>
      <trkpt lat="48.07523" lon="-0.81747">
        <ele>90.19998</ele>
        <time>2011-06-26T06:37:04Z</time>
      </trkpt>
      <trkpt lat="48.07521" lon="-0.81732">
        <ele>89.82689</ele>
        <time>2011-06-26T06:37:06Z</time>
      </trkpt>
      <trkpt lat="48.07519" lon="-0.81715">
        <ele>89.743195</ele>
        <time>2011-06-26T06:37:08Z</time>
      </trkpt>
      <trkpt lat="48.07518" lon="-0.81699">
        <ele>89.841625</ele>
        <time>2011-06-26T06:37:10Z</time>
      </trkpt>
      <trkpt lat="48.07518" lon="-0.81699">
        <ele>89.969209</ele>
        <time>2011-06-26T06:37:12Z</time>
      </trkpt>
      <trkpt lat="48.07515" lon="-0.81675">
        <ele>90.193315</ele>
        <time>2011-06-26T06:37:13Z</time>
      </trkpt>
      <trkpt lat="48.07513" lon="-0.81657">
        <ele>90.931979</ele>
        <time>2011-06-26T06:37:15Z</time>
      </trkpt>
      <trkpt lat="48.07509" lon="-0.81632">
        <ele>92.33926</ele>
        <time>2011-06-26T06:37:18Z</time>
      </trkpt>
      <trkpt lat="48.07505" lon="-0.81608">
        <ele>94.07834</ele>
        <time>2011-06-26T06:37:21Z</time>
      </trkpt>
      <trkpt lat="48.07503" lon="-0.81593">
        <ele>95.848611</ele>
        <time>2011-06-26T06:37:23Z</time>
      </trkpt>
      <trkpt lat="48.075" lon="-0.81572">
        <ele>97.549459</ele>
        <time>2011-06-26T06:37:26Z</time>
      </trkpt>
      <trkpt lat="48.07498" lon="-0.8155">
        <ele>99.065827</ele>
        <time>2011-06-26T06:37:29Z</time>
      </trkpt>
      <trkpt lat="48.07497" lon="-0.81536">
        <ele>100.273172</ele>
        <time>2011-06-26T06:37:31Z</time>
      </trkpt>
      <trkpt lat="48.07495" lon="-0.81513">
        <ele>101.113635</ele>
        <time>2011-06-26T06:37:34Z</time>
      </trkpt>
      <trkpt lat="48.07495" lon="-0.81496">
        <ele>101.682356</ele>
        <time>2011-06-26T06:37:36Z</time>
      </trkpt>
      <trkpt lat="48.07495" lon="-0.81477">
        <ele>102.13515</ele>
        <time>2011-06-26T06:37:38Z</time>
      </trkpt>
      <trkpt lat="48.07498" lon="-0.8145">
        <ele>102.507092</ele>
        <time>2011-06-26T06:37:41Z</time>
      </trkpt>
      <trkpt lat="48.075" lon="-0.81433">
        <ele>102.725447</ele>
        <time>2011-06-26T06:37:43Z</time>
      </trkpt>
      <trkpt lat="48.07502" lon="-0.81409">
        <ele>102.783668</ele>
        <time>2011-06-26T06:37:46Z</time>
      </trkpt>
      <trkpt lat="48.07502" lon="-0.81394">
        <ele>102.73719</ele>
        <time>2011-06-26T06:37:48Z</time>
      </trkpt>
      <trkpt lat="48.07502" lon="-0.81371">
        <ele>102.483596</ele>
        <time>2011-06-26T06:37:51Z</time>
      </trkpt>
      <trkpt lat="48.07501" lon="-0.81354">
        <ele>102.000024</ele>
        <time>2011-06-26T06:37:53Z</time>
      </trkpt>
      <trkpt lat="48.075" lon="-0.81341">
        <ele>101.558548</ele>
        <time>2011-06-26T06:37:55Z</time>
      </trkpt>
      <trkpt lat="48.07499" lon="-0.81319">
        <ele>101.364353</ele>
        <time>2011-06-26T06:37:58Z</time>
      </trkpt>
      <trkpt lat="48.07498" lon="-0.81304">
        <ele>101.480015</ele>
        <time>2011-06-26T06:38:00Z</time>
      </trkpt>
      <trkpt lat="48.07497" lon="-0.8128">
        <ele>101.90229</ele>
        <time>2011-06-26T06:38:03Z</time>
      </trkpt>
      <trkpt lat="48.07494" lon="-0.81268">
        <ele>102.72542</ele>
        <time>2011-06-26T06:38:05Z</time>
      </trkpt>
      <trkpt lat="48.07486" lon="-0.81261">
        <ele>104.049905</ele>
        <time>2011-06-26T06:38:08Z</time>
      </trkpt>
      <trkpt lat="48.07479" lon="-0.8126">
        <ele>105.449189</ele>
        <time>2011-06-26T06:38:10Z</time>
      </trkpt>
      <trkpt lat="48.07469" lon="-0.81259">
        <ele>106.297609</ele>
        <time>2011-06-26T06:38:12Z</time>
      </trkpt>
      <trkpt lat="48.07453" lon="-0.81257">
        <ele>106.565371</ele>
        <time>2011-06-26T06:38:15Z</time>
      </trkpt>
      <trkpt lat="48.07441" lon="-0.81256">
        <ele>106.574311</ele>
        <time>2011-06-26T06:38:17Z</time>
      </trkpt>
      <trkpt lat="48.07422" lon="-0.81254">
        <ele>106.562778</ele>
        <time>2011-06-26T06:38:20Z</time>
      </trkpt>
      <trkpt lat="48.0741" lon="-0.81253">
        <ele>106.576382</ele>
        <time>2011-06-26T06:38:22Z</time>
      </trkpt>
      <trkpt lat="48.07391" lon="-0.81252">
        <ele>106.589899</ele>
        <time>2011-06-26T06:38:25Z</time>
      </trkpt>
      <trkpt lat="48.07366" lon="-0.8125">
        <ele>106.545892</ele>
        <time>2011-06-26T06:38:28Z</time>
      </trkpt>
      <trkpt lat="48.07347" lon="-0.81248">
        <ele>106.365711</ele>
        <time>2011-06-26T06:38:31Z</time>
      </trkpt>
      <trkpt lat="48.07334" lon="-0.81247">
        <ele>106.030735</ele>
        <time>2011-06-26T06:38:33Z</time>
      </trkpt>
      <trkpt lat="48.07315" lon="-0.81245">
        <ele>105.596907</ele>
        <time>2011-06-26T06:38:36Z</time>
      </trkpt>
      <trkpt lat="48.07302" lon="-0.81244">
        <ele>105.157128</ele>
        <time>2011-06-26T06:38:38Z</time>
      </trkpt>
      <trkpt lat="48.07289" lon="-0.81242">
        <ele>104.801986</ele>
        <time>2011-06-26T06:38:40Z</time>
      </trkpt>
      <trkpt lat="48.07279" lon="-0.81241">
        <ele>104.542702</ele>
        <time>2011-06-26T06:38:42Z</time>
      </trkpt>
      <trkpt lat="48.0727" lon="-0.8125">
        <ele>104.319278</ele>
        <time>2011-06-26T06:38:45Z</time>
      </trkpt>
      <trkpt lat="48.07266" lon="-0.81263">
        <ele>104.067946</ele>
        <time>2011-06-26T06:38:47Z</time>
      </trkpt>
      <trkpt lat="48.07262" lon="-0.81287">
        <ele>103.78419</ele>
        <time>2011-06-26T06:38:50Z</time>
      </trkpt>
      <trkpt lat="48.07259" lon="-0.81309">
        <ele>103.481585</ele>
        <time>2011-06-26T06:38:53Z</time>
      </trkpt>
      <trkpt lat="48.07257" lon="-0.81319">
        <ele>103.16741</ele>
        <time>2011-06-26T06:38:55Z</time>
      </trkpt>
      <trkpt lat="48.07249" lon="-0.81326">
        <ele>102.864415</ele>
        <time>2011-06-26T06:38:58Z</time>
      </trkpt>
      <trkpt lat="48.07239" lon="-0.81318">
        <ele>102.5862</ele>
        <time>2011-06-26T06:39:00Z</time>
      </trkpt>
      <trkpt lat="48.07222" lon="-0.81307">
        <ele>102.348662</ele>
        <time>2011-06-26T06:39:03Z</time>
      </trkpt>
      <trkpt lat="48.07205" lon="-0.81296">
        <ele>102.193544</ele>
        <time>2011-06-26T06:39:06Z</time>
      </trkpt>
      <trkpt lat="48.07187" lon="-0.81289">
        <ele>102.056451</ele>
        <time>2011-06-26T06:39:09Z</time>
      </trkpt>
      <trkpt lat="48.07169" lon="-0.81294">
        <ele>101.790058</ele>
        <time>2011-06-26T06:39:12Z</time>
      </trkpt>
      <trkpt lat="48.07158" lon="-0.81299">
        <ele>101.372452</ele>
        <time>2011-06-26T06:39:14Z</time>
      </trkpt>
      <trkpt lat="48.07143" lon="-0.81307">
        <ele>100.898625</ele>
        <time>2011-06-26T06:39:17Z</time>
      </trkpt>
      <trkpt lat="48.07134" lon="-0.81312">
        <ele>100.452074</ele>
        <time>2011-06-26T06:39:19Z</time>
      </trkpt>
      <trkpt lat="48.07122" lon="-0.81329">
        <ele>100.104355</ele>
        <time>2011-06-26T06:39:22Z</time>
      </trkpt>
      <trkpt lat="48.07113" lon="-0.81345">
        <ele>99.864625</ele>
        <time>2011-06-26T06:39:24Z</time>
      </trkpt>
      <trkpt lat="48.07099" lon="-0.81367">
        <ele>99.678099</ele>
        <time>2011-06-26T06:39:27Z</time>
      </trkpt>
      <trkpt lat="48.07091" lon="-0.81382">
        <ele>99.505389</ele>
        <time>2011-06-26T06:39:29Z</time>
      </trkpt>
      <trkpt lat="48.07082" lon="-0.81397">
        <ele>99.297763</ele>
        <time>2011-06-26T06:39:31Z</time>
      </trkpt>
      <trkpt lat="48.07072" lon="-0.81412">
        <ele>98.977069</ele>
        <time>2011-06-26T06:39:33Z</time>
      </trkpt>
      <trkpt lat="48.07059" lon="-0.8143">
        <ele>98.59306</ele>
        <time>2011-06-26T06:39:36Z</time>
      </trkpt>
      <trkpt lat="48.07051" lon="-0.81442">
        <ele>98.315076</ele>
        <time>2011-06-26T06:39:38Z</time>
      </trkpt>
      <trkpt lat="48.07037" lon="-0.81454">
        <ele>98.215455</ele>
        <time>2011-06-26T06:39:41Z</time>
      </trkpt>
      <trkpt lat="48.07021" lon="-0.81471">
        <ele>98.220031</ele>
        <time>2011-06-26T06:39:44Z</time>
      </trkpt>
      <trkpt lat="48.0701" lon="-0.81482">
        <ele>98.266199</ele>
        <time>2011-06-26T06:39:46Z</time>
      </trkpt>
      <trkpt lat="48.06993" lon="-0.81499">
        <ele>98.325488</ele>
        <time>2011-06-26T06:39:49Z</time>
      </trkpt>
      <trkpt lat="48.06977" lon="-0.81512">
        <ele>98.370732</ele>
        <time>2011-06-26T06:39:52Z</time>
      </trkpt>
      <trkpt lat="48.0696" lon="-0.81524">
        <ele>98.387861</ele>
        <time>2011-06-26T06:39:55Z</time>
      </trkpt>
      <trkpt lat="48.0695" lon="-0.81531">
        <ele>98.278223</ele>
        <time>2011-06-26T06:39:57Z</time>
      </trkpt>
      <trkpt lat="48.06939" lon="-0.81538">
        <ele>97.839108</ele>
        <time>2011-06-26T06:39:59Z</time>
      </trkpt>
      <trkpt lat="48.06929" lon="-0.81544">
        <ele>97.155049</ele>
        <time>2011-06-26T06:40:01Z</time>
      </trkpt>
      <trkpt lat="48.06914" lon="-0.81554">
        <ele>96.617078</ele>
        <time>2011-06-26T06:40:04Z</time>
      </trkpt>
      <trkpt lat="48.06901" lon="-0.81562">
        <ele>96.407446</ele>
        <time>2011-06-26T06:40:07Z</time>
      </trkpt>
      <trkpt lat="48.06887" lon="-0.81567">
        <ele>96.438231</ele>
        <time>2011-06-26T06:40:10Z</time>
      </trkpt>
      <trkpt lat="48.06878" lon="-0.81569">
        <ele>96.628275</ele>
        <time>2011-06-26T06:40:12Z</time>
      </trkpt>
      <trkpt lat="48.06868" lon="-0.81571">
        <ele>96.903232</ele>
        <time>2011-06-26T06:40:15Z</time>
      </trkpt>
      <trkpt lat="48.06868" lon="-0.81571">
        <ele>97.149325</ele>
        <time>2011-06-26T06:40:15Z</time>
      </trkpt>
      <trkpt lat="48.06862" lon="-0.81574">
        <ele>97.324634</ele>
        <time>2011-06-26T06:40:22Z</time>
      </trkpt>
      <trkpt lat="48.06858" lon="-0.81577">
        <ele>97.513133</ele>
        <time>2011-06-26T06:40:24Z</time>
      </trkpt>
      <trkpt lat="48.06856" lon="-0.81583">
        <ele>97.740496</ele>
        <time>2011-06-26T06:40:27Z</time>
      </trkpt>
      <trkpt lat="48.06851" lon="-0.8159">
        <ele>97.908888</ele>
        <time>2011-06-26T06:40:30Z</time>
      </trkpt>
      <trkpt lat="48.06843" lon="-0.81593">
        <ele>97.95414</ele>
        <time>2011-06-26T06:40:33Z</time>
      </trkpt>
      <trkpt lat="48.06843" lon="-0.81593">
        <ele>97.909448</ele>
        <time>2011-06-26T06:40:33Z</time>
      </trkpt>
      <trkpt lat="48.06837" lon="-0.81599">
        <ele>97.846354</ele>
        <time>2011-06-26T06:40:36Z</time>
      </trkpt>
      <trkpt lat="48.0683" lon="-0.81604">
        <ele>97.800459</ele>
        <time>2011-06-26T06:40:39Z</time>
      </trkpt>
      <trkpt lat="48.0682" lon="-0.81608">
        <ele>97.755772</ele>
        <time>2011-06-26T06:40:41Z</time>
      </trkpt>
      <trkpt lat="48.06811" lon="-0.81613">
        <ele>97.69976</ele>
        <time>2011-06-26T06:40:43Z</time>
      </trkpt>
      <trkpt lat="48.06801" lon="-0.81619">
        <ele>97.628441</ele>
        <time>2011-06-26T06:40:45Z</time>
      </trkpt>
      <trkpt lat="48.06786" lon="-0.81628">
        <ele>97.456194</ele>
        <time>2011-06-26T06:40:48Z</time>
      </trkpt>
      <trkpt lat="48.06772" lon="-0.81636">
        <ele>97.085329</ele>
        <time>2011-06-26T06:40:51Z</time>
      </trkpt>
      <trkpt lat="48.06762" lon="-0.81642">
        <ele>96.56516</ele>
        <time>2011-06-26T06:40:53Z</time>
      </trkpt>
      <trkpt lat="48.06749" lon="-0.81651">
        <ele>96.004562</ele>
        <time>2011-06-26T06:40:56Z</time>
      </trkpt>
      <trkpt lat="48.06736" lon="-0.81657">
        <ele>95.508112</ele>
        <time>2011-06-26T06:40:59Z</time>
      </trkpt>
      <trkpt lat="48.06727" lon="-0.81658">
        <ele>95.180096</ele>
        <time>2011-06-26T06:41:01Z</time>
      </trkpt>
      <trkpt lat="48.06713" lon="-0.81665">
        <ele>95.018174</ele>
        <time>2011-06-26T06:41:04Z</time>
      </trkpt>
      <trkpt lat="48.06704" lon="-0.8167">
        <ele>94.952903</ele>
        <time>2011-06-26T06:41:06Z</time>
      </trkpt>
      <trkpt lat="48.06689" lon="-0.81679">
        <ele>94.935345</ele>
        <time>2011-06-26T06:41:09Z</time>
      </trkpt>
      <trkpt lat="48.06675" lon="-0.81687">
        <ele>94.726426</ele>
        <time>2011-06-26T06:41:12Z</time>
      </trkpt>
      <trkpt lat="48.06666" lon="-0.81692">
        <ele>93.962619</ele>
        <time>2011-06-26T06:41:14Z</time>
      </trkpt>
      <trkpt lat="48.06652" lon="-0.81701">
        <ele>92.488267</ele>
        <time>2011-06-26T06:41:17Z</time>
      </trkpt>
      <trkpt lat="48.06642" lon="-0.81707">
        <ele>90.622316</ele>
        <time>2011-06-26T06:41:19Z</time>
      </trkpt>
      <trkpt lat="48.06627" lon="-0.81717">
        <ele>89.060291</ele>
        <time>2011-06-26T06:41:22Z</time>
      </trkpt>
      <trkpt lat="48.06612" lon="-0.81727">
        <ele>88.280999</ele>
        <time>2011-06-26T06:41:25Z</time>
      </trkpt>
      <trkpt lat="48.06597" lon="-0.81737">
        <ele>88.140054</ele>
        <time>2011-06-26T06:41:28Z</time>
      </trkpt>
      <trkpt lat="48.06587" lon="-0.81743">
        <ele>88.334509</ele>
        <time>2011-06-26T06:41:30Z</time>
      </trkpt>
      <trkpt lat="48.06577" lon="-0.8175">
        <ele>88.732963</ele>
        <time>2011-06-26T06:41:32Z</time>
      </trkpt>
      <trkpt lat="48.06562" lon="-0.81762">
        <ele>89.233175</ele>
        <time>2011-06-26T06:41:35Z</time>
      </trkpt>
      <trkpt lat="48.06548" lon="-0.81774">
        <ele>89.681162</ele>
        <time>2011-06-26T06:41:38Z</time>
      </trkpt>
      <trkpt lat="48.06548" lon="-0.81774">
        <ele>89.964296</ele>
        <time>2011-06-26T06:41:38Z</time>
      </trkpt>
      <trkpt lat="48.06533" lon="-0.81787">
        <ele>90.081189</ele>
        <time>2011-06-26T06:41:41Z</time>
      </trkpt>
      <trkpt lat="48.06518" lon="-0.81802">
        <ele>90.126765</ele>
        <time>2011-06-26T06:41:44Z</time>
      </trkpt>
      <trkpt lat="48.06509" lon="-0.81812">
        <ele>90.172357</ele>
        <time>2011-06-26T06:41:46Z</time>
      </trkpt>
      <trkpt lat="48.06496" lon="-0.81826">
        <ele>90.242082</ele>
        <time>2011-06-26T06:41:49Z</time>
      </trkpt>
      <trkpt lat="48.06488" lon="-0.81835">
        <ele>90.369923</ele>
        <time>2011-06-26T06:41:51Z</time>
      </trkpt>
      <trkpt lat="48.06477" lon="-0.81847">
        <ele>90.581664</ele>
        <time>2011-06-26T06:41:54Z</time>
      </trkpt>
      <trkpt lat="48.0647" lon="-0.81854">
        <ele>90.877558</ele>
        <time>2011-06-26T06:41:56Z</time>
      </trkpt>
      <trkpt lat="48.06458" lon="-0.81869">
        <ele>91.193208</ele>
        <time>2011-06-26T06:41:59Z</time>
      </trkpt>
      <trkpt lat="48.06451" lon="-0.8188">
        <ele>91.411058</ele>
        <time>2011-06-26T06:42:01Z</time>
      </trkpt>
      <trkpt lat="48.0644" lon="-0.81897">
        <ele>91.499335</ele>
        <time>2011-06-26T06:42:04Z</time>
      </trkpt>
      <trkpt lat="48.06433" lon="-0.81909">
        <ele>91.538207</ele>
        <time>2011-06-26T06:42:06Z</time>
      </trkpt>
      <trkpt lat="48.06422" lon="-0.81929">
        <ele>91.565678</ele>
        <time>2011-06-26T06:42:09Z</time>
      </trkpt>
      <trkpt lat="48.06411" lon="-0.8195">
        <ele>91.562846</ele>
        <time>2011-06-26T06:42:12Z</time>
      </trkpt>
      <trkpt lat="48.064" lon="-0.81973">
        <ele>91.537253</ele>
        <time>2011-06-26T06:42:15Z</time>
      </trkpt>
      <trkpt lat="48.06393" lon="-0.81988">
        <ele>91.518236</ele>
        <time>2011-06-26T06:42:17Z</time>
      </trkpt>
      <trkpt lat="48.06383" lon="-0.82011">
        <ele>91.488847</ele>
        <time>2011-06-26T06:42:20Z</time>
      </trkpt>
      <trkpt lat="48.06376" lon="-0.82028">
        <ele>91.396333</ele>
        <time>2011-06-26T06:42:22Z</time>
      </trkpt>
      <trkpt lat="48.06367" lon="-0.82052">
        <ele>91.220266</ele>
        <time>2011-06-26T06:42:25Z</time>
      </trkpt>
      <trkpt lat="48.06362" lon="-0.82067">
        <ele>91.011403</ele>
        <time>2011-06-26T06:42:27Z</time>
      </trkpt>
      <trkpt lat="48.06357" lon="-0.82082">
        <ele>90.803839</ele>
        <time>2011-06-26T06:42:29Z</time>
      </trkpt>
      <trkpt lat="48.0635" lon="-0.82105">
        <ele>90.536343</ele>
        <time>2011-06-26T06:42:32Z</time>
      </trkpt>
      <trkpt lat="48.06347" lon="-0.82119">
        <ele>90.170247</ele>
        <time>2011-06-26T06:42:34Z</time>
      </trkpt>
      <trkpt lat="48.06342" lon="-0.82144">
        <ele>89.818517</ele>
        <time>2011-06-26T06:42:37Z</time>
      </trkpt>
      <trkpt lat="48.06339" lon="-0.82162">
        <ele>89.616126</ele>
        <time>2011-06-26T06:42:39Z</time>
      </trkpt>
      <trkpt lat="48.06333" lon="-0.82189">
        <ele>89.527552</ele>
        <time>2011-06-26T06:42:42Z</time>
      </trkpt>
      <trkpt lat="48.06328" lon="-0.82207">
        <ele>89.425046</ele>
        <time>2011-06-26T06:42:44Z</time>
      </trkpt>
      <trkpt lat="48.06323" lon="-0.82224">
        <ele>89.273077</ele>
        <time>2011-06-26T06:42:46Z</time>
      </trkpt>
      <trkpt lat="48.06314" lon="-0.8225">
        <ele>89.10907</ele>
        <time>2011-06-26T06:42:49Z</time>
      </trkpt>
      <trkpt lat="48.06305" lon="-0.82275">
        <ele>88.968941</ele>
        <time>2011-06-26T06:42:52Z</time>
      </trkpt>
      <trkpt lat="48.06299" lon="-0.82291">
        <ele>88.827115</ele>
        <time>2011-06-26T06:42:54Z</time>
      </trkpt>
      <trkpt lat="48.06286" lon="-0.82315">
        <ele>88.543565</ele>
        <time>2011-06-26T06:42:57Z</time>
      </trkpt>
      <trkpt lat="48.06277" lon="-0.82332">
        <ele>88.077451</ele>
        <time>2011-06-26T06:42:59Z</time>
      </trkpt>
      <trkpt lat="48.06267" lon="-0.82347">
        <ele>87.565163</ele>
        <time>2011-06-26T06:43:01Z</time>
      </trkpt>
      <trkpt lat="48.06254" lon="-0.82371">
        <ele>87.02095</ele>
        <time>2011-06-26T06:43:04Z</time>
      </trkpt>
      <trkpt lat="48.06245" lon="-0.82386">
        <ele>86.414259</ele>
        <time>2011-06-26T06:43:06Z</time>
      </trkpt>
      <trkpt lat="48.06235" lon="-0.82403">
        <ele>85.915718</ele>
        <time>2011-06-26T06:43:08Z</time>
      </trkpt>
      <trkpt lat="48.06221" lon="-0.82426">
        <ele>85.676042</ele>
        <time>2011-06-26T06:43:11Z</time>
      </trkpt>
      <trkpt lat="48.06207" lon="-0.82446">
        <ele>85.62661</ele>
        <time>2011-06-26T06:43:14Z</time>
      </trkpt>
      <trkpt lat="48.06198" lon="-0.82458">
        <ele>85.636239</ele>
        <time>2011-06-26T06:43:16Z</time>
      </trkpt>
      <trkpt lat="48.06187" lon="-0.8247">
        <ele>85.645107</ele>
        <time>2011-06-26T06:43:18Z</time>
      </trkpt>
      <trkpt lat="48.06176" lon="-0.82482">
        <ele>85.593887</ele>
        <time>2011-06-26T06:43:20Z</time>
      </trkpt>
      <trkpt lat="48.06164" lon="-0.82495">
        <ele>85.410633</ele>
        <time>2011-06-26T06:43:22Z</time>
      </trkpt>
      <trkpt lat="48.06152" lon="-0.82509">
        <ele>85.136693</ele>
        <time>2011-06-26T06:43:24Z</time>
      </trkpt>
      <trkpt lat="48.06133" lon="-0.82527">
        <ele>84.899456</ele>
        <time>2011-06-26T06:43:27Z</time>
      </trkpt>
      <trkpt lat="48.06116" lon="-0.82544">
        <ele>84.763747</ele>
        <time>2011-06-26T06:43:30Z</time>
      </trkpt>
      <trkpt lat="48.06104" lon="-0.82555">
        <ele>84.670071</ele>
        <time>2011-06-26T06:43:32Z</time>
      </trkpt>
      <trkpt lat="48.06085" lon="-0.8257">
        <ele>84.448497</ele>
        <time>2011-06-26T06:43:35Z</time>
      </trkpt>
      <trkpt lat="48.06073" lon="-0.82578">
        <ele>83.99185</ele>
        <time>2011-06-26T06:43:37Z</time>
      </trkpt>
      <trkpt lat="48.06056" lon="-0.8259">
        <ele>83.410887</ele>
        <time>2011-06-26T06:43:40Z</time>
      </trkpt>
      <trkpt lat="48.06044" lon="-0.82597">
        <ele>82.930542</ele>
        <time>2011-06-26T06:43:42Z</time>
      </trkpt>
      <trkpt lat="48.06026" lon="-0.82607">
        <ele>82.676312</ele>
        <time>2011-06-26T06:43:45Z</time>
      </trkpt>
      <trkpt lat="48.06026" lon="-0.82607">
        <ele>82.607752</ele>
        <time>2011-06-26T06:43:45Z</time>
      </trkpt>
      <trkpt lat="48.06007" lon="-0.82617">
        <ele>82.606483</ele>
        <time>2011-06-26T06:43:48Z</time>
      </trkpt>
      <trkpt lat="48.05989" lon="-0.82625">
        <ele>82.598225</ele>
        <time>2011-06-26T06:43:51Z</time>
      </trkpt>
      <trkpt lat="48.05969" lon="-0.82631">
        <ele>82.569507</ele>
        <time>2011-06-26T06:43:54Z</time>
      </trkpt>
      <trkpt lat="48.05949" lon="-0.82633">
        <ele>82.484412</ele>
        <time>2011-06-26T06:43:57Z</time>
      </trkpt>
      <trkpt lat="48.05927" lon="-0.82631">
        <ele>82.188715</ele>
        <time>2011-06-26T06:44:00Z</time>
      </trkpt>
      <trkpt lat="48.05913" lon="-0.8263">
        <ele>81.603088</ele>
        <time>2011-06-26T06:44:02Z</time>
      </trkpt>
      <trkpt lat="48.05893" lon="-0.82627">
        <ele>80.915628</ele>
        <time>2011-06-26T06:44:05Z</time>
      </trkpt>
      <trkpt lat="48.05879" lon="-0.82624">
        <ele>80.297977</ele>
        <time>2011-06-26T06:44:07Z</time>
      </trkpt>
      <trkpt lat="48.05865" lon="-0.82621">
        <ele>79.759167</ele>
        <time>2011-06-26T06:44:09Z</time>
      </trkpt>
      <trkpt lat="48.0585" lon="-0.82619">
        <ele>79.231073</ele>
        <time>2011-06-26T06:44:11Z</time>
      </trkpt>
      <trkpt lat="48.05836" lon="-0.82616">
        <ele>78.659323</ele>
        <time>2011-06-26T06:44:13Z</time>
      </trkpt>
      <trkpt lat="48.05823" lon="-0.82612">
        <ele>78.162893</ele>
        <time>2011-06-26T06:44:15Z</time>
      </trkpt>
      <trkpt lat="48.05804" lon="-0.82607">
        <ele>77.907856</ele>
        <time>2011-06-26T06:44:18Z</time>
      </trkpt>
      <trkpt lat="48.05786" lon="-0.82601">
        <ele>77.857187</ele>
        <time>2011-06-26T06:44:21Z</time>
      </trkpt>
      <trkpt lat="48.05768" lon="-0.82595">
        <ele>77.891132</ele>
        <time>2011-06-26T06:44:24Z</time>
      </trkpt>
      <trkpt lat="48.05755" lon="-0.82591">
        <ele>77.93076</ele>
        <time>2011-06-26T06:44:26Z</time>
      </trkpt>
      <trkpt lat="48.05743" lon="-0.82587">
        <ele>77.942134</ele>
        <time>2011-06-26T06:44:28Z</time>
      </trkpt>
      <trkpt lat="48.05724" lon="-0.82582">
        <ele>77.908199</ele>
        <time>2011-06-26T06:44:31Z</time>
      </trkpt>
      <trkpt lat="48.05706" lon="-0.82576">
        <ele>77.798847</ele>
        <time>2011-06-26T06:44:34Z</time>
      </trkpt>
      <trkpt lat="48.05694" lon="-0.82573">
        <ele>77.60024</ele>
        <time>2011-06-26T06:44:36Z</time>
      </trkpt>
      <trkpt lat="48.05682" lon="-0.82571">
        <ele>77.317469</ele>
        <time>2011-06-26T06:44:38Z</time>
      </trkpt>
      <trkpt lat="48.05664" lon="-0.82567">
        <ele>77.009671</ele>
        <time>2011-06-26T06:44:41Z</time>
      </trkpt>
      <trkpt lat="48.05652" lon="-0.82563">
        <ele>76.792736</ele>
        <time>2011-06-26T06:44:43Z</time>
      </trkpt>
      <trkpt lat="48.05633" lon="-0.82558">
        <ele>76.717307</ele>
        <time>2011-06-26T06:44:46Z</time>
      </trkpt>
      <trkpt lat="48.05621" lon="-0.82554">
        <ele>76.701653</ele>
        <time>2011-06-26T06:44:48Z</time>
      </trkpt>
      <trkpt lat="48.05601" lon="-0.82547">
        <ele>76.694274</ele>
        <time>2011-06-26T06:44:51Z</time>
      </trkpt>
      <trkpt lat="48.05581" lon="-0.82539">
        <ele>76.73022</ele>
        <time>2011-06-26T06:44:54Z</time>
      </trkpt>
      <trkpt lat="48.05568" lon="-0.82533">
        <ele>76.847875</ele>
        <time>2011-06-26T06:44:56Z</time>
      </trkpt>
      <trkpt lat="48.05555" lon="-0.82527">
        <ele>77.081675</ele>
        <time>2011-06-26T06:44:58Z</time>
      </trkpt>
      <trkpt lat="48.05542" lon="-0.8252">
        <ele>77.384643</ele>
        <time>2011-06-26T06:45:00Z</time>
      </trkpt>
      <trkpt lat="48.05528" lon="-0.82513">
        <ele>77.647861</ele>
        <time>2011-06-26T06:45:02Z</time>
      </trkpt>
      <trkpt lat="48.05509" lon="-0.82502">
        <ele>77.848856</ele>
        <time>2011-06-26T06:45:05Z</time>
      </trkpt>
      <trkpt lat="48.05497" lon="-0.82495">
        <ele>78.014624</ele>
        <time>2011-06-26T06:45:07Z</time>
      </trkpt>
      <trkpt lat="48.05478" lon="-0.82484">
        <ele>78.167267</ele>
        <time>2011-06-26T06:45:10Z</time>
      </trkpt>
      <trkpt lat="48.05459" lon="-0.82471">
        <ele>78.45017</ele>
        <time>2011-06-26T06:45:13Z</time>
      </trkpt>
      <trkpt lat="48.0544" lon="-0.8246">
        <ele>78.91231</ele>
        <time>2011-06-26T06:45:16Z</time>
      </trkpt>
      <trkpt lat="48.05427" lon="-0.82453">
        <ele>79.425411</ele>
        <time>2011-06-26T06:45:18Z</time>
      </trkpt>
      <trkpt lat="48.05408" lon="-0.82441">
        <ele>79.983062</ele>
        <time>2011-06-26T06:45:21Z</time>
      </trkpt>
      <trkpt lat="48.05396" lon="-0.82434">
        <ele>80.588632</ele>
        <time>2011-06-26T06:45:23Z</time>
      </trkpt>
      <trkpt lat="48.05379" lon="-0.82425">
        <ele>81.032289</ele>
        <time>2011-06-26T06:45:26Z</time>
      </trkpt>
      <trkpt lat="48.05368" lon="-0.82419">
        <ele>81.216242</ele>
        <time>2011-06-26T06:45:28Z</time>
      </trkpt>
      <trkpt lat="48.05356" lon="-0.82413">
        <ele>81.251885</ele>
        <time>2011-06-26T06:45:30Z</time>
      </trkpt>
      <trkpt lat="48.05336" lon="-0.82402">
        <ele>81.24585</ele>
        <time>2011-06-26T06:45:33Z</time>
      </trkpt>
      <trkpt lat="48.05323" lon="-0.82395">
        <ele>81.251263</ele>
        <time>2011-06-26T06:45:35Z</time>
      </trkpt>
      <trkpt lat="48.05309" lon="-0.82387">
        <ele>81.304446</ele>
        <time>2011-06-26T06:45:37Z</time>
      </trkpt>
      <trkpt lat="48.05296" lon="-0.82379">
        <ele>81.444313</ele>
        <time>2011-06-26T06:45:39Z</time>
      </trkpt>
      <trkpt lat="48.05277" lon="-0.82368">
        <ele>81.637578</ele>
        <time>2011-06-26T06:45:42Z</time>
      </trkpt>
      <trkpt lat="48.05265" lon="-0.8236">
        <ele>81.782865</ele>
        <time>2011-06-26T06:45:44Z</time>
      </trkpt>
      <trkpt lat="48.05252" lon="-0.82352">
        <ele>81.83705</ele>
        <time>2011-06-26T06:45:46Z</time>
      </trkpt>
      <trkpt lat="48.05232" lon="-0.82338">
        <ele>81.8364</ele>
        <time>2011-06-26T06:45:49Z</time>
      </trkpt>
      <trkpt lat="48.05211" lon="-0.82326">
        <ele>81.814204</ele>
        <time>2011-06-26T06:45:52Z</time>
      </trkpt>
      <trkpt lat="48.05194" lon="-0.82313">
        <ele>81.772421</ele>
        <time>2011-06-26T06:45:55Z</time>
      </trkpt>
      <trkpt lat="48.05177" lon="-0.82301">
        <ele>81.669967</ele>
        <time>2011-06-26T06:45:58Z</time>
      </trkpt>
      <trkpt lat="48.05165" lon="-0.82294">
        <ele>81.50636</ele>
        <time>2011-06-26T06:46:00Z</time>
      </trkpt>
      <trkpt lat="48.05147" lon="-0.82283">
        <ele>81.366749</ele>
        <time>2011-06-26T06:46:03Z</time>
      </trkpt>
      <trkpt lat="48.05128" lon="-0.82272">
        <ele>81.27352</ele>
        <time>2011-06-26T06:46:06Z</time>
      </trkpt>
      <trkpt lat="48.05109" lon="-0.82258">
        <ele>81.038867</ele>
        <time>2011-06-26T06:46:09Z</time>
      </trkpt>
      <trkpt lat="48.05089" lon="-0.82243">
        <ele>80.375045</ele>
        <time>2011-06-26T06:46:12Z</time>
      </trkpt>
      <trkpt lat="48.05076" lon="-0.82232">
        <ele>79.261834</ele>
        <time>2011-06-26T06:46:14Z</time>
      </trkpt>
      <trkpt lat="48.05057" lon="-0.82217">
        <ele>78.146844</ele>
        <time>2011-06-26T06:46:17Z</time>
      </trkpt>
      <trkpt lat="48.05045" lon="-0.82207">
        <ele>77.458917</ele>
        <time>2011-06-26T06:46:19Z</time>
      </trkpt>
      <trkpt lat="48.05033" lon="-0.82197">
        <ele>77.196533</ele>
        <time>2011-06-26T06:46:21Z</time>
      </trkpt>
      <trkpt lat="48.05015" lon="-0.8218">
        <ele>77.161089</ele>
        <time>2011-06-26T06:46:24Z</time>
      </trkpt>
      <trkpt lat="48.04996" lon="-0.82163">
        <ele>77.243342</ele>
        <time>2011-06-26T06:46:27Z</time>
      </trkpt>
      <trkpt lat="48.04978" lon="-0.82146">
        <ele>77.378728</ele>
        <time>2011-06-26T06:46:30Z</time>
      </trkpt>
      <trkpt lat="48.04967" lon="-0.82135">
        <ele>77.491755</ele>
        <time>2011-06-26T06:46:32Z</time>
      </trkpt>
      <trkpt lat="48.04955" lon="-0.82124">
        <ele>77.52198</ele>
        <time>2011-06-26T06:46:34Z</time>
      </trkpt>
      <trkpt lat="48.04944" lon="-0.82112">
        <ele>77.481276</ele>
        <time>2011-06-26T06:46:36Z</time>
      </trkpt>
      <trkpt lat="48.04928" lon="-0.82096">
        <ele>77.425199</ele>
        <time>2011-06-26T06:46:39Z</time>
      </trkpt>
      <trkpt lat="48.04917" lon="-0.82085">
        <ele>77.36388</ele>
        <time>2011-06-26T06:46:41Z</time>
      </trkpt>
      <trkpt lat="48.04902" lon="-0.82068">
        <ele>77.21677</ele>
        <time>2011-06-26T06:46:44Z</time>
      </trkpt>
      <trkpt lat="48.04892" lon="-0.82057">
        <ele>76.898697</ele>
        <time>2011-06-26T06:46:46Z</time>
      </trkpt>
      <trkpt lat="48.04877" lon="-0.82041">
        <ele>76.44107</ele>
        <time>2011-06-26T06:46:49Z</time>
      </trkpt>
      <trkpt lat="48.04862" lon="-0.82025">
        <ele>75.935572</ele>
        <time>2011-06-26T06:46:52Z</time>
      </trkpt>
      <trkpt lat="48.04862" lon="-0.82025">
        <ele>75.486062</ele>
        <time>2011-06-26T06:46:54Z</time>
      </trkpt>
      <trkpt lat="48.04847" lon="-0.82009">
        <ele>75.1583</ele>
        <time>2011-06-26T06:46:55Z</time>
      </trkpt>
      <trkpt lat="48.04837" lon="-0.81999">
        <ele>74.877043</ele>
        <time>2011-06-26T06:46:57Z</time>
      </trkpt>
      <trkpt lat="48.04822" lon="-0.81984">
        <ele>74.513612</ele>
        <time>2011-06-26T06:47:00Z</time>
      </trkpt>
      <trkpt lat="48.04807" lon="-0.81968">
        <ele>74.101857</ele>
        <time>2011-06-26T06:47:03Z</time>
      </trkpt>
      <trkpt lat="48.04793" lon="-0.81953">
        <ele>73.780743</ele>
        <time>2011-06-26T06:47:06Z</time>
      </trkpt>
      <trkpt lat="48.04783" lon="-0.81943">
        <ele>73.598487</ele>
        <time>2011-06-26T06:47:08Z</time>
      </trkpt>
      <trkpt lat="48.04767" lon="-0.81927">
        <ele>73.433804</ele>
        <time>2011-06-26T06:47:11Z</time>
      </trkpt>
      <trkpt lat="48.04751" lon="-0.81913">
        <ele>73.177224</ele>
        <time>2011-06-26T06:47:14Z</time>
      </trkpt>
      <trkpt lat="48.04741" lon="-0.81903">
        <ele>72.880832</ele>
        <time>2011-06-26T06:47:16Z</time>
      </trkpt>
      <trkpt lat="48.0473" lon="-0.81893">
        <ele>72.654333</ele>
        <time>2011-06-26T06:47:18Z</time>
      </trkpt>
      <trkpt lat="48.04714" lon="-0.8188">
        <ele>72.500518</ele>
        <time>2011-06-26T06:47:21Z</time>
      </trkpt>
      <trkpt lat="48.04704" lon="-0.81872">
        <ele>72.327422</ele>
        <time>2011-06-26T06:47:23Z</time>
      </trkpt>
      <trkpt lat="48.04696" lon="-0.81865">
        <ele>72.079359</ele>
        <time>2011-06-26T06:47:25Z</time>
      </trkpt>
      <trkpt lat="48.04685" lon="-0.81856">
        <ele>71.758152</ele>
        <time>2011-06-26T06:47:28Z</time>
      </trkpt>
      <trkpt lat="48.0468" lon="-0.81851">
        <ele>71.401882</ele>
        <time>2011-06-26T06:47:30Z</time>
      </trkpt>
      <trkpt lat="48.04674" lon="-0.81847">
        <ele>71.093461</ele>
        <time>2011-06-26T06:47:33Z</time>
      </trkpt>
      <trkpt lat="48.04669" lon="-0.81845">
        <ele>70.905623</ele>
        <time>2011-06-26T06:47:36Z</time>
      </trkpt>
      <trkpt lat="48.04663" lon="-0.81842">
        <ele>70.835006</ele>
        <time>2011-06-26T06:47:38Z</time>
      </trkpt>
      <trkpt lat="48.04653" lon="-0.81837">
        <ele>70.831561</ele>
        <time>2011-06-26T06:47:41Z</time>
      </trkpt>
      <trkpt lat="48.04646" lon="-0.81834">
        <ele>70.84389</ele>
        <time>2011-06-26T06:47:43Z</time>
      </trkpt>
      <trkpt lat="48.04635" lon="-0.81827">
        <ele>70.847749</ele>
        <time>2011-06-26T06:47:46Z</time>
      </trkpt>
      <trkpt lat="48.04626" lon="-0.81822">
        <ele>70.822671</ele>
        <time>2011-06-26T06:47:48Z</time>
      </trkpt>
      <trkpt lat="48.04615" lon="-0.81817">
        <ele>70.761106</ele>
        <time>2011-06-26T06:47:51Z</time>
      </trkpt>
      <trkpt lat="48.04602" lon="-0.8181">
        <ele>70.591059</ele>
        <time>2011-06-26T06:47:54Z</time>
      </trkpt>
      <trkpt lat="48.04591" lon="-0.81804">
        <ele>70.183406</ele>
        <time>2011-06-26T06:47:56Z</time>
      </trkpt>
      <trkpt lat="48.04574" lon="-0.81795">
        <ele>69.557949</ele>
        <time>2011-06-26T06:47:59Z</time>
      </trkpt>
      <trkpt lat="48.04564" lon="-0.81788">
        <ele>68.951752</ele>
        <time>2011-06-26T06:48:01Z</time>
      </trkpt>
      <trkpt lat="48.04548" lon="-0.81781">
        <ele>68.56958</ele>
        <time>2011-06-26T06:48:04Z</time>
      </trkpt>
      <trkpt lat="48.04538" lon="-0.81775">
        <ele>68.358918</ele>
        <time>2011-06-26T06:48:06Z</time>
      </trkpt>
      <trkpt lat="48.04528" lon="-0.8177">
        <ele>68.162683</ele>
        <time>2011-06-26T06:48:08Z</time>
      </trkpt>
      <trkpt lat="48.04518" lon="-0.81765">
        <ele>67.985453</ele>
        <time>2011-06-26T06:48:10Z</time>
      </trkpt>
      <trkpt lat="48.04502" lon="-0.81758">
        <ele>67.836099</ele>
        <time>2011-06-26T06:48:13Z</time>
      </trkpt>
      <trkpt lat="48.04492" lon="-0.81752">
        <ele>67.601363</ele>
        <time>2011-06-26T06:48:15Z</time>
      </trkpt>
      <trkpt lat="48.04482" lon="-0.81746">
        <ele>67.216066</ele>
        <time>2011-06-26T06:48:17Z</time>
      </trkpt>
      <trkpt lat="48.04471" lon="-0.81738">
        <ele>66.579247</ele>
        <time>2011-06-26T06:48:19Z</time>
      </trkpt>
      <trkpt lat="48.04454" lon="-0.81729">
        <ele>65.575259</ele>
        <time>2011-06-26T06:48:22Z</time>
      </trkpt>
      <trkpt lat="48.04444" lon="-0.81724">
        <ele>64.381414</ele>
        <time>2011-06-26T06:48:24Z</time>
      </trkpt>
      <trkpt lat="48.04434" lon="-0.81719">
        <ele>63.366864</ele>
        <time>2011-06-26T06:48:26Z</time>
      </trkpt>
      <trkpt lat="48.04424" lon="-0.81714">
        <ele>62.736711</ele>
        <time>2011-06-26T06:48:28Z</time>
      </trkpt>
      <trkpt lat="48.04414" lon="-0.81708">
        <ele>62.479399</ele>
        <time>2011-06-26T06:48:30Z</time>
      </trkpt>
      <trkpt lat="48.04398" lon="-0.81699">
        <ele>62.449522</ele>
        <time>2011-06-26T06:48:33Z</time>
      </trkpt>
      <trkpt lat="48.04387" lon="-0.81692">
        <ele>62.472954</ele>
        <time>2011-06-26T06:48:35Z</time>
      </trkpt>
      <trkpt lat="48.04372" lon="-0.81684">
        <ele>62.448795</ele>
        <time>2011-06-26T06:48:38Z</time>
      </trkpt>
      <trkpt lat="48.04358" lon="-0.81676">
        <ele>62.380662</ele>
        <time>2011-06-26T06:48:41Z</time>
      </trkpt>
      <trkpt lat="48.04358" lon="-0.81676">
        <ele>62.321212</ele>
        <time>2011-06-26T06:48:41Z</time>
      </trkpt>
      <trkpt lat="48.04349" lon="-0.81671">
        <ele>62.218154</ele>
        <time>2011-06-26T06:48:43Z</time>
      </trkpt>
      <trkpt lat="48.04339" lon="-0.81665">
        <ele>61.893575</ele>
        <time>2011-06-26T06:48:45Z</time>
      </trkpt>
      <trkpt lat="48.04324" lon="-0.81654">
        <ele>61.254383</ele>
        <time>2011-06-26T06:48:48Z</time>
      </trkpt>
      <trkpt lat="48.04309" lon="-0.81646">
        <ele>60.441815</ele>
        <time>2011-06-26T06:48:51Z</time>
      </trkpt>
      <trkpt lat="48.04294" lon="-0.81637">
        <ele>59.750346</ele>
        <time>2011-06-26T06:48:54Z</time>
      </trkpt>
      <trkpt lat="48.04284" lon="-0.81631">
        <ele>59.38712</ele>
        <time>2011-06-26T06:48:56Z</time>
      </trkpt>
      <trkpt lat="48.04269" lon="-0.81626">
        <ele>59.311001</ele>
        <time>2011-06-26T06:48:59Z</time>
      </trkpt>
      <trkpt lat="48.04258" lon="-0.81621">
        <ele>59.362923</ele>
        <time>2011-06-26T06:49:01Z</time>
      </trkpt>
      <trkpt lat="48.04248" lon="-0.81614">
        <ele>59.469992</ele>
        <time>2011-06-26T06:49:03Z</time>
      </trkpt>
      <trkpt lat="48.04233" lon="-0.81604">
        <ele>59.700172</ele>
        <time>2011-06-26T06:49:06Z</time>
      </trkpt>
      <trkpt lat="48.04218" lon="-0.81596">
        <ele>60.2187</ele>
        <time>2011-06-26T06:49:09Z</time>
      </trkpt>
      <trkpt lat="48.04201" lon="-0.81587">
        <ele>61.120228</ele>
        <time>2011-06-26T06:49:12Z</time>
      </trkpt>
      <trkpt lat="48.04201" lon="-0.81587">
        <ele>62.137686</ele>
        <time>2011-06-26T06:49:13Z</time>
      </trkpt>
      <trkpt lat="48.0419" lon="-0.81583">
        <ele>62.946993</ele>
        <time>2011-06-26T06:49:14Z</time>
      </trkpt>
      <trkpt lat="48.04179" lon="-0.81578">
        <ele>63.59341</ele>
        <time>2011-06-26T06:49:16Z</time>
      </trkpt>
      <trkpt lat="48.04163" lon="-0.8157">
        <ele>64.168242</ele>
        <time>2011-06-26T06:49:19Z</time>
      </trkpt>
      <trkpt lat="48.04153" lon="-0.81565">
        <ele>64.607222</ele>
        <time>2011-06-26T06:49:21Z</time>
      </trkpt>
      <trkpt lat="48.04136" lon="-0.81556">
        <ele>64.927126</ele>
        <time>2011-06-26T06:49:24Z</time>
      </trkpt>
      <trkpt lat="48.04125" lon="-0.81549">
        <ele>65.199373</ele>
        <time>2011-06-26T06:49:26Z</time>
      </trkpt>
      <trkpt lat="48.0411" lon="-0.81539">
        <ele>65.452716</ele>
        <time>2011-06-26T06:49:29Z</time>
      </trkpt>
      <trkpt lat="48.041" lon="-0.81533">
        <ele>65.649702</ele>
        <time>2011-06-26T06:49:31Z</time>
      </trkpt>
      <trkpt lat="48.04091" lon="-0.81528">
        <ele>65.74911</ele>
        <time>2011-06-26T06:49:33Z</time>
      </trkpt>
      <trkpt lat="48.04077" lon="-0.8152">
        <ele>65.778975</ele>
        <time>2011-06-26T06:49:36Z</time>
      </trkpt>
      <trkpt lat="48.04062" lon="-0.81511">
        <ele>65.783123</ele>
        <time>2011-06-26T06:49:39Z</time>
      </trkpt>
      <trkpt lat="48.04047" lon="-0.81501">
        <ele>65.781656</ele>
        <time>2011-06-26T06:49:42Z</time>
      </trkpt>
      <trkpt lat="48.04031" lon="-0.81495">
        <ele>65.778753</ele>
        <time>2011-06-26T06:49:45Z</time>
      </trkpt>
      <trkpt lat="48.04016" lon="-0.81486">
        <ele>65.773094</ele>
        <time>2011-06-26T06:49:48Z</time>
      </trkpt>
      <trkpt lat="48.04006" lon="-0.8148">
        <ele>65.763661</ele>
        <time>2011-06-26T06:49:50Z</time>
      </trkpt>
      <trkpt lat="48.03989" lon="-0.81473">
        <ele>65.635477</ele>
        <time>2011-06-26T06:49:53Z</time>
      </trkpt>
      <trkpt lat="48.03978" lon="-0.81467">
        <ele>65.234176</ele>
        <time>2011-06-26T06:49:55Z</time>
      </trkpt>
      <trkpt lat="48.03966" lon="-0.81461">
        <ele>64.628333</ele>
        <time>2011-06-26T06:49:57Z</time>
      </trkpt>
      <trkpt lat="48.03955" lon="-0.81455">
        <ele>64.036317</ele>
        <time>2011-06-26T06:49:59Z</time>
      </trkpt>
      <trkpt lat="48.03944" lon="-0.81449">
        <ele>63.602178</ele>
        <time>2011-06-26T06:50:01Z</time>
      </trkpt>
      <trkpt lat="48.03944" lon="-0.81449">
        <ele>63.382546</ele>
        <time>2011-06-26T06:50:03Z</time>
      </trkpt>
      <trkpt lat="48.03931" lon="-0.81441">
        <ele>63.30784</ele>
        <time>2011-06-26T06:50:04Z</time>
      </trkpt>
      <trkpt lat="48.03923" lon="-0.81436">
        <ele>63.216658</ele>
        <time>2011-06-26T06:50:06Z</time>
      </trkpt>
      <trkpt lat="48.03917" lon="-0.81434">
        <ele>63.05535</ele>
        <time>2011-06-26T06:50:08Z</time>
      </trkpt>
      <trkpt lat="48.03904" lon="-0.81425">
        <ele>62.913298</ele>
        <time>2011-06-26T06:50:11Z</time>
      </trkpt>
      <trkpt lat="48.03893" lon="-0.81418">
        <ele>62.852562</ele>
        <time>2011-06-26T06:50:13Z</time>
      </trkpt>
      <trkpt lat="48.03876" lon="-0.81407">
        <ele>62.847591</ele>
        <time>2011-06-26T06:50:16Z</time>
      </trkpt>
      <trkpt lat="48.03876" lon="-0.81407">
        <ele>62.85798</ele>
        <time>2011-06-26T06:50:17Z</time>
      </trkpt>
      <trkpt lat="48.03858" lon="-0.81398">
        <ele>62.861096</ele>
        <time>2011-06-26T06:50:19Z</time>
      </trkpt>
      <trkpt lat="48.03846" lon="-0.81392">
        <ele>62.846555</ele>
        <time>2011-06-26T06:50:21Z</time>
      </trkpt>
      <trkpt lat="48.03834" lon="-0.81385">
        <ele>62.747089</ele>
        <time>2011-06-26T06:50:23Z</time>
      </trkpt>
      <trkpt lat="48.03818" lon="-0.81374">
        <ele>62.473804</ele>
        <time>2011-06-26T06:50:26Z</time>
      </trkpt>
      <trkpt lat="48.03806" lon="-0.81368">
        <ele>62.097665</ele>
        <time>2011-06-26T06:50:28Z</time>
      </trkpt>
      <trkpt lat="48.03789" lon="-0.8136">
        <ele>61.809037</ele>
        <time>2011-06-26T06:50:31Z</time>
      </trkpt>
      <trkpt lat="48.03777" lon="-0.81354">
        <ele>61.665711</ele>
        <time>2011-06-26T06:50:33Z</time>
      </trkpt>
      <trkpt lat="48.0376" lon="-0.81343">
        <ele>61.598167</ele>
        <time>2011-06-26T06:50:36Z</time>
      </trkpt>
      <trkpt lat="48.03742" lon="-0.81333">
        <ele>61.588213</ele>
        <time>2011-06-26T06:50:39Z</time>
      </trkpt>
      <trkpt lat="48.03731" lon="-0.81326">
        <ele>61.641977</ele>
        <time>2011-06-26T06:50:41Z</time>
      </trkpt>
      <trkpt lat="48.03713" lon="-0.81316">
        <ele>61.758981</ele>
        <time>2011-06-26T06:50:44Z</time>
      </trkpt>
      <trkpt lat="48.03701" lon="-0.81309">
        <ele>62.043233</ele>
        <time>2011-06-26T06:50:46Z</time>
      </trkpt>
      <trkpt lat="48.03682" lon="-0.81299">
        <ele>62.55671</ele>
        <time>2011-06-26T06:50:49Z</time>
      </trkpt>
      <trkpt lat="48.03663" lon="-0.81289">
        <ele>63.170602</ele>
        <time>2011-06-26T06:50:52Z</time>
      </trkpt>
      <trkpt lat="48.03652" lon="-0.81282">
        <ele>63.714592</ele>
        <time>2011-06-26T06:50:54Z</time>
      </trkpt>
      <trkpt lat="48.03636" lon="-0.81272">
        <ele>64.115751</ele>
        <time>2011-06-26T06:50:57Z</time>
      </trkpt>
      <trkpt lat="48.03622" lon="-0.8126">
        <ele>64.361601</ele>
        <time>2011-06-26T06:51:00Z</time>
      </trkpt>
      <trkpt lat="48.03608" lon="-0.81251">
        <ele>64.468926</ele>
        <time>2011-06-26T06:51:03Z</time>
      </trkpt>
      <trkpt lat="48.03597" lon="-0.81246">
        <ele>64.479584</ele>
        <time>2011-06-26T06:51:05Z</time>
      </trkpt>
      <trkpt lat="48.03587" lon="-0.81242">
        <ele>64.289144</ele>
        <time>2011-06-26T06:51:07Z</time>
      </trkpt>
      <trkpt lat="48.03572" lon="-0.81235">
        <ele>63.784435</ele>
        <time>2011-06-26T06:51:10Z</time>
      </trkpt>
      <trkpt lat="48.03559" lon="-0.81228">
        <ele>63.203363</ele>
        <time>2011-06-26T06:51:13Z</time>
      </trkpt>
      <trkpt lat="48.03548" lon="-0.81224">
        <ele>62.862752</ele>
        <time>2011-06-26T06:51:16Z</time>
      </trkpt>
      <trkpt lat="48.03543" lon="-0.81217">
        <ele>62.772186</ele>
        <time>2011-06-26T06:51:18Z</time>
      </trkpt>
      <trkpt lat="48.03544" lon="-0.81207">
        <ele>62.871711</ele>
        <time>2011-06-26T06:51:20Z</time>
      </trkpt>
      <trkpt lat="48.03549" lon="-0.81189">
        <ele>63.103112</ele>
        <time>2011-06-26T06:51:23Z</time>
      </trkpt>
      <trkpt lat="48.03556" lon="-0.8117">
        <ele>63.319342</ele>
        <time>2011-06-26T06:51:26Z</time>
      </trkpt>
      <trkpt lat="48.03561" lon="-0.81158">
        <ele>63.42607</ele>
        <time>2011-06-26T06:51:28Z</time>
      </trkpt>
      <trkpt lat="48.03567" lon="-0.8114">
        <ele>63.463359</ele>
        <time>2011-06-26T06:51:31Z</time>
      </trkpt>
      <trkpt lat="48.03568" lon="-0.81127">
        <ele>63.471053</ele>
        <time>2011-06-26T06:51:33Z</time>
      </trkpt>
      <trkpt lat="48.03567" lon="-0.81114">
        <ele>63.466213</ele>
        <time>2011-06-26T06:51:35Z</time>
      </trkpt>
      <trkpt lat="48.03566" lon="-0.81093">
        <ele>63.460382</ele>
        <time>2011-06-26T06:51:38Z</time>
      </trkpt>
      <trkpt lat="48.03565" lon="-0.81078">
        <ele>63.489434</ele>
        <time>2011-06-26T06:51:40Z</time>
      </trkpt>
      <trkpt lat="48.03563" lon="-0.81064">
        <ele>63.577765</ele>
        <time>2011-06-26T06:51:42Z</time>
      </trkpt>
      <trkpt lat="48.03563" lon="-0.81064">
        <ele>63.678035</ele>
        <time>2011-06-26T06:51:43Z</time>
      </trkpt>
      <trkpt lat="48.03562" lon="-0.81048">
        <ele>63.738146</ele>
        <time>2011-06-26T06:51:45Z</time>
      </trkpt>
      <trkpt lat="48.0356" lon="-0.81025">
        <ele>63.765794</ele>
        <time>2011-06-26T06:51:48Z</time>
      </trkpt>
      <trkpt lat="48.03559" lon="-0.81002">
        <ele>63.779062</ele>
        <time>2011-06-26T06:51:51Z</time>
      </trkpt>
      <trkpt lat="48.03558" lon="-0.80978">
        <ele>63.801336</ele>
        <time>2011-06-26T06:51:54Z</time>
      </trkpt>
      <trkpt lat="48.03557" lon="-0.80955">
        <ele>63.872503</ele>
        <time>2011-06-26T06:51:57Z</time>
      </trkpt>
      <trkpt lat="48.03557" lon="-0.8093">
        <ele>64.171207</ele>
        <time>2011-06-26T06:52:00Z</time>
      </trkpt>
      <trkpt lat="48.03558" lon="-0.80904">
        <ele>64.82777</ele>
        <time>2011-06-26T06:52:03Z</time>
      </trkpt>
      <trkpt lat="48.03558" lon="-0.80887">
        <ele>65.573634</ele>
        <time>2011-06-26T06:52:05Z</time>
      </trkpt>
      <trkpt lat="48.03559" lon="-0.80861">
        <ele>66.02907</ele>
        <time>2011-06-26T06:52:08Z</time>
      </trkpt>
      <trkpt lat="48.0356" lon="-0.80836">
        <ele>66.15903</ele>
        <time>2011-06-26T06:52:11Z</time>
      </trkpt>
      <trkpt lat="48.0356" lon="-0.80812">
        <ele>66.094724</ele>
        <time>2011-06-26T06:52:14Z</time>
      </trkpt>
      <trkpt lat="48.03566" lon="-0.80787">
        <ele>65.942612</ele>
        <time>2011-06-26T06:52:17Z</time>
      </trkpt>
      <trkpt lat="48.03574" lon="-0.80765">
        <ele>65.801407</ele>
        <time>2011-06-26T06:52:20Z</time>
      </trkpt>
      <trkpt lat="48.03583" lon="-0.80749">
        <ele>65.731614</ele>
        <time>2011-06-26T06:52:23Z</time>
      </trkpt>
      <trkpt lat="48.03589" lon="-0.80739">
        <ele>65.719364</ele>
        <time>2011-06-26T06:52:25Z</time>
      </trkpt>
      <trkpt lat="48.03597" lon="-0.80723">
        <ele>65.736892</ele>
        <time>2011-06-26T06:52:28Z</time>
      </trkpt>
      <trkpt lat="48.03607" lon="-0.80703">
        <ele>65.813831</ele>
        <time>2011-06-26T06:52:31Z</time>
      </trkpt>
      <trkpt lat="48.03613" lon="-0.80689">
        <ele>65.961676</ele>
        <time>2011-06-26T06:52:33Z</time>
      </trkpt>
      <trkpt lat="48.0362" lon="-0.80668">
        <ele>66.0985</ele>
        <time>2011-06-26T06:52:36Z</time>
      </trkpt>
      <trkpt lat="48.0362" lon="-0.80668">
        <ele>66.159263</ele>
        <time>2011-06-26T06:52:37Z</time>
      </trkpt>
      <trkpt lat="48.03624" lon="-0.80655">
        <ele>66.149796</ele>
        <time>2011-06-26T06:52:38Z</time>
      </trkpt>
      <trkpt lat="48.0363" lon="-0.80635">
        <ele>66.082842</ele>
        <time>2011-06-26T06:52:41Z</time>
      </trkpt>
      <trkpt lat="48.03634" lon="-0.80614">
        <ele>65.955784</ele>
        <time>2011-06-26T06:52:44Z</time>
      </trkpt>
      <trkpt lat="48.03636" lon="-0.806">
        <ele>65.770605</ele>
        <time>2011-06-26T06:52:46Z</time>
      </trkpt>
      <trkpt lat="48.03637" lon="-0.80587">
        <ele>65.521072</ele>
        <time>2011-06-26T06:52:48Z</time>
      </trkpt>
      <trkpt lat="48.03639" lon="-0.80567">
        <ele>65.084185</ele>
        <time>2011-06-26T06:52:51Z</time>
      </trkpt>
      <trkpt lat="48.03641" lon="-0.80548">
        <ele>64.386897</ele>
        <time>2011-06-26T06:52:54Z</time>
      </trkpt>
      <trkpt lat="48.03643" lon="-0.80529">
        <ele>63.632709</ele>
        <time>2011-06-26T06:52:57Z</time>
      </trkpt>
      <trkpt lat="48.03647" lon="-0.80509">
        <ele>63.025167</ele>
        <time>2011-06-26T06:53:00Z</time>
      </trkpt>
      <trkpt lat="48.0365" lon="-0.80496">
        <ele>62.494955</ele>
        <time>2011-06-26T06:53:02Z</time>
      </trkpt>
      <trkpt lat="48.03652" lon="-0.80483">
        <ele>61.966111</ele>
        <time>2011-06-26T06:53:04Z</time>
      </trkpt>
      <trkpt lat="48.03657" lon="-0.80462">
        <ele>61.453623</ele>
        <time>2011-06-26T06:53:07Z</time>
      </trkpt>
      <trkpt lat="48.03663" lon="-0.80448">
        <ele>61.00219</ele>
        <time>2011-06-26T06:53:09Z</time>
      </trkpt>
      <trkpt lat="48.03672" lon="-0.80431">
        <ele>60.708798</ele>
        <time>2011-06-26T06:53:12Z</time>
      </trkpt>
      <trkpt lat="48.03685" lon="-0.80417">
        <ele>60.616801</ele>
        <time>2011-06-26T06:53:15Z</time>
      </trkpt>
      <trkpt lat="48.03698" lon="-0.80407">
        <ele>60.725544</ele>
        <time>2011-06-26T06:53:18Z</time>
      </trkpt>
      <trkpt lat="48.03708" lon="-0.80402">
        <ele>61.2326</ele>
        <time>2011-06-26T06:53:20Z</time>
      </trkpt>
      <trkpt lat="48.03717" lon="-0.80397">
        <ele>62.404989</ele>
        <time>2011-06-26T06:53:22Z</time>
      </trkpt>
      <trkpt lat="48.03727" lon="-0.80391">
        <ele>64.202068</ele>
        <time>2011-06-26T06:53:24Z</time>
      </trkpt>
      <trkpt lat="48.03739" lon="-0.80382">
        <ele>66.175574</ele>
        <time>2011-06-26T06:53:27Z</time>
      </trkpt>
      <trkpt lat="48.03751" lon="-0.80372">
        <ele>67.868083</ele>
        <time>2011-06-26T06:53:30Z</time>
      </trkpt>
      <trkpt lat="48.03763" lon="-0.80363">
        <ele>69.186399</ele>
        <time>2011-06-26T06:53:33Z</time>
      </trkpt>
      <trkpt lat="48.03775" lon="-0.80354">
        <ele>70.347409</ele>
        <time>2011-06-26T06:53:36Z</time>
      </trkpt>
      <trkpt lat="48.03783" lon="-0.80349">
        <ele>71.52746</ele>
        <time>2011-06-26T06:53:38Z</time>
      </trkpt>
      <trkpt lat="48.03795" lon="-0.80339">
        <ele>72.65279</ele>
        <time>2011-06-26T06:53:41Z</time>
      </trkpt>
      <trkpt lat="48.03807" lon="-0.80329">
        <ele>73.552827</ele>
        <time>2011-06-26T06:53:44Z</time>
      </trkpt>
      <trkpt lat="48.03819" lon="-0.8032">
        <ele>74.19358</ele>
        <time>2011-06-26T06:53:47Z</time>
      </trkpt>
      <trkpt lat="48.0383" lon="-0.80312">
        <ele>74.724854</ele>
        <time>2011-06-26T06:53:50Z</time>
      </trkpt>
      <trkpt lat="48.03837" lon="-0.80306">
        <ele>75.354329</ele>
        <time>2011-06-26T06:53:52Z</time>
      </trkpt>
      <trkpt lat="48.03849" lon="-0.80298">
        <ele>76.143379</ele>
        <time>2011-06-26T06:53:55Z</time>
      </trkpt>
      <trkpt lat="48.03858" lon="-0.80296">
        <ele>76.986395</ele>
        <time>2011-06-26T06:53:57Z</time>
      </trkpt>
      <trkpt lat="48.0387" lon="-0.8029">
        <ele>77.688684</ele>
        <time>2011-06-26T06:54:00Z</time>
      </trkpt>
      <trkpt lat="48.03878" lon="-0.80283">
        <ele>78.091043</ele>
        <time>2011-06-26T06:54:02Z</time>
      </trkpt>
      <trkpt lat="48.03885" lon="-0.8028">
        <ele>78.209855</ele>
        <time>2011-06-26T06:54:04Z</time>
      </trkpt>
      <trkpt lat="48.03893" lon="-0.80277">
        <ele>78.18752</ele>
        <time>2011-06-26T06:54:06Z</time>
      </trkpt>
      <trkpt lat="48.03901" lon="-0.80274">
        <ele>78.155688</ele>
        <time>2011-06-26T06:54:08Z</time>
      </trkpt>
      <trkpt lat="48.03913" lon="-0.80268">
        <ele>78.171647</ele>
        <time>2011-06-26T06:54:11Z</time>
      </trkpt>
      <trkpt lat="48.03913" lon="-0.80268">
        <ele>78.211705</ele>
        <time>2011-06-26T06:54:12Z</time>
      </trkpt>
      <trkpt lat="48.03925" lon="-0.80264">
        <ele>78.238366</ele>
        <time>2011-06-26T06:54:14Z</time>
      </trkpt>
      <trkpt lat="48.03932" lon="-0.8026">
        <ele>78.310652</ele>
        <time>2011-06-26T06:54:16Z</time>
      </trkpt>
      <trkpt lat="48.0394" lon="-0.80256">
        <ele>78.646827</ele>
        <time>2011-06-26T06:54:18Z</time>
      </trkpt>
      <trkpt lat="48.03952" lon="-0.8025">
        <ele>79.408241</ele>
        <time>2011-06-26T06:54:21Z</time>
      </trkpt>
      <trkpt lat="48.0396" lon="-0.80246">
        <ele>80.411064</ele>
        <time>2011-06-26T06:54:23Z</time>
      </trkpt>
      <trkpt lat="48.03968" lon="-0.80241">
        <ele>81.319461</ele>
        <time>2011-06-26T06:54:25Z</time>
      </trkpt>
      <trkpt lat="48.03976" lon="-0.80237">
        <ele>82.079</ele>
        <time>2011-06-26T06:54:27Z</time>
      </trkpt>
      <trkpt lat="48.03983" lon="-0.80233">
        <ele>82.840775</ele>
        <time>2011-06-26T06:54:29Z</time>
      </trkpt>
      <trkpt lat="48.0399" lon="-0.8023">
        <ele>83.641603</ele>
        <time>2011-06-26T06:54:31Z</time>
      </trkpt>
      <trkpt lat="48.04001" lon="-0.80225">
        <ele>84.405185</ele>
        <time>2011-06-26T06:54:34Z</time>
      </trkpt>
      <trkpt lat="48.04013" lon="-0.8022">
        <ele>85.102979</ele>
        <time>2011-06-26T06:54:37Z</time>
      </trkpt>
      <trkpt lat="48.04024" lon="-0.80213">
        <ele>85.773447</ele>
        <time>2011-06-26T06:54:40Z</time>
      </trkpt>
      <trkpt lat="48.04032" lon="-0.80209">
        <ele>86.494382</ele>
        <time>2011-06-26T06:54:42Z</time>
      </trkpt>
      <trkpt lat="48.04041" lon="-0.80205">
        <ele>87.26409</ele>
        <time>2011-06-26T06:54:44Z</time>
      </trkpt>
      <trkpt lat="48.04053" lon="-0.80199">
        <ele>87.919124</ele>
        <time>2011-06-26T06:54:47Z</time>
      </trkpt>
      <trkpt lat="48.04053" lon="-0.80199">
        <ele>88.290857</ele>
        <time>2011-06-26T06:54:49Z</time>
      </trkpt>
      <trkpt lat="48.0406" lon="-0.80196">
        <ele>88.408298</ele>
        <time>2011-06-26T06:54:49Z</time>
      </trkpt>
      <trkpt lat="48.04068" lon="-0.80194">
        <ele>88.437512</ele>
        <time>2011-06-26T06:54:51Z</time>
      </trkpt>
      <trkpt lat="48.04076" lon="-0.80194">
        <ele>88.545753</ele>
        <time>2011-06-26T06:54:53Z</time>
      </trkpt>
      <trkpt lat="48.04087" lon="-0.80194">
        <ele>88.885113</ele>
        <time>2011-06-26T06:54:56Z</time>
      </trkpt>
      <trkpt lat="48.04095" lon="-0.80195">
        <ele>89.517463</ele>
        <time>2011-06-26T06:54:58Z</time>
      </trkpt>
      <trkpt lat="48.04102" lon="-0.80197">
        <ele>90.249396</ele>
        <time>2011-06-26T06:55:00Z</time>
      </trkpt>
      <trkpt lat="48.0411" lon="-0.80199">
        <ele>90.802731</ele>
        <time>2011-06-26T06:55:02Z</time>
      </trkpt>
      <trkpt lat="48.04117" lon="-0.80201">
        <ele>91.121065</ele>
        <time>2011-06-26T06:55:04Z</time>
      </trkpt>
      <trkpt lat="48.04128" lon="-0.802">
        <ele>91.316828</ele>
        <time>2011-06-26T06:55:07Z</time>
      </trkpt>
      <trkpt lat="48.04134" lon="-0.80199">
        <ele>91.485184</ele>
        <time>2011-06-26T06:55:09Z</time>
      </trkpt>
      <trkpt lat="48.0414" lon="-0.80196">
        <ele>91.67394</ele>
        <time>2011-06-26T06:55:11Z</time>
      </trkpt>
      <trkpt lat="48.0414" lon="-0.80187">
        <ele>91.908088</ele>
        <time>2011-06-26T06:55:14Z</time>
      </trkpt>
      <trkpt lat="48.04134" lon="-0.80179">
        <ele>92.189416</ele>
        <time>2011-06-26T06:55:17Z</time>
      </trkpt>
      <trkpt lat="48.0413" lon="-0.80173">
        <ele>92.480758</ele>
        <time>2011-06-26T06:55:19Z</time>
      </trkpt>
      <trkpt lat="48.04125" lon="-0.80168">
        <ele>92.766457</ele>
        <time>2011-06-26T06:55:22Z</time>
      </trkpt>
      <trkpt lat="48.0412" lon="-0.80164">
        <ele>93.076469</ele>
        <time>2011-06-26T06:55:25Z</time>
      </trkpt>
      <trkpt lat="48.04114" lon="-0.80158">
        <ele>93.405546</ele>
        <time>2011-06-26T06:55:28Z</time>
      </trkpt>
      <trkpt lat="48.04107" lon="-0.80149">
        <ele>93.723254</ele>
        <time>2011-06-26T06:55:31Z</time>
      </trkpt>
      <trkpt lat="48.04103" lon="-0.80136">
        <ele>94.035858</ele>
        <time>2011-06-26T06:55:34Z</time>
      </trkpt>
      <trkpt lat="48.04102" lon="-0.80127">
        <ele>94.363994</ele>
        <time>2011-06-26T06:55:36Z</time>
      </trkpt>
      <trkpt lat="48.041" lon="-0.80119">
        <ele>94.711305</ele>
        <time>2011-06-26T06:55:38Z</time>
      </trkpt>
      <trkpt lat="48.04099" lon="-0.80108">
        <ele>95.076543</ele>
        <time>2011-06-26T06:55:41Z</time>
      </trkpt>
      <trkpt lat="48.04098" lon="-0.80097">
        <ele>95.435917</ele>
        <time>2011-06-26T06:55:44Z</time>
      </trkpt>
      <trkpt lat="48.04096" lon="-0.80089">
        <ele>95.751913</ele>
        <time>2011-06-26T06:55:46Z</time>
      </trkpt>
      <trkpt lat="48.04093" lon="-0.80081">
        <ele>96.03419</ele>
        <time>2011-06-26T06:55:48Z</time>
      </trkpt>
      <trkpt lat="48.0409" lon="-0.80073">
        <ele>96.332427</ele>
        <time>2011-06-26T06:55:50Z</time>
      </trkpt>
      <trkpt lat="48.04085" lon="-0.80063">
        <ele>96.650498</ele>
        <time>2011-06-26T06:55:53Z</time>
      </trkpt>
      <trkpt lat="48.0408" lon="-0.80054">
        <ele>96.946059</ele>
        <time>2011-06-26T06:55:56Z</time>
      </trkpt>
      <trkpt lat="48.04075" lon="-0.80046">
        <ele>97.198506</ele>
        <time>2011-06-26T06:55:58Z</time>
      </trkpt>
      <trkpt lat="48.04068" lon="-0.80035">
        <ele>97.433308</ele>
        <time>2011-06-26T06:56:01Z</time>
      </trkpt>
      <trkpt lat="48.04058" lon="-0.80026">
        <ele>97.688239</ele>
        <time>2011-06-26T06:56:04Z</time>
      </trkpt>
      <trkpt lat="48.04051" lon="-0.8002">
        <ele>98.084169</ele>
        <time>2011-06-26T06:56:06Z</time>
      </trkpt>
      <trkpt lat="48.04038" lon="-0.80011">
        <ele>98.758012</ele>
        <time>2011-06-26T06:56:09Z</time>
      </trkpt>
      <trkpt lat="48.04021" lon="-0.80002">
        <ele>99.727389</ele>
        <time>2011-06-26T06:56:12Z</time>
      </trkpt>
      <trkpt lat="48.0401" lon="-0.79998">
        <ele>100.803989</ele>
        <time>2011-06-26T06:56:14Z</time>
      </trkpt>
      <trkpt lat="48.03993" lon="-0.79994">
        <ele>101.64423</ele>
        <time>2011-06-26T06:56:17Z</time>
      </trkpt>
      <trkpt lat="48.03981" lon="-0.79993">
        <ele>102.048576</ele>
        <time>2011-06-26T06:56:19Z</time>
      </trkpt>
      <trkpt lat="48.03962" lon="-0.79993">
        <ele>102.141713</ele>
        <time>2011-06-26T06:56:22Z</time>
      </trkpt>
      <trkpt lat="48.03949" lon="-0.79993">
        <ele>102.114374</ele>
        <time>2011-06-26T06:56:24Z</time>
      </trkpt>
      <trkpt lat="48.03929" lon="-0.79994">
        <ele>102.067279</ele>
        <time>2011-06-26T06:56:27Z</time>
      </trkpt>
      <trkpt lat="48.03915" lon="-0.79995">
        <ele>102.021822</ele>
        <time>2011-06-26T06:56:29Z</time>
      </trkpt>
      <trkpt lat="48.03915" lon="-0.79995">
        <ele>101.971065</ele>
        <time>2011-06-26T06:56:32Z</time>
      </trkpt>
      <trkpt lat="48.03901" lon="-0.79994">
        <ele>101.891041</ele>
        <time>2011-06-26T06:56:32Z</time>
      </trkpt>
      <trkpt lat="48.03893" lon="-0.79986">
        <ele>101.602798</ele>
        <time>2011-06-26T06:56:35Z</time>
      </trkpt>
      <trkpt lat="48.03887" lon="-0.79978">
        <ele>100.906991</ele>
        <time>2011-06-26T06:56:38Z</time>
      </trkpt>
      <trkpt lat="48.03887" lon="-0.7997">
        <ele>99.885969</ele>
        <time>2011-06-26T06:56:51Z</time>
      </trkpt>
      <trkpt lat="48.03887" lon="-0.7997">
        <ele>98.916511</ele>
        <time>2011-06-26T06:56:54Z</time>
      </trkpt>
      <trkpt lat="48.03887" lon="-0.7997">
        <ele>98.340582</ele>
        <time>2011-06-26T06:57:00Z</time>
      </trkpt>
      <trkpt lat="48.03885" lon="-0.79948">
        <ele>98.169186</ele>
        <time>2011-06-26T06:57:02Z</time>
      </trkpt>
      <trkpt lat="48.03881" lon="-0.79934">
        <ele>98.161359</ele>
        <time>2011-06-26T06:57:05Z</time>
      </trkpt>
      <trkpt lat="48.03876" lon="-0.7992">
        <ele>98.08371</ele>
        <time>2011-06-26T06:57:08Z</time>
      </trkpt>
      <trkpt lat="48.0387" lon="-0.79909">
        <ele>97.796172</ele>
        <time>2011-06-26T06:57:11Z</time>
      </trkpt>
      <trkpt lat="48.03862" lon="-0.79899">
        <ele>97.388643</ele>
        <time>2011-06-26T06:57:14Z</time>
      </trkpt>
      <trkpt lat="48.03862" lon="-0.79887">
        <ele>97.090057</ele>
        <time>2011-06-26T06:57:16Z</time>
      </trkpt>
      <trkpt lat="48.03863" lon="-0.79867">
        <ele>96.958035</ele>
        <time>2011-06-26T06:57:19Z</time>
      </trkpt>
      <trkpt lat="48.03863" lon="-0.79855">
        <ele>96.873913</ele>
        <time>2011-06-26T06:57:21Z</time>
      </trkpt>
      <trkpt lat="48.03863" lon="-0.79841">
        <ele>96.769379</ele>
        <time>2011-06-26T06:57:23Z</time>
      </trkpt>
      <trkpt lat="48.03863" lon="-0.79821">
        <ele>96.569355</ele>
        <time>2011-06-26T06:57:26Z</time>
      </trkpt>
      <trkpt lat="48.03864" lon="-0.79799">
        <ele>96.165362</ele>
        <time>2011-06-26T06:57:29Z</time>
      </trkpt>
      <trkpt lat="48.03862" lon="-0.79778">
        <ele>95.595824</ele>
        <time>2011-06-26T06:57:32Z</time>
      </trkpt>
      <trkpt lat="48.03862" lon="-0.79762">
        <ele>94.967269</ele>
        <time>2011-06-26T06:57:34Z</time>
      </trkpt>
      <trkpt lat="48.03865" lon="-0.79736">
        <ele>94.214019</ele>
        <time>2011-06-26T06:57:37Z</time>
      </trkpt>
      <trkpt lat="48.03868" lon="-0.79719">
        <ele>93.246158</ele>
        <time>2011-06-26T06:57:39Z</time>
      </trkpt>
      <trkpt lat="48.03871" lon="-0.79697">
        <ele>92.217756</ele>
        <time>2011-06-26T06:57:42Z</time>
      </trkpt>
      <trkpt lat="48.03875" lon="-0.79679">
        <ele>91.359821</ele>
        <time>2011-06-26T06:57:45Z</time>
      </trkpt>
      <trkpt lat="48.03878" lon="-0.79662">
        <ele>90.62435</ele>
        <time>2011-06-26T06:57:48Z</time>
      </trkpt>
      <trkpt lat="48.03881" lon="-0.79644">
        <ele>89.723397</ele>
        <time>2011-06-26T06:57:51Z</time>
      </trkpt>
      <trkpt lat="48.03883" lon="-0.79627">
        <ele>88.546073</ele>
        <time>2011-06-26T06:57:54Z</time>
      </trkpt>
      <trkpt lat="48.03883" lon="-0.79627">
        <ele>87.426908</ele>
        <time>2011-06-26T06:57:55Z</time>
      </trkpt>
      <trkpt lat="48.03886" lon="-0.7961">
        <ele>86.726913</ele>
        <time>2011-06-26T06:57:57Z</time>
      </trkpt>
      <trkpt lat="48.03889" lon="-0.79593">
        <ele>86.380322</ele>
        <time>2011-06-26T06:58:00Z</time>
      </trkpt>
      <trkpt lat="48.03891" lon="-0.79583">
        <ele>86.142782</ele>
        <time>2011-06-26T06:58:02Z</time>
      </trkpt>
      <trkpt lat="48.03894" lon="-0.79573">
        <ele>85.881404</ele>
        <time>2011-06-26T06:58:04Z</time>
      </trkpt>
      <trkpt lat="48.03897" lon="-0.79558">
        <ele>85.577767</ele>
        <time>2011-06-26T06:58:07Z</time>
      </trkpt>
      <trkpt lat="48.03899" lon="-0.79543">
        <ele>85.31841</ele>
        <time>2011-06-26T06:58:10Z</time>
      </trkpt>
      <trkpt lat="48.03902" lon="-0.79532">
        <ele>85.183138</ele>
        <time>2011-06-26T06:58:12Z</time>
      </trkpt>
      <trkpt lat="48.03905" lon="-0.79521">
        <ele>85.155314</ele>
        <time>2011-06-26T06:58:14Z</time>
      </trkpt>
      <trkpt lat="48.03908" lon="-0.79509">
        <ele>85.174424</ele>
        <time>2011-06-26T06:58:16Z</time>
      </trkpt>
      <trkpt lat="48.03913" lon="-0.79491">
        <ele>85.204207</ele>
        <time>2011-06-26T06:58:19Z</time>
      </trkpt>
      <trkpt lat="48.03913" lon="-0.79491">
        <ele>85.231397</ele>
        <time>2011-06-26T06:58:20Z</time>
      </trkpt>
      <trkpt lat="48.03918" lon="-0.79474">
        <ele>85.292147</ele>
        <time>2011-06-26T06:58:22Z</time>
      </trkpt>
      <trkpt lat="48.03921" lon="-0.79463">
        <ele>85.428632</ele>
        <time>2011-06-26T06:58:24Z</time>
      </trkpt>
      <trkpt lat="48.03926" lon="-0.79447">
        <ele>85.589355</ele>
        <time>2011-06-26T06:58:27Z</time>
      </trkpt>
      <trkpt lat="48.03931" lon="-0.79432">
        <ele>85.68824</ele>
        <time>2011-06-26T06:58:30Z</time>
      </trkpt>
      <trkpt lat="48.03936" lon="-0.79415">
        <ele>85.688307</ele>
        <time>2011-06-26T06:58:33Z</time>
      </trkpt>
      <trkpt lat="48.03941" lon="-0.79398">
        <ele>85.591784</ele>
        <time>2011-06-26T06:58:36Z</time>
      </trkpt>
      <trkpt lat="48.03942" lon="-0.79386">
        <ele>85.461777</ele>
        <time>2011-06-26T06:58:38Z</time>
      </trkpt>
      <trkpt lat="48.03938" lon="-0.79367">
        <ele>85.327788</ele>
        <time>2011-06-26T06:58:41Z</time>
      </trkpt>
      <trkpt lat="48.0393" lon="-0.79345">
        <ele>85.13134</ele>
        <time>2011-06-26T06:58:44Z</time>
      </trkpt>
      <trkpt lat="48.03924" lon="-0.79329">
        <ele>84.870086</ele>
        <time>2011-06-26T06:58:46Z</time>
      </trkpt>
      <trkpt lat="48.03915" lon="-0.79307">
        <ele>84.643696</ele>
        <time>2011-06-26T06:58:49Z</time>
      </trkpt>
      <trkpt lat="48.03908" lon="-0.79286">
        <ele>84.525045</ele>
        <time>2011-06-26T06:58:52Z</time>
      </trkpt>
      <trkpt lat="48.039" lon="-0.79265">
        <ele>84.500328</ele>
        <time>2011-06-26T06:58:55Z</time>
      </trkpt>
      <trkpt lat="48.03892" lon="-0.79244">
        <ele>84.543628</ele>
        <time>2011-06-26T06:58:58Z</time>
      </trkpt>
      <trkpt lat="48.03886" lon="-0.79231">
        <ele>84.636828</ele>
        <time>2011-06-26T06:59:00Z</time>
      </trkpt>
      <trkpt lat="48.03881" lon="-0.79217">
        <ele>84.732454</ele>
        <time>2011-06-26T06:59:02Z</time>
      </trkpt>
      <trkpt lat="48.03874" lon="-0.79198">
        <ele>84.796435</ele>
        <time>2011-06-26T06:59:05Z</time>
      </trkpt>
      <trkpt lat="48.03867" lon="-0.7918">
        <ele>84.838928</ele>
        <time>2011-06-26T06:59:08Z</time>
      </trkpt>
      <trkpt lat="48.03861" lon="-0.79165">
        <ele>84.872809</ele>
        <time>2011-06-26T06:59:11Z</time>
      </trkpt>
      <trkpt lat="48.03856" lon="-0.79156">
        <ele>84.905068</ele>
        <time>2011-06-26T06:59:13Z</time>
      </trkpt>
      <trkpt lat="48.03854" lon="-0.79148">
        <ele>84.961765</ele>
        <time>2011-06-26T06:59:15Z</time>
      </trkpt>
      <trkpt lat="48.03853" lon="-0.79137">
        <ele>85.052703</ele>
        <time>2011-06-26T06:59:20Z</time>
      </trkpt>
      <trkpt lat="48.03853" lon="-0.79137">
        <ele>85.133019</ele>
        <time>2011-06-26T06:59:32Z</time>
      </trkpt>
      <trkpt lat="48.03847" lon="-0.79109">
        <ele>85.167721</ele>
        <time>2011-06-26T06:59:39Z</time>
      </trkpt>
      <trkpt lat="48.03847" lon="-0.79109">
        <ele>85.170932</ele>
        <time>2011-06-26T06:59:40Z</time>
      </trkpt>
      <trkpt lat="48.03848" lon="-0.79102">
        <ele>85.151635</ele>
        <time>2011-06-26T06:59:41Z</time>
      </trkpt>
      <trkpt lat="48.03849" lon="-0.79088">
        <ele>85.098413</ele>
        <time>2011-06-26T06:59:44Z</time>
      </trkpt>
      <trkpt lat="48.03849" lon="-0.79078">
        <ele>84.910584</ele>
        <time>2011-06-26T06:59:46Z</time>
      </trkpt>
      <trkpt lat="48.03849" lon="-0.79068">
        <ele>84.536228</ele>
        <time>2011-06-26T06:59:48Z</time>
      </trkpt>
      <trkpt lat="48.0385" lon="-0.79056">
        <ele>84.10375</ele>
        <time>2011-06-26T06:59:51Z</time>
      </trkpt>
      <trkpt lat="48.03851" lon="-0.79049">
        <ele>83.739223</ele>
        <time>2011-06-26T06:59:53Z</time>
      </trkpt>
      <trkpt lat="48.03854" lon="-0.79043">
        <ele>83.438426</ele>
        <time>2011-06-26T06:59:56Z</time>
      </trkpt>
      <trkpt lat="48.03855" lon="-0.79036">
        <ele>83.14797</ele>
        <time>2011-06-26T06:59:59Z</time>
      </trkpt>
      <trkpt lat="48.03855" lon="-0.79027">
        <ele>82.818466</ele>
        <time>2011-06-26T07:00:03Z</time>
      </trkpt>
      <trkpt lat="48.03853" lon="-0.79021">
        <ele>82.445131</ele>
        <time>2011-06-26T07:00:07Z</time>
      </trkpt>
      <trkpt lat="48.0385" lon="-0.79014">
        <ele>82.028985</ele>
        <time>2011-06-26T07:00:10Z</time>
      </trkpt>
      <trkpt lat="48.0385" lon="-0.79014">
        <ele>81.637657</ele>
        <time>2011-06-26T07:00:11Z</time>
      </trkpt>
      <trkpt lat="48.03848" lon="-0.79006">
        <ele>81.343237</ele>
        <time>2011-06-26T07:00:14Z</time>
      </trkpt>
      <trkpt lat="48.03846" lon="-0.78998">
        <ele>81.096316</ele>
        <time>2011-06-26T07:00:16Z</time>
      </trkpt>
      <trkpt lat="48.03842" lon="-0.78988">
        <ele>80.8561</ele>
        <time>2011-06-26T07:00:18Z</time>
      </trkpt>
      <trkpt lat="48.03836" lon="-0.78973">
        <ele>80.678758</ele>
        <time>2011-06-26T07:00:21Z</time>
      </trkpt>
      <trkpt lat="48.0383" lon="-0.78959">
        <ele>80.597383</ele>
        <time>2011-06-26T07:00:24Z</time>
      </trkpt>
      <trkpt lat="48.03823" lon="-0.78946">
        <ele>80.588676</ele>
        <time>2011-06-26T07:00:27Z</time>
      </trkpt>
      <trkpt lat="48.03817" lon="-0.78933">
        <ele>80.608934</ele>
        <time>2011-06-26T07:00:30Z</time>
      </trkpt>
      <trkpt lat="48.0381" lon="-0.7892">
        <ele>80.640611</ele>
        <time>2011-06-26T07:00:33Z</time>
      </trkpt>
      <trkpt lat="48.03803" lon="-0.78906">
        <ele>80.700837</ele>
        <time>2011-06-26T07:00:36Z</time>
      </trkpt>
      <trkpt lat="48.03798" lon="-0.78897">
        <ele>80.809701</ele>
        <time>2011-06-26T07:00:38Z</time>
      </trkpt>
      <trkpt lat="48.03793" lon="-0.78888">
        <ele>80.972398</ele>
        <time>2011-06-26T07:00:40Z</time>
      </trkpt>
      <trkpt lat="48.03788" lon="-0.78879">
        <ele>81.191418</ele>
        <time>2011-06-26T07:00:42Z</time>
      </trkpt>
      <trkpt lat="48.0378" lon="-0.78871">
        <ele>81.437432</ele>
        <time>2011-06-26T07:00:45Z</time>
      </trkpt>
      <trkpt lat="48.03774" lon="-0.78869">
        <ele>81.634325</ele>
        <time>2011-06-26T07:00:47Z</time>
      </trkpt>
      <trkpt lat="48.03763" lon="-0.78869">
        <ele>81.730458</ele>
        <time>2011-06-26T07:00:50Z</time>
      </trkpt>
      <trkpt lat="48.03752" lon="-0.78869">
        <ele>81.746647</ele>
        <time>2011-06-26T07:00:53Z</time>
      </trkpt>
      <trkpt lat="48.03744" lon="-0.78869">
        <ele>81.722469</ele>
        <time>2011-06-26T07:00:55Z</time>
      </trkpt>
      <trkpt lat="48.03731" lon="-0.78868">
        <ele>81.674825</ele>
        <time>2011-06-26T07:00:58Z</time>
      </trkpt>
      <trkpt lat="48.03714" lon="-0.78864">
        <ele>81.598664</ele>
        <time>2011-06-26T07:01:01Z</time>
      </trkpt>
      <trkpt lat="48.03698" lon="-0.78861">
        <ele>81.48937</ele>
        <time>2011-06-26T07:01:04Z</time>
      </trkpt>
      <trkpt lat="48.03687" lon="-0.78859">
        <ele>81.356332</ele>
        <time>2011-06-26T07:01:07Z</time>
      </trkpt>
      <trkpt lat="48.03679" lon="-0.7886">
        <ele>81.202831</ele>
        <time>2011-06-26T07:01:09Z</time>
      </trkpt>
      <trkpt lat="48.03668" lon="-0.78861">
        <ele>81.049934</ele>
        <time>2011-06-26T07:01:12Z</time>
      </trkpt>
      <trkpt lat="48.03661" lon="-0.78861">
        <ele>80.949991</ele>
        <time>2011-06-26T07:01:14Z</time>
      </trkpt>
      <trkpt lat="48.0365" lon="-0.7886">
        <ele>80.918401</ele>
        <time>2011-06-26T07:01:17Z</time>
      </trkpt>
      <trkpt lat="48.03642" lon="-0.78858">
        <ele>80.926592</ele>
        <time>2011-06-26T07:01:19Z</time>
      </trkpt>
      <trkpt lat="48.03631" lon="-0.78854">
        <ele>80.948182</ele>
        <time>2011-06-26T07:01:22Z</time>
      </trkpt>
      <trkpt lat="48.03624" lon="-0.78852">
        <ele>80.965554</ele>
        <time>2011-06-26T07:01:24Z</time>
      </trkpt>
      <trkpt lat="48.03617" lon="-0.78851">
        <ele>80.972465</ele>
        <time>2011-06-26T07:01:26Z</time>
      </trkpt>
      <trkpt lat="48.03611" lon="-0.7885">
        <ele>80.963442</ele>
        <time>2011-06-26T07:01:28Z</time>
      </trkpt>
      <trkpt lat="48.03601" lon="-0.78847">
        <ele>80.929382</ele>
        <time>2011-06-26T07:01:31Z</time>
      </trkpt>
      <trkpt lat="48.03595" lon="-0.78844">
        <ele>80.873323</ele>
        <time>2011-06-26T07:01:33Z</time>
      </trkpt>
      <trkpt lat="48.03586" lon="-0.78841">
        <ele>80.809936</ele>
        <time>2011-06-26T07:01:36Z</time>
      </trkpt>
      <trkpt lat="48.03578" lon="-0.78839">
        <ele>80.74926</ele>
        <time>2011-06-26T07:01:39Z</time>
      </trkpt>
      <trkpt lat="48.03574" lon="-0.78839">
        <ele>80.700419</ele>
        <time>2011-06-26T07:01:41Z</time>
      </trkpt>
      <trkpt lat="48.03568" lon="-0.78837">
        <ele>80.67312</ele>
        <time>2011-06-26T07:01:44Z</time>
      </trkpt>
      <trkpt lat="48.03563" lon="-0.78835">
        <ele>80.666508</ele>
        <time>2011-06-26T07:01:47Z</time>
      </trkpt>
      <trkpt lat="48.03557" lon="-0.78835">
        <ele>80.672227</ele>
        <time>2011-06-26T07:01:50Z</time>
      </trkpt>
      <trkpt lat="48.03551" lon="-0.78835">
        <ele>80.692866</ele>
        <time>2011-06-26T07:01:53Z</time>
      </trkpt>
      <trkpt lat="48.03546" lon="-0.78833">
        <ele>80.727219</ele>
        <time>2011-06-26T07:01:55Z</time>
      </trkpt>
      <trkpt lat="48.03542" lon="-0.7883">
        <ele>80.762169</ele>
        <time>2011-06-26T07:01:57Z</time>
      </trkpt>
      <trkpt lat="48.03534" lon="-0.78825">
        <ele>80.803862</ele>
        <time>2011-06-26T07:02:00Z</time>
      </trkpt>
      <trkpt lat="48.03528" lon="-0.78822">
        <ele>80.876414</ele>
        <time>2011-06-26T07:02:02Z</time>
      </trkpt>
      <trkpt lat="48.03518" lon="-0.78819">
        <ele>80.981535</ele>
        <time>2011-06-26T07:02:05Z</time>
      </trkpt>
      <trkpt lat="48.03511" lon="-0.78816">
        <ele>81.12717</ele>
        <time>2011-06-26T07:02:08Z</time>
      </trkpt>
      <trkpt lat="48.03504" lon="-0.78813">
        <ele>81.360263</ele>
        <time>2011-06-26T07:02:11Z</time>
      </trkpt>
      <trkpt lat="48.03498" lon="-0.78812">
        <ele>81.753201</ele>
        <time>2011-06-26T07:02:14Z</time>
      </trkpt>
      <trkpt lat="48.03492" lon="-0.78808">
        <ele>82.343148</ele>
        <time>2011-06-26T07:02:17Z</time>
      </trkpt>
      <trkpt lat="48.03485" lon="-0.78803">
        <ele>83.087391</ele>
        <time>2011-06-26T07:02:20Z</time>
      </trkpt>
      <trkpt lat="48.03479" lon="-0.78797">
        <ele>83.934595</ele>
        <time>2011-06-26T07:02:23Z</time>
      </trkpt>
      <trkpt lat="48.03473" lon="-0.78794">
        <ele>84.879084</ele>
        <time>2011-06-26T07:02:25Z</time>
      </trkpt>
      <trkpt lat="48.03465" lon="-0.78793">
        <ele>85.876399</ele>
        <time>2011-06-26T07:02:28Z</time>
      </trkpt>
      <trkpt lat="48.03456" lon="-0.78794">
        <ele>86.834856</ele>
        <time>2011-06-26T07:02:31Z</time>
      </trkpt>
      <trkpt lat="48.03449" lon="-0.78795">
        <ele>87.666205</ele>
        <time>2011-06-26T07:02:33Z</time>
      </trkpt>
      <trkpt lat="48.03439" lon="-0.78794">
        <ele>88.361023</ele>
        <time>2011-06-26T07:02:36Z</time>
      </trkpt>
      <trkpt lat="48.03432" lon="-0.78792">
        <ele>89.018671</ele>
        <time>2011-06-26T07:02:38Z</time>
      </trkpt>
      <trkpt lat="48.03422" lon="-0.78787">
        <ele>89.690543</ele>
        <time>2011-06-26T07:02:41Z</time>
      </trkpt>
      <trkpt lat="48.03416" lon="-0.78783">
        <ele>90.337285</ele>
        <time>2011-06-26T07:02:43Z</time>
      </trkpt>
      <trkpt lat="48.03408" lon="-0.78775">
        <ele>90.930196</ele>
        <time>2011-06-26T07:02:46Z</time>
      </trkpt>
      <trkpt lat="48.03402" lon="-0.7877">
        <ele>91.47446</ele>
        <time>2011-06-26T07:02:48Z</time>
      </trkpt>
      <trkpt lat="48.03394" lon="-0.78763">
        <ele>91.978979</ele>
        <time>2011-06-26T07:02:51Z</time>
      </trkpt>
      <trkpt lat="48.03389" lon="-0.78759">
        <ele>92.454461</ele>
        <time>2011-06-26T07:02:53Z</time>
      </trkpt>
      <trkpt lat="48.03378" lon="-0.78755">
        <ele>92.894489</ele>
        <time>2011-06-26T07:02:56Z</time>
      </trkpt>
      <trkpt lat="48.03367" lon="-0.78751">
        <ele>93.301521</ele>
        <time>2011-06-26T07:02:59Z</time>
      </trkpt>
      <trkpt lat="48.03361" lon="-0.78748">
        <ele>93.682492</ele>
        <time>2011-06-26T07:03:01Z</time>
      </trkpt>
      <trkpt lat="48.03355" lon="-0.7874">
        <ele>94.068704</ele>
        <time>2011-06-26T07:03:04Z</time>
      </trkpt>
      <trkpt lat="48.03352" lon="-0.78735">
        <ele>94.502931</ele>
        <time>2011-06-26T07:03:06Z</time>
      </trkpt>
      <trkpt lat="48.03348" lon="-0.78726">
        <ele>94.970145</ele>
        <time>2011-06-26T07:03:09Z</time>
      </trkpt>
      <trkpt lat="48.03343" lon="-0.78719">
        <ele>95.404143</ele>
        <time>2011-06-26T07:03:12Z</time>
      </trkpt>
      <trkpt lat="48.03334" lon="-0.7871">
        <ele>95.788906</ele>
        <time>2011-06-26T07:03:15Z</time>
      </trkpt>
      <trkpt lat="48.03325" lon="-0.78701">
        <ele>96.174139</ele>
        <time>2011-06-26T07:03:17Z</time>
      </trkpt>
      <trkpt lat="48.03315" lon="-0.78693">
        <ele>96.6246</ele>
        <time>2011-06-26T07:03:20Z</time>
      </trkpt>
      <trkpt lat="48.03306" lon="-0.78685">
        <ele>97.130786</ele>
        <time>2011-06-26T07:03:25Z</time>
      </trkpt>
      <trkpt lat="48.03306" lon="-0.78685">
        <ele>97.558059</ele>
        <time>2011-06-26T07:03:28Z</time>
      </trkpt>
      <trkpt lat="48.03306" lon="-0.78685">
        <ele>97.785977</ele>
        <time>2011-06-26T07:04:02Z</time>
      </trkpt>
      <trkpt lat="48.03306" lon="-0.78685">
        <ele>97.835624</ele>
        <time>2011-06-26T07:04:43Z</time>
      </trkpt>
      <trkpt lat="48.03303" lon="-0.78655">
        <ele>97.836867</ele>
        <time>2011-06-26T07:04:45Z</time>
      </trkpt>
      <trkpt lat="48.03303" lon="-0.78644">
        <ele>97.915097</ele>
        <time>2011-06-26T07:04:48Z</time>
      </trkpt>
      <trkpt lat="48.03303" lon="-0.78634">
        <ele>98.111782</ele>
        <time>2011-06-26T07:04:51Z</time>
      </trkpt>
      <trkpt lat="48.03304" lon="-0.78626">
        <ele>99.277261</ele>
        <time>2011-06-26T07:04:53Z</time>
      </trkpt>
      <trkpt lat="48.03304" lon="-0.78613">
        <ele>101.956334</ele>
        <time>2011-06-26T07:04:56Z</time>
      </trkpt>
      <trkpt lat="48.03304" lon="-0.78604">
        <ele>104.834551</ele>
        <time>2011-06-26T07:04:58Z</time>
      </trkpt>
      <trkpt lat="48.03305" lon="-0.78591">
        <ele>106.540552</ele>
        <time>2011-06-26T07:05:01Z</time>
      </trkpt>
      <trkpt lat="48.03305" lon="-0.78581">
        <ele>107.252575</ele>
        <time>2011-06-26T07:05:03Z</time>
      </trkpt>
      <trkpt lat="48.03306" lon="-0.7857">
        <ele>107.534276</ele>
        <time>2011-06-26T07:05:05Z</time>
      </trkpt>
      <trkpt lat="48.03306" lon="-0.78559">
        <ele>107.766765</ele>
        <time>2011-06-26T07:05:07Z</time>
      </trkpt>
      <trkpt lat="48.03304" lon="-0.7854">
        <ele>108.060367</ele>
        <time>2011-06-26T07:05:10Z</time>
      </trkpt>
      <trkpt lat="48.03305" lon="-0.78521">
        <ele>108.366178</ele>
        <time>2011-06-26T07:05:13Z</time>
      </trkpt>
      <trkpt lat="48.03306" lon="-0.78502">
        <ele>108.588267</ele>
        <time>2011-06-26T07:05:16Z</time>
      </trkpt>
      <trkpt lat="48.03306" lon="-0.78489">
        <ele>108.688708</ele>
        <time>2011-06-26T07:05:18Z</time>
      </trkpt>
      <trkpt lat="48.03308" lon="-0.78471">
        <ele>108.700957</ele>
        <time>2011-06-26T07:05:21Z</time>
      </trkpt>
      <trkpt lat="48.03309" lon="-0.78452">
        <ele>108.622106</ele>
        <time>2011-06-26T07:05:24Z</time>
      </trkpt>
      <trkpt lat="48.03309" lon="-0.78435">
        <ele>108.436494</ele>
        <time>2011-06-26T07:05:27Z</time>
      </trkpt>
      <trkpt lat="48.0331" lon="-0.7842">
        <ele>108.234461</ele>
        <time>2011-06-26T07:05:30Z</time>
      </trkpt>
      <trkpt lat="48.03312" lon="-0.784">
        <ele>108.113252</ele>
        <time>2011-06-26T07:05:33Z</time>
      </trkpt>
      <trkpt lat="48.03315" lon="-0.78377">
        <ele>108.063998</ele>
        <time>2011-06-26T07:05:36Z</time>
      </trkpt>
      <trkpt lat="48.03315" lon="-0.78377">
        <ele>108.046768</ele>
        <time>2011-06-26T07:05:38Z</time>
      </trkpt>
      <trkpt lat="48.03317" lon="-0.78355">
        <ele>108.025676</ele>
        <time>2011-06-26T07:05:39Z</time>
      </trkpt>
      <trkpt lat="48.03317" lon="-0.7833">
        <ele>107.987331</ele>
        <time>2011-06-26T07:05:42Z</time>
      </trkpt>
      <trkpt lat="48.03317" lon="-0.78313">
        <ele>107.944798</ele>
        <time>2011-06-26T07:05:44Z</time>
      </trkpt>
      <trkpt lat="48.03318" lon="-0.7829">
        <ele>107.906552</ele>
        <time>2011-06-26T07:05:47Z</time>
      </trkpt>
      <trkpt lat="48.03316" lon="-0.78264">
        <ele>107.874333</ele>
        <time>2011-06-26T07:05:50Z</time>
      </trkpt>
      <trkpt lat="48.03314" lon="-0.78236">
        <ele>107.822777</ele>
        <time>2011-06-26T07:05:53Z</time>
      </trkpt>
      <trkpt lat="48.03313" lon="-0.7822">
        <ele>107.723676</ele>
        <time>2011-06-26T07:05:55Z</time>
      </trkpt>
      <trkpt lat="48.03314" lon="-0.78198">
        <ele>107.396071</ele>
        <time>2011-06-26T07:05:58Z</time>
      </trkpt>
      <trkpt lat="48.03315" lon="-0.78176">
        <ele>106.675139</ele>
        <time>2011-06-26T07:06:01Z</time>
      </trkpt>
      <trkpt lat="48.03317" lon="-0.78162">
        <ele>105.82774</ele>
        <time>2011-06-26T07:06:03Z</time>
      </trkpt>
      <trkpt lat="48.0332" lon="-0.78138">
        <ele>105.168856</ele>
        <time>2011-06-26T07:06:06Z</time>
      </trkpt>
      <trkpt lat="48.03321" lon="-0.78122">
        <ele>104.683591</ele>
        <time>2011-06-26T07:06:08Z</time>
      </trkpt>
      <trkpt lat="48.03321" lon="-0.78101">
        <ele>104.337552</ele>
        <time>2011-06-26T07:06:11Z</time>
      </trkpt>
      <trkpt lat="48.03322" lon="-0.78082">
        <ele>104.079702</ele>
        <time>2011-06-26T07:06:14Z</time>
      </trkpt>
      <trkpt lat="48.03323" lon="-0.7807">
        <ele>103.716111</ele>
        <time>2011-06-26T07:06:16Z</time>
      </trkpt>
      <trkpt lat="48.03325" lon="-0.78054">
        <ele>103.070102</ele>
        <time>2011-06-26T07:06:19Z</time>
      </trkpt>
      <trkpt lat="48.03329" lon="-0.78048">
        <ele>102.240331</ele>
        <time>2011-06-26T07:06:21Z</time>
      </trkpt>
      <trkpt lat="48.03337" lon="-0.78043">
        <ele>101.577638</ele>
        <time>2011-06-26T07:06:24Z</time>
      </trkpt>
      <trkpt lat="48.03346" lon="-0.78034">
        <ele>101.269201</ele>
        <time>2011-06-26T07:06:27Z</time>
      </trkpt>
      <trkpt lat="48.03357" lon="-0.78021">
        <ele>101.20467</ele>
        <time>2011-06-26T07:06:30Z</time>
      </trkpt>
      <trkpt lat="48.03369" lon="-0.78013">
        <ele>101.216507</ele>
        <time>2011-06-26T07:06:33Z</time>
      </trkpt>
      <trkpt lat="48.03376" lon="-0.78011">
        <ele>101.182596</ele>
        <time>2011-06-26T07:06:35Z</time>
      </trkpt>
      <trkpt lat="48.03387" lon="-0.78006">
        <ele>100.910301</ele>
        <time>2011-06-26T07:06:38Z</time>
      </trkpt>
      <trkpt lat="48.03394" lon="-0.78003">
        <ele>100.235875</ele>
        <time>2011-06-26T07:06:40Z</time>
      </trkpt>
      <trkpt lat="48.03405" lon="-0.78">
        <ele>99.37526</ele>
        <time>2011-06-26T07:06:43Z</time>
      </trkpt>
      <trkpt lat="48.03405" lon="-0.78">
        <ele>98.761209</ele>
        <time>2011-06-26T07:06:43Z</time>
      </trkpt>
      <trkpt lat="48.03417" lon="-0.77998">
        <ele>98.51831</ele>
        <time>2011-06-26T07:06:46Z</time>
      </trkpt>
      <trkpt lat="48.03424" lon="-0.77999">
        <ele>98.462014</ele>
        <time>2011-06-26T07:06:48Z</time>
      </trkpt>
      <trkpt lat="48.03437" lon="-0.78">
        <ele>98.237467</ele>
        <time>2011-06-26T07:06:51Z</time>
      </trkpt>
      <trkpt lat="48.03446" lon="-0.78002">
        <ele>97.660183</ele>
        <time>2011-06-26T07:06:53Z</time>
      </trkpt>
      <trkpt lat="48.03457" lon="-0.78004">
        <ele>96.96112</ele>
        <time>2011-06-26T07:06:56Z</time>
      </trkpt>
      <trkpt lat="48.03469" lon="-0.78006">
        <ele>96.349866</ele>
        <time>2011-06-26T07:06:59Z</time>
      </trkpt>
      <trkpt lat="48.03477" lon="-0.78005">
        <ele>95.848148</ele>
        <time>2011-06-26T07:07:01Z</time>
      </trkpt>
      <trkpt lat="48.03477" lon="-0.78005">
        <ele>95.550417</ele>
        <time>2011-06-26T07:07:02Z</time>
      </trkpt>
      <trkpt lat="48.03486" lon="-0.77998">
        <ele>95.469484</ele>
        <time>2011-06-26T07:07:04Z</time>
      </trkpt>
      <trkpt lat="48.03491" lon="-0.7799">
        <ele>95.518375</ele>
        <time>2011-06-26T07:07:06Z</time>
      </trkpt>
      <trkpt lat="48.03496" lon="-0.77976">
        <ele>95.626369</ele>
        <time>2011-06-26T07:07:09Z</time>
      </trkpt>
      <trkpt lat="48.03504" lon="-0.77957">
        <ele>95.722281</ele>
        <time>2011-06-26T07:07:12Z</time>
      </trkpt>
      <trkpt lat="48.0351" lon="-0.77941">
        <ele>95.76564</ele>
        <time>2011-06-26T07:07:14Z</time>
      </trkpt>
      <trkpt lat="48.03517" lon="-0.77925">
        <ele>95.768911</ele>
        <time>2011-06-26T07:07:16Z</time>
      </trkpt>
      <trkpt lat="48.03526" lon="-0.77902">
        <ele>95.741144</ele>
        <time>2011-06-26T07:07:19Z</time>
      </trkpt>
      <trkpt lat="48.03533" lon="-0.77889">
        <ele>95.402793</ele>
        <time>2011-06-26T07:07:21Z</time>
      </trkpt>
      <trkpt lat="48.03541" lon="-0.77871">
        <ele>94.355673</ele>
        <time>2011-06-26T07:07:24Z</time>
      </trkpt>
      <trkpt lat="48.03547" lon="-0.77853">
        <ele>92.520769</ele>
        <time>2011-06-26T07:07:27Z</time>
      </trkpt>
      <trkpt lat="48.03551" lon="-0.7784">
        <ele>90.317109</ele>
        <time>2011-06-26T07:07:29Z</time>
      </trkpt>
      <trkpt lat="48.03556" lon="-0.77826">
        <ele>88.483888</ele>
        <time>2011-06-26T07:07:32Z</time>
      </trkpt>
      <trkpt lat="48.03557" lon="-0.77818">
        <ele>87.513344</ele>
        <time>2011-06-26T07:07:34Z</time>
      </trkpt>
      <trkpt lat="48.03559" lon="-0.77811">
        <ele>87.222224</ele>
        <time>2011-06-26T07:07:36Z</time>
      </trkpt>
      <trkpt lat="48.03561" lon="-0.77804">
        <ele>87.20399</ele>
        <time>2011-06-26T07:07:38Z</time>
      </trkpt>
      <trkpt lat="48.03565" lon="-0.77795">
        <ele>87.220232</ele>
        <time>2011-06-26T07:07:41Z</time>
      </trkpt>
      <trkpt lat="48.03567" lon="-0.77787">
        <ele>87.198933</ele>
        <time>2011-06-26T07:07:43Z</time>
      </trkpt>
      <trkpt lat="48.03569" lon="-0.77774">
        <ele>87.127045</ele>
        <time>2011-06-26T07:07:46Z</time>
      </trkpt>
      <trkpt lat="48.03571" lon="-0.77767">
        <ele>87.01625</ele>
        <time>2011-06-26T07:07:48Z</time>
      </trkpt>
      <trkpt lat="48.03572" lon="-0.7776">
        <ele>86.892321</ele>
        <time>2011-06-26T07:07:50Z</time>
      </trkpt>
      <trkpt lat="48.03575" lon="-0.77751">
        <ele>86.784889</ele>
        <time>2011-06-26T07:07:53Z</time>
      </trkpt>
      <trkpt lat="48.03574" lon="-0.77744">
        <ele>86.703904</ele>
        <time>2011-06-26T07:07:56Z</time>
      </trkpt>
      <trkpt lat="48.03569" lon="-0.77741">
        <ele>86.642153</ele>
        <time>2011-06-26T07:08:00Z</time>
      </trkpt>
      <trkpt lat="48.03564" lon="-0.77741">
        <ele>86.598653</ele>
        <time>2011-06-26T07:08:04Z</time>
      </trkpt>
      <trkpt lat="48.03558" lon="-0.77742">
        <ele>86.576612</ele>
        <time>2011-06-26T07:08:07Z</time>
      </trkpt>
      <trkpt lat="48.03551" lon="-0.77743">
        <ele>86.572433</ele>
        <time>2011-06-26T07:08:10Z</time>
      </trkpt>
      <trkpt lat="48.03544" lon="-0.77745">
        <ele>86.610757</ele>
        <time>2011-06-26T07:08:13Z</time>
      </trkpt>
      <trkpt lat="48.03535" lon="-0.77748">
        <ele>86.798287</ele>
        <time>2011-06-26T07:08:16Z</time>
      </trkpt>
      <trkpt lat="48.03529" lon="-0.77749">
        <ele>87.240937</ele>
        <time>2011-06-26T07:08:18Z</time>
      </trkpt>
      <trkpt lat="48.03519" lon="-0.77746">
        <ele>87.918647</ele>
        <time>2011-06-26T07:08:21Z</time>
      </trkpt>
      <trkpt lat="48.03512" lon="-0.77741">
        <ele>88.716166</ele>
        <time>2011-06-26T07:08:23Z</time>
      </trkpt>
      <trkpt lat="48.03501" lon="-0.77734">
        <ele>89.497117</ele>
        <time>2011-06-26T07:08:26Z</time>
      </trkpt>
      <trkpt lat="48.03493" lon="-0.7773">
        <ele>90.728055</ele>
        <time>2011-06-26T07:08:28Z</time>
      </trkpt>
      <trkpt lat="48.03479" lon="-0.77723">
        <ele>92.715126</ele>
        <time>2011-06-26T07:08:31Z</time>
      </trkpt>
      <trkpt lat="48.03468" lon="-0.77719">
        <ele>94.734548</ele>
        <time>2011-06-26T07:08:33Z</time>
      </trkpt>
      <trkpt lat="48.03451" lon="-0.77715">
        <ele>96.127838</ele>
        <time>2011-06-26T07:08:36Z</time>
      </trkpt>
      <trkpt lat="48.03433" lon="-0.77712">
        <ele>97.111614</ele>
        <time>2011-06-26T07:08:39Z</time>
      </trkpt>
      <trkpt lat="48.03415" lon="-0.77709">
        <ele>98.012614</ele>
        <time>2011-06-26T07:08:42Z</time>
      </trkpt>
      <trkpt lat="48.03397" lon="-0.77704">
        <ele>99.024145</ele>
        <time>2011-06-26T07:08:45Z</time>
      </trkpt>
      <trkpt lat="48.0337" lon="-0.77697">
        <ele>100.118427</ele>
        <time>2011-06-26T07:08:48Z</time>
      </trkpt>
      <trkpt lat="48.0335" lon="-0.77688">
        <ele>101.172489</ele>
        <time>2011-06-26T07:08:51Z</time>
      </trkpt>
      <trkpt lat="48.03328" lon="-0.77675">
        <ele>102.072129</ele>
        <time>2011-06-26T07:08:54Z</time>
      </trkpt>
      <trkpt lat="48.03307" lon="-0.77662">
        <ele>102.806739</ele>
        <time>2011-06-26T07:08:57Z</time>
      </trkpt>
      <trkpt lat="48.03294" lon="-0.77653">
        <ele>103.470037</ele>
        <time>2011-06-26T07:08:59Z</time>
      </trkpt>
      <trkpt lat="48.03281" lon="-0.77644">
        <ele>104.232612</ele>
        <time>2011-06-26T07:09:01Z</time>
      </trkpt>
      <trkpt lat="48.03263" lon="-0.77632">
        <ele>105.178905</ele>
        <time>2011-06-26T07:09:04Z</time>
      </trkpt>
      <trkpt lat="48.03252" lon="-0.77624">
        <ele>106.16034</ele>
        <time>2011-06-26T07:09:06Z</time>
      </trkpt>
      <trkpt lat="48.03236" lon="-0.77613">
        <ele>106.907153</ele>
        <time>2011-06-26T07:09:09Z</time>
      </trkpt>
      <trkpt lat="48.03222" lon="-0.776">
        <ele>107.288406</ele>
        <time>2011-06-26T07:09:12Z</time>
      </trkpt>
      <trkpt lat="48.03207" lon="-0.77594">
        <ele>107.402582</ele>
        <time>2011-06-26T07:09:15Z</time>
      </trkpt>
      <trkpt lat="48.03197" lon="-0.77589">
        <ele>107.419619</ele>
        <time>2011-06-26T07:09:17Z</time>
      </trkpt>
      <trkpt lat="48.03182" lon="-0.77578">
        <ele>107.436639</ele>
        <time>2011-06-26T07:09:20Z</time>
      </trkpt>
      <trkpt lat="48.03168" lon="-0.77568">
        <ele>107.469625</ele>
        <time>2011-06-26T07:09:23Z</time>
      </trkpt>
      <trkpt lat="48.03152" lon="-0.77558">
        <ele>107.510035</ele>
        <time>2011-06-26T07:09:26Z</time>
      </trkpt>
      <trkpt lat="48.03142" lon="-0.77551">
        <ele>107.553401</ele>
        <time>2011-06-26T07:09:28Z</time>
      </trkpt>
      <trkpt lat="48.03127" lon="-0.77542">
        <ele>107.640928</ele>
        <time>2011-06-26T07:09:31Z</time>
      </trkpt>
      <trkpt lat="48.03112" lon="-0.77531">
        <ele>107.834518</ele>
        <time>2011-06-26T07:09:34Z</time>
      </trkpt>
      <trkpt lat="48.03096" lon="-0.77521">
        <ele>108.104052</ele>
        <time>2011-06-26T07:09:37Z</time>
      </trkpt>
      <trkpt lat="48.03096" lon="-0.77521">
        <ele>108.323171</ele>
        <time>2011-06-26T07:09:38Z</time>
      </trkpt>
      <trkpt lat="48.0308" lon="-0.77511">
        <ele>108.441569</ele>
        <time>2011-06-26T07:09:40Z</time>
      </trkpt>
      <trkpt lat="48.03069" lon="-0.77504">
        <ele>108.52035</ele>
        <time>2011-06-26T07:09:42Z</time>
      </trkpt>
      <trkpt lat="48.03054" lon="-0.77495">
        <ele>108.603853</ele>
        <time>2011-06-26T07:09:45Z</time>
      </trkpt>
      <trkpt lat="48.03044" lon="-0.7749">
        <ele>108.674444</ele>
        <time>2011-06-26T07:09:47Z</time>
      </trkpt>
      <trkpt lat="48.0303" lon="-0.77481">
        <ele>108.72349</ele>
        <time>2011-06-26T07:09:50Z</time>
      </trkpt>
      <trkpt lat="48.03016" lon="-0.77474">
        <ele>108.84382</ele>
        <time>2011-06-26T07:09:53Z</time>
      </trkpt>
      <trkpt lat="48.03016" lon="-0.77474">
        <ele>109.080956</ele>
        <time>2011-06-26T07:09:53Z</time>
      </trkpt>
      <trkpt lat="48.03008" lon="-0.77469">
        <ele>109.356664</ele>
        <time>2011-06-26T07:09:55Z</time>
      </trkpt>
      <trkpt lat="48.02998" lon="-0.77465">
        <ele>109.646955</ele>
        <time>2011-06-26T07:09:58Z</time>
      </trkpt>
      <trkpt lat="48.02992" lon="-0.77466">
        <ele>109.952843</ele>
        <time>2011-06-26T07:10:00Z</time>
      </trkpt>
      <trkpt lat="48.02984" lon="-0.77466">
        <ele>110.19515</ele>
        <time>2011-06-26T07:10:03Z</time>
      </trkpt>
      <trkpt lat="48.0298" lon="-0.7746">
        <ele>110.332697</ele>
        <time>2011-06-26T07:10:05Z</time>
      </trkpt>
      <trkpt lat="48.02978" lon="-0.77442">
        <ele>110.382791</ele>
        <time>2011-06-26T07:10:08Z</time>
      </trkpt>
      <trkpt lat="48.0298" lon="-0.77423">
        <ele>110.38127</ele>
        <time>2011-06-26T07:10:11Z</time>
      </trkpt>
      <trkpt lat="48.02987" lon="-0.77409">
        <ele>110.365029</ele>
        <time>2011-06-26T07:10:14Z</time>
      </trkpt>
      <trkpt lat="48.02995" lon="-0.77395">
        <ele>110.309071</ele>
        <time>2011-06-26T07:10:17Z</time>
      </trkpt>
      <trkpt lat="48.03002" lon="-0.77377">
        <ele>110.145729</ele>
        <time>2011-06-26T07:10:20Z</time>
      </trkpt>
      <trkpt lat="48.03002" lon="-0.77377">
        <ele>109.910882</ele>
        <time>2011-06-26T07:10:23Z</time>
      </trkpt>
      <trkpt lat="48.03011" lon="-0.77361">
        <ele>109.705681</ele>
        <time>2011-06-26T07:10:23Z</time>
      </trkpt>
      <trkpt lat="48.03022" lon="-0.77354">
        <ele>109.549017</ele>
        <time>2011-06-26T07:10:26Z</time>
      </trkpt>
      <trkpt lat="48.0303" lon="-0.77343">
        <ele>109.417231</ele>
        <time>2011-06-26T07:10:28Z</time>
      </trkpt>
      <trkpt lat="48.03038" lon="-0.77332">
        <ele>109.296713</ele>
        <time>2011-06-26T07:10:30Z</time>
      </trkpt>
      <trkpt lat="48.03045" lon="-0.7732">
        <ele>109.154289</ele>
        <time>2011-06-26T07:10:32Z</time>
      </trkpt>
      <trkpt lat="48.03045" lon="-0.77307">
        <ele>108.926963</ele>
        <time>2011-06-26T07:10:34Z</time>
      </trkpt>
      <trkpt lat="48.0304" lon="-0.77298">
        <ele>108.519312</ele>
        <time>2011-06-26T07:10:36Z</time>
      </trkpt>
      <trkpt lat="48.03032" lon="-0.77287">
        <ele>107.939198</ele>
        <time>2011-06-26T07:10:39Z</time>
      </trkpt>
      <trkpt lat="48.03024" lon="-0.77275">
        <ele>107.370663</ele>
        <time>2011-06-26T07:10:42Z</time>
      </trkpt>
      <trkpt lat="48.03019" lon="-0.77267">
        <ele>107.000154</ele>
        <time>2011-06-26T07:10:44Z</time>
      </trkpt>
      <trkpt lat="48.03013" lon="-0.77258">
        <ele>106.857697</ele>
        <time>2011-06-26T07:10:46Z</time>
      </trkpt>
      <trkpt lat="48.03006" lon="-0.77249">
        <ele>106.856141</ele>
        <time>2011-06-26T07:10:48Z</time>
      </trkpt>
      <trkpt lat="48.02996" lon="-0.77233">
        <ele>106.912794</ele>
        <time>2011-06-26T07:10:51Z</time>
      </trkpt>
      <trkpt lat="48.02984" lon="-0.77216">
        <ele>107.070253</ele>
        <time>2011-06-26T07:10:54Z</time>
      </trkpt>
      <trkpt lat="48.02977" lon="-0.77203">
        <ele>107.427067</ele>
        <time>2011-06-26T07:10:56Z</time>
      </trkpt>
      <trkpt lat="48.02967" lon="-0.77185">
        <ele>107.977314</ele>
        <time>2011-06-26T07:10:59Z</time>
      </trkpt>
      <trkpt lat="48.02961" lon="-0.77172">
        <ele>108.572708</ele>
        <time>2011-06-26T07:11:01Z</time>
      </trkpt>
      <trkpt lat="48.02951" lon="-0.77153">
        <ele>109.052561</ele>
        <time>2011-06-26T07:11:04Z</time>
      </trkpt>
      <trkpt lat="48.02944" lon="-0.77141">
        <ele>109.394865</ele>
        <time>2011-06-26T07:11:06Z</time>
      </trkpt>
      <trkpt lat="48.02934" lon="-0.77122">
        <ele>109.65805</ele>
        <time>2011-06-26T07:11:09Z</time>
      </trkpt>
      <trkpt lat="48.02926" lon="-0.77104">
        <ele>109.84487</ele>
        <time>2011-06-26T07:11:12Z</time>
      </trkpt>
      <trkpt lat="48.0292" lon="-0.77088">
        <ele>109.95298</ele>
        <time>2011-06-26T07:11:15Z</time>
      </trkpt>
      <trkpt lat="48.02916" lon="-0.77078">
        <ele>110.016647</ele>
        <time>2011-06-26T07:11:17Z</time>
      </trkpt>
      <trkpt lat="48.0291" lon="-0.77066">
        <ele>110.062103</ele>
        <time>2011-06-26T07:11:20Z</time>
      </trkpt>
      <trkpt lat="48.02905" lon="-0.77056">
        <ele>110.095486</ele>
        <time>2011-06-26T07:11:22Z</time>
      </trkpt>
      <trkpt lat="48.029" lon="-0.77045">
        <ele>110.112804</ele>
        <time>2011-06-26T07:11:24Z</time>
      </trkpt>
      <trkpt lat="48.02894" lon="-0.77033">
        <ele>110.116316</ele>
        <time>2011-06-26T07:11:26Z</time>
      </trkpt>
      <trkpt lat="48.02888" lon="-0.77021">
        <ele>110.086712</ele>
        <time>2011-06-26T07:11:28Z</time>
      </trkpt>
      <trkpt lat="48.02879" lon="-0.77005">
        <ele>109.984815</ele>
        <time>2011-06-26T07:11:31Z</time>
      </trkpt>
      <trkpt lat="48.02873" lon="-0.76995">
        <ele>109.712453</ele>
        <time>2011-06-26T07:11:33Z</time>
      </trkpt>
      <trkpt lat="48.02863" lon="-0.76981">
        <ele>109.08911</ele>
        <time>2011-06-26T07:11:36Z</time>
      </trkpt>
      <trkpt lat="48.02855" lon="-0.7697">
        <ele>108.037633</ele>
        <time>2011-06-26T07:11:38Z</time>
      </trkpt>
      <trkpt lat="48.02847" lon="-0.76961">
        <ele>106.80586</ele>
        <time>2011-06-26T07:11:40Z</time>
      </trkpt>
      <trkpt lat="48.02836" lon="-0.76947">
        <ele>105.80244</ele>
        <time>2011-06-26T07:11:43Z</time>
      </trkpt>
      <trkpt lat="48.02824" lon="-0.76935">
        <ele>105.243781</ele>
        <time>2011-06-26T07:11:46Z</time>
      </trkpt>
      <trkpt lat="48.02818" lon="-0.76928">
        <ele>105.014904</ele>
        <time>2011-06-26T07:11:48Z</time>
      </trkpt>
      <trkpt lat="48.02813" lon="-0.76913">
        <ele>104.872291</ele>
        <time>2011-06-26T07:11:51Z</time>
      </trkpt>
      <trkpt lat="48.02813" lon="-0.76913">
        <ele>104.716095</ele>
        <time>2011-06-26T07:11:52Z</time>
      </trkpt>
      <trkpt lat="48.02811" lon="-0.76891">
        <ele>104.587519</ele>
        <time>2011-06-26T07:11:54Z</time>
      </trkpt>
      <trkpt lat="48.02811" lon="-0.76877">
        <ele>104.506037</ele>
        <time>2011-06-26T07:11:56Z</time>
      </trkpt>
      <trkpt lat="48.02814" lon="-0.76856">
        <ele>104.462417</ele>
        <time>2011-06-26T07:11:59Z</time>
      </trkpt>
      <trkpt lat="48.02817" lon="-0.76833">
        <ele>104.395984</ele>
        <time>2011-06-26T07:12:02Z</time>
      </trkpt>
      <trkpt lat="48.02817" lon="-0.76817">
        <ele>104.224732</ele>
        <time>2011-06-26T07:12:04Z</time>
      </trkpt>
      <trkpt lat="48.02816" lon="-0.76793">
        <ele>103.973312</ele>
        <time>2011-06-26T07:12:07Z</time>
      </trkpt>
      <trkpt lat="48.02815" lon="-0.76778">
        <ele>103.6908</ele>
        <time>2011-06-26T07:12:09Z</time>
      </trkpt>
      <trkpt lat="48.02813" lon="-0.76769">
        <ele>103.383838</ele>
        <time>2011-06-26T07:12:12Z</time>
      </trkpt>
      <trkpt lat="48.02815" lon="-0.76762">
        <ele>103.07826</ele>
        <time>2011-06-26T07:12:16Z</time>
      </trkpt>
      <trkpt lat="48.02814" lon="-0.76754">
        <ele>102.799335</ele>
        <time>2011-06-26T07:12:20Z</time>
      </trkpt>
      <trkpt lat="48.02811" lon="-0.76747">
        <ele>102.580489</ele>
        <time>2011-06-26T07:12:23Z</time>
      </trkpt>
      <trkpt lat="48.02808" lon="-0.7674">
        <ele>102.467085</ele>
        <time>2011-06-26T07:12:26Z</time>
      </trkpt>
      <trkpt lat="48.02808" lon="-0.76732">
        <ele>102.444163</ele>
        <time>2011-06-26T07:12:30Z</time>
      </trkpt>
      <trkpt lat="48.02804" lon="-0.76723">
        <ele>102.457947</ele>
        <time>2011-06-26T07:12:33Z</time>
      </trkpt>
      <trkpt lat="48.02804" lon="-0.76723">
        <ele>102.472453</ele>
        <time>2011-06-26T07:12:34Z</time>
      </trkpt>
      <trkpt lat="48.02802" lon="-0.76706">
        <ele>102.478143</ele>
        <time>2011-06-26T07:12:36Z</time>
      </trkpt>
      <trkpt lat="48.02802" lon="-0.76685">
        <ele>102.477319</ele>
        <time>2011-06-26T07:12:39Z</time>
      </trkpt>
      <trkpt lat="48.02802" lon="-0.76664">
        <ele>102.455532</ele>
        <time>2011-06-26T07:12:42Z</time>
      </trkpt>
      <trkpt lat="48.02796" lon="-0.76649">
        <ele>102.378345</ele>
        <time>2011-06-26T07:12:45Z</time>
      </trkpt>
      <trkpt lat="48.02793" lon="-0.76643">
        <ele>102.213856</ele>
        <time>2011-06-26T07:12:47Z</time>
      </trkpt>
      <trkpt lat="48.02789" lon="-0.76638">
        <ele>101.922272</ele>
        <time>2011-06-26T07:12:50Z</time>
      </trkpt>
      <trkpt lat="48.02787" lon="-0.76631">
        <ele>101.437813</ele>
        <time>2011-06-26T07:12:53Z</time>
      </trkpt>
      <trkpt lat="48.02782" lon="-0.76626">
        <ele>100.829755</ele>
        <time>2011-06-26T07:12:55Z</time>
      </trkpt>
      <trkpt lat="48.02776" lon="-0.7662">
        <ele>100.301827</ele>
        <time>2011-06-26T07:12:57Z</time>
      </trkpt>
      <trkpt lat="48.02767" lon="-0.76607">
        <ele>99.933987</ele>
        <time>2011-06-26T07:13:00Z</time>
      </trkpt>
      <trkpt lat="48.02757" lon="-0.76594">
        <ele>99.663488</ele>
        <time>2011-06-26T07:13:03Z</time>
      </trkpt>
      <trkpt lat="48.02748" lon="-0.76592">
        <ele>99.446183</ele>
        <time>2011-06-26T07:13:05Z</time>
      </trkpt>
      <trkpt lat="48.02736" lon="-0.76591">
        <ele>99.032758</ele>
        <time>2011-06-26T07:13:08Z</time>
      </trkpt>
      <trkpt lat="48.02724" lon="-0.76585">
        <ele>98.104784</ele>
        <time>2011-06-26T07:13:11Z</time>
      </trkpt>
      <trkpt lat="48.02717" lon="-0.76579">
        <ele>96.88005</ele>
        <time>2011-06-26T07:13:13Z</time>
      </trkpt>
      <trkpt lat="48.02709" lon="-0.76574">
        <ele>95.948976</ele>
        <time>2011-06-26T07:13:16Z</time>
      </trkpt>
      <trkpt lat="48.02709" lon="-0.76574">
        <ele>95.54718</ele>
        <time>2011-06-26T07:13:17Z</time>
      </trkpt>
      <trkpt lat="48.02701" lon="-0.76577">
        <ele>95.501189</ele>
        <time>2011-06-26T07:13:19Z</time>
      </trkpt>
      <trkpt lat="48.02692" lon="-0.76581">
        <ele>95.577045</ele>
        <time>2011-06-26T07:13:22Z</time>
      </trkpt>
      <trkpt lat="48.02683" lon="-0.76586">
        <ele>95.651232</ele>
        <time>2011-06-26T07:13:25Z</time>
      </trkpt>
      <trkpt lat="48.02676" lon="-0.76594">
        <ele>95.697757</ele>
        <time>2011-06-26T07:13:27Z</time>
      </trkpt>
      <trkpt lat="48.0267" lon="-0.76601">
        <ele>95.7394</ele>
        <time>2011-06-26T07:13:29Z</time>
      </trkpt>
      <trkpt lat="48.0266" lon="-0.76613">
        <ele>95.826703</ele>
        <time>2011-06-26T07:13:32Z</time>
      </trkpt>
      <trkpt lat="48.02651" lon="-0.76625">
        <ele>95.974244</ele>
        <time>2011-06-26T07:13:35Z</time>
      </trkpt>
      <trkpt lat="48.02644" lon="-0.76641">
        <ele>96.12043</ele>
        <time>2011-06-26T07:13:38Z</time>
      </trkpt>
      <trkpt lat="48.02639" lon="-0.76654">
        <ele>96.201189</ele>
        <time>2011-06-26T07:13:40Z</time>
      </trkpt>
      <trkpt lat="48.02629" lon="-0.76673">
        <ele>96.220265</ele>
        <time>2011-06-26T07:13:43Z</time>
      </trkpt>
      <trkpt lat="48.02618" lon="-0.76692">
        <ele>96.210946</ele>
        <time>2011-06-26T07:13:46Z</time>
      </trkpt>
      <trkpt lat="48.02602" lon="-0.76709">
        <ele>96.197293</ele>
        <time>2011-06-26T07:13:49Z</time>
      </trkpt>
      <trkpt lat="48.02602" lon="-0.76709">
        <ele>96.182217</ele>
        <time>2011-06-26T07:13:51Z</time>
      </trkpt>
      <trkpt lat="48.02591" lon="-0.76718">
        <ele>96.162154</ele>
        <time>2011-06-26T07:13:51Z</time>
      </trkpt>
      <trkpt lat="48.02575" lon="-0.76731">
        <ele>96.151363</ele>
        <time>2011-06-26T07:13:54Z</time>
      </trkpt>
      <trkpt lat="48.02563" lon="-0.76744">
        <ele>96.199605</ele>
        <time>2011-06-26T07:13:57Z</time>
      </trkpt>
      <trkpt lat="48.02554" lon="-0.76747">
        <ele>96.333454</ele>
        <time>2011-06-26T07:14:00Z</time>
      </trkpt>
      <trkpt lat="48.02549" lon="-0.76734">
        <ele>96.490335</ele>
        <time>2011-06-26T07:14:03Z</time>
      </trkpt>
      <trkpt lat="48.02547" lon="-0.76717">
        <ele>96.587413</ele>
        <time>2011-06-26T07:14:05Z</time>
      </trkpt>
      <trkpt lat="48.02543" lon="-0.76693">
        <ele>96.625272</ele>
        <time>2011-06-26T07:14:08Z</time>
      </trkpt>
      <trkpt lat="48.02541" lon="-0.7668">
        <ele>96.643787</ele>
        <time>2011-06-26T07:14:10Z</time>
      </trkpt>
      <trkpt lat="48.02538" lon="-0.7666">
        <ele>96.65648</ele>
        <time>2011-06-26T07:14:13Z</time>
      </trkpt>
      <trkpt lat="48.02536" lon="-0.76647">
        <ele>96.898498</ele>
        <time>2011-06-26T07:14:15Z</time>
      </trkpt>
      <trkpt lat="48.02533" lon="-0.76635">
        <ele>97.774971</ele>
        <time>2011-06-26T07:14:17Z</time>
      </trkpt>
      <trkpt lat="48.0253" lon="-0.76623">
        <ele>99.358507</ele>
        <time>2011-06-26T07:14:19Z</time>
      </trkpt>
      <trkpt lat="48.02526" lon="-0.76606">
        <ele>101.238753</ele>
        <time>2011-06-26T07:14:22Z</time>
      </trkpt>
      <trkpt lat="48.02521" lon="-0.76588">
        <ele>102.905027</ele>
        <time>2011-06-26T07:14:25Z</time>
      </trkpt>
      <trkpt lat="48.02518" lon="-0.76576">
        <ele>104.079218</ele>
        <time>2011-06-26T07:14:27Z</time>
      </trkpt>
      <trkpt lat="48.02518" lon="-0.76576">
        <ele>104.739853</ele>
        <time>2011-06-26T07:14:29Z</time>
      </trkpt>
      <trkpt lat="48.02512" lon="-0.76561">
        <ele>105.057633</ele>
        <time>2011-06-26T07:14:30Z</time>
      </trkpt>
      <trkpt lat="48.02505" lon="-0.76555">
        <ele>105.334763</ele>
        <time>2011-06-26T07:14:32Z</time>
      </trkpt>
      <trkpt lat="48.02498" lon="-0.7655">
        <ele>105.714967</ele>
        <time>2011-06-26T07:14:34Z</time>
      </trkpt>
      <trkpt lat="48.02489" lon="-0.76539">
        <ele>106.122366</ele>
        <time>2011-06-26T07:14:37Z</time>
      </trkpt>
      <trkpt lat="48.02482" lon="-0.7653">
        <ele>106.455543</ele>
        <time>2011-06-26T07:14:39Z</time>
      </trkpt>
      <trkpt lat="48.02473" lon="-0.76522">
        <ele>106.648208</ele>
        <time>2011-06-26T07:14:41Z</time>
      </trkpt>
      <trkpt lat="48.02464" lon="-0.76516">
        <ele>106.705264</ele>
        <time>2011-06-26T07:14:43Z</time>
      </trkpt>
      <trkpt lat="48.02464" lon="-0.76516">
        <ele>106.693275</ele>
        <time>2011-06-26T07:14:43Z</time>
      </trkpt>
      <trkpt lat="48.02451" lon="-0.76509">
        <ele>106.658349</ele>
        <time>2011-06-26T07:14:46Z</time>
      </trkpt>
      <trkpt lat="48.02439" lon="-0.76499">
        <ele>106.617498</ele>
        <time>2011-06-26T07:14:49Z</time>
      </trkpt>
      <trkpt lat="48.02428" lon="-0.76489">
        <ele>106.58037</ele>
        <time>2011-06-26T07:14:52Z</time>
      </trkpt>
      <trkpt lat="48.02421" lon="-0.76482">
        <ele>106.505166</ele>
        <time>2011-06-26T07:14:54Z</time>
      </trkpt>
      <trkpt lat="48.02409" lon="-0.76473">
        <ele>106.275938</ele>
        <time>2011-06-26T07:14:57Z</time>
      </trkpt>
      <trkpt lat="48.024" lon="-0.76468">
        <ele>105.848975</ele>
        <time>2011-06-26T07:14:59Z</time>
      </trkpt>
      <trkpt lat="48.02393" lon="-0.7646">
        <ele>105.362118</ele>
        <time>2011-06-26T07:15:01Z</time>
      </trkpt>
      <trkpt lat="48.02386" lon="-0.76451">
        <ele>104.964212</ele>
        <time>2011-06-26T07:15:03Z</time>
      </trkpt>
      <trkpt lat="48.02375" lon="-0.76439">
        <ele>104.661001</ele>
        <time>2011-06-26T07:15:06Z</time>
      </trkpt>
      <trkpt lat="48.02368" lon="-0.7643">
        <ele>104.409111</ele>
        <time>2011-06-26T07:15:08Z</time>
      </trkpt>
      <trkpt lat="48.02358" lon="-0.76417">
        <ele>104.212725</ele>
        <time>2011-06-26T07:15:11Z</time>
      </trkpt>
      <trkpt lat="48.02351" lon="-0.76407">
        <ele>104.09087</ele>
        <time>2011-06-26T07:15:13Z</time>
      </trkpt>
      <trkpt lat="48.0234" lon="-0.76394">
        <ele>104.037461</ele>
        <time>2011-06-26T07:15:16Z</time>
      </trkpt>
      <trkpt lat="48.02328" lon="-0.76382">
        <ele>104.007356</ele>
        <time>2011-06-26T07:15:19Z</time>
      </trkpt>
      <trkpt lat="48.02316" lon="-0.76372">
        <ele>103.944816</ele>
        <time>2011-06-26T07:15:22Z</time>
      </trkpt>
      <trkpt lat="48.02305" lon="-0.76361">
        <ele>103.849663</ele>
        <time>2011-06-26T07:15:25Z</time>
      </trkpt>
      <trkpt lat="48.02297" lon="-0.76355">
        <ele>103.774919</ele>
        <time>2011-06-26T07:15:27Z</time>
      </trkpt>
      <trkpt lat="48.02284" lon="-0.76344">
        <ele>103.745824</ele>
        <time>2011-06-26T07:15:30Z</time>
      </trkpt>
      <trkpt lat="48.02276" lon="-0.76338">
        <ele>103.805379</ele>
        <time>2011-06-26T07:15:32Z</time>
      </trkpt>
      <trkpt lat="48.02276" lon="-0.76338">
        <ele>103.96986</ele>
        <time>2011-06-26T07:15:33Z</time>
      </trkpt>
      <trkpt lat="48.02267" lon="-0.76332">
        <ele>104.155274</ele>
        <time>2011-06-26T07:15:34Z</time>
      </trkpt>
      <trkpt lat="48.02254" lon="-0.76325">
        <ele>104.285459</ele>
        <time>2011-06-26T07:15:37Z</time>
      </trkpt>
      <trkpt lat="48.02241" lon="-0.76317">
        <ele>104.356237</ele>
        <time>2011-06-26T07:15:40Z</time>
      </trkpt>
      <trkpt lat="48.02228" lon="-0.76306">
        <ele>104.379925</ele>
        <time>2011-06-26T07:15:43Z</time>
      </trkpt>
      <trkpt lat="48.0222" lon="-0.76298">
        <ele>104.423366</ele>
        <time>2011-06-26T07:15:45Z</time>
      </trkpt>
      <trkpt lat="48.02213" lon="-0.76288">
        <ele>104.589448</ele>
        <time>2011-06-26T07:15:47Z</time>
      </trkpt>
      <trkpt lat="48.02207" lon="-0.76275">
        <ele>104.884568</ele>
        <time>2011-06-26T07:15:49Z</time>
      </trkpt>
      <trkpt lat="48.02198" lon="-0.76256">
        <ele>105.172173</ele>
        <time>2011-06-26T07:15:52Z</time>
      </trkpt>
      <trkpt lat="48.02193" lon="-0.76242">
        <ele>105.34474</ele>
        <time>2011-06-26T07:15:54Z</time>
      </trkpt>
      <trkpt lat="48.02188" lon="-0.76227">
        <ele>105.418381</ele>
        <time>2011-06-26T07:15:56Z</time>
      </trkpt>
      <trkpt lat="48.0218" lon="-0.76206">
        <ele>105.470579</ele>
        <time>2011-06-26T07:15:59Z</time>
      </trkpt>
      <trkpt lat="48.02169" lon="-0.76186">
        <ele>105.572243</ele>
        <time>2011-06-26T07:16:02Z</time>
      </trkpt>
      <trkpt lat="48.02158" lon="-0.76169">
        <ele>105.735897</ele>
        <time>2011-06-26T07:16:05Z</time>
      </trkpt>
      <trkpt lat="48.0215" lon="-0.7616">
        <ele>105.899846</ele>
        <time>2011-06-26T07:16:07Z</time>
      </trkpt>
      <trkpt lat="48.0214" lon="-0.76152">
        <ele>105.998833</ele>
        <time>2011-06-26T07:16:09Z</time>
      </trkpt>
      <trkpt lat="48.02123" lon="-0.76143">
        <ele>106.026554</ele>
        <time>2011-06-26T07:16:12Z</time>
      </trkpt>
      <trkpt lat="48.02111" lon="-0.76136">
        <ele>106.008764</ele>
        <time>2011-06-26T07:16:14Z</time>
      </trkpt>
      <trkpt lat="48.02094" lon="-0.76124">
        <ele>105.950443</ele>
        <time>2011-06-26T07:16:17Z</time>
      </trkpt>
      <trkpt lat="48.02079" lon="-0.76111">
        <ele>105.832825</ele>
        <time>2011-06-26T07:16:20Z</time>
      </trkpt>
      <trkpt lat="48.02069" lon="-0.76101">
        <ele>105.675291</ele>
        <time>2011-06-26T07:16:22Z</time>
      </trkpt>
      <trkpt lat="48.02056" lon="-0.76086">
        <ele>105.523515</ele>
        <time>2011-06-26T07:16:25Z</time>
      </trkpt>
      <trkpt lat="48.02044" lon="-0.7607">
        <ele>105.37598</ele>
        <time>2011-06-26T07:16:28Z</time>
      </trkpt>
      <trkpt lat="48.02036" lon="-0.76057">
        <ele>105.184623</ele>
        <time>2011-06-26T07:16:30Z</time>
      </trkpt>
      <trkpt lat="48.02028" lon="-0.76044">
        <ele>104.917072</ele>
        <time>2011-06-26T07:16:32Z</time>
      </trkpt>
      <trkpt lat="48.02021" lon="-0.7603">
        <ele>104.607153</ele>
        <time>2011-06-26T07:16:34Z</time>
      </trkpt>
      <trkpt lat="48.0201" lon="-0.76008">
        <ele>104.358688</ele>
        <time>2011-06-26T07:16:37Z</time>
      </trkpt>
      <trkpt lat="48.02001" lon="-0.75988">
        <ele>104.237273</ele>
        <time>2011-06-26T07:16:40Z</time>
      </trkpt>
      <trkpt lat="48.01995" lon="-0.75976">
        <ele>104.216766</ele>
        <time>2011-06-26T07:16:42Z</time>
      </trkpt>
      <trkpt lat="48.01989" lon="-0.75964">
        <ele>104.278239</ele>
        <time>2011-06-26T07:16:44Z</time>
      </trkpt>
      <trkpt lat="48.01979" lon="-0.75945">
        <ele>104.415984</ele>
        <time>2011-06-26T07:16:47Z</time>
      </trkpt>
      <trkpt lat="48.01973" lon="-0.75933">
        <ele>104.559946</ele>
        <time>2011-06-26T07:16:49Z</time>
      </trkpt>
      <trkpt lat="48.01966" lon="-0.7592">
        <ele>104.64336</ele>
        <time>2011-06-26T07:16:51Z</time>
      </trkpt>
      <trkpt lat="48.01959" lon="-0.75907">
        <ele>104.68105</ele>
        <time>2011-06-26T07:16:53Z</time>
      </trkpt>
      <trkpt lat="48.01949" lon="-0.75887">
        <ele>104.735577</ele>
        <time>2011-06-26T07:16:56Z</time>
      </trkpt>
      <trkpt lat="48.01939" lon="-0.75863">
        <ele>104.867642</ele>
        <time>2011-06-26T07:16:59Z</time>
      </trkpt>
      <trkpt lat="48.01934" lon="-0.75847">
        <ele>105.082457</ele>
        <time>2011-06-26T07:17:01Z</time>
      </trkpt>
      <trkpt lat="48.01928" lon="-0.75832">
        <ele>105.305899</ele>
        <time>2011-06-26T07:17:03Z</time>
      </trkpt>
      <trkpt lat="48.01921" lon="-0.75809">
        <ele>105.447876</ele>
        <time>2011-06-26T07:17:06Z</time>
      </trkpt>
      <trkpt lat="48.01917" lon="-0.75793">
        <ele>105.490975</ele>
        <time>2011-06-26T07:17:08Z</time>
      </trkpt>
      <trkpt lat="48.01913" lon="-0.75779">
        <ele>105.46027</ele>
        <time>2011-06-26T07:17:10Z</time>
      </trkpt>
      <trkpt lat="48.01903" lon="-0.75769">
        <ele>105.33493</ele>
        <time>2011-06-26T07:17:13Z</time>
      </trkpt>
      <trkpt lat="48.01894" lon="-0.75763">
        <ele>105.137032</ele>
        <time>2011-06-26T07:17:16Z</time>
      </trkpt>
      <trkpt lat="48.01882" lon="-0.75758">
        <ele>104.961404</ele>
        <time>2011-06-26T07:17:19Z</time>
      </trkpt>
      <trkpt lat="48.01882" lon="-0.75758">
        <ele>104.860601</ele>
        <time>2011-06-26T07:17:21Z</time>
      </trkpt>
      <trkpt lat="48.01866" lon="-0.7575">
        <ele>104.798955</ele>
        <time>2011-06-26T07:17:22Z</time>
      </trkpt>
      <trkpt lat="48.01856" lon="-0.75743">
        <ele>104.734865</ele>
        <time>2011-06-26T07:17:24Z</time>
      </trkpt>
      <trkpt lat="48.01846" lon="-0.75738">
        <ele>104.619885</ele>
        <time>2011-06-26T07:17:26Z</time>
      </trkpt>
      <trkpt lat="48.01837" lon="-0.75733">
        <ele>104.325631</ele>
        <time>2011-06-26T07:17:28Z</time>
      </trkpt>
      <trkpt lat="48.01829" lon="-0.75728">
        <ele>103.772749</ele>
        <time>2011-06-26T07:17:30Z</time>
      </trkpt>
      <trkpt lat="48.01829" lon="-0.75728">
        <ele>103.162823</ele>
        <time>2011-06-26T07:17:31Z</time>
      </trkpt>
      <trkpt lat="48.01818" lon="-0.75723">
        <ele>102.689941</ele>
        <time>2011-06-26T07:17:33Z</time>
      </trkpt>
      <trkpt lat="48.01804" lon="-0.75714">
        <ele>102.27063</ele>
        <time>2011-06-26T07:17:36Z</time>
      </trkpt>
      <trkpt lat="48.01789" lon="-0.75704">
        <ele>101.735245</ele>
        <time>2011-06-26T07:17:39Z</time>
      </trkpt>
      <trkpt lat="48.01774" lon="-0.75696">
        <ele>100.899977</ele>
        <time>2011-06-26T07:17:42Z</time>
      </trkpt>
      <trkpt lat="48.01763" lon="-0.75691">
        <ele>99.624134</ele>
        <time>2011-06-26T07:17:44Z</time>
      </trkpt>
      <trkpt lat="48.01745" lon="-0.7568">
        <ele>98.191147</ele>
        <time>2011-06-26T07:17:47Z</time>
      </trkpt>
      <trkpt lat="48.01727" lon="-0.7567">
        <ele>97.135331</ele>
        <time>2011-06-26T07:17:50Z</time>
      </trkpt>
      <trkpt lat="48.01709" lon="-0.75661">
        <ele>96.640911</ele>
        <time>2011-06-26T07:17:53Z</time>
      </trkpt>
      <trkpt lat="48.01696" lon="-0.75655">
        <ele>96.511294</ele>
        <time>2011-06-26T07:17:55Z</time>
      </trkpt>
      <trkpt lat="48.01676" lon="-0.75646">
        <ele>96.519051</ele>
        <time>2011-06-26T07:17:58Z</time>
      </trkpt>
      <trkpt lat="48.01663" lon="-0.75639">
        <ele>96.532478</ele>
        <time>2011-06-26T07:18:00Z</time>
      </trkpt>
      <trkpt lat="48.01643" lon="-0.75628">
        <ele>96.460065</ele>
        <time>2011-06-26T07:18:03Z</time>
      </trkpt>
      <trkpt lat="48.0163" lon="-0.7562">
        <ele>96.170836</ele>
        <time>2011-06-26T07:18:05Z</time>
      </trkpt>
      <trkpt lat="48.01618" lon="-0.75613">
        <ele>95.656639</ele>
        <time>2011-06-26T07:18:07Z</time>
      </trkpt>
      <trkpt lat="48.016" lon="-0.75603">
        <ele>95.048735</ele>
        <time>2011-06-26T07:18:10Z</time>
      </trkpt>
      <trkpt lat="48.0158" lon="-0.75592">
        <ele>94.434142</ele>
        <time>2011-06-26T07:18:13Z</time>
      </trkpt>
      <trkpt lat="48.01567" lon="-0.75585">
        <ele>93.858165</ele>
        <time>2011-06-26T07:18:15Z</time>
      </trkpt>
      <trkpt lat="48.01547" lon="-0.75573">
        <ele>93.292954</ele>
        <time>2011-06-26T07:18:18Z</time>
      </trkpt>
      <trkpt lat="48.01529" lon="-0.75563">
        <ele>92.655656</ele>
        <time>2011-06-26T07:18:21Z</time>
      </trkpt>
      <trkpt lat="48.0151" lon="-0.75551">
        <ele>92.001284</ele>
        <time>2011-06-26T07:18:24Z</time>
      </trkpt>
      <trkpt lat="48.01498" lon="-0.75544">
        <ele>91.358139</ele>
        <time>2011-06-26T07:18:26Z</time>
      </trkpt>
      <trkpt lat="48.01481" lon="-0.75535">
        <ele>90.665816</ele>
        <time>2011-06-26T07:18:29Z</time>
      </trkpt>
      <trkpt lat="48.01469" lon="-0.75529">
        <ele>89.937646</ele>
        <time>2011-06-26T07:18:31Z</time>
      </trkpt>
      <trkpt lat="48.01452" lon="-0.75519">
        <ele>89.266735</ele>
        <time>2011-06-26T07:18:34Z</time>
      </trkpt>
      <trkpt lat="48.01437" lon="-0.75512">
        <ele>88.777449</ele>
        <time>2011-06-26T07:18:37Z</time>
      </trkpt>
      <trkpt lat="48.01426" lon="-0.75507">
        <ele>88.524811</ele>
        <time>2011-06-26T07:18:39Z</time>
      </trkpt>
      <trkpt lat="48.01416" lon="-0.75503">
        <ele>88.413126</ele>
        <time>2011-06-26T07:18:41Z</time>
      </trkpt>
      <trkpt lat="48.01402" lon="-0.75497">
        <ele>88.351306</ele>
        <time>2011-06-26T07:18:44Z</time>
      </trkpt>
      <trkpt lat="48.01392" lon="-0.75492">
        <ele>88.321762</ele>
        <time>2011-06-26T07:18:46Z</time>
      </trkpt>
      <trkpt lat="48.01374" lon="-0.75484">
        <ele>88.320502</ele>
        <time>2011-06-26T07:18:49Z</time>
      </trkpt>
      <trkpt lat="48.01361" lon="-0.75478">
        <ele>88.331892</ele>
        <time>2011-06-26T07:18:51Z</time>
      </trkpt>
      <trkpt lat="48.01347" lon="-0.75471">
        <ele>88.368661</ele>
        <time>2011-06-26T07:18:53Z</time>
      </trkpt>
      <trkpt lat="48.01327" lon="-0.75461">
        <ele>88.540818</ele>
        <time>2011-06-26T07:18:56Z</time>
      </trkpt>
      <trkpt lat="48.01308" lon="-0.75447">
        <ele>88.870132</ele>
        <time>2011-06-26T07:18:59Z</time>
      </trkpt>
      <trkpt lat="48.01296" lon="-0.7544">
        <ele>89.190189</ele>
        <time>2011-06-26T07:19:01Z</time>
      </trkpt>
      <trkpt lat="48.01279" lon="-0.75427">
        <ele>89.433095</ele>
        <time>2011-06-26T07:19:04Z</time>
      </trkpt>
      <trkpt lat="48.01264" lon="-0.75412">
        <ele>89.67742</ele>
        <time>2011-06-26T07:19:07Z</time>
      </trkpt>
      <trkpt lat="48.01254" lon="-0.75402">
        <ele>89.922943</ele>
        <time>2011-06-26T07:19:09Z</time>
      </trkpt>
      <trkpt lat="48.01246" lon="-0.75392">
        <ele>90.119052</ele>
        <time>2011-06-26T07:19:11Z</time>
      </trkpt>
      <trkpt lat="48.01234" lon="-0.75378">
        <ele>90.240971</ele>
        <time>2011-06-26T07:19:14Z</time>
      </trkpt>
      <trkpt lat="48.01221" lon="-0.75364">
        <ele>90.298657</ele>
        <time>2011-06-26T07:19:17Z</time>
      </trkpt>
      <trkpt lat="48.01209" lon="-0.75351">
        <ele>90.372207</ele>
        <time>2011-06-26T07:19:20Z</time>
      </trkpt>
      <trkpt lat="48.01201" lon="-0.75342">
        <ele>90.586124</ele>
        <time>2011-06-26T07:19:22Z</time>
      </trkpt>
      <trkpt lat="48.0119" lon="-0.75329">
        <ele>90.959359</ele>
        <time>2011-06-26T07:19:25Z</time>
      </trkpt>
      <trkpt lat="48.01179" lon="-0.75317">
        <ele>91.33626</ele>
        <time>2011-06-26T07:19:28Z</time>
      </trkpt>
      <trkpt lat="48.01171" lon="-0.75308">
        <ele>91.562483</ele>
        <time>2011-06-26T07:19:30Z</time>
      </trkpt>
      <trkpt lat="48.01161" lon="-0.75297">
        <ele>91.631237</ele>
        <time>2011-06-26T07:19:33Z</time>
      </trkpt>
      <trkpt lat="48.01152" lon="-0.75286">
        <ele>91.618482</ele>
        <time>2011-06-26T07:19:36Z</time>
      </trkpt>
      <trkpt lat="48.01146" lon="-0.75279">
        <ele>91.589301</ele>
        <time>2011-06-26T07:19:38Z</time>
      </trkpt>
      <trkpt lat="48.01136" lon="-0.75268">
        <ele>91.570992</ele>
        <time>2011-06-26T07:19:41Z</time>
      </trkpt>
      <trkpt lat="48.01126" lon="-0.75255">
        <ele>91.565539</ele>
        <time>2011-06-26T07:19:44Z</time>
      </trkpt>
      <trkpt lat="48.01116" lon="-0.75241">
        <ele>91.598677</ele>
        <time>2011-06-26T07:19:47Z</time>
      </trkpt>
      <trkpt lat="48.01105" lon="-0.75227">
        <ele>91.731204</ele>
        <time>2011-06-26T07:19:50Z</time>
      </trkpt>
      <trkpt lat="48.01093" lon="-0.75213">
        <ele>91.946866</ele>
        <time>2011-06-26T07:19:53Z</time>
      </trkpt>
      <trkpt lat="48.0108" lon="-0.752">
        <ele>92.130703</ele>
        <time>2011-06-26T07:19:56Z</time>
      </trkpt>
      <trkpt lat="48.01067" lon="-0.75189">
        <ele>92.214351</ele>
        <time>2011-06-26T07:19:59Z</time>
      </trkpt>
      <trkpt lat="48.01057" lon="-0.75181">
        <ele>92.224872</ele>
        <time>2011-06-26T07:20:01Z</time>
      </trkpt>
      <trkpt lat="48.01042" lon="-0.75169">
        <ele>92.100789</ele>
        <time>2011-06-26T07:20:04Z</time>
      </trkpt>
      <trkpt lat="48.01042" lon="-0.75169">
        <ele>91.80411</ele>
        <time>2011-06-26T07:20:04Z</time>
      </trkpt>
      <trkpt lat="48.01025" lon="-0.75156">
        <ele>91.420811</ele>
        <time>2011-06-26T07:20:07Z</time>
      </trkpt>
      <trkpt lat="48.01014" lon="-0.75146">
        <ele>91.019999</ele>
        <time>2011-06-26T07:20:09Z</time>
      </trkpt>
      <trkpt lat="48.00996" lon="-0.75132">
        <ele>90.635504</ele>
        <time>2011-06-26T07:20:12Z</time>
      </trkpt>
      <trkpt lat="48.00978" lon="-0.75117">
        <ele>90.268664</ele>
        <time>2011-06-26T07:20:15Z</time>
      </trkpt>
      <trkpt lat="48.00958" lon="-0.751">
        <ele>89.83334</ele>
        <time>2011-06-26T07:20:18Z</time>
      </trkpt>
      <trkpt lat="48.00945" lon="-0.75088">
        <ele>89.31768</ele>
        <time>2011-06-26T07:20:20Z</time>
      </trkpt>
      <trkpt lat="48.00923" lon="-0.7507">
        <ele>88.795976</ele>
        <time>2011-06-26T07:20:23Z</time>
      </trkpt>
      <trkpt lat="48.00909" lon="-0.75058">
        <ele>88.347546</ele>
        <time>2011-06-26T07:20:25Z</time>
      </trkpt>
      <trkpt lat="48.00895" lon="-0.75046">
        <ele>88.021242</ele>
        <time>2011-06-26T07:20:27Z</time>
      </trkpt>
      <trkpt lat="48.00876" lon="-0.75021">
        <ele>87.765735</ele>
        <time>2011-06-26T07:20:30Z</time>
      </trkpt>
      <trkpt lat="48.00869" lon="-0.74997">
        <ele>87.486291</ele>
        <time>2011-06-26T07:20:32Z</time>
      </trkpt>
      <trkpt lat="48.00863" lon="-0.74963">
        <ele>87.189835</ele>
        <time>2011-06-26T07:20:35Z</time>
      </trkpt>
      <trkpt lat="48.00853" lon="-0.74934">
        <ele>86.95293</ele>
        <time>2011-06-26T07:20:38Z</time>
      </trkpt>
      <trkpt lat="48.0084" lon="-0.74923">
        <ele>86.805568</ele>
        <time>2011-06-26T07:20:40Z</time>
      </trkpt>
      <trkpt lat="48.00815" lon="-0.7491">
        <ele>86.727673</ele>
        <time>2011-06-26T07:20:43Z</time>
      </trkpt>
      <trkpt lat="48.00799" lon="-0.74902">
        <ele>86.660343</ele>
        <time>2011-06-26T07:20:45Z</time>
      </trkpt>
      <trkpt lat="48.00774" lon="-0.74889">
        <ele>86.523216</ele>
        <time>2011-06-26T07:20:48Z</time>
      </trkpt>
      <trkpt lat="48.00761" lon="-0.74858">
        <ele>86.2684</ele>
        <time>2011-06-26T07:20:51Z</time>
      </trkpt>
      <trkpt lat="48.00752" lon="-0.74823">
        <ele>85.949759</ele>
        <time>2011-06-26T07:20:54Z</time>
      </trkpt>
      <trkpt lat="48.00737" lon="-0.74806">
        <ele>85.652272</ele>
        <time>2011-06-26T07:20:56Z</time>
      </trkpt>
      <trkpt lat="48.00725" lon="-0.74791">
        <ele>85.313492</ele>
        <time>2011-06-26T07:20:58Z</time>
      </trkpt>
      <trkpt lat="48.00704" lon="-0.74786">
        <ele>84.90103</ele>
        <time>2011-06-26T07:21:01Z</time>
      </trkpt>
      <trkpt lat="48.00694" lon="-0.74796">
        <ele>84.556939</ele>
        <time>2011-06-26T07:21:03Z</time>
      </trkpt>
      <trkpt lat="48.00683" lon="-0.74807">
        <ele>84.205917</ele>
        <time>2011-06-26T07:21:05Z</time>
      </trkpt>
      <trkpt lat="48.00666" lon="-0.74822">
        <ele>83.335924</ele>
        <time>2011-06-26T07:21:08Z</time>
      </trkpt>
      <trkpt lat="48.00646" lon="-0.74832">
        <ele>81.653912</ele>
        <time>2011-06-26T07:21:11Z</time>
      </trkpt>
      <trkpt lat="48.00633" lon="-0.74838">
        <ele>79.514803</ele>
        <time>2011-06-26T07:21:13Z</time>
      </trkpt>
      <trkpt lat="48.00614" lon="-0.74845">
        <ele>77.341109</ele>
        <time>2011-06-26T07:21:16Z</time>
      </trkpt>
      <trkpt lat="48.00596" lon="-0.74851">
        <ele>75.446835</ele>
        <time>2011-06-26T07:21:19Z</time>
      </trkpt>
      <trkpt lat="48.00578" lon="-0.74854">
        <ele>74.256676</ele>
        <time>2011-06-26T07:21:22Z</time>
      </trkpt>
      <trkpt lat="48.00566" lon="-0.74853">
        <ele>73.850183</ele>
        <time>2011-06-26T07:21:24Z</time>
      </trkpt>
      <trkpt lat="48.00555" lon="-0.74848">
        <ele>73.838905</ele>
        <time>2011-06-26T07:21:26Z</time>
      </trkpt>
      <trkpt lat="48.00538" lon="-0.74838">
        <ele>73.916909</ele>
        <time>2011-06-26T07:21:29Z</time>
      </trkpt>
      <trkpt lat="48.00526" lon="-0.7483">
        <ele>74.008113</ele>
        <time>2011-06-26T07:21:31Z</time>
      </trkpt>
      <trkpt lat="48.00515" lon="-0.74822">
        <ele>74.101559</ele>
        <time>2011-06-26T07:21:33Z</time>
      </trkpt>
      <trkpt lat="48.00499" lon="-0.74811">
        <ele>74.173629</ele>
        <time>2011-06-26T07:21:36Z</time>
      </trkpt>
      <trkpt lat="48.00483" lon="-0.74801">
        <ele>74.267478</ele>
        <time>2011-06-26T07:21:39Z</time>
      </trkpt>
      <trkpt lat="48.00473" lon="-0.74795">
        <ele>74.49076</ele>
        <time>2011-06-26T07:21:41Z</time>
      </trkpt>
      <trkpt lat="48.00456" lon="-0.74786">
        <ele>74.935904</ele>
        <time>2011-06-26T07:21:44Z</time>
      </trkpt>
      <trkpt lat="48.00445" lon="-0.7478">
        <ele>75.618642</ele>
        <time>2011-06-26T07:21:46Z</time>
      </trkpt>
      <trkpt lat="48.00428" lon="-0.74771">
        <ele>76.353343</ele>
        <time>2011-06-26T07:21:49Z</time>
      </trkpt>
      <trkpt lat="48.00416" lon="-0.74766">
        <ele>76.846635</ele>
        <time>2011-06-26T07:21:51Z</time>
      </trkpt>
      <trkpt lat="48.00399" lon="-0.74757">
        <ele>77.016151</ele>
        <time>2011-06-26T07:21:54Z</time>
      </trkpt>
      <trkpt lat="48.00387" lon="-0.74751">
        <ele>77.003071</ele>
        <time>2011-06-26T07:21:56Z</time>
      </trkpt>
      <trkpt lat="48.00376" lon="-0.74746">
        <ele>76.910452</ele>
        <time>2011-06-26T07:21:58Z</time>
      </trkpt>
      <trkpt lat="48.00358" lon="-0.74736">
        <ele>76.7602</ele>
        <time>2011-06-26T07:22:01Z</time>
      </trkpt>
      <trkpt lat="48.00345" lon="-0.74729">
        <ele>76.585035</ele>
        <time>2011-06-26T07:22:03Z</time>
      </trkpt>
      <trkpt lat="48.00345" lon="-0.74729">
        <ele>76.445654</ele>
        <time>2011-06-26T07:22:04Z</time>
      </trkpt>
      <trkpt lat="48.00324" lon="-0.74718">
        <ele>76.37319</ele>
        <time>2011-06-26T07:22:06Z</time>
      </trkpt>
      <trkpt lat="48.00303" lon="-0.74705">
        <ele>76.350005</ele>
        <time>2011-06-26T07:22:09Z</time>
      </trkpt>
      <trkpt lat="48.00281" lon="-0.74689">
        <ele>76.317917</ele>
        <time>2011-06-26T07:22:12Z</time>
      </trkpt>
      <trkpt lat="48.00258" lon="-0.74674">
        <ele>76.201115</ele>
        <time>2011-06-26T07:22:15Z</time>
      </trkpt>
      <trkpt lat="48.00258" lon="-0.74674">
        <ele>76.005417</ele>
        <time>2011-06-26T07:22:15Z</time>
      </trkpt>
      <trkpt lat="48.00236" lon="-0.74677">
        <ele>75.750177</ele>
        <time>2011-06-26T07:22:18Z</time>
      </trkpt>
      <trkpt lat="48.00217" lon="-0.74697">
        <ele>75.338402</ele>
        <time>2011-06-26T07:22:21Z</time>
      </trkpt>
      <trkpt lat="48.00198" lon="-0.7472">
        <ele>74.732004</ele>
        <time>2011-06-26T07:22:24Z</time>
      </trkpt>
      <trkpt lat="48.00176" lon="-0.74739">
        <ele>74.041531</ele>
        <time>2011-06-26T07:22:27Z</time>
      </trkpt>
      <trkpt lat="48.00151" lon="-0.74755">
        <ele>73.311516</ele>
        <time>2011-06-26T07:22:30Z</time>
      </trkpt>
      <trkpt lat="48.00133" lon="-0.74765">
        <ele>72.535412</ele>
        <time>2011-06-26T07:22:32Z</time>
      </trkpt>
      <trkpt lat="48.00104" lon="-0.74774">
        <ele>71.80137</ele>
        <time>2011-06-26T07:22:35Z</time>
      </trkpt>
      <trkpt lat="48.00074" lon="-0.74781">
        <ele>71.196557</ele>
        <time>2011-06-26T07:22:38Z</time>
      </trkpt>
      <trkpt lat="48.00074" lon="-0.74781">
        <ele>70.756815</ele>
        <time>2011-06-26T07:22:39Z</time>
      </trkpt>
      <trkpt lat="48.00047" lon="-0.74788">
        <ele>70.460063</ele>
        <time>2011-06-26T07:22:41Z</time>
      </trkpt>
      <trkpt lat="48.0003" lon="-0.74792">
        <ele>70.125058</ele>
        <time>2011-06-26T07:22:43Z</time>
      </trkpt>
      <trkpt lat="48.00015" lon="-0.74795">
        <ele>69.671213</ele>
        <time>2011-06-26T07:22:45Z</time>
      </trkpt>
      <trkpt lat="47.99993" lon="-0.74798">
        <ele>69.236973</ele>
        <time>2011-06-26T07:22:48Z</time>
      </trkpt>
      <trkpt lat="47.99993" lon="-0.74798">
        <ele>68.916008</ele>
        <time>2011-06-26T07:22:50Z</time>
      </trkpt>
      <trkpt lat="47.99973" lon="-0.74802">
        <ele>68.588924</ele>
        <time>2011-06-26T07:22:51Z</time>
      </trkpt>
      <trkpt lat="47.99961" lon="-0.74804">
        <ele>68.023168</ele>
        <time>2011-06-26T07:22:53Z</time>
      </trkpt>
      <trkpt lat="47.99943" lon="-0.74807">
        <ele>67.148104</ele>
        <time>2011-06-26T07:22:56Z</time>
      </trkpt>
      <trkpt lat="47.99933" lon="-0.74808">
        <ele>66.212489</ele>
        <time>2011-06-26T07:22:58Z</time>
      </trkpt>
      <trkpt lat="47.99921" lon="-0.7481">
        <ele>65.530914</ele>
        <time>2011-06-26T07:23:01Z</time>
      </trkpt>
      <trkpt lat="47.99914" lon="-0.74811">
        <ele>65.232458</ele>
        <time>2011-06-26T07:23:03Z</time>
      </trkpt>
      <trkpt lat="47.99904" lon="-0.74813">
        <ele>65.202226</ele>
        <time>2011-06-26T07:23:06Z</time>
      </trkpt>
      <trkpt lat="47.99894" lon="-0.74813">
        <ele>65.312359</ele>
        <time>2011-06-26T07:23:09Z</time>
      </trkpt>
      <trkpt lat="47.99889" lon="-0.74808">
        <ele>65.509287</ele>
        <time>2011-06-26T07:23:11Z</time>
      </trkpt>
      <trkpt lat="47.99885" lon="-0.74797">
        <ele>65.723495</ele>
        <time>2011-06-26T07:23:13Z</time>
      </trkpt>
      <trkpt lat="47.99886" lon="-0.7478">
        <ele>65.900079</ele>
        <time>2011-06-26T07:23:15Z</time>
      </trkpt>
      <trkpt lat="47.99886" lon="-0.74755">
        <ele>66.050264</ele>
        <time>2011-06-26T07:23:18Z</time>
      </trkpt>
      <trkpt lat="47.99885" lon="-0.74739">
        <ele>66.188781</ele>
        <time>2011-06-26T07:23:20Z</time>
      </trkpt>
      <trkpt lat="47.99883" lon="-0.74724">
        <ele>66.386398</ele>
        <time>2011-06-26T07:23:22Z</time>
      </trkpt>
      <trkpt lat="47.99879" lon="-0.74702">
        <ele>66.730335</ele>
        <time>2011-06-26T07:23:25Z</time>
      </trkpt>
      <trkpt lat="47.99878" lon="-0.74681">
        <ele>67.146718</ele>
        <time>2011-06-26T07:23:28Z</time>
      </trkpt>
      <trkpt lat="47.99878" lon="-0.74668">
        <ele>67.5001</ele>
        <time>2011-06-26T07:23:30Z</time>
      </trkpt>
      <trkpt lat="47.99878" lon="-0.74648">
        <ele>67.773962</ele>
        <time>2011-06-26T07:23:33Z</time>
      </trkpt>
      <trkpt lat="47.99878" lon="-0.74634">
        <ele>67.973021</ele>
        <time>2011-06-26T07:23:35Z</time>
      </trkpt>
      <trkpt lat="47.99877" lon="-0.74621">
        <ele>68.089964</ele>
        <time>2011-06-26T07:23:37Z</time>
      </trkpt>
      <trkpt lat="47.99876" lon="-0.74607">
        <ele>68.179899</ele>
        <time>2011-06-26T07:23:39Z</time>
      </trkpt>
      <trkpt lat="47.99875" lon="-0.74587">
        <ele>68.303194</ele>
        <time>2011-06-26T07:23:42Z</time>
      </trkpt>
      <trkpt lat="47.99876" lon="-0.74576">
        <ele>68.439678</ele>
        <time>2011-06-26T07:23:44Z</time>
      </trkpt>
      <trkpt lat="47.99877" lon="-0.74562">
        <ele>68.529199</ele>
        <time>2011-06-26T07:23:46Z</time>
      </trkpt>
      <trkpt lat="47.99878" lon="-0.74546">
        <ele>68.557628</ele>
        <time>2011-06-26T07:23:48Z</time>
      </trkpt>
      <trkpt lat="47.99879" lon="-0.74524">
        <ele>68.550013</ele>
        <time>2011-06-26T07:23:51Z</time>
      </trkpt>
      <trkpt lat="47.99879" lon="-0.74502">
        <ele>68.516736</ele>
        <time>2011-06-26T07:23:54Z</time>
      </trkpt>
      <trkpt lat="47.99879" lon="-0.74488">
        <ele>68.424402</ele>
        <time>2011-06-26T07:23:56Z</time>
      </trkpt>
      <trkpt lat="47.99879" lon="-0.74473">
        <ele>68.072865</ele>
        <time>2011-06-26T07:23:58Z</time>
      </trkpt>
      <trkpt lat="47.99878" lon="-0.74451">
        <ele>67.209943</ele>
        <time>2011-06-26T07:24:01Z</time>
      </trkpt>
      <trkpt lat="47.99878" lon="-0.74438">
        <ele>65.937512</ele>
        <time>2011-06-26T07:24:03Z</time>
      </trkpt>
      <trkpt lat="47.99878" lon="-0.74417">
        <ele>64.770578</ele>
        <time>2011-06-26T07:24:06Z</time>
      </trkpt>
      <trkpt lat="47.99878" lon="-0.74397">
        <ele>64.123252</ele>
        <time>2011-06-26T07:24:09Z</time>
      </trkpt>
      <trkpt lat="47.99878" lon="-0.74381">
        <ele>63.968972</ele>
        <time>2011-06-26T07:24:11Z</time>
      </trkpt>
      <trkpt lat="47.99877" lon="-0.74357">
        <ele>64.111479</ele>
        <time>2011-06-26T07:24:14Z</time>
      </trkpt>
      <trkpt lat="47.99877" lon="-0.7434">
        <ele>64.581337</ele>
        <time>2011-06-26T07:24:16Z</time>
      </trkpt>
      <trkpt lat="47.99874" lon="-0.74311">
        <ele>65.340456</ele>
        <time>2011-06-26T07:24:19Z</time>
      </trkpt>
      <trkpt lat="47.99872" lon="-0.7429">
        <ele>66.040533</ele>
        <time>2011-06-26T07:24:22Z</time>
      </trkpt>
      <trkpt lat="47.99869" lon="-0.74279">
        <ele>66.429366</ele>
        <time>2011-06-26T07:24:31Z</time>
      </trkpt>
      <trkpt lat="47.99864" lon="-0.74277">
        <ele>66.565296</ele>
        <time>2011-06-26T07:24:34Z</time>
      </trkpt>
      <trkpt lat="47.99856" lon="-0.74277">
        <ele>66.571968</ele>
        <time>2011-06-26T07:24:37Z</time>
      </trkpt>
      <trkpt lat="47.99849" lon="-0.74278">
        <ele>66.538256</ele>
        <time>2011-06-26T07:24:39Z</time>
      </trkpt>
      <trkpt lat="47.99842" lon="-0.74279">
        <ele>66.425274</ele>
        <time>2011-06-26T07:24:41Z</time>
      </trkpt>
      <trkpt lat="47.99834" lon="-0.7428">
        <ele>66.081837</ele>
        <time>2011-06-26T07:24:43Z</time>
      </trkpt>
      <trkpt lat="47.99823" lon="-0.74281">
        <ele>65.492999</ele>
        <time>2011-06-26T07:24:46Z</time>
      </trkpt>
      <trkpt lat="47.99813" lon="-0.74284">
        <ele>64.825771</ele>
        <time>2011-06-26T07:24:49Z</time>
      </trkpt>
      <trkpt lat="47.99807" lon="-0.74286">
        <ele>64.206591</ele>
        <time>2011-06-26T07:24:51Z</time>
      </trkpt>
      <trkpt lat="47.99798" lon="-0.74289">
        <ele>63.620318</ele>
        <time>2011-06-26T07:24:54Z</time>
      </trkpt>
      <trkpt lat="47.99789" lon="-0.7429">
        <ele>63.000034</ele>
        <time>2011-06-26T07:24:57Z</time>
      </trkpt>
      <trkpt lat="47.9978" lon="-0.74292">
        <ele>62.366765</ele>
        <time>2011-06-26T07:25:00Z</time>
      </trkpt>
      <trkpt lat="47.99774" lon="-0.74293">
        <ele>61.788373</ele>
        <time>2011-06-26T07:25:02Z</time>
      </trkpt>
      <trkpt lat="47.99763" lon="-0.74295">
        <ele>61.260031</ele>
        <time>2011-06-26T07:25:05Z</time>
      </trkpt>
      <trkpt lat="47.99763" lon="-0.74295">
        <ele>60.817868</ele>
        <time>2011-06-26T07:25:07Z</time>
      </trkpt>
      <trkpt lat="47.99753" lon="-0.74297">
        <ele>60.498607</ele>
        <time>2011-06-26T07:25:08Z</time>
      </trkpt>
      <trkpt lat="47.99744" lon="-0.74298">
        <ele>60.21821</ele>
        <time>2011-06-26T07:25:11Z</time>
      </trkpt>
      <trkpt lat="47.99739" lon="-0.74299">
        <ele>59.889755</ele>
        <time>2011-06-26T07:25:13Z</time>
      </trkpt>
      <trkpt lat="47.99731" lon="-0.74301">
        <ele>59.506065</ele>
        <time>2011-06-26T07:25:16Z</time>
      </trkpt>
      <trkpt lat="47.99726" lon="-0.74302">
        <ele>59.085592</ele>
        <time>2011-06-26T07:25:18Z</time>
      </trkpt>
      <trkpt lat="47.99719" lon="-0.74304">
        <ele>58.680366</ele>
        <time>2011-06-26T07:25:21Z</time>
      </trkpt>
      <trkpt lat="47.99713" lon="-0.74306">
        <ele>58.314792</ele>
        <time>2011-06-26T07:25:23Z</time>
      </trkpt>
      <trkpt lat="47.99705" lon="-0.74307">
        <ele>57.974388</ele>
        <time>2011-06-26T07:25:26Z</time>
      </trkpt>
      <trkpt lat="47.99699" lon="-0.74306">
        <ele>57.633416</ele>
        <time>2011-06-26T07:25:29Z</time>
      </trkpt>
      <trkpt lat="47.99696" lon="-0.74298">
        <ele>57.28604</ele>
        <time>2011-06-26T07:25:32Z</time>
      </trkpt>
      <trkpt lat="47.99697" lon="-0.74289">
        <ele>56.93616</ele>
        <time>2011-06-26T07:25:34Z</time>
      </trkpt>
      <trkpt lat="47.997" lon="-0.7428">
        <ele>56.576149</ele>
        <time>2011-06-26T07:25:36Z</time>
      </trkpt>
      <trkpt lat="47.99703" lon="-0.74268">
        <ele>56.192625</ele>
        <time>2011-06-26T07:25:38Z</time>
      </trkpt>
      <trkpt lat="47.99703" lon="-0.74244">
        <ele>55.812958</ele>
        <time>2011-06-26T07:25:41Z</time>
      </trkpt>
      <trkpt lat="47.99703" lon="-0.74244">
        <ele>55.514428</ele>
        <time>2011-06-26T07:25:41Z</time>
      </trkpt>
      <trkpt lat="47.99701" lon="-0.74226">
        <ele>55.328235</ele>
        <time>2011-06-26T07:25:43Z</time>
      </trkpt>
      <trkpt lat="47.99693" lon="-0.74201">
        <ele>54.904146</ele>
        <time>2011-06-26T07:25:46Z</time>
      </trkpt>
      <trkpt lat="47.99687" lon="-0.74182">
        <ele>53.750348</ele>
        <time>2011-06-26T07:25:49Z</time>
      </trkpt>
      <trkpt lat="47.99684" lon="-0.7417">
        <ele>52.032452</ele>
        <time>2011-06-26T07:25:51Z</time>
      </trkpt>
      <trkpt lat="47.99682" lon="-0.74157">
        <ele>50.440163</ele>
        <time>2011-06-26T07:25:53Z</time>
      </trkpt>
      <trkpt lat="47.9968" lon="-0.74141">
        <ele>49.375907</ele>
        <time>2011-06-26T07:25:55Z</time>
      </trkpt>
      <trkpt lat="47.99677" lon="-0.74118">
        <ele>48.801468</ele>
        <time>2011-06-26T07:25:58Z</time>
      </trkpt>
      <trkpt lat="47.99674" lon="-0.74096">
        <ele>48.504656</ele>
        <time>2011-06-26T07:26:01Z</time>
      </trkpt>
      <trkpt lat="47.99674" lon="-0.74096">
        <ele>48.332494</ele>
        <time>2011-06-26T07:26:03Z</time>
      </trkpt>
      <trkpt lat="47.99671" lon="-0.74073">
        <ele>48.247985</ele>
        <time>2011-06-26T07:26:04Z</time>
      </trkpt>
      <trkpt lat="47.99669" lon="-0.74058">
        <ele>48.226476</ele>
        <time>2011-06-26T07:26:06Z</time>
      </trkpt>
      <trkpt lat="47.99665" lon="-0.74036">
        <ele>48.229915</ele>
        <time>2011-06-26T07:26:09Z</time>
      </trkpt>
      <trkpt lat="47.99663" lon="-0.74017">
        <ele>48.238114</ele>
        <time>2011-06-26T07:26:12Z</time>
      </trkpt>
      <trkpt lat="47.99663" lon="-0.74008">
        <ele>48.236653</ele>
        <time>2011-06-26T07:26:14Z</time>
      </trkpt>
      <trkpt lat="47.99662" lon="-0.73991">
        <ele>48.211716</ele>
        <time>2011-06-26T07:26:17Z</time>
      </trkpt>
      <trkpt lat="47.99658" lon="-0.73969">
        <ele>48.167564</ele>
        <time>2011-06-26T07:26:20Z</time>
      </trkpt>
      <trkpt lat="47.99654" lon="-0.73944">
        <ele>48.118224</ele>
        <time>2011-06-26T07:26:23Z</time>
      </trkpt>
      <trkpt lat="47.99653" lon="-0.73928">
        <ele>48.011454</ele>
        <time>2011-06-26T07:26:25Z</time>
      </trkpt>
      <trkpt lat="47.99653" lon="-0.73907">
        <ele>47.637253</ele>
        <time>2011-06-26T07:26:28Z</time>
      </trkpt>
      <trkpt lat="47.99657" lon="-0.73893">
        <ele>46.874607</ele>
        <time>2011-06-26T07:26:31Z</time>
      </trkpt>
      <trkpt lat="47.99663" lon="-0.73891">
        <ele>45.906742</ele>
        <time>2011-06-26T07:26:33Z</time>
      </trkpt>
      <trkpt lat="47.99676" lon="-0.73893">
        <ele>44.905759</ele>
        <time>2011-06-26T07:26:36Z</time>
      </trkpt>
      <trkpt lat="47.99689" lon="-0.73895">
        <ele>43.994195</ele>
        <time>2011-06-26T07:26:39Z</time>
      </trkpt>
      <trkpt lat="47.99699" lon="-0.73893">
        <ele>43.411483</ele>
        <time>2011-06-26T07:26:42Z</time>
      </trkpt>
      <trkpt lat="47.997" lon="-0.73885">
        <ele>43.223406</ele>
        <time>2011-06-26T07:26:45Z</time>
      </trkpt>
      <trkpt lat="47.9969" lon="-0.73882">
        <ele>43.214868</ele>
        <time>2011-06-26T07:26:48Z</time>
      </trkpt>
      <trkpt lat="47.99678" lon="-0.73881">
        <ele>43.190137</ele>
        <time>2011-06-26T07:26:51Z</time>
      </trkpt>
      <trkpt lat="47.99665" lon="-0.73881">
        <ele>43.106177</ele>
        <time>2011-06-26T07:26:54Z</time>
      </trkpt>
      <trkpt lat="47.99658" lon="-0.73883">
        <ele>42.998343</ele>
        <time>2011-06-26T07:26:56Z</time>
      </trkpt>
      <trkpt lat="47.99649" lon="-0.73886">
        <ele>42.686634</ele>
        <time>2011-06-26T07:26:58Z</time>
      </trkpt>
      <trkpt lat="47.99639" lon="-0.73885">
        <ele>41.97673</ele>
        <time>2011-06-26T07:27:00Z</time>
      </trkpt>
      <trkpt lat="47.99629" lon="-0.73874">
        <ele>41.140451</ele>
        <time>2011-06-26T07:27:03Z</time>
      </trkpt>
      <trkpt lat="47.99634" lon="-0.73859">
        <ele>40.616319</ele>
        <time>2011-06-26T07:27:06Z</time>
      </trkpt>
      <trkpt lat="47.9964" lon="-0.73849">
        <ele>40.460464</ele>
        <time>2011-06-26T07:27:08Z</time>
      </trkpt>
      <trkpt lat="47.99645" lon="-0.73839">
        <ele>40.601881</ele>
        <time>2011-06-26T07:27:10Z</time>
      </trkpt>
      <trkpt lat="47.99653" lon="-0.73821">
        <ele>40.9971</ele>
        <time>2011-06-26T07:27:13Z</time>
      </trkpt>
      <trkpt lat="47.99659" lon="-0.73804">
        <ele>41.457388</ele>
        <time>2011-06-26T07:27:16Z</time>
      </trkpt>
      <trkpt lat="47.99666" lon="-0.7379">
        <ele>41.782484</ele>
        <time>2011-06-26T07:27:19Z</time>
      </trkpt>
      <trkpt lat="47.99671" lon="-0.7378">
        <ele>41.993912</ele>
        <time>2011-06-26T07:27:21Z</time>
      </trkpt>
      <trkpt lat="47.99678" lon="-0.73767">
        <ele>42.26603</ele>
        <time>2011-06-26T07:27:24Z</time>
      </trkpt>
      <trkpt lat="47.99685" lon="-0.73756">
        <ele>42.770507</ele>
        <time>2011-06-26T07:27:27Z</time>
      </trkpt>
      <trkpt lat="47.99689" lon="-0.73749">
        <ele>43.425841</ele>
        <time>2011-06-26T07:27:29Z</time>
      </trkpt>
      <trkpt lat="47.99694" lon="-0.73741">
        <ele>43.934523</ele>
        <time>2011-06-26T07:27:31Z</time>
      </trkpt>
      <trkpt lat="47.99699" lon="-0.73732">
        <ele>44.152171</ele>
        <time>2011-06-26T07:27:33Z</time>
      </trkpt>
      <trkpt lat="47.99703" lon="-0.73723">
        <ele>44.181876</ele>
        <time>2011-06-26T07:27:35Z</time>
      </trkpt>
      <trkpt lat="47.99707" lon="-0.73715">
        <ele>44.152976</ele>
        <time>2011-06-26T07:27:37Z</time>
      </trkpt>
      <trkpt lat="47.99713" lon="-0.73702">
        <ele>44.126475</ele>
        <time>2011-06-26T07:27:40Z</time>
      </trkpt>
      <trkpt lat="47.99718" lon="-0.73694">
        <ele>44.1189</ele>
        <time>2011-06-26T07:27:42Z</time>
      </trkpt>
      <trkpt lat="47.99725" lon="-0.73681">
        <ele>44.137936</ele>
        <time>2011-06-26T07:27:45Z</time>
      </trkpt>
      <trkpt lat="47.9973" lon="-0.73672">
        <ele>44.198365</ele>
        <time>2011-06-26T07:27:47Z</time>
      </trkpt>
      <trkpt lat="47.99734" lon="-0.73664">
        <ele>44.308933</ele>
        <time>2011-06-26T07:27:49Z</time>
      </trkpt>
      <trkpt lat="47.99741" lon="-0.73652">
        <ele>44.468591</ele>
        <time>2011-06-26T07:27:52Z</time>
      </trkpt>
      <trkpt lat="47.99748" lon="-0.7364">
        <ele>44.666326</ele>
        <time>2011-06-26T07:27:55Z</time>
      </trkpt>
      <trkpt lat="47.99753" lon="-0.73633">
        <ele>44.878694</ele>
        <time>2011-06-26T07:27:57Z</time>
      </trkpt>
      <trkpt lat="47.99757" lon="-0.73626">
        <ele>45.107463</ele>
        <time>2011-06-26T07:27:59Z</time>
      </trkpt>
      <trkpt lat="47.99764" lon="-0.73615">
        <ele>45.386322</ele>
        <time>2011-06-26T07:28:02Z</time>
      </trkpt>
      <trkpt lat="47.9977" lon="-0.73605">
        <ele>45.705961</ele>
        <time>2011-06-26T07:28:05Z</time>
      </trkpt>
      <trkpt lat="47.99777" lon="-0.73594">
        <ele>46.016982</ele>
        <time>2011-06-26T07:28:08Z</time>
      </trkpt>
      <trkpt lat="47.99782" lon="-0.73587">
        <ele>46.314205</ele>
        <time>2011-06-26T07:28:10Z</time>
      </trkpt>
      <trkpt lat="47.99789" lon="-0.73576">
        <ele>46.634516</ele>
        <time>2011-06-26T07:28:13Z</time>
      </trkpt>
      <trkpt lat="47.99794" lon="-0.73565">
        <ele>46.990191</ele>
        <time>2011-06-26T07:28:16Z</time>
      </trkpt>
      <trkpt lat="47.99789" lon="-0.73553">
        <ele>47.345618</ele>
        <time>2011-06-26T07:28:19Z</time>
      </trkpt>
      <trkpt lat="47.99782" lon="-0.73541">
        <ele>47.670244</ele>
        <time>2011-06-26T07:28:22Z</time>
      </trkpt>
      <trkpt lat="47.99777" lon="-0.73533">
        <ele>47.977412</ele>
        <time>2011-06-26T07:28:24Z</time>
      </trkpt>
      <trkpt lat="47.99777" lon="-0.73533">
        <ele>48.245858</ele>
        <time>2011-06-26T07:28:26Z</time>
      </trkpt>
      <trkpt lat="47.99769" lon="-0.73523">
        <ele>48.451497</ele>
        <time>2011-06-26T07:28:27Z</time>
      </trkpt>
      <trkpt lat="47.99759" lon="-0.73516">
        <ele>48.664522</ele>
        <time>2011-06-26T07:28:30Z</time>
      </trkpt>
      <trkpt lat="47.99751" lon="-0.73512">
        <ele>48.936086</ele>
        <time>2011-06-26T07:28:32Z</time>
      </trkpt>
      <trkpt lat="47.99738" lon="-0.73508">
        <ele>49.240563</ele>
        <time>2011-06-26T07:28:35Z</time>
      </trkpt>
      <trkpt lat="47.99728" lon="-0.73508">
        <ele>49.570138</ele>
        <time>2011-06-26T07:28:37Z</time>
      </trkpt>
      <trkpt lat="47.99719" lon="-0.73509">
        <ele>50.037221</ele>
        <time>2011-06-26T07:28:39Z</time>
      </trkpt>
      <trkpt lat="47.99709" lon="-0.73509">
        <ele>50.900763</ele>
        <time>2011-06-26T07:28:41Z</time>
      </trkpt>
      <trkpt lat="47.99709" lon="-0.73509">
        <ele>52.054025</ele>
        <time>2011-06-26T07:28:43Z</time>
      </trkpt>
      <trkpt lat="47.99695" lon="-0.73509">
        <ele>53.047579</ele>
        <time>2011-06-26T07:28:44Z</time>
      </trkpt>
      <trkpt lat="47.9968" lon="-0.73508">
        <ele>53.81551</ele>
        <time>2011-06-26T07:28:47Z</time>
      </trkpt>
      <trkpt lat="47.99671" lon="-0.73506">
        <ele>54.603053</ele>
        <time>2011-06-26T07:28:49Z</time>
      </trkpt>
      <trkpt lat="47.99656" lon="-0.73503">
        <ele>55.510845</ele>
        <time>2011-06-26T07:28:52Z</time>
      </trkpt>
      <trkpt lat="47.99647" lon="-0.73501">
        <ele>56.47543</ele>
        <time>2011-06-26T07:28:54Z</time>
      </trkpt>
      <trkpt lat="47.99634" lon="-0.73496">
        <ele>57.305798</ele>
        <time>2011-06-26T07:28:57Z</time>
      </trkpt>
      <trkpt lat="47.99627" lon="-0.73494">
        <ele>57.911685</ele>
        <time>2011-06-26T07:28:59Z</time>
      </trkpt>
      <trkpt lat="47.99627" lon="-0.73494">
        <ele>58.320645</ele>
        <time>2011-06-26T07:29:00Z</time>
      </trkpt>
      <trkpt lat="47.99616" lon="-0.73492">
        <ele>58.555049</ele>
        <time>2011-06-26T07:29:02Z</time>
      </trkpt>
      <trkpt lat="47.99609" lon="-0.7349">
        <ele>58.692619</ele>
        <time>2011-06-26T07:29:04Z</time>
      </trkpt>
      <trkpt lat="47.996" lon="-0.73489">
        <ele>58.815365</ele>
        <time>2011-06-26T07:29:07Z</time>
      </trkpt>
      <trkpt lat="47.99593" lon="-0.73489">
        <ele>58.915578</ele>
        <time>2011-06-26T07:29:09Z</time>
      </trkpt>
      <trkpt lat="47.99581" lon="-0.73491">
        <ele>58.968373</ele>
        <time>2011-06-26T07:29:12Z</time>
      </trkpt>
      <trkpt lat="47.99568" lon="-0.73496">
        <ele>58.977026</ele>
        <time>2011-06-26T07:29:15Z</time>
      </trkpt>
      <trkpt lat="47.99554" lon="-0.73504">
        <ele>58.963869</ele>
        <time>2011-06-26T07:29:18Z</time>
      </trkpt>
      <trkpt lat="47.99539" lon="-0.73516">
        <ele>58.872268</ele>
        <time>2011-06-26T07:29:21Z</time>
      </trkpt>
      <trkpt lat="47.99527" lon="-0.73524">
        <ele>58.64744</ele>
        <time>2011-06-26T07:29:23Z</time>
      </trkpt>
      <trkpt lat="47.99515" lon="-0.73532">
        <ele>58.387116</ele>
        <time>2011-06-26T07:29:25Z</time>
      </trkpt>
      <trkpt lat="47.99503" lon="-0.7354">
        <ele>58.221881</ele>
        <time>2011-06-26T07:29:27Z</time>
      </trkpt>
      <trkpt lat="47.99492" lon="-0.73547">
        <ele>58.154456</ele>
        <time>2011-06-26T07:29:29Z</time>
      </trkpt>
      <trkpt lat="47.99476" lon="-0.73555">
        <ele>58.136007</ele>
        <time>2011-06-26T07:29:32Z</time>
      </trkpt>
      <trkpt lat="47.99466" lon="-0.7356">
        <ele>58.133827</ele>
        <time>2011-06-26T07:29:34Z</time>
      </trkpt>
      <trkpt lat="47.99445" lon="-0.73569">
        <ele>58.134625</ele>
        <time>2011-06-26T07:29:37Z</time>
      </trkpt>
      <trkpt lat="47.99422" lon="-0.73585">
        <ele>58.130477</ele>
        <time>2011-06-26T07:29:40Z</time>
      </trkpt>
      <trkpt lat="47.99401" lon="-0.73615">
        <ele>58.101153</ele>
        <time>2011-06-26T07:29:43Z</time>
      </trkpt>
      <trkpt lat="47.9939" lon="-0.73639">
        <ele>58.012509</ele>
        <time>2011-06-26T07:29:45Z</time>
      </trkpt>
      <trkpt lat="47.99381" lon="-0.73663">
        <ele>57.852027</ele>
        <time>2011-06-26T07:29:47Z</time>
      </trkpt>
      <trkpt lat="47.99367" lon="-0.73698">
        <ele>57.516734</ele>
        <time>2011-06-26T07:29:50Z</time>
      </trkpt>
      <trkpt lat="47.99356" lon="-0.73717">
        <ele>56.886095</ele>
        <time>2011-06-26T07:29:52Z</time>
      </trkpt>
      <trkpt lat="47.99337" lon="-0.73743">
        <ele>56.074979</ele>
        <time>2011-06-26T07:29:55Z</time>
      </trkpt>
      <trkpt lat="47.99337" lon="-0.73743">
        <ele>55.386756</ele>
        <time>2011-06-26T07:29:56Z</time>
      </trkpt>
      <trkpt lat="47.99325" lon="-0.73762">
        <ele>54.960003</ele>
        <time>2011-06-26T07:29:57Z</time>
      </trkpt>
      <trkpt lat="47.99311" lon="-0.73794">
        <ele>54.701329</ele>
        <time>2011-06-26T07:30:00Z</time>
      </trkpt>
      <trkpt lat="47.99302" lon="-0.73825">
        <ele>54.410384</ele>
        <time>2011-06-26T07:30:03Z</time>
      </trkpt>
      <trkpt lat="47.99297" lon="-0.73846">
        <ele>53.949609</ele>
        <time>2011-06-26T07:30:05Z</time>
      </trkpt>
      <trkpt lat="47.99292" lon="-0.7388">
        <ele>53.286071</ele>
        <time>2011-06-26T07:30:08Z</time>
      </trkpt>
      <trkpt lat="47.9929" lon="-0.73902">
        <ele>52.44772</ele>
        <time>2011-06-26T07:30:10Z</time>
      </trkpt>
      <trkpt lat="47.9929" lon="-0.73902">
        <ele>51.615646</ele>
        <time>2011-06-26T07:30:10Z</time>
      </trkpt>
      <trkpt lat="47.99289" lon="-0.73924">
        <ele>51.014742</ele>
        <time>2011-06-26T07:30:12Z</time>
      </trkpt>
      <trkpt lat="47.99285" lon="-0.7395">
        <ele>50.56406</ele>
        <time>2011-06-26T07:30:15Z</time>
      </trkpt>
      <trkpt lat="47.99271" lon="-0.7397">
        <ele>50.11183</ele>
        <time>2011-06-26T07:30:18Z</time>
      </trkpt>
      <trkpt lat="47.99259" lon="-0.73984">
        <ele>49.70705</ele>
        <time>2011-06-26T07:30:20Z</time>
      </trkpt>
      <trkpt lat="47.9924" lon="-0.74008">
        <ele>49.400417</ele>
        <time>2011-06-26T07:30:23Z</time>
      </trkpt>
      <trkpt lat="47.99223" lon="-0.74025">
        <ele>49.177449</ele>
        <time>2011-06-26T07:30:26Z</time>
      </trkpt>
      <trkpt lat="47.99209" lon="-0.74027">
        <ele>49.016702</ele>
        <time>2011-06-26T07:30:29Z</time>
      </trkpt>
      <trkpt lat="47.99196" lon="-0.74011">
        <ele>48.749065</ele>
        <time>2011-06-26T07:30:32Z</time>
      </trkpt>
      <trkpt lat="47.99188" lon="-0.73999">
        <ele>48.16844</ele>
        <time>2011-06-26T07:30:34Z</time>
      </trkpt>
      <trkpt lat="47.99182" lon="-0.73986">
        <ele>47.364205</ele>
        <time>2011-06-26T07:30:36Z</time>
      </trkpt>
      <trkpt lat="47.99176" lon="-0.73974">
        <ele>46.564323</ele>
        <time>2011-06-26T07:30:38Z</time>
      </trkpt>
      <trkpt lat="47.99168" lon="-0.73957">
        <ele>45.855031</ele>
        <time>2011-06-26T07:30:41Z</time>
      </trkpt>
      <trkpt lat="47.99163" lon="-0.73947">
        <ele>45.286647</ele>
        <time>2011-06-26T07:30:43Z</time>
      </trkpt>
      <trkpt lat="47.99159" lon="-0.73938">
        <ele>44.900855</ele>
        <time>2011-06-26T07:30:45Z</time>
      </trkpt>
      <trkpt lat="47.99156" lon="-0.73928">
        <ele>44.646131</ele>
        <time>2011-06-26T07:30:47Z</time>
      </trkpt>
      <trkpt lat="47.99151" lon="-0.73911">
        <ele>44.418106</ele>
        <time>2011-06-26T07:30:50Z</time>
      </trkpt>
      <trkpt lat="47.99146" lon="-0.73894">
        <ele>44.129812</ele>
        <time>2011-06-26T07:30:53Z</time>
      </trkpt>
      <trkpt lat="47.99142" lon="-0.73877">
        <ele>43.768606</ele>
        <time>2011-06-26T07:30:56Z</time>
      </trkpt>
      <trkpt lat="47.99138" lon="-0.7386">
        <ele>43.368366</ele>
        <time>2011-06-26T07:30:59Z</time>
      </trkpt>
      <trkpt lat="47.99134" lon="-0.73846">
        <ele>42.948353</ele>
        <time>2011-06-26T07:31:01Z</time>
      </trkpt>
      <trkpt lat="47.99131" lon="-0.73833">
        <ele>42.570589</ele>
        <time>2011-06-26T07:31:03Z</time>
      </trkpt>
      <trkpt lat="47.99127" lon="-0.7382">
        <ele>42.343606</ele>
        <time>2011-06-26T07:31:05Z</time>
      </trkpt>
      <trkpt lat="47.99123" lon="-0.73808">
        <ele>42.280556</ele>
        <time>2011-06-26T07:31:07Z</time>
      </trkpt>
      <trkpt lat="47.99119" lon="-0.73795">
        <ele>42.314482</ele>
        <time>2011-06-26T07:31:09Z</time>
      </trkpt>
      <trkpt lat="47.99114" lon="-0.73776">
        <ele>42.404933</ele>
        <time>2011-06-26T07:31:12Z</time>
      </trkpt>
      <trkpt lat="47.99111" lon="-0.73763">
        <ele>42.527883</ele>
        <time>2011-06-26T07:31:14Z</time>
      </trkpt>
      <trkpt lat="47.99107" lon="-0.7375">
        <ele>42.656915</ele>
        <time>2011-06-26T07:31:16Z</time>
      </trkpt>
      <trkpt lat="47.99102" lon="-0.73732">
        <ele>42.809249</ele>
        <time>2011-06-26T07:31:19Z</time>
      </trkpt>
      <trkpt lat="47.99098" lon="-0.7372">
        <ele>43.02702</ele>
        <time>2011-06-26T07:31:21Z</time>
      </trkpt>
      <trkpt lat="47.99089" lon="-0.73704">
        <ele>43.289738</ele>
        <time>2011-06-26T07:31:24Z</time>
      </trkpt>
      <trkpt lat="47.99081" lon="-0.73695">
        <ele>43.527714</ele>
        <time>2011-06-26T07:31:26Z</time>
      </trkpt>
      <trkpt lat="47.99073" lon="-0.73687">
        <ele>43.692178</ele>
        <time>2011-06-26T07:31:28Z</time>
      </trkpt>
      <trkpt lat="47.99059" lon="-0.73675">
        <ele>43.767137</ele>
        <time>2011-06-26T07:31:31Z</time>
      </trkpt>
      <trkpt lat="47.99051" lon="-0.73667">
        <ele>43.776646</ele>
        <time>2011-06-26T07:31:33Z</time>
      </trkpt>
      <trkpt lat="47.99043" lon="-0.73659">
        <ele>43.706062</ele>
        <time>2011-06-26T07:31:35Z</time>
      </trkpt>
      <trkpt lat="47.99033" lon="-0.7365">
        <ele>43.425917</ele>
        <time>2011-06-26T07:31:38Z</time>
      </trkpt>
      <trkpt lat="47.99025" lon="-0.73643">
        <ele>42.88081</ele>
        <time>2011-06-26T07:31:40Z</time>
      </trkpt>
      <trkpt lat="47.99015" lon="-0.73631">
        <ele>42.223954</ele>
        <time>2011-06-26T07:31:43Z</time>
      </trkpt>
      <trkpt lat="47.99015" lon="-0.73619">
        <ele>41.683128</ele>
        <time>2011-06-26T07:31:45Z</time>
      </trkpt>
      <trkpt lat="47.99018" lon="-0.73608">
        <ele>41.390389</ele>
        <time>2011-06-26T07:31:48Z</time>
      </trkpt>
      <trkpt lat="47.99021" lon="-0.73602">
        <ele>41.315341</ele>
        <time>2011-06-26T07:31:50Z</time>
      </trkpt>
      <trkpt lat="47.99024" lon="-0.73597">
        <ele>41.323693</ele>
        <time>2011-06-26T07:31:52Z</time>
      </trkpt>
      <trkpt lat="47.9903" lon="-0.73587">
        <ele>41.329333</ele>
        <time>2011-06-26T07:31:55Z</time>
      </trkpt>
      <trkpt lat="47.99035" lon="-0.7358">
        <ele>41.322075</ele>
        <time>2011-06-26T07:31:57Z</time>
      </trkpt>
      <trkpt lat="47.99042" lon="-0.73568">
        <ele>41.311938</ele>
        <time>2011-06-26T07:32:00Z</time>
      </trkpt>
      <trkpt lat="47.99049" lon="-0.73555">
        <ele>41.289147</ele>
        <time>2011-06-26T07:32:03Z</time>
      </trkpt>
      <trkpt lat="47.99053" lon="-0.73548">
        <ele>41.242724</ele>
        <time>2011-06-26T07:32:05Z</time>
      </trkpt>
      <trkpt lat="47.99059" lon="-0.73536">
        <ele>41.180701</ele>
        <time>2011-06-26T07:32:08Z</time>
      </trkpt>
      <trkpt lat="47.99064" lon="-0.73525">
        <ele>41.125178</ele>
        <time>2011-06-26T07:32:11Z</time>
      </trkpt>
      <trkpt lat="47.9907" lon="-0.73514">
        <ele>41.093328</ele>
        <time>2011-06-26T07:32:14Z</time>
      </trkpt>
      <trkpt lat="47.99073" lon="-0.73505">
        <ele>41.085199</ele>
        <time>2011-06-26T07:32:16Z</time>
      </trkpt>
      <trkpt lat="47.99076" lon="-0.73492">
        <ele>41.090854</ele>
        <time>2011-06-26T07:32:19Z</time>
      </trkpt>
      <trkpt lat="47.99078" lon="-0.73483">
        <ele>41.116215</ele>
        <time>2011-06-26T07:32:21Z</time>
      </trkpt>
      <trkpt lat="47.9908" lon="-0.73474">
        <ele>41.175632</ele>
        <time>2011-06-26T07:32:23Z</time>
      </trkpt>
      <trkpt lat="47.99083" lon="-0.7346">
        <ele>41.276782</ele>
        <time>2011-06-26T07:32:26Z</time>
      </trkpt>
      <trkpt lat="47.99084" lon="-0.73452">
        <ele>41.415164</ele>
        <time>2011-06-26T07:32:28Z</time>
      </trkpt>
      <trkpt lat="47.99087" lon="-0.73439">
        <ele>41.574535</ele>
        <time>2011-06-26T07:32:31Z</time>
      </trkpt>
      <trkpt lat="47.99088" lon="-0.73428">
        <ele>41.754239</ele>
        <time>2011-06-26T07:32:34Z</time>
      </trkpt>
      <trkpt lat="47.99089" lon="-0.73421">
        <ele>41.963988</ele>
        <time>2011-06-26T07:32:36Z</time>
      </trkpt>
      <trkpt lat="47.99091" lon="-0.73411">
        <ele>42.200893</ele>
        <time>2011-06-26T07:32:39Z</time>
      </trkpt>
      <trkpt lat="47.99092" lon="-0.734">
        <ele>42.464644</ele>
        <time>2011-06-26T07:32:42Z</time>
      </trkpt>
      <trkpt lat="47.99094" lon="-0.73392">
        <ele>42.740373</ele>
        <time>2011-06-26T07:32:45Z</time>
      </trkpt>
      <trkpt lat="47.99095" lon="-0.73383">
        <ele>43.004333</ele>
        <time>2011-06-26T07:32:48Z</time>
      </trkpt>
      <trkpt lat="47.99097" lon="-0.73375">
        <ele>43.268645</ele>
        <time>2011-06-26T07:32:51Z</time>
      </trkpt>
      <trkpt lat="47.99099" lon="-0.73367">
        <ele>43.559135</ele>
        <time>2011-06-26T07:32:54Z</time>
      </trkpt>
      <trkpt lat="47.991" lon="-0.7336">
        <ele>43.879707</ele>
        <time>2011-06-26T07:32:57Z</time>
      </trkpt>
      <trkpt lat="47.99101" lon="-0.73351">
        <ele>44.221953</ele>
        <time>2011-06-26T07:33:01Z</time>
      </trkpt>
      <trkpt lat="47.99102" lon="-0.73344">
        <ele>44.578511</ele>
        <time>2011-06-26T07:33:04Z</time>
      </trkpt>
      <trkpt lat="47.99104" lon="-0.73335">
        <ele>44.944281</ele>
        <time>2011-06-26T07:33:07Z</time>
      </trkpt>
      <trkpt lat="47.99107" lon="-0.73327">
        <ele>45.328214</ele>
        <time>2011-06-26T07:33:10Z</time>
      </trkpt>
      <trkpt lat="47.99108" lon="-0.7332">
        <ele>45.732346</ele>
        <time>2011-06-26T07:33:13Z</time>
      </trkpt>
      <trkpt lat="47.99111" lon="-0.73312">
        <ele>46.12616</ele>
        <time>2011-06-26T07:33:17Z</time>
      </trkpt>
      <trkpt lat="47.99111" lon="-0.73312">
        <ele>46.439722</ele>
        <time>2011-06-26T07:33:17Z</time>
      </trkpt>
      <trkpt lat="47.99112" lon="-0.73305">
        <ele>46.65484</ele>
        <time>2011-06-26T07:33:21Z</time>
      </trkpt>
      <trkpt lat="47.99113" lon="-0.73297">
        <ele>46.854605</ele>
        <time>2011-06-26T07:33:24Z</time>
      </trkpt>
      <trkpt lat="47.99112" lon="-0.7329">
        <ele>47.122975</ele>
        <time>2011-06-26T07:33:27Z</time>
      </trkpt>
      <trkpt lat="47.99112" lon="-0.73282">
        <ele>47.464357</ele>
        <time>2011-06-26T07:33:30Z</time>
      </trkpt>
      <trkpt lat="47.99113" lon="-0.73275">
        <ele>47.833985</ele>
        <time>2011-06-26T07:33:33Z</time>
      </trkpt>
      <trkpt lat="47.99116" lon="-0.7327">
        <ele>48.174801</ele>
        <time>2011-06-26T07:33:36Z</time>
      </trkpt>
      <trkpt lat="47.99122" lon="-0.73271">
        <ele>48.474646</ele>
        <time>2011-06-26T07:33:40Z</time>
      </trkpt>
      <trkpt lat="47.99127" lon="-0.73271">
        <ele>48.755046</ele>
        <time>2011-06-26T07:33:43Z</time>
      </trkpt>
      <trkpt lat="47.99132" lon="-0.7327">
        <ele>49.027758</ele>
        <time>2011-06-26T07:33:46Z</time>
      </trkpt>
      <trkpt lat="47.99138" lon="-0.7327">
        <ele>49.298801</ele>
        <time>2011-06-26T07:33:49Z</time>
      </trkpt>
      <trkpt lat="47.99145" lon="-0.73269">
        <ele>49.565147</ele>
        <time>2011-06-26T07:33:52Z</time>
      </trkpt>
      <trkpt lat="47.99152" lon="-0.73267">
        <ele>49.811534</ele>
        <time>2011-06-26T07:33:55Z</time>
      </trkpt>
      <trkpt lat="47.99157" lon="-0.73261">
        <ele>50.039175</ele>
        <time>2011-06-26T07:33:58Z</time>
      </trkpt>
      <trkpt lat="47.99157" lon="-0.73251">
        <ele>50.267944</ele>
        <time>2011-06-26T07:34:01Z</time>
      </trkpt>
      <trkpt lat="47.99157" lon="-0.73244">
        <ele>50.505357</ele>
        <time>2011-06-26T07:34:03Z</time>
      </trkpt>
      <trkpt lat="47.99157" lon="-0.73237">
        <ele>50.748947</ele>
        <time>2011-06-26T07:34:05Z</time>
      </trkpt>
      <trkpt lat="47.99155" lon="-0.73227">
        <ele>51.002115</ele>
        <time>2011-06-26T07:34:08Z</time>
      </trkpt>
      <trkpt lat="47.99151" lon="-0.73219">
        <ele>51.259625</ele>
        <time>2011-06-26T07:34:11Z</time>
      </trkpt>
      <trkpt lat="47.99146" lon="-0.73211">
        <ele>51.502036</ele>
        <time>2011-06-26T07:34:14Z</time>
      </trkpt>
      <trkpt lat="47.99143" lon="-0.73203">
        <ele>51.737444</ele>
        <time>2011-06-26T07:34:16Z</time>
      </trkpt>
      <trkpt lat="47.9914" lon="-0.73195">
        <ele>52.006603</ele>
        <time>2011-06-26T07:34:18Z</time>
      </trkpt>
      <trkpt lat="47.99138" lon="-0.73187">
        <ele>52.335748</ele>
        <time>2011-06-26T07:34:20Z</time>
      </trkpt>
      <trkpt lat="47.99132" lon="-0.73177">
        <ele>52.703092</ele>
        <time>2011-06-26T07:34:23Z</time>
      </trkpt>
      <trkpt lat="47.99128" lon="-0.73173">
        <ele>53.058295</ele>
        <time>2011-06-26T07:34:25Z</time>
      </trkpt>
      <trkpt lat="47.99128" lon="-0.73173">
        <ele>53.335664</ele>
        <time>2011-06-26T07:34:27Z</time>
      </trkpt>
      <trkpt lat="47.99122" lon="-0.7317">
        <ele>53.521348</ele>
        <time>2011-06-26T07:34:28Z</time>
      </trkpt>
      <trkpt lat="47.99118" lon="-0.73168">
        <ele>53.707366</ele>
        <time>2011-06-26T07:34:30Z</time>
      </trkpt>
      <trkpt lat="47.99111" lon="-0.73165">
        <ele>53.969023</ele>
        <time>2011-06-26T07:34:33Z</time>
      </trkpt>
      <trkpt lat="47.99106" lon="-0.73163">
        <ele>54.291327</ele>
        <time>2011-06-26T07:34:35Z</time>
      </trkpt>
      <trkpt lat="47.99101" lon="-0.73157">
        <ele>54.644779</ele>
        <time>2011-06-26T07:34:38Z</time>
      </trkpt>
      <trkpt lat="47.991" lon="-0.73146">
        <ele>55.019225</ele>
        <time>2011-06-26T07:34:41Z</time>
      </trkpt>
      <trkpt lat="47.99101" lon="-0.73136">
        <ele>55.40294</ele>
        <time>2011-06-26T07:34:43Z</time>
      </trkpt>
      <trkpt lat="47.99101" lon="-0.73121">
        <ele>55.788088</ele>
        <time>2011-06-26T07:34:46Z</time>
      </trkpt>
      <trkpt lat="47.99101" lon="-0.73105">
        <ele>56.184074</ele>
        <time>2011-06-26T07:34:49Z</time>
      </trkpt>
      <trkpt lat="47.99101" lon="-0.73093">
        <ele>56.58066</ele>
        <time>2011-06-26T07:34:51Z</time>
      </trkpt>
      <trkpt lat="47.99102" lon="-0.73083">
        <ele>56.944704</ele>
        <time>2011-06-26T07:34:53Z</time>
      </trkpt>
      <trkpt lat="47.99103" lon="-0.73073">
        <ele>57.286373</ele>
        <time>2011-06-26T07:34:55Z</time>
      </trkpt>
      <trkpt lat="47.99105" lon="-0.73054">
        <ele>57.61299</ele>
        <time>2011-06-26T07:34:58Z</time>
      </trkpt>
      <trkpt lat="47.99107" lon="-0.73036">
        <ele>57.896941</ele>
        <time>2011-06-26T07:35:01Z</time>
      </trkpt>
      <trkpt lat="47.99107" lon="-0.73023">
        <ele>58.129942</ele>
        <time>2011-06-26T07:35:03Z</time>
      </trkpt>
      <trkpt lat="47.99107" lon="-0.73">
        <ele>58.562471</ele>
        <time>2011-06-26T07:35:06Z</time>
      </trkpt>
      <trkpt lat="47.99107" lon="-0.72985">
        <ele>59.549262</ele>
        <time>2011-06-26T07:35:08Z</time>
      </trkpt>
      <trkpt lat="47.99107" lon="-0.72971">
        <ele>60.944083</ele>
        <time>2011-06-26T07:35:10Z</time>
      </trkpt>
      <trkpt lat="47.99106" lon="-0.72958">
        <ele>62.223138</ele>
        <time>2011-06-26T07:35:12Z</time>
      </trkpt>
      <trkpt lat="47.99106" lon="-0.72958">
        <ele>63.064731</ele>
        <time>2011-06-26T07:35:14Z</time>
      </trkpt>
      <trkpt lat="47.99106" lon="-0.72939">
        <ele>63.453989</ele>
        <time>2011-06-26T07:35:15Z</time>
      </trkpt>
      <trkpt lat="47.99104" lon="-0.72927">
        <ele>63.570993</ele>
        <time>2011-06-26T07:35:17Z</time>
      </trkpt>
      <trkpt lat="47.99101" lon="-0.7291">
        <ele>63.597239</ele>
        <time>2011-06-26T07:35:20Z</time>
      </trkpt>
      <trkpt lat="47.99092" lon="-0.72906">
        <ele>63.594743</ele>
        <time>2011-06-26T07:35:22Z</time>
      </trkpt>
      <trkpt lat="47.99085" lon="-0.72905">
        <ele>63.567514</ele>
        <time>2011-06-26T07:35:24Z</time>
      </trkpt>
      <trkpt lat="47.99078" lon="-0.72905">
        <ele>63.504118</ele>
        <time>2011-06-26T07:35:27Z</time>
      </trkpt>
      <trkpt lat="47.99073" lon="-0.72906">
        <ele>63.426845</ele>
        <time>2011-06-26T07:35:29Z</time>
      </trkpt>
      <trkpt lat="47.99067" lon="-0.72908">
        <ele>63.362484</ele>
        <time>2011-06-26T07:35:31Z</time>
      </trkpt>
      <trkpt lat="47.99058" lon="-0.72908">
        <ele>63.300983</ele>
        <time>2011-06-26T07:35:34Z</time>
      </trkpt>
      <trkpt lat="47.99052" lon="-0.72905">
        <ele>63.241572</ele>
        <time>2011-06-26T07:35:36Z</time>
      </trkpt>
      <trkpt lat="47.99048" lon="-0.72899">
        <ele>63.204865</ele>
        <time>2011-06-26T07:35:38Z</time>
      </trkpt>
      <trkpt lat="47.99043" lon="-0.72885">
        <ele>63.19419</ele>
        <time>2011-06-26T07:35:41Z</time>
      </trkpt>
      <trkpt lat="47.99039" lon="-0.72869">
        <ele>63.201068</ele>
        <time>2011-06-26T07:35:44Z</time>
      </trkpt>
      <trkpt lat="47.99036" lon="-0.72852">
        <ele>63.229941</ele>
        <time>2011-06-26T07:35:47Z</time>
      </trkpt>
      <trkpt lat="47.99032" lon="-0.72834">
        <ele>63.300235</ele>
        <time>2011-06-26T07:35:50Z</time>
      </trkpt>
      <trkpt lat="47.99028" lon="-0.72817">
        <ele>63.513461</ele>
        <time>2011-06-26T07:35:53Z</time>
      </trkpt>
      <trkpt lat="47.99027" lon="-0.72806">
        <ele>64.104421</ele>
        <time>2011-06-26T07:35:55Z</time>
      </trkpt>
      <trkpt lat="47.99026" lon="-0.7279">
        <ele>65.148272</ele>
        <time>2011-06-26T07:35:58Z</time>
      </trkpt>
      <trkpt lat="47.99034" lon="-0.72777">
        <ele>66.309937</ele>
        <time>2011-06-26T07:36:01Z</time>
      </trkpt>
      <trkpt lat="47.99044" lon="-0.72772">
        <ele>67.239257</ele>
        <time>2011-06-26T07:36:03Z</time>
      </trkpt>
      <trkpt lat="47.9906" lon="-0.72765">
        <ele>67.949947</ele>
        <time>2011-06-26T07:36:06Z</time>
      </trkpt>
      <trkpt lat="47.99073" lon="-0.72761">
        <ele>68.507584</ele>
        <time>2011-06-26T07:36:08Z</time>
      </trkpt>
      <trkpt lat="47.99087" lon="-0.7275">
        <ele>68.827902</ele>
        <time>2011-06-26T07:36:11Z</time>
      </trkpt>
      <trkpt lat="47.9909" lon="-0.72731">
        <ele>68.909888</ele>
        <time>2011-06-26T07:36:14Z</time>
      </trkpt>
      <trkpt lat="47.99087" lon="-0.72713">
        <ele>68.867504</ele>
        <time>2011-06-26T07:36:17Z</time>
      </trkpt>
      <trkpt lat="47.99083" lon="-0.72693">
        <ele>68.70067</ele>
        <time>2011-06-26T07:36:20Z</time>
      </trkpt>
      <trkpt lat="47.9908" lon="-0.7268">
        <ele>68.394099</ele>
        <time>2011-06-26T07:36:22Z</time>
      </trkpt>
      <trkpt lat="47.99076" lon="-0.72662">
        <ele>68.084448</ele>
        <time>2011-06-26T07:36:25Z</time>
      </trkpt>
      <trkpt lat="47.99074" lon="-0.7265">
        <ele>67.882232</ele>
        <time>2011-06-26T07:36:27Z</time>
      </trkpt>
      <trkpt lat="47.99069" lon="-0.72631">
        <ele>67.757848</ele>
        <time>2011-06-26T07:36:30Z</time>
      </trkpt>
      <trkpt lat="47.99063" lon="-0.72611">
        <ele>67.671793</ele>
        <time>2011-06-26T07:36:33Z</time>
      </trkpt>
      <trkpt lat="47.99059" lon="-0.72597">
        <ele>67.594751</ele>
        <time>2011-06-26T07:36:35Z</time>
      </trkpt>
      <trkpt lat="47.99052" lon="-0.7258">
        <ele>67.45212</ele>
        <time>2011-06-26T07:36:38Z</time>
      </trkpt>
      <trkpt lat="47.99047" lon="-0.72564">
        <ele>67.222586</ele>
        <time>2011-06-26T07:36:41Z</time>
      </trkpt>
      <trkpt lat="47.99045" lon="-0.72552">
        <ele>66.96959</ele>
        <time>2011-06-26T07:36:43Z</time>
      </trkpt>
      <trkpt lat="47.99044" lon="-0.72541">
        <ele>66.72304</ele>
        <time>2011-06-26T07:36:45Z</time>
      </trkpt>
      <trkpt lat="47.99043" lon="-0.7253">
        <ele>66.326122</ele>
        <time>2011-06-26T07:36:47Z</time>
      </trkpt>
      <trkpt lat="47.99041" lon="-0.7252">
        <ele>65.737234</ele>
        <time>2011-06-26T07:36:49Z</time>
      </trkpt>
      <trkpt lat="47.99038" lon="-0.72505">
        <ele>65.228102</ele>
        <time>2011-06-26T07:36:52Z</time>
      </trkpt>
      <trkpt lat="47.99035" lon="-0.7249">
        <ele>65.009569</ele>
        <time>2011-06-26T07:36:55Z</time>
      </trkpt>
      <trkpt lat="47.99032" lon="-0.7248">
        <ele>64.990303</ele>
        <time>2011-06-26T07:36:57Z</time>
      </trkpt>
      <trkpt lat="47.99031" lon="-0.7247">
        <ele>65.04589</ele>
        <time>2011-06-26T07:36:59Z</time>
      </trkpt>
      <trkpt lat="47.99031" lon="-0.7246">
        <ele>65.120168</ele>
        <time>2011-06-26T07:37:01Z</time>
      </trkpt>
      <trkpt lat="47.99034" lon="-0.72447">
        <ele>65.200507</ele>
        <time>2011-06-26T07:37:04Z</time>
      </trkpt>
      <trkpt lat="47.99038" lon="-0.7244">
        <ele>65.277412</ele>
        <time>2011-06-26T07:37:06Z</time>
      </trkpt>
      <trkpt lat="47.99044" lon="-0.72435">
        <ele>65.342917</ele>
        <time>2011-06-26T07:37:08Z</time>
      </trkpt>
      <trkpt lat="47.99055" lon="-0.72428">
        <ele>65.402613</ele>
        <time>2011-06-26T07:37:11Z</time>
      </trkpt>
      <trkpt lat="47.99063" lon="-0.72424">
        <ele>65.465653</ele>
        <time>2011-06-26T07:37:13Z</time>
      </trkpt>
      <trkpt lat="47.99075" lon="-0.72417">
        <ele>65.531124</ele>
        <time>2011-06-26T07:37:16Z</time>
      </trkpt>
      <trkpt lat="47.99087" lon="-0.72411">
        <ele>65.631686</ele>
        <time>2011-06-26T07:37:19Z</time>
      </trkpt>
      <trkpt lat="47.99095" lon="-0.72406">
        <ele>65.821435</ele>
        <time>2011-06-26T07:37:21Z</time>
      </trkpt>
      <trkpt lat="47.99103" lon="-0.72401">
        <ele>66.086143</ele>
        <time>2011-06-26T07:37:23Z</time>
      </trkpt>
      <trkpt lat="47.99113" lon="-0.72394">
        <ele>66.338792</ele>
        <time>2011-06-26T07:37:26Z</time>
      </trkpt>
      <trkpt lat="47.99122" lon="-0.72383">
        <ele>66.533935</ele>
        <time>2011-06-26T07:37:29Z</time>
      </trkpt>
      <trkpt lat="47.99126" lon="-0.72369">
        <ele>66.710984</ele>
        <time>2011-06-26T07:37:32Z</time>
      </trkpt>
      <trkpt lat="47.99125" lon="-0.72359">
        <ele>66.923291</ele>
        <time>2011-06-26T07:37:34Z</time>
      </trkpt>
      <trkpt lat="47.99122" lon="-0.72349">
        <ele>67.173626</ele>
        <time>2011-06-26T07:37:36Z</time>
      </trkpt>
      <trkpt lat="47.99117" lon="-0.72338">
        <ele>67.40833</ele>
        <time>2011-06-26T07:37:39Z</time>
      </trkpt>
      <trkpt lat="47.99115" lon="-0.72331">
        <ele>67.561886</ele>
        <time>2011-06-26T07:37:41Z</time>
      </trkpt>
      <trkpt lat="47.99112" lon="-0.72323">
        <ele>67.632954</ele>
        <time>2011-06-26T07:37:43Z</time>
      </trkpt>
      <trkpt lat="47.99109" lon="-0.72311">
        <ele>67.681412</ele>
        <time>2011-06-26T07:37:46Z</time>
      </trkpt>
      <trkpt lat="47.99107" lon="-0.72298">
        <ele>67.758529</ele>
        <time>2011-06-26T07:37:49Z</time>
      </trkpt>
      <trkpt lat="47.99104" lon="-0.72285">
        <ele>67.876468</ele>
        <time>2011-06-26T07:37:52Z</time>
      </trkpt>
      <trkpt lat="47.99102" lon="-0.72276">
        <ele>68.037071</ele>
        <time>2011-06-26T07:37:54Z</time>
      </trkpt>
      <trkpt lat="47.991" lon="-0.72268">
        <ele>68.248081</ele>
        <time>2011-06-26T07:37:56Z</time>
      </trkpt>
      <trkpt lat="47.99097" lon="-0.72256">
        <ele>68.499451</ele>
        <time>2011-06-26T07:37:59Z</time>
      </trkpt>
      <trkpt lat="47.99094" lon="-0.72247">
        <ele>68.753465</ele>
        <time>2011-06-26T07:38:01Z</time>
      </trkpt>
      <trkpt lat="47.99092" lon="-0.72239">
        <ele>68.971425</ele>
        <time>2011-06-26T07:38:03Z</time>
      </trkpt>
      <trkpt lat="47.9909" lon="-0.72232">
        <ele>69.155908</ele>
        <time>2011-06-26T07:38:05Z</time>
      </trkpt>
      <trkpt lat="47.99087" lon="-0.7222">
        <ele>69.332572</ele>
        <time>2011-06-26T07:38:08Z</time>
      </trkpt>
      <trkpt lat="47.99084" lon="-0.72208">
        <ele>69.50416</ele>
        <time>2011-06-26T07:38:11Z</time>
      </trkpt>
      <trkpt lat="47.99082" lon="-0.722">
        <ele>69.665825</ele>
        <time>2011-06-26T07:38:13Z</time>
      </trkpt>
      <trkpt lat="47.99079" lon="-0.72188">
        <ele>69.834602</ele>
        <time>2011-06-26T07:38:16Z</time>
      </trkpt>
      <trkpt lat="47.99076" lon="-0.72175">
        <ele>70.029127</ele>
        <time>2011-06-26T07:38:19Z</time>
      </trkpt>
      <trkpt lat="47.99073" lon="-0.72166">
        <ele>70.234258</ele>
        <time>2011-06-26T07:38:21Z</time>
      </trkpt>
      <trkpt lat="47.9907" lon="-0.72158">
        <ele>70.422686</ele>
        <time>2011-06-26T07:38:23Z</time>
      </trkpt>
      <trkpt lat="47.99065" lon="-0.72149">
        <ele>70.593417</ele>
        <time>2011-06-26T07:38:26Z</time>
      </trkpt>
      <trkpt lat="47.9906" lon="-0.72143">
        <ele>70.747225</ele>
        <time>2011-06-26T07:38:28Z</time>
      </trkpt>
      <trkpt lat="47.99054" lon="-0.72134">
        <ele>70.87374</ele>
        <time>2011-06-26T07:38:31Z</time>
      </trkpt>
      <trkpt lat="47.99048" lon="-0.72127">
        <ele>70.985494</ele>
        <time>2011-06-26T07:38:34Z</time>
      </trkpt>
      <trkpt lat="47.99041" lon="-0.72121">
        <ele>71.107015</ele>
        <time>2011-06-26T07:38:37Z</time>
      </trkpt>
      <trkpt lat="47.99037" lon="-0.72117">
        <ele>71.251173</ele>
        <time>2011-06-26T07:38:39Z</time>
      </trkpt>
      <trkpt lat="47.99029" lon="-0.72111">
        <ele>71.427179</ele>
        <time>2011-06-26T07:38:42Z</time>
      </trkpt>
      <trkpt lat="47.99024" lon="-0.72107">
        <ele>71.638032</ele>
        <time>2011-06-26T07:38:44Z</time>
      </trkpt>
      <trkpt lat="47.99015" lon="-0.72102">
        <ele>71.857082</ele>
        <time>2011-06-26T07:38:47Z</time>
      </trkpt>
      <trkpt lat="47.99004" lon="-0.72098">
        <ele>72.058456</ele>
        <time>2011-06-26T07:38:50Z</time>
      </trkpt>
      <trkpt lat="47.98994" lon="-0.72097">
        <ele>72.240208</ele>
        <time>2011-06-26T07:38:53Z</time>
      </trkpt>
      <trkpt lat="47.98986" lon="-0.72097">
        <ele>72.410882</ele>
        <time>2011-06-26T07:38:55Z</time>
      </trkpt>
      <trkpt lat="47.98976" lon="-0.72096">
        <ele>72.57764</ele>
        <time>2011-06-26T07:38:58Z</time>
      </trkpt>
      <trkpt lat="47.98965" lon="-0.72095">
        <ele>72.742273</ele>
        <time>2011-06-26T07:39:01Z</time>
      </trkpt>
      <trkpt lat="47.98956" lon="-0.72089">
        <ele>72.882054</ele>
        <time>2011-06-26T07:39:04Z</time>
      </trkpt>
      <trkpt lat="47.9895" lon="-0.72077">
        <ele>72.976601</ele>
        <time>2011-06-26T07:39:07Z</time>
      </trkpt>
      <trkpt lat="47.98947" lon="-0.72061">
        <ele>73.04653</ele>
        <time>2011-06-26T07:39:10Z</time>
      </trkpt>
      <trkpt lat="47.98946" lon="-0.72051">
        <ele>73.137138</ele>
        <time>2011-06-26T07:39:12Z</time>
      </trkpt>
      <trkpt lat="47.98949" lon="-0.72037">
        <ele>73.265051</ele>
        <time>2011-06-26T07:39:15Z</time>
      </trkpt>
      <trkpt lat="47.98949" lon="-0.72027">
        <ele>73.413467</ele>
        <time>2011-06-26T07:39:17Z</time>
      </trkpt>
      <trkpt lat="47.98949" lon="-0.72016">
        <ele>73.564502</ele>
        <time>2011-06-26T07:39:19Z</time>
      </trkpt>
      <trkpt lat="47.98949" lon="-0.72">
        <ele>73.748933</ele>
        <time>2011-06-26T07:39:22Z</time>
      </trkpt>
      <trkpt lat="47.98947" lon="-0.71982">
        <ele>74.012234</ele>
        <time>2011-06-26T07:39:25Z</time>
      </trkpt>
      <trkpt lat="47.98946" lon="-0.71969">
        <ele>74.343076</ele>
        <time>2011-06-26T07:39:27Z</time>
      </trkpt>
      <trkpt lat="47.98945" lon="-0.71957">
        <ele>74.936324</ele>
        <time>2011-06-26T07:39:29Z</time>
      </trkpt>
      <trkpt lat="47.98943" lon="-0.7194">
        <ele>76.334972</ele>
        <time>2011-06-26T07:39:32Z</time>
      </trkpt>
      <trkpt lat="47.98942" lon="-0.71922">
        <ele>78.561371</ele>
        <time>2011-06-26T07:39:35Z</time>
      </trkpt>
      <trkpt lat="47.98942" lon="-0.71905">
        <ele>80.789072</ele>
        <time>2011-06-26T07:39:38Z</time>
      </trkpt>
      <trkpt lat="47.98941" lon="-0.71892">
        <ele>82.39201</ele>
        <time>2011-06-26T07:39:40Z</time>
      </trkpt>
      <trkpt lat="47.98941" lon="-0.71881">
        <ele>83.40083</ele>
        <time>2011-06-26T07:39:42Z</time>
      </trkpt>
      <trkpt lat="47.9894" lon="-0.71864">
        <ele>83.996017</ele>
        <time>2011-06-26T07:39:45Z</time>
      </trkpt>
      <trkpt lat="47.98939" lon="-0.71854">
        <ele>84.293433</ele>
        <time>2011-06-26T07:39:47Z</time>
      </trkpt>
      <trkpt lat="47.98938" lon="-0.71839">
        <ele>84.385147</ele>
        <time>2011-06-26T07:39:50Z</time>
      </trkpt>
      <trkpt lat="47.98938" lon="-0.71829">
        <ele>84.373551</ele>
        <time>2011-06-26T07:39:52Z</time>
      </trkpt>
      <trkpt lat="47.98937" lon="-0.71814">
        <ele>84.343205</ele>
        <time>2011-06-26T07:39:55Z</time>
      </trkpt>
      <trkpt lat="47.98937" lon="-0.71799">
        <ele>84.327489</ele>
        <time>2011-06-26T07:39:58Z</time>
      </trkpt>
      <trkpt lat="47.98937" lon="-0.7179">
        <ele>84.327723</ele>
        <time>2011-06-26T07:40:00Z</time>
      </trkpt>
      <trkpt lat="47.98937" lon="-0.71776">
        <ele>84.334049</ele>
        <time>2011-06-26T07:40:03Z</time>
      </trkpt>
      <trkpt lat="47.98937" lon="-0.71776">
        <ele>84.338739</ele>
        <time>2011-06-26T07:40:04Z</time>
      </trkpt>
      <trkpt lat="47.98936" lon="-0.71767">
        <ele>84.34047</ele>
        <time>2011-06-26T07:40:05Z</time>
      </trkpt>
      <trkpt lat="47.98935" lon="-0.71756">
        <ele>84.340447</ele>
        <time>2011-06-26T07:40:07Z</time>
      </trkpt>
      <trkpt lat="47.98934" lon="-0.71741">
        <ele>84.339943</ele>
        <time>2011-06-26T07:40:10Z</time>
      </trkpt>
      <trkpt lat="47.98933" lon="-0.71726">
        <ele>84.33957</ele>
        <time>2011-06-26T07:40:13Z</time>
      </trkpt>
      <trkpt lat="47.98932" lon="-0.71711">
        <ele>84.343433</ele>
        <time>2011-06-26T07:40:16Z</time>
      </trkpt>
      <trkpt lat="47.98932" lon="-0.71701">
        <ele>84.363213</ele>
        <time>2011-06-26T07:40:18Z</time>
      </trkpt>
      <trkpt lat="47.98931" lon="-0.71684">
        <ele>84.407118</ele>
        <time>2011-06-26T07:40:21Z</time>
      </trkpt>
      <trkpt lat="47.98929" lon="-0.71668">
        <ele>84.466094</ele>
        <time>2011-06-26T07:40:24Z</time>
      </trkpt>
      <trkpt lat="47.98924" lon="-0.71654">
        <ele>84.520442</ele>
        <time>2011-06-26T07:40:27Z</time>
      </trkpt>
      <trkpt lat="47.98924" lon="-0.71654">
        <ele>84.555449</ele>
        <time>2011-06-26T07:40:27Z</time>
      </trkpt>
      <trkpt lat="47.98917" lon="-0.7165">
        <ele>84.571748</ele>
        <time>2011-06-26T07:40:29Z</time>
      </trkpt>
      <trkpt lat="47.98907" lon="-0.71648">
        <ele>84.582143</ele>
        <time>2011-06-26T07:40:32Z</time>
      </trkpt>
      <trkpt lat="47.98899" lon="-0.71649">
        <ele>84.599039</ele>
        <time>2011-06-26T07:40:34Z</time>
      </trkpt>
      <trkpt lat="47.98886" lon="-0.7165">
        <ele>84.626627</ele>
        <time>2011-06-26T07:40:37Z</time>
      </trkpt>
      <trkpt lat="47.98873" lon="-0.71652">
        <ele>84.664063</ele>
        <time>2011-06-26T07:40:40Z</time>
      </trkpt>
      <trkpt lat="47.98864" lon="-0.71655">
        <ele>84.744128</ele>
        <time>2011-06-26T07:40:42Z</time>
      </trkpt>
      <trkpt lat="47.98852" lon="-0.7166">
        <ele>84.914169</ele>
        <time>2011-06-26T07:40:45Z</time>
      </trkpt>
      <trkpt lat="47.98852" lon="-0.7166">
        <ele>85.12781</ele>
        <time>2011-06-26T07:40:46Z</time>
      </trkpt>
      <trkpt lat="47.9884" lon="-0.71666">
        <ele>85.294378</ele>
        <time>2011-06-26T07:40:48Z</time>
      </trkpt>
      <trkpt lat="47.98827" lon="-0.71672">
        <ele>85.399972</ele>
        <time>2011-06-26T07:40:51Z</time>
      </trkpt>
      <trkpt lat="47.98815" lon="-0.71677">
        <ele>85.474374</ele>
        <time>2011-06-26T07:40:54Z</time>
      </trkpt>
      <trkpt lat="47.98803" lon="-0.71682">
        <ele>85.527078</ele>
        <time>2011-06-26T07:40:57Z</time>
      </trkpt>
      <trkpt lat="47.98795" lon="-0.71685">
        <ele>85.556001</ele>
        <time>2011-06-26T07:40:59Z</time>
      </trkpt>
      <trkpt lat="47.98786" lon="-0.71688">
        <ele>85.543693</ele>
        <time>2011-06-26T07:41:01Z</time>
      </trkpt>
      <trkpt lat="47.98774" lon="-0.71691">
        <ele>85.490922</ele>
        <time>2011-06-26T07:41:04Z</time>
      </trkpt>
      <trkpt lat="47.98761" lon="-0.71694">
        <ele>85.415512</ele>
        <time>2011-06-26T07:41:07Z</time>
      </trkpt>
      <trkpt lat="47.9875" lon="-0.71687">
        <ele>85.312717</ele>
        <time>2011-06-26T07:41:10Z</time>
      </trkpt>
      <trkpt lat="47.98745" lon="-0.71677">
        <ele>85.169183</ele>
        <time>2011-06-26T07:41:12Z</time>
      </trkpt>
      <trkpt lat="47.98741" lon="-0.7166">
        <ele>85.023121</ele>
        <time>2011-06-26T07:41:15Z</time>
      </trkpt>
      <trkpt lat="47.98737" lon="-0.71644">
        <ele>84.930594</ele>
        <time>2011-06-26T07:41:18Z</time>
      </trkpt>
      <trkpt lat="47.98734" lon="-0.71633">
        <ele>84.902633</ele>
        <time>2011-06-26T07:41:20Z</time>
      </trkpt>
      <trkpt lat="47.98734" lon="-0.71633">
        <ele>84.90797</ele>
        <time>2011-06-26T07:41:20Z</time>
      </trkpt>
      <trkpt lat="47.9873" lon="-0.71617">
        <ele>84.951425</ele>
        <time>2011-06-26T07:41:23Z</time>
      </trkpt>
      <trkpt lat="47.98727" lon="-0.71605">
        <ele>85.074579</ele>
        <time>2011-06-26T07:41:25Z</time>
      </trkpt>
      <trkpt lat="47.98725" lon="-0.71594">
        <ele>85.259969</ele>
        <time>2011-06-26T07:41:27Z</time>
      </trkpt>
      <trkpt lat="47.98722" lon="-0.71577">
        <ele>85.4448</ele>
        <time>2011-06-26T07:41:30Z</time>
      </trkpt>
      <trkpt lat="47.9872" lon="-0.71566">
        <ele>85.611083</ele>
        <time>2011-06-26T07:41:32Z</time>
      </trkpt>
      <trkpt lat="47.98717" lon="-0.71552">
        <ele>85.757371</ele>
        <time>2011-06-26T07:41:35Z</time>
      </trkpt>
      <trkpt lat="47.98715" lon="-0.71539">
        <ele>85.858316</ele>
        <time>2011-06-26T07:41:38Z</time>
      </trkpt>
      <trkpt lat="47.98715" lon="-0.71526">
        <ele>85.902846</ele>
        <time>2011-06-26T07:41:41Z</time>
      </trkpt>
      <trkpt lat="47.98714" lon="-0.71513">
        <ele>85.911901</ele>
        <time>2011-06-26T07:41:44Z</time>
      </trkpt>
      <trkpt lat="47.98715" lon="-0.71498">
        <ele>85.918789</ele>
        <time>2011-06-26T07:41:47Z</time>
      </trkpt>
      <trkpt lat="47.98714" lon="-0.71488">
        <ele>85.945242</ele>
        <time>2011-06-26T07:41:49Z</time>
      </trkpt>
      <trkpt lat="47.98713" lon="-0.71472">
        <ele>86.001628</ele>
        <time>2011-06-26T07:41:52Z</time>
      </trkpt>
      <trkpt lat="47.98713" lon="-0.71461">
        <ele>86.099877</ele>
        <time>2011-06-26T07:41:54Z</time>
      </trkpt>
      <trkpt lat="47.98712" lon="-0.7145">
        <ele>86.240266</ele>
        <time>2011-06-26T07:41:56Z</time>
      </trkpt>
      <trkpt lat="47.98712" lon="-0.71434">
        <ele>86.409182</ele>
        <time>2011-06-26T07:41:59Z</time>
      </trkpt>
      <trkpt lat="47.98711" lon="-0.71418">
        <ele>86.593397</ele>
        <time>2011-06-26T07:42:02Z</time>
      </trkpt>
      <trkpt lat="47.98711" lon="-0.71401">
        <ele>86.777775</ele>
        <time>2011-06-26T07:42:05Z</time>
      </trkpt>
      <trkpt lat="47.98712" lon="-0.71391">
        <ele>86.959656</ele>
        <time>2011-06-26T07:42:07Z</time>
      </trkpt>
      <trkpt lat="47.98712" lon="-0.7138">
        <ele>87.155197</ele>
        <time>2011-06-26T07:42:09Z</time>
      </trkpt>
      <trkpt lat="47.98713" lon="-0.71364">
        <ele>87.366744</ele>
        <time>2011-06-26T07:42:12Z</time>
      </trkpt>
      <trkpt lat="47.98713" lon="-0.71348">
        <ele>87.569542</ele>
        <time>2011-06-26T07:42:15Z</time>
      </trkpt>
      <trkpt lat="47.98713" lon="-0.71338">
        <ele>87.736131</ele>
        <time>2011-06-26T07:42:17Z</time>
      </trkpt>
      <trkpt lat="47.98713" lon="-0.71322">
        <ele>87.870832</ele>
        <time>2011-06-26T07:42:20Z</time>
      </trkpt>
      <trkpt lat="47.98712" lon="-0.71312">
        <ele>87.999687</ele>
        <time>2011-06-26T07:42:22Z</time>
      </trkpt>
      <trkpt lat="47.98712" lon="-0.71302">
        <ele>88.12654</ele>
        <time>2011-06-26T07:42:24Z</time>
      </trkpt>
      <trkpt lat="47.98711" lon="-0.71288">
        <ele>88.243849</ele>
        <time>2011-06-26T07:42:27Z</time>
      </trkpt>
      <trkpt lat="47.9871" lon="-0.71275">
        <ele>88.352889</ele>
        <time>2011-06-26T07:42:30Z</time>
      </trkpt>
      <trkpt lat="47.98709" lon="-0.71268">
        <ele>88.450778</ele>
        <time>2011-06-26T07:42:34Z</time>
      </trkpt>
      <trkpt lat="47.98708" lon="-0.71261">
        <ele>88.533332</ele>
        <time>2011-06-26T07:42:41Z</time>
      </trkpt>
      <trkpt lat="47.98707" lon="-0.71254">
        <ele>88.609013</ele>
        <time>2011-06-26T07:42:45Z</time>
      </trkpt>
      <trkpt lat="47.98712" lon="-0.71248">
        <ele>88.692133</ele>
        <time>2011-06-26T07:42:51Z</time>
      </trkpt>
      <trkpt lat="47.98717" lon="-0.71244">
        <ele>88.804566</ele>
        <time>2011-06-26T07:42:53Z</time>
      </trkpt>
      <trkpt lat="47.98723" lon="-0.71245">
        <ele>88.950797</ele>
        <time>2011-06-26T07:42:55Z</time>
      </trkpt>
      <trkpt lat="47.98733" lon="-0.71248">
        <ele>89.105758</ele>
        <time>2011-06-26T07:42:58Z</time>
      </trkpt>
      <trkpt lat="47.98739" lon="-0.7125">
        <ele>89.23867</ele>
        <time>2011-06-26T07:43:00Z</time>
      </trkpt>
      <trkpt lat="47.98739" lon="-0.7125">
        <ele>89.326181</ele>
        <time>2011-06-26T07:43:02Z</time>
      </trkpt>
      <trkpt lat="47.98747" lon="-0.71254">
        <ele>89.366406</ele>
        <time>2011-06-26T07:43:03Z</time>
      </trkpt>
      <trkpt lat="47.98753" lon="-0.71256">
        <ele>89.387251</ele>
        <time>2011-06-26T07:43:05Z</time>
      </trkpt>
      <trkpt lat="47.98763" lon="-0.71259">
        <ele>89.408122</ele>
        <time>2011-06-26T07:43:08Z</time>
      </trkpt>
      <trkpt lat="47.9877" lon="-0.71261">
        <ele>89.428643</ele>
        <time>2011-06-26T07:43:10Z</time>
      </trkpt>
      <trkpt lat="47.98777" lon="-0.71262">
        <ele>89.447014</ele>
        <time>2011-06-26T07:43:12Z</time>
      </trkpt>
      <trkpt lat="47.98787" lon="-0.71265">
        <ele>89.462433</ele>
        <time>2011-06-26T07:43:15Z</time>
      </trkpt>
      <trkpt lat="47.98787" lon="-0.71265">
        <ele>89.472099</ele>
        <time>2011-06-26T07:43:17Z</time>
      </trkpt>
      <trkpt lat="47.98798" lon="-0.71268">
        <ele>89.476489</ele>
        <time>2011-06-26T07:43:18Z</time>
      </trkpt>
      <trkpt lat="47.98806" lon="-0.71271">
        <ele>89.47875</ele>
        <time>2011-06-26T07:43:20Z</time>
      </trkpt>
      <trkpt lat="47.98818" lon="-0.71276">
        <ele>89.479199</ele>
        <time>2011-06-26T07:43:23Z</time>
      </trkpt>
      <trkpt lat="47.9883" lon="-0.71284">
        <ele>89.474505</ele>
        <time>2011-06-26T07:43:26Z</time>
      </trkpt>
      <trkpt lat="47.98838" lon="-0.7129">
        <ele>89.451881</ele>
        <time>2011-06-26T07:43:28Z</time>
      </trkpt>
      <trkpt lat="47.98846" lon="-0.71295">
        <ele>89.292896</ele>
        <time>2011-06-26T07:43:30Z</time>
      </trkpt>
      <trkpt lat="47.98855" lon="-0.71298">
        <ele>88.663566</ele>
        <time>2011-06-26T07:43:32Z</time>
      </trkpt>
      <trkpt lat="47.98869" lon="-0.71292">
        <ele>87.453061</ele>
        <time>2011-06-26T07:43:35Z</time>
      </trkpt>
      <trkpt lat="47.98875" lon="-0.71278">
        <ele>86.100468</ele>
        <time>2011-06-26T07:43:37Z</time>
      </trkpt>
      <trkpt lat="47.98871" lon="-0.71257">
        <ele>85.134015</ele>
        <time>2011-06-26T07:43:40Z</time>
      </trkpt>
      <trkpt lat="47.98866" lon="-0.71245">
        <ele>84.705904</ele>
        <time>2011-06-26T07:43:42Z</time>
      </trkpt>
      <trkpt lat="47.98861" lon="-0.71236">
        <ele>84.659342</ele>
        <time>2011-06-26T07:43:44Z</time>
      </trkpt>
      <trkpt lat="47.98852" lon="-0.71222">
        <ele>84.760075</ele>
        <time>2011-06-26T07:43:47Z</time>
      </trkpt>
      <trkpt lat="47.98848" lon="-0.71213">
        <ele>84.916178</ele>
        <time>2011-06-26T07:43:49Z</time>
      </trkpt>
      <trkpt lat="47.98848" lon="-0.71213">
        <ele>85.09567</ele>
        <time>2011-06-26T07:43:51Z</time>
      </trkpt>
      <trkpt lat="47.98842" lon="-0.71197">
        <ele>85.273567</ele>
        <time>2011-06-26T07:43:52Z</time>
      </trkpt>
      <trkpt lat="47.98838" lon="-0.71187">
        <ele>85.538721</ele>
        <time>2011-06-26T07:43:54Z</time>
      </trkpt>
      <trkpt lat="47.98834" lon="-0.71173">
        <ele>85.991794</ele>
        <time>2011-06-26T07:43:57Z</time>
      </trkpt>
      <trkpt lat="47.98832" lon="-0.71164">
        <ele>86.606517</ele>
        <time>2011-06-26T07:43:59Z</time>
      </trkpt>
      <trkpt lat="47.9883" lon="-0.71154">
        <ele>87.254897</ele>
        <time>2011-06-26T07:44:01Z</time>
      </trkpt>
      <trkpt lat="47.98827" lon="-0.71139">
        <ele>87.757072</ele>
        <time>2011-06-26T07:44:04Z</time>
      </trkpt>
      <trkpt lat="47.98825" lon="-0.71123">
        <ele>88.021525</ele>
        <time>2011-06-26T07:44:07Z</time>
      </trkpt>
      <trkpt lat="47.98823" lon="-0.71108">
        <ele>88.122957</ele>
        <time>2011-06-26T07:44:10Z</time>
      </trkpt>
      <trkpt lat="47.98821" lon="-0.71093">
        <ele>88.178344</ele>
        <time>2011-06-26T07:44:13Z</time>
      </trkpt>
      <trkpt lat="47.98818" lon="-0.71079">
        <ele>88.261397</ele>
        <time>2011-06-26T07:44:16Z</time>
      </trkpt>
      <trkpt lat="47.98817" lon="-0.71069">
        <ele>88.386054</ele>
        <time>2011-06-26T07:44:18Z</time>
      </trkpt>
      <trkpt lat="47.98815" lon="-0.71059">
        <ele>88.535107</ele>
        <time>2011-06-26T07:44:20Z</time>
      </trkpt>
      <trkpt lat="47.98812" lon="-0.71043">
        <ele>88.696463</ele>
        <time>2011-06-26T07:44:23Z</time>
      </trkpt>
      <trkpt lat="47.98809" lon="-0.71027">
        <ele>88.858454</ele>
        <time>2011-06-26T07:44:26Z</time>
      </trkpt>
      <trkpt lat="47.98807" lon="-0.71016">
        <ele>89.002927</ele>
        <time>2011-06-26T07:44:28Z</time>
      </trkpt>
      <trkpt lat="47.98805" lon="-0.71005">
        <ele>89.130537</ele>
        <time>2011-06-26T07:44:30Z</time>
      </trkpt>
      <trkpt lat="47.98802" lon="-0.70988">
        <ele>89.373501</ele>
        <time>2011-06-26T07:44:33Z</time>
      </trkpt>
      <trkpt lat="47.98799" lon="-0.70969">
        <ele>89.875821</ele>
        <time>2011-06-26T07:44:36Z</time>
      </trkpt>
      <trkpt lat="47.98795" lon="-0.70949">
        <ele>90.547037</ele>
        <time>2011-06-26T07:44:39Z</time>
      </trkpt>
      <trkpt lat="47.9879" lon="-0.7093">
        <ele>91.174038</ele>
        <time>2011-06-26T07:44:42Z</time>
      </trkpt>
      <trkpt lat="47.98786" lon="-0.70912">
        <ele>91.620537</ele>
        <time>2011-06-26T07:44:45Z</time>
      </trkpt>
      <trkpt lat="47.98783" lon="-0.70901">
        <ele>91.831292</ele>
        <time>2011-06-26T07:44:47Z</time>
      </trkpt>
      <trkpt lat="47.9878" lon="-0.7089">
        <ele>91.862555</ele>
        <time>2011-06-26T07:44:49Z</time>
      </trkpt>
      <trkpt lat="47.98777" lon="-0.70871">
        <ele>91.762673</ele>
        <time>2011-06-26T07:44:52Z</time>
      </trkpt>
      <trkpt lat="47.98776" lon="-0.70858">
        <ele>91.400233</ele>
        <time>2011-06-26T07:44:54Z</time>
      </trkpt>
      <trkpt lat="47.98773" lon="-0.70838">
        <ele>90.676371</ele>
        <time>2011-06-26T07:44:57Z</time>
      </trkpt>
      <trkpt lat="47.98769" lon="-0.70818">
        <ele>89.812622</ele>
        <time>2011-06-26T07:45:00Z</time>
      </trkpt>
      <trkpt lat="47.98767" lon="-0.70805">
        <ele>89.171725</ele>
        <time>2011-06-26T07:45:02Z</time>
      </trkpt>
      <trkpt lat="47.98768" lon="-0.70793">
        <ele>88.892922</ele>
        <time>2011-06-26T07:45:04Z</time>
      </trkpt>
      <trkpt lat="47.98768" lon="-0.70779">
        <ele>88.865878</ele>
        <time>2011-06-26T07:45:07Z</time>
      </trkpt>
      <trkpt lat="47.98768" lon="-0.70779">
        <ele>88.924979</ele>
        <time>2011-06-26T07:45:08Z</time>
      </trkpt>
      <trkpt lat="47.98775" lon="-0.7077">
        <ele>88.977868</ele>
        <time>2011-06-26T07:45:10Z</time>
      </trkpt>
      <trkpt lat="47.98781" lon="-0.70769">
        <ele>89.002175</ele>
        <time>2011-06-26T07:45:12Z</time>
      </trkpt>
      <trkpt lat="47.98788" lon="-0.70765">
        <ele>89.006126</ele>
        <time>2011-06-26T07:45:14Z</time>
      </trkpt>
      <trkpt lat="47.98792" lon="-0.70751">
        <ele>88.983377</ele>
        <time>2011-06-26T07:45:17Z</time>
      </trkpt>
      <trkpt lat="47.9879" lon="-0.70733">
        <ele>88.916892</ele>
        <time>2011-06-26T07:45:20Z</time>
      </trkpt>
      <trkpt lat="47.98789" lon="-0.7072">
        <ele>88.829699</ele>
        <time>2011-06-26T07:45:22Z</time>
      </trkpt>
      <trkpt lat="47.98787" lon="-0.70708">
        <ele>88.770935</ele>
        <time>2011-06-26T07:45:24Z</time>
      </trkpt>
      <trkpt lat="47.98785" lon="-0.7069">
        <ele>88.753985</ele>
        <time>2011-06-26T07:45:27Z</time>
      </trkpt>
      <trkpt lat="47.98784" lon="-0.70678">
        <ele>88.759276</ele>
        <time>2011-06-26T07:45:29Z</time>
      </trkpt>
      <trkpt lat="47.98784" lon="-0.70665">
        <ele>88.805728</ele>
        <time>2011-06-26T07:45:32Z</time>
      </trkpt>
      <trkpt lat="47.98784" lon="-0.70655">
        <ele>88.944328</ele>
        <time>2011-06-26T07:45:34Z</time>
      </trkpt>
      <trkpt lat="47.98784" lon="-0.70638">
        <ele>89.138612</ele>
        <time>2011-06-26T07:45:37Z</time>
      </trkpt>
      <trkpt lat="47.98785" lon="-0.70626">
        <ele>89.280655</ele>
        <time>2011-06-26T07:45:39Z</time>
      </trkpt>
      <trkpt lat="47.98786" lon="-0.70606">
        <ele>89.332111</ele>
        <time>2011-06-26T07:45:42Z</time>
      </trkpt>
      <trkpt lat="47.98785" lon="-0.70591">
        <ele>89.306596</ele>
        <time>2011-06-26T07:45:44Z</time>
      </trkpt>
      <trkpt lat="47.98784" lon="-0.70575">
        <ele>89.212303</ele>
        <time>2011-06-26T07:45:46Z</time>
      </trkpt>
      <trkpt lat="47.98783" lon="-0.70556">
        <ele>88.890068</ele>
        <time>2011-06-26T07:45:49Z</time>
      </trkpt>
      <trkpt lat="47.98782" lon="-0.70539">
        <ele>88.165703</ele>
        <time>2011-06-26T07:45:52Z</time>
      </trkpt>
      <trkpt lat="47.98783" lon="-0.70526">
        <ele>87.214012</ele>
        <time>2011-06-26T07:45:54Z</time>
      </trkpt>
      <trkpt lat="47.98783" lon="-0.70507">
        <ele>86.436212</ele>
        <time>2011-06-26T07:45:57Z</time>
      </trkpt>
      <trkpt lat="47.98783" lon="-0.70485">
        <ele>86.039002</ele>
        <time>2011-06-26T07:46:00Z</time>
      </trkpt>
      <trkpt lat="47.98782" lon="-0.7047">
        <ele>85.961926</ele>
        <time>2011-06-26T07:46:02Z</time>
      </trkpt>
      <trkpt lat="47.98777" lon="-0.70457">
        <ele>86.03719</ele>
        <time>2011-06-26T07:46:04Z</time>
      </trkpt>
      <trkpt lat="47.98775" lon="-0.70438">
        <ele>86.177877</ele>
        <time>2011-06-26T07:46:07Z</time>
      </trkpt>
      <trkpt lat="47.98776" lon="-0.70422">
        <ele>86.328564</ele>
        <time>2011-06-26T07:46:09Z</time>
      </trkpt>
      <trkpt lat="47.98777" lon="-0.70405">
        <ele>86.426778</ele>
        <time>2011-06-26T07:46:11Z</time>
      </trkpt>
      <trkpt lat="47.98779" lon="-0.70384">
        <ele>86.462156</ele>
        <time>2011-06-26T07:46:14Z</time>
      </trkpt>
      <trkpt lat="47.98782" lon="-0.70366">
        <ele>86.474868</ele>
        <time>2011-06-26T07:46:17Z</time>
      </trkpt>
      <trkpt lat="47.98783" lon="-0.70352">
        <ele>86.489606</ele>
        <time>2011-06-26T07:46:19Z</time>
      </trkpt>
      <trkpt lat="47.98786" lon="-0.70329">
        <ele>86.540544</ele>
        <time>2011-06-26T07:46:22Z</time>
      </trkpt>
      <trkpt lat="47.98789" lon="-0.70304">
        <ele>86.685575</ele>
        <time>2011-06-26T07:46:25Z</time>
      </trkpt>
      <trkpt lat="47.98792" lon="-0.70285">
        <ele>86.947875</ele>
        <time>2011-06-26T07:46:27Z</time>
      </trkpt>
      <trkpt lat="47.98797" lon="-0.70259">
        <ele>87.244675</ele>
        <time>2011-06-26T07:46:30Z</time>
      </trkpt>
      <trkpt lat="47.98803" lon="-0.70244">
        <ele>87.446941</ele>
        <time>2011-06-26T07:46:32Z</time>
      </trkpt>
      <trkpt lat="47.9881" lon="-0.70221">
        <ele>87.514473</ele>
        <time>2011-06-26T07:46:35Z</time>
      </trkpt>
      <trkpt lat="47.98817" lon="-0.70198">
        <ele>87.45301</ele>
        <time>2011-06-26T07:46:38Z</time>
      </trkpt>
      <trkpt lat="47.98821" lon="-0.7018">
        <ele>87.264615</ele>
        <time>2011-06-26T07:46:40Z</time>
      </trkpt>
      <trkpt lat="47.98828" lon="-0.70157">
        <ele>87.031008</ele>
        <time>2011-06-26T07:46:43Z</time>
      </trkpt>
      <trkpt lat="47.98828" lon="-0.70157">
        <ele>86.860344</ele>
        <time>2011-06-26T07:46:44Z</time>
      </trkpt>
      <trkpt lat="47.98836" lon="-0.70133">
        <ele>86.782747</ele>
        <time>2011-06-26T07:46:46Z</time>
      </trkpt>
      <trkpt lat="47.98842" lon="-0.70108">
        <ele>86.770563</ele>
        <time>2011-06-26T07:46:49Z</time>
      </trkpt>
      <trkpt lat="47.9885" lon="-0.70084">
        <ele>86.782096</ele>
        <time>2011-06-26T07:46:52Z</time>
      </trkpt>
      <trkpt lat="47.98854" lon="-0.70067">
        <ele>86.751606</ele>
        <time>2011-06-26T07:46:54Z</time>
      </trkpt>
      <trkpt lat="47.98861" lon="-0.70042">
        <ele>86.622177</ele>
        <time>2011-06-26T07:46:57Z</time>
      </trkpt>
      <trkpt lat="47.98867" lon="-0.70026">
        <ele>86.429713</ele>
        <time>2011-06-26T07:46:59Z</time>
      </trkpt>
      <trkpt lat="47.98874" lon="-0.70001">
        <ele>86.249933</ele>
        <time>2011-06-26T07:47:02Z</time>
      </trkpt>
      <trkpt lat="47.98879" lon="-0.69982">
        <ele>86.096254</ele>
        <time>2011-06-26T07:47:04Z</time>
      </trkpt>
      <trkpt lat="47.98887" lon="-0.69956">
        <ele>85.941387</ele>
        <time>2011-06-26T07:47:07Z</time>
      </trkpt>
      <trkpt lat="47.98893" lon="-0.69935">
        <ele>85.766046</ele>
        <time>2011-06-26T07:47:10Z</time>
      </trkpt>
      <trkpt lat="47.98898" lon="-0.69923">
        <ele>85.561828</ele>
        <time>2011-06-26T07:47:14Z</time>
      </trkpt>
      <trkpt lat="47.98898" lon="-0.69923">
        <ele>85.359516</ele>
        <time>2011-06-26T07:47:21Z</time>
      </trkpt>
      <trkpt lat="47.98898" lon="-0.69923">
        <ele>85.226939</ele>
        <time>2011-06-26T07:47:43Z</time>
      </trkpt>
      <trkpt lat="47.98898" lon="-0.69923">
        <ele>85.172433</ele>
        <time>2011-06-26T07:48:20Z</time>
      </trkpt>
      <trkpt lat="47.98917" lon="-0.69935">
        <ele>85.092841</ele>
        <time>2011-06-26T07:48:22Z</time>
      </trkpt>
      <trkpt lat="47.9892" lon="-0.69944">
        <ele>84.896139</ele>
        <time>2011-06-26T07:48:24Z</time>
      </trkpt>
      <trkpt lat="47.98926" lon="-0.69959">
        <ele>84.633359</ele>
        <time>2011-06-26T07:48:27Z</time>
      </trkpt>
      <trkpt lat="47.9893" lon="-0.69969">
        <ele>84.365489</ele>
        <time>2011-06-26T07:48:29Z</time>
      </trkpt>
      <trkpt lat="47.98937" lon="-0.69985">
        <ele>84.095895</ele>
        <time>2011-06-26T07:48:32Z</time>
      </trkpt>
      <trkpt lat="47.98943" lon="-0.70002">
        <ele>83.867268</ele>
        <time>2011-06-26T07:48:35Z</time>
      </trkpt>
      <trkpt lat="47.98949" lon="-0.70019">
        <ele>83.700868</ele>
        <time>2011-06-26T07:48:38Z</time>
      </trkpt>
      <trkpt lat="47.98955" lon="-0.70036">
        <ele>83.521648</ele>
        <time>2011-06-26T07:48:41Z</time>
      </trkpt>
      <trkpt lat="47.98959" lon="-0.70046">
        <ele>83.267041</ele>
        <time>2011-06-26T07:48:43Z</time>
      </trkpt>
      <trkpt lat="47.98962" lon="-0.70057">
        <ele>82.975044</ele>
        <time>2011-06-26T07:48:45Z</time>
      </trkpt>
      <trkpt lat="47.98965" lon="-0.70067">
        <ele>82.757678</ele>
        <time>2011-06-26T07:48:47Z</time>
      </trkpt>
      <trkpt lat="47.9897" lon="-0.70083">
        <ele>82.657557</ele>
        <time>2011-06-26T07:48:50Z</time>
      </trkpt>
      <trkpt lat="47.98973" lon="-0.70094">
        <ele>82.628064</ele>
        <time>2011-06-26T07:48:52Z</time>
      </trkpt>
      <trkpt lat="47.98977" lon="-0.70111">
        <ele>82.619017</ele>
        <time>2011-06-26T07:48:55Z</time>
      </trkpt>
      <trkpt lat="47.98982" lon="-0.70128">
        <ele>82.618252</ele>
        <time>2011-06-26T07:48:58Z</time>
      </trkpt>
      <trkpt lat="47.98986" lon="-0.70143">
        <ele>82.630254</ele>
        <time>2011-06-26T07:49:01Z</time>
      </trkpt>
      <trkpt lat="47.98989" lon="-0.70152">
        <ele>82.648977</ele>
        <time>2011-06-26T07:49:03Z</time>
      </trkpt>
      <trkpt lat="47.98996" lon="-0.70169">
        <ele>82.661602</ele>
        <time>2011-06-26T07:49:06Z</time>
      </trkpt>
      <trkpt lat="47.99004" lon="-0.70186">
        <ele>82.804781</ele>
        <time>2011-06-26T07:49:09Z</time>
      </trkpt>
      <trkpt lat="47.99004" lon="-0.70186">
        <ele>83.166395</ele>
        <time>2011-06-26T07:49:10Z</time>
      </trkpt>
      <trkpt lat="47.99011" lon="-0.70202">
        <ele>83.543497</ele>
        <time>2011-06-26T07:49:12Z</time>
      </trkpt>
      <trkpt lat="47.99017" lon="-0.70212">
        <ele>83.791569</ele>
        <time>2011-06-26T07:49:14Z</time>
      </trkpt>
      <trkpt lat="47.99027" lon="-0.70225">
        <ele>83.978867</ele>
        <time>2011-06-26T07:49:17Z</time>
      </trkpt>
      <trkpt lat="47.99035" lon="-0.70233">
        <ele>84.099823</ele>
        <time>2011-06-26T07:49:19Z</time>
      </trkpt>
      <trkpt lat="47.99042" lon="-0.70241">
        <ele>84.131574</ele>
        <time>2011-06-26T07:49:21Z</time>
      </trkpt>
      <trkpt lat="47.9905" lon="-0.70249">
        <ele>84.122095</ele>
        <time>2011-06-26T07:49:23Z</time>
      </trkpt>
      <trkpt lat="47.99061" lon="-0.70261">
        <ele>84.123639</ele>
        <time>2011-06-26T07:49:26Z</time>
      </trkpt>
      <trkpt lat="47.99072" lon="-0.70276">
        <ele>84.162663</ele>
        <time>2011-06-26T07:49:29Z</time>
      </trkpt>
      <trkpt lat="47.99082" lon="-0.70296">
        <ele>84.223959</ele>
        <time>2011-06-26T07:49:32Z</time>
      </trkpt>
      <trkpt lat="47.99089" lon="-0.70321">
        <ele>84.283576</ele>
        <time>2011-06-26T07:49:35Z</time>
      </trkpt>
      <trkpt lat="47.99094" lon="-0.7034">
        <ele>84.359803</ele>
        <time>2011-06-26T07:49:37Z</time>
      </trkpt>
      <trkpt lat="47.99101" lon="-0.70372">
        <ele>84.484353</ele>
        <time>2011-06-26T07:49:40Z</time>
      </trkpt>
      <trkpt lat="47.99106" lon="-0.70397">
        <ele>84.628775</ele>
        <time>2011-06-26T07:49:42Z</time>
      </trkpt>
      <trkpt lat="47.99112" lon="-0.70424">
        <ele>84.727792</ele>
        <time>2011-06-26T07:49:44Z</time>
      </trkpt>
      <trkpt lat="47.99121" lon="-0.70466">
        <ele>84.761101</ele>
        <time>2011-06-26T07:49:47Z</time>
      </trkpt>
      <trkpt lat="47.99132" lon="-0.70513">
        <ele>84.720849</ele>
        <time>2011-06-26T07:49:50Z</time>
      </trkpt>
      <trkpt lat="47.99143" lon="-0.70564">
        <ele>84.538444</ele>
        <time>2011-06-26T07:49:53Z</time>
      </trkpt>
      <trkpt lat="47.9915" lon="-0.70598">
        <ele>84.135213</ele>
        <time>2011-06-26T07:49:55Z</time>
      </trkpt>
      <trkpt lat="47.9916" lon="-0.70649">
        <ele>83.585016</ele>
        <time>2011-06-26T07:49:58Z</time>
      </trkpt>
      <trkpt lat="47.99167" lon="-0.70681">
        <ele>83.027163</ele>
        <time>2011-06-26T07:50:00Z</time>
      </trkpt>
      <trkpt lat="47.99179" lon="-0.70726">
        <ele>82.515553</ele>
        <time>2011-06-26T07:50:03Z</time>
      </trkpt>
      <trkpt lat="47.99188" lon="-0.70753">
        <ele>82.067554</ele>
        <time>2011-06-26T07:50:05Z</time>
      </trkpt>
      <trkpt lat="47.99196" lon="-0.70778">
        <ele>81.697619</ele>
        <time>2011-06-26T07:50:07Z</time>
      </trkpt>
      <trkpt lat="47.99207" lon="-0.70814">
        <ele>81.358601</ele>
        <time>2011-06-26T07:50:10Z</time>
      </trkpt>
      <trkpt lat="47.99213" lon="-0.70837">
        <ele>80.99101</ele>
        <time>2011-06-26T07:50:12Z</time>
      </trkpt>
      <trkpt lat="47.99219" lon="-0.70859">
        <ele>80.570662</ele>
        <time>2011-06-26T07:50:14Z</time>
      </trkpt>
      <trkpt lat="47.99227" lon="-0.7089">
        <ele>80.088812</ele>
        <time>2011-06-26T07:50:17Z</time>
      </trkpt>
      <trkpt lat="47.99236" lon="-0.7092">
        <ele>79.527761</ele>
        <time>2011-06-26T07:50:20Z</time>
      </trkpt>
      <trkpt lat="47.99243" lon="-0.70938">
        <ele>78.919459</ele>
        <time>2011-06-26T07:50:22Z</time>
      </trkpt>
      <trkpt lat="47.99257" lon="-0.70965">
        <ele>78.300477</ele>
        <time>2011-06-26T07:50:25Z</time>
      </trkpt>
      <trkpt lat="47.99274" lon="-0.70995">
        <ele>77.66372</ele>
        <time>2011-06-26T07:50:28Z</time>
      </trkpt>
      <trkpt lat="47.99286" lon="-0.71017">
        <ele>77.061699</ele>
        <time>2011-06-26T07:50:30Z</time>
      </trkpt>
      <trkpt lat="47.99304" lon="-0.71054">
        <ele>76.564134</ele>
        <time>2011-06-26T07:50:33Z</time>
      </trkpt>
      <trkpt lat="47.99314" lon="-0.71081">
        <ele>76.133717</ele>
        <time>2011-06-26T07:50:35Z</time>
      </trkpt>
      <trkpt lat="47.99322" lon="-0.71106">
        <ele>75.653176</ele>
        <time>2011-06-26T07:50:37Z</time>
      </trkpt>
      <trkpt lat="47.99337" lon="-0.71121">
        <ele>75.051088</ele>
        <time>2011-06-26T07:50:40Z</time>
      </trkpt>
      <trkpt lat="47.99349" lon="-0.71117">
        <ele>74.40156</ele>
        <time>2011-06-26T07:50:42Z</time>
      </trkpt>
      <trkpt lat="47.99367" lon="-0.7111">
        <ele>73.835813</ele>
        <time>2011-06-26T07:50:45Z</time>
      </trkpt>
      <trkpt lat="47.99388" lon="-0.71106">
        <ele>73.356799</ele>
        <time>2011-06-26T07:50:48Z</time>
      </trkpt>
      <trkpt lat="47.99409" lon="-0.71101">
        <ele>72.88407</ele>
        <time>2011-06-26T07:50:51Z</time>
      </trkpt>
      <trkpt lat="47.99424" lon="-0.71099">
        <ele>72.371318</ele>
        <time>2011-06-26T07:50:53Z</time>
      </trkpt>
      <trkpt lat="47.99438" lon="-0.71097">
        <ele>71.836599</ele>
        <time>2011-06-26T07:50:55Z</time>
      </trkpt>
      <trkpt lat="47.99452" lon="-0.71094">
        <ele>71.378335</ele>
        <time>2011-06-26T07:50:57Z</time>
      </trkpt>
      <trkpt lat="47.99472" lon="-0.7109">
        <ele>71.101806</ele>
        <time>2011-06-26T07:51:00Z</time>
      </trkpt>
      <trkpt lat="47.99488" lon="-0.71096">
        <ele>70.994556</ele>
        <time>2011-06-26T07:51:03Z</time>
      </trkpt>
      <trkpt lat="47.99496" lon="-0.71113">
        <ele>70.960357</ele>
        <time>2011-06-26T07:51:06Z</time>
      </trkpt>
      <trkpt lat="47.99499" lon="-0.71137">
        <ele>70.914968</ele>
        <time>2011-06-26T07:51:09Z</time>
      </trkpt>
      <trkpt lat="47.99497" lon="-0.71159">
        <ele>70.782099</ele>
        <time>2011-06-26T07:51:12Z</time>
      </trkpt>
      <trkpt lat="47.99496" lon="-0.71167">
        <ele>70.477031</ele>
        <time>2011-06-26T07:51:14Z</time>
      </trkpt>
      <trkpt lat="47.99496" lon="-0.71175">
        <ele>70.009776</ele>
        <time>2011-06-26T07:51:17Z</time>
      </trkpt>
      <trkpt lat="47.99502" lon="-0.71184">
        <ele>69.552482</ele>
        <time>2011-06-26T07:51:20Z</time>
      </trkpt>
      <trkpt lat="47.9951" lon="-0.71189">
        <ele>69.277867</ele>
        <time>2011-06-26T07:51:22Z</time>
      </trkpt>
      <trkpt lat="47.99518" lon="-0.71193">
        <ele>69.19166</ele>
        <time>2011-06-26T07:51:24Z</time>
      </trkpt>
      <trkpt lat="47.99528" lon="-0.71194">
        <ele>69.198118</ele>
        <time>2011-06-26T07:51:26Z</time>
      </trkpt>
      <trkpt lat="47.99545" lon="-0.71197">
        <ele>69.197658</ele>
        <time>2011-06-26T07:51:29Z</time>
      </trkpt>
      <trkpt lat="47.99545" lon="-0.71197">
        <ele>69.146638</ele>
        <time>2011-06-26T07:51:30Z</time>
      </trkpt>
      <trkpt lat="47.99563" lon="-0.71202">
        <ele>69.040368</ele>
        <time>2011-06-26T07:51:32Z</time>
      </trkpt>
      <trkpt lat="47.99578" lon="-0.71217">
        <ele>68.850615</ele>
        <time>2011-06-26T07:51:35Z</time>
      </trkpt>
      <trkpt lat="47.99587" lon="-0.71227">
        <ele>68.54003</ele>
        <time>2011-06-26T07:51:37Z</time>
      </trkpt>
      <trkpt lat="47.99603" lon="-0.71232">
        <ele>68.152138</ele>
        <time>2011-06-26T07:51:40Z</time>
      </trkpt>
      <trkpt lat="47.99621" lon="-0.71232">
        <ele>67.820583</ele>
        <time>2011-06-26T07:51:43Z</time>
      </trkpt>
      <trkpt lat="47.99639" lon="-0.71231">
        <ele>67.6341</ele>
        <time>2011-06-26T07:51:46Z</time>
      </trkpt>
      <trkpt lat="47.99639" lon="-0.71231">
        <ele>67.556912</ele>
        <time>2011-06-26T07:51:47Z</time>
      </trkpt>
      <trkpt lat="47.99657" lon="-0.71236">
        <ele>67.499028</ele>
        <time>2011-06-26T07:51:49Z</time>
      </trkpt>
      <trkpt lat="47.99673" lon="-0.71248">
        <ele>67.366689</ele>
        <time>2011-06-26T07:51:52Z</time>
      </trkpt>
      <trkpt lat="47.99683" lon="-0.71257">
        <ele>67.111902</ele>
        <time>2011-06-26T07:51:54Z</time>
      </trkpt>
      <trkpt lat="47.99692" lon="-0.71268">
        <ele>66.792194</ele>
        <time>2011-06-26T07:51:56Z</time>
      </trkpt>
      <trkpt lat="47.99692" lon="-0.71268">
        <ele>66.530609</ele>
        <time>2011-06-26T07:51:58Z</time>
      </trkpt>
      <trkpt lat="47.99705" lon="-0.71284">
        <ele>66.396418</ele>
        <time>2011-06-26T07:51:59Z</time>
      </trkpt>
      <trkpt lat="47.99714" lon="-0.71296">
        <ele>66.346427</ele>
        <time>2011-06-26T07:52:01Z</time>
      </trkpt>
      <trkpt lat="47.99722" lon="-0.71306">
        <ele>66.320761</ele>
        <time>2011-06-26T07:52:03Z</time>
      </trkpt>
      <trkpt lat="47.99734" lon="-0.71321">
        <ele>66.294115</ele>
        <time>2011-06-26T07:52:06Z</time>
      </trkpt>
      <trkpt lat="47.99742" lon="-0.7133">
        <ele>66.214171</ele>
        <time>2011-06-26T07:52:08Z</time>
      </trkpt>
      <trkpt lat="47.99746" lon="-0.71335">
        <ele>66.010306</ele>
        <time>2011-06-26T07:52:10Z</time>
      </trkpt>
      <trkpt lat="47.99741" lon="-0.7133">
        <ele>65.654911</ele>
        <time>2011-06-26T07:52:17Z</time>
      </trkpt>
      <trkpt lat="47.99736" lon="-0.71315">
        <ele>65.193366</ele>
        <time>2011-06-26T07:52:20Z</time>
      </trkpt>
      <trkpt lat="47.99735" lon="-0.71305">
        <ele>64.765411</ele>
        <time>2011-06-26T07:52:23Z</time>
      </trkpt>
      <trkpt lat="47.99735" lon="-0.71305">
        <ele>64.512443</ele>
        <time>2011-06-26T07:52:24Z</time>
      </trkpt>
      <trkpt lat="47.99746" lon="-0.7129">
        <ele>64.421804</ele>
        <time>2011-06-26T07:52:30Z</time>
      </trkpt>
      <trkpt lat="47.99751" lon="-0.71285">
        <ele>64.383716</ele>
        <time>2011-06-26T07:52:32Z</time>
      </trkpt>
      <trkpt lat="47.99756" lon="-0.71278">
        <ele>64.336755</ele>
        <time>2011-06-26T07:52:34Z</time>
      </trkpt>
      <trkpt lat="47.99767" lon="-0.71267">
        <ele>64.248103</ele>
        <time>2011-06-26T07:52:37Z</time>
      </trkpt>
      <trkpt lat="47.99774" lon="-0.7126">
        <ele>64.096854</ele>
        <time>2011-06-26T07:52:39Z</time>
      </trkpt>
      <trkpt lat="47.99781" lon="-0.71253">
        <ele>63.915561</ele>
        <time>2011-06-26T07:52:41Z</time>
      </trkpt>
      <trkpt lat="47.99788" lon="-0.71245">
        <ele>63.450895</ele>
        <time>2011-06-26T07:52:43Z</time>
      </trkpt>
      <trkpt lat="47.99799" lon="-0.71234">
        <ele>62.41494</ele>
        <time>2011-06-26T07:52:46Z</time>
      </trkpt>
      <trkpt lat="47.9981" lon="-0.71223">
        <ele>61.112854</ele>
        <time>2011-06-26T07:52:49Z</time>
      </trkpt>
      <trkpt lat="47.99821" lon="-0.71212">
        <ele>60.053258</ele>
        <time>2011-06-26T07:52:52Z</time>
      </trkpt>
      <trkpt lat="47.99829" lon="-0.71204">
        <ele>59.303248</ele>
        <time>2011-06-26T07:52:54Z</time>
      </trkpt>
      <trkpt lat="47.9984" lon="-0.71192">
        <ele>58.678919</ele>
        <time>2011-06-26T07:52:57Z</time>
      </trkpt>
      <trkpt lat="47.99849" lon="-0.71187">
        <ele>58.029056</ele>
        <time>2011-06-26T07:53:00Z</time>
      </trkpt>
      <trkpt lat="47.99855" lon="-0.7119">
        <ele>57.371705</ele>
        <time>2011-06-26T07:53:02Z</time>
      </trkpt>
      <trkpt lat="47.99855" lon="-0.7119">
        <ele>56.85631</ele>
        <time>2011-06-26T07:53:03Z</time>
      </trkpt>
      <trkpt lat="47.99864" lon="-0.71202">
        <ele>56.52771</ele>
        <time>2011-06-26T07:53:05Z</time>
      </trkpt>
      <trkpt lat="47.9987" lon="-0.71212">
        <ele>56.273083</ele>
        <time>2011-06-26T07:53:07Z</time>
      </trkpt>
      <trkpt lat="47.99879" lon="-0.71227">
        <ele>56.054535</ele>
        <time>2011-06-26T07:53:10Z</time>
      </trkpt>
      <trkpt lat="47.99888" lon="-0.7124">
        <ele>55.8681</ele>
        <time>2011-06-26T07:53:13Z</time>
      </trkpt>
      <trkpt lat="47.99896" lon="-0.7125">
        <ele>55.611386</ele>
        <time>2011-06-26T07:53:16Z</time>
      </trkpt>
      <trkpt lat="47.99906" lon="-0.71257">
        <ele>55.220387</ele>
        <time>2011-06-26T07:53:19Z</time>
      </trkpt>
      <trkpt lat="47.99917" lon="-0.71267">
        <ele>54.697626</ele>
        <time>2011-06-26T07:53:22Z</time>
      </trkpt>
      <trkpt lat="47.99926" lon="-0.71275">
        <ele>54.148978</ele>
        <time>2011-06-26T07:53:25Z</time>
      </trkpt>
      <trkpt lat="47.99933" lon="-0.71284">
        <ele>53.737744</ele>
        <time>2011-06-26T07:53:28Z</time>
      </trkpt>
      <trkpt lat="47.99941" lon="-0.71292">
        <ele>53.456779</ele>
        <time>2011-06-26T07:53:31Z</time>
      </trkpt>
      <trkpt lat="47.99948" lon="-0.71293">
        <ele>53.220829</ele>
        <time>2011-06-26T07:53:33Z</time>
      </trkpt>
      <trkpt lat="47.99957" lon="-0.71288">
        <ele>53.063033</ele>
        <time>2011-06-26T07:53:36Z</time>
      </trkpt>
      <trkpt lat="47.99964" lon="-0.71284">
        <ele>53.009678</ele>
        <time>2011-06-26T07:53:38Z</time>
      </trkpt>
      <trkpt lat="47.99974" lon="-0.71281">
        <ele>53.01333</ele>
        <time>2011-06-26T07:53:41Z</time>
      </trkpt>
      <trkpt lat="47.99983" lon="-0.71277">
        <ele>53.029812</ele>
        <time>2011-06-26T07:53:44Z</time>
      </trkpt>
      <trkpt lat="47.99991" lon="-0.7127">
        <ele>53.040538</ele>
        <time>2011-06-26T07:53:47Z</time>
      </trkpt>
      <trkpt lat="47.99998" lon="-0.71262">
        <ele>53.043907</ele>
        <time>2011-06-26T07:53:50Z</time>
      </trkpt>
      <trkpt lat="48.00002" lon="-0.71256">
        <ele>53.04139</ele>
        <time>2011-06-26T07:53:52Z</time>
      </trkpt>
      <trkpt lat="48.0001" lon="-0.71248">
        <ele>53.031117</ele>
        <time>2011-06-26T07:53:55Z</time>
      </trkpt>
      <trkpt lat="48.00015" lon="-0.71243">
        <ele>53.011867</ele>
        <time>2011-06-26T07:53:58Z</time>
      </trkpt>
      <trkpt lat="48.00019" lon="-0.71232">
        <ele>52.988683</ele>
        <time>2011-06-26T07:54:05Z</time>
      </trkpt>
      <trkpt lat="48.00019" lon="-0.71232">
        <ele>52.966558</ele>
        <time>2011-06-26T07:54:08Z</time>
      </trkpt>
      <trkpt lat="48.00007" lon="-0.71205">
        <ele>52.94678</ele>
        <time>2011-06-26T07:54:18Z</time>
      </trkpt>
      <trkpt lat="48.00003" lon="-0.71194">
        <ele>52.930849</ele>
        <time>2011-06-26T07:54:21Z</time>
      </trkpt>
      <trkpt lat="48" lon="-0.71186">
        <ele>52.910915</ele>
        <time>2011-06-26T07:54:23Z</time>
      </trkpt>
      <trkpt lat="47.99995" lon="-0.71175">
        <ele>52.869794</ele>
        <time>2011-06-26T07:54:26Z</time>
      </trkpt>
      <trkpt lat="47.99995" lon="-0.71175">
        <ele>52.81407</ele>
        <time>2011-06-26T07:54:27Z</time>
      </trkpt>
      <trkpt lat="47.99992" lon="-0.71167">
        <ele>52.772707</ele>
        <time>2011-06-26T07:54:28Z</time>
      </trkpt>
      <trkpt lat="47.99989" lon="-0.71159">
        <ele>52.75748</ele>
        <time>2011-06-26T07:54:30Z</time>
      </trkpt>
      <trkpt lat="47.99984" lon="-0.71147">
        <ele>52.760408</ele>
        <time>2011-06-26T07:54:33Z</time>
      </trkpt>
      <trkpt lat="47.99981" lon="-0.71139">
        <ele>52.774796</ele>
        <time>2011-06-26T07:54:35Z</time>
      </trkpt>
      <trkpt lat="47.99975" lon="-0.71126">
        <ele>52.793286</ele>
        <time>2011-06-26T07:54:38Z</time>
      </trkpt>
      <trkpt lat="47.99972" lon="-0.71116">
        <ele>52.812116</ele>
        <time>2011-06-26T07:54:40Z</time>
      </trkpt>
      <trkpt lat="47.9997" lon="-0.71101">
        <ele>52.835602</ele>
        <time>2011-06-26T07:54:43Z</time>
      </trkpt>
      <trkpt lat="47.99969" lon="-0.7109">
        <ele>52.866864</ele>
        <time>2011-06-26T07:54:45Z</time>
      </trkpt>
      <trkpt lat="47.99968" lon="-0.71079">
        <ele>52.901716</ele>
        <time>2011-06-26T07:54:47Z</time>
      </trkpt>
      <trkpt lat="47.99966" lon="-0.71062">
        <ele>52.937418</ele>
        <time>2011-06-26T07:54:50Z</time>
      </trkpt>
      <trkpt lat="47.99965" lon="-0.7105">
        <ele>52.975768</ele>
        <time>2011-06-26T07:54:52Z</time>
      </trkpt>
      <trkpt lat="47.99964" lon="-0.71031">
        <ele>53.018087</ele>
        <time>2011-06-26T07:54:55Z</time>
      </trkpt>
      <trkpt lat="47.99964" lon="-0.71012">
        <ele>53.112439</ele>
        <time>2011-06-26T07:54:58Z</time>
      </trkpt>
      <trkpt lat="47.99964" lon="-0.70994">
        <ele>53.325163</ele>
        <time>2011-06-26T07:55:01Z</time>
      </trkpt>
      <trkpt lat="47.99963" lon="-0.70976">
        <ele>53.663289</ele>
        <time>2011-06-26T07:55:04Z</time>
      </trkpt>
      <trkpt lat="47.99962" lon="-0.70964">
        <ele>54.077235</ele>
        <time>2011-06-26T07:55:06Z</time>
      </trkpt>
      <trkpt lat="47.9996" lon="-0.70954">
        <ele>54.5196</ele>
        <time>2011-06-26T07:55:08Z</time>
      </trkpt>
      <trkpt lat="47.9996" lon="-0.70944">
        <ele>54.954538</ele>
        <time>2011-06-26T07:55:10Z</time>
      </trkpt>
      <trkpt lat="47.9996" lon="-0.70944">
        <ele>55.310057</ele>
        <time>2011-06-26T07:55:10Z</time>
      </trkpt>
      <trkpt lat="47.99959" lon="-0.70928">
        <ele>55.520516</ele>
        <time>2011-06-26T07:55:13Z</time>
      </trkpt>
      <trkpt lat="47.99959" lon="-0.70916">
        <ele>55.622372</ele>
        <time>2011-06-26T07:55:15Z</time>
      </trkpt>
      <trkpt lat="47.99959" lon="-0.70898">
        <ele>55.678092</ele>
        <time>2011-06-26T07:55:18Z</time>
      </trkpt>
      <trkpt lat="47.99961" lon="-0.70881">
        <ele>55.722328</ele>
        <time>2011-06-26T07:55:21Z</time>
      </trkpt>
      <trkpt lat="47.99963" lon="-0.70869">
        <ele>55.802238</ele>
        <time>2011-06-26T07:55:23Z</time>
      </trkpt>
      <trkpt lat="47.99966" lon="-0.70853">
        <ele>55.943247</ele>
        <time>2011-06-26T07:55:26Z</time>
      </trkpt>
      <trkpt lat="47.99969" lon="-0.70842">
        <ele>56.11419</ele>
        <time>2011-06-26T07:55:28Z</time>
      </trkpt>
      <trkpt lat="47.99972" lon="-0.70827">
        <ele>56.272149</ele>
        <time>2011-06-26T07:55:31Z</time>
      </trkpt>
      <trkpt lat="47.99974" lon="-0.70818">
        <ele>56.421508</ele>
        <time>2011-06-26T07:55:33Z</time>
      </trkpt>
      <trkpt lat="47.99976" lon="-0.70809">
        <ele>56.567634</ele>
        <time>2011-06-26T07:55:35Z</time>
      </trkpt>
      <trkpt lat="47.99981" lon="-0.70793">
        <ele>56.678621</ele>
        <time>2011-06-26T07:55:38Z</time>
      </trkpt>
      <trkpt lat="47.99985" lon="-0.70778">
        <ele>56.739873</ele>
        <time>2011-06-26T07:55:41Z</time>
      </trkpt>
      <trkpt lat="47.99988" lon="-0.70768">
        <ele>56.772479</ele>
        <time>2011-06-26T07:55:43Z</time>
      </trkpt>
      <trkpt lat="47.99992" lon="-0.70759">
        <ele>56.801922</ele>
        <time>2011-06-26T07:55:45Z</time>
      </trkpt>
      <trkpt lat="47.99996" lon="-0.70745">
        <ele>56.851779</ele>
        <time>2011-06-26T07:55:48Z</time>
      </trkpt>
      <trkpt lat="48" lon="-0.70732">
        <ele>56.927059</ele>
        <time>2011-06-26T07:55:51Z</time>
      </trkpt>
      <trkpt lat="48.00003" lon="-0.70723">
        <ele>57.013995</ele>
        <time>2011-06-26T07:55:53Z</time>
      </trkpt>
      <trkpt lat="48.00007" lon="-0.70709">
        <ele>57.105968</ele>
        <time>2011-06-26T07:55:56Z</time>
      </trkpt>
      <trkpt lat="48.0001" lon="-0.707">
        <ele>57.21214</ele>
        <time>2011-06-26T07:55:58Z</time>
      </trkpt>
      <trkpt lat="48.00012" lon="-0.70686">
        <ele>57.334554</ele>
        <time>2011-06-26T07:56:01Z</time>
      </trkpt>
      <trkpt lat="48.00014" lon="-0.70677">
        <ele>57.473614</ele>
        <time>2011-06-26T07:56:03Z</time>
      </trkpt>
      <trkpt lat="48.00015" lon="-0.70662">
        <ele>57.631488</ele>
        <time>2011-06-26T07:56:06Z</time>
      </trkpt>
      <trkpt lat="48.00016" lon="-0.70653">
        <ele>57.807568</ele>
        <time>2011-06-26T07:56:08Z</time>
      </trkpt>
      <trkpt lat="48.00018" lon="-0.70639">
        <ele>57.997306</ele>
        <time>2011-06-26T07:56:11Z</time>
      </trkpt>
      <trkpt lat="48.0002" lon="-0.7063">
        <ele>58.202169</ele>
        <time>2011-06-26T07:56:13Z</time>
      </trkpt>
      <trkpt lat="48.00021" lon="-0.70621">
        <ele>58.422877</ele>
        <time>2011-06-26T07:56:15Z</time>
      </trkpt>
      <trkpt lat="48.00023" lon="-0.70613">
        <ele>58.665403</ele>
        <time>2011-06-26T07:56:17Z</time>
      </trkpt>
      <trkpt lat="48.00024" lon="-0.70605">
        <ele>58.927515</ele>
        <time>2011-06-26T07:56:19Z</time>
      </trkpt>
      <trkpt lat="48.0003" lon="-0.70598">
        <ele>59.189628</ele>
        <time>2011-06-26T07:56:22Z</time>
      </trkpt>
      <trkpt lat="48.0003" lon="-0.70598">
        <ele>59.401923</ele>
        <time>2011-06-26T07:56:22Z</time>
      </trkpt>
      <trkpt lat="48.00042" lon="-0.70599">
        <ele>59.551478</ele>
        <time>2011-06-26T07:56:25Z</time>
      </trkpt>
      <trkpt lat="48.00051" lon="-0.706">
        <ele>59.699027</ele>
        <time>2011-06-26T07:56:27Z</time>
      </trkpt>
      <trkpt lat="48.00067" lon="-0.70606">
        <ele>59.917098</ele>
        <time>2011-06-26T07:56:30Z</time>
      </trkpt>
      <trkpt lat="48.00083" lon="-0.70612">
        <ele>60.484825</ele>
        <time>2011-06-26T07:56:33Z</time>
      </trkpt>
      <trkpt lat="48.00093" lon="-0.70617">
        <ele>61.670213</ele>
        <time>2011-06-26T07:56:35Z</time>
      </trkpt>
      <trkpt lat="48.00107" lon="-0.70624">
        <ele>63.231442</ele>
        <time>2011-06-26T07:56:38Z</time>
      </trkpt>
      <trkpt lat="48.00107" lon="-0.70624">
        <ele>64.572737</ele>
        <time>2011-06-26T07:56:38Z</time>
      </trkpt>
      <trkpt lat="48.00119" lon="-0.70632">
        <ele>65.387342</ele>
        <time>2011-06-26T07:56:41Z</time>
      </trkpt>
      <trkpt lat="48.00125" lon="-0.7064">
        <ele>65.783948</ele>
        <time>2011-06-26T07:56:43Z</time>
      </trkpt>
      <trkpt lat="48.00134" lon="-0.70654">
        <ele>65.96598</ele>
        <time>2011-06-26T07:56:46Z</time>
      </trkpt>
      <trkpt lat="48.00142" lon="-0.70671">
        <ele>66.009799</ele>
        <time>2011-06-26T07:56:49Z</time>
      </trkpt>
      <trkpt lat="48.00152" lon="-0.70686">
        <ele>65.990884</ele>
        <time>2011-06-26T07:56:52Z</time>
      </trkpt>
      <trkpt lat="48.00161" lon="-0.7069">
        <ele>65.965072</ele>
        <time>2011-06-26T07:56:54Z</time>
      </trkpt>
      <trkpt lat="48.0017" lon="-0.70693">
        <ele>65.952969</ele>
        <time>2011-06-26T07:56:56Z</time>
      </trkpt>
      <trkpt lat="48.0018" lon="-0.70698">
        <ele>65.952595</ele>
        <time>2011-06-26T07:56:58Z</time>
      </trkpt>
      <trkpt lat="48.00194" lon="-0.70703">
        <ele>65.956019</ele>
        <time>2011-06-26T07:57:01Z</time>
      </trkpt>
      <trkpt lat="48.00208" lon="-0.70708">
        <ele>65.960936</ele>
        <time>2011-06-26T07:57:04Z</time>
      </trkpt>
      <trkpt lat="48.00216" lon="-0.7071">
        <ele>65.97783</ele>
        <time>2011-06-26T07:57:06Z</time>
      </trkpt>
      <trkpt lat="48.00223" lon="-0.70713">
        <ele>66.019477</ele>
        <time>2011-06-26T07:57:08Z</time>
      </trkpt>
      <trkpt lat="48.00234" lon="-0.70714">
        <ele>66.118254</ele>
        <time>2011-06-26T07:57:11Z</time>
      </trkpt>
      <trkpt lat="48.00241" lon="-0.70714">
        <ele>66.294104</ele>
        <time>2011-06-26T07:57:13Z</time>
      </trkpt>
      <trkpt lat="48.00252" lon="-0.70716">
        <ele>66.483472</ele>
        <time>2011-06-26T07:57:16Z</time>
      </trkpt>
      <trkpt lat="48.00258" lon="-0.70718">
        <ele>66.599345</ele>
        <time>2011-06-26T07:57:18Z</time>
      </trkpt>
      <trkpt lat="48.00268" lon="-0.70717">
        <ele>66.633756</ele>
        <time>2011-06-26T07:57:21Z</time>
      </trkpt>
      <trkpt lat="48.00277" lon="-0.70715">
        <ele>66.626618</ele>
        <time>2011-06-26T07:57:24Z</time>
      </trkpt>
      <trkpt lat="48.00286" lon="-0.70716">
        <ele>66.610569</ele>
        <time>2011-06-26T07:57:27Z</time>
      </trkpt>
      <trkpt lat="48.00292" lon="-0.70715">
        <ele>66.597694</ele>
        <time>2011-06-26T07:57:29Z</time>
      </trkpt>
      <trkpt lat="48.00299" lon="-0.70707">
        <ele>66.58945</ele>
        <time>2011-06-26T07:57:32Z</time>
      </trkpt>
      <trkpt lat="48.00304" lon="-0.70699">
        <ele>66.585702</ele>
        <time>2011-06-26T07:57:35Z</time>
      </trkpt>
      <trkpt lat="48.00307" lon="-0.70692">
        <ele>66.585231</ele>
        <time>2011-06-26T07:57:38Z</time>
      </trkpt>
      <trkpt lat="48.00311" lon="-0.70687">
        <ele>66.587984</ele>
        <time>2011-06-26T07:57:41Z</time>
      </trkpt>
      <trkpt lat="48.00315" lon="-0.70681">
        <ele>66.600231</ele>
        <time>2011-06-26T07:57:45Z</time>
      </trkpt>
      <trkpt lat="48.00319" lon="-0.70677">
        <ele>66.630406</ele>
        <time>2011-06-26T07:57:49Z</time>
      </trkpt>
      <trkpt lat="48.0032" lon="-0.70668">
        <ele>66.682389</ele>
        <time>2011-06-26T07:57:52Z</time>
      </trkpt>
      <trkpt lat="48.00322" lon="-0.70656">
        <ele>66.758088</ele>
        <time>2011-06-26T07:57:55Z</time>
      </trkpt>
      <trkpt lat="48.00324" lon="-0.70645">
        <ele>66.858909</ele>
        <time>2011-06-26T07:57:57Z</time>
      </trkpt>
      <trkpt lat="48.00328" lon="-0.70633">
        <ele>66.976462</ele>
        <time>2011-06-26T07:57:59Z</time>
      </trkpt>
      <trkpt lat="48.00334" lon="-0.7062">
        <ele>67.09625</ele>
        <time>2011-06-26T07:58:01Z</time>
      </trkpt>
      <trkpt lat="48.00343" lon="-0.706">
        <ele>67.318694</ele>
        <time>2011-06-26T07:58:04Z</time>
      </trkpt>
      <trkpt lat="48.00343" lon="-0.706">
        <ele>67.694396</ele>
        <time>2011-06-26T07:58:04Z</time>
      </trkpt>
      <trkpt lat="48.00352" lon="-0.70582">
        <ele>68.127513</ele>
        <time>2011-06-26T07:58:07Z</time>
      </trkpt>
      <trkpt lat="48.00359" lon="-0.70572">
        <ele>68.54177</ele>
        <time>2011-06-26T07:58:09Z</time>
      </trkpt>
      <trkpt lat="48.00369" lon="-0.70558">
        <ele>68.869617</ele>
        <time>2011-06-26T07:58:12Z</time>
      </trkpt>
      <trkpt lat="48.0038" lon="-0.70539">
        <ele>69.024133</ele>
        <time>2011-06-26T07:58:15Z</time>
      </trkpt>
      <trkpt lat="48.00389" lon="-0.70525">
        <ele>69.02373</ele>
        <time>2011-06-26T07:58:17Z</time>
      </trkpt>
      <trkpt lat="48.00403" lon="-0.70503">
        <ele>68.895229</ele>
        <time>2011-06-26T07:58:20Z</time>
      </trkpt>
      <trkpt lat="48.00417" lon="-0.7048">
        <ele>68.699158</ele>
        <time>2011-06-26T07:58:23Z</time>
      </trkpt>
      <trkpt lat="48.00428" lon="-0.70464">
        <ele>68.507812</ele>
        <time>2011-06-26T07:58:25Z</time>
      </trkpt>
      <trkpt lat="48.00438" lon="-0.70448">
        <ele>68.284208</ele>
        <time>2011-06-26T07:58:27Z</time>
      </trkpt>
      <trkpt lat="48.00455" lon="-0.70427">
        <ele>67.950983</ele>
        <time>2011-06-26T07:58:30Z</time>
      </trkpt>
      <trkpt lat="48.00464" lon="-0.70416">
        <ele>67.536351</ele>
        <time>2011-06-26T07:58:32Z</time>
      </trkpt>
      <trkpt lat="48.00472" lon="-0.70406">
        <ele>67.113318</ele>
        <time>2011-06-26T07:58:35Z</time>
      </trkpt>
      <trkpt lat="48.00478" lon="-0.704">
        <ele>66.704238</ele>
        <time>2011-06-26T07:58:37Z</time>
      </trkpt>
      <trkpt lat="48.00487" lon="-0.7039">
        <ele>66.31465</ele>
        <time>2011-06-26T07:58:40Z</time>
      </trkpt>
      <trkpt lat="48.00493" lon="-0.70383">
        <ele>66.003489</ele>
        <time>2011-06-26T07:58:42Z</time>
      </trkpt>
      <trkpt lat="48.00504" lon="-0.70374">
        <ele>65.824374</ele>
        <time>2011-06-26T07:58:45Z</time>
      </trkpt>
      <trkpt lat="48.00514" lon="-0.70361">
        <ele>65.705283</ele>
        <time>2011-06-26T07:58:48Z</time>
      </trkpt>
      <trkpt lat="48.00518" lon="-0.70353">
        <ele>65.490501</ele>
        <time>2011-06-26T07:58:51Z</time>
      </trkpt>
      <trkpt lat="48.00521" lon="-0.70348">
        <ele>65.105793</ele>
        <time>2011-06-26T07:58:53Z</time>
      </trkpt>
      <trkpt lat="48.00526" lon="-0.70338">
        <ele>64.573727</ele>
        <time>2011-06-26T07:58:56Z</time>
      </trkpt>
      <trkpt lat="48.00531" lon="-0.70327">
        <ele>64.01794</ele>
        <time>2011-06-26T07:58:59Z</time>
      </trkpt>
      <trkpt lat="48.00535" lon="-0.7032">
        <ele>63.621916</ele>
        <time>2011-06-26T07:59:01Z</time>
      </trkpt>
      <trkpt lat="48.00539" lon="-0.70312">
        <ele>63.42738</ele>
        <time>2011-06-26T07:59:03Z</time>
      </trkpt>
      <trkpt lat="48.00549" lon="-0.70295">
        <ele>63.308685</ele>
        <time>2011-06-26T07:59:06Z</time>
      </trkpt>
      <trkpt lat="48.00557" lon="-0.70276">
        <ele>63.169045</ele>
        <time>2011-06-26T07:59:09Z</time>
      </trkpt>
      <trkpt lat="48.00562" lon="-0.70264">
        <ele>62.999967</ele>
        <time>2011-06-26T07:59:11Z</time>
      </trkpt>
      <trkpt lat="48.00566" lon="-0.70251">
        <ele>62.805581</ele>
        <time>2011-06-26T07:59:13Z</time>
      </trkpt>
      <trkpt lat="48.00573" lon="-0.70234">
        <ele>62.583659</ele>
        <time>2011-06-26T07:59:16Z</time>
      </trkpt>
      <trkpt lat="48.00578" lon="-0.70225">
        <ele>62.373561</ele>
        <time>2011-06-26T07:59:18Z</time>
      </trkpt>
      <trkpt lat="48.00585" lon="-0.70212">
        <ele>62.157268</ele>
        <time>2011-06-26T07:59:21Z</time>
      </trkpt>
      <trkpt lat="48.00592" lon="-0.70202">
        <ele>61.872011</ele>
        <time>2011-06-26T07:59:24Z</time>
      </trkpt>
      <trkpt lat="48.00592" lon="-0.70202">
        <ele>61.585339</ele>
        <time>2011-06-26T07:59:25Z</time>
      </trkpt>
      <trkpt lat="48.00597" lon="-0.70195">
        <ele>61.395102</ele>
        <time>2011-06-26T07:59:26Z</time>
      </trkpt>
      <trkpt lat="48.00602" lon="-0.70189">
        <ele>61.254219</ele>
        <time>2011-06-26T07:59:28Z</time>
      </trkpt>
      <trkpt lat="48.00608" lon="-0.70183">
        <ele>61.079134</ele>
        <time>2011-06-26T07:59:30Z</time>
      </trkpt>
      <trkpt lat="48.00616" lon="-0.70176">
        <ele>60.868867</ele>
        <time>2011-06-26T07:59:33Z</time>
      </trkpt>
      <trkpt lat="48.00623" lon="-0.70167">
        <ele>60.669069</ele>
        <time>2011-06-26T07:59:36Z</time>
      </trkpt>
      <trkpt lat="48.00627" lon="-0.70162">
        <ele>60.503622</ele>
        <time>2011-06-26T07:59:38Z</time>
      </trkpt>
      <trkpt lat="48.00633" lon="-0.70154">
        <ele>60.358672</ele>
        <time>2011-06-26T07:59:41Z</time>
      </trkpt>
      <trkpt lat="48.00638" lon="-0.70145">
        <ele>60.211928</ele>
        <time>2011-06-26T07:59:44Z</time>
      </trkpt>
      <trkpt lat="48.00643" lon="-0.70138">
        <ele>60.064367</ele>
        <time>2011-06-26T07:59:47Z</time>
      </trkpt>
      <trkpt lat="48.00647" lon="-0.70133">
        <ele>59.931082</ele>
        <time>2011-06-26T07:59:50Z</time>
      </trkpt>
      <trkpt lat="48.00651" lon="-0.70126">
        <ele>59.815814</ele>
        <time>2011-06-26T07:59:53Z</time>
      </trkpt>
      <trkpt lat="48.00655" lon="-0.70119">
        <ele>59.71883</ele>
        <time>2011-06-26T07:59:56Z</time>
      </trkpt>
      <trkpt lat="48.00655" lon="-0.70119">
        <ele>59.650206</ele>
        <time>2011-06-26T07:59:57Z</time>
      </trkpt>
      <trkpt lat="48.00659" lon="-0.70112">
        <ele>59.612049</ele>
        <time>2011-06-26T07:59:59Z</time>
      </trkpt>
      <trkpt lat="48.00661" lon="-0.70106">
        <ele>59.58761</ele>
        <time>2011-06-26T08:00:02Z</time>
      </trkpt>
      <trkpt lat="48.00664" lon="-0.70099">
        <ele>59.558902</ele>
        <time>2011-06-26T08:00:06Z</time>
      </trkpt>
      <trkpt lat="48.00667" lon="-0.70092">
        <ele>59.522895</ele>
        <time>2011-06-26T08:00:10Z</time>
      </trkpt>
      <trkpt lat="48.00669" lon="-0.70086">
        <ele>59.488696</ele>
        <time>2011-06-26T08:00:13Z</time>
      </trkpt>
      <trkpt lat="48.00671" lon="-0.70079">
        <ele>59.468174</ele>
        <time>2011-06-26T08:00:16Z</time>
      </trkpt>
      <trkpt lat="48.00672" lon="-0.70072">
        <ele>59.462487</ele>
        <time>2011-06-26T08:00:19Z</time>
      </trkpt>
      <trkpt lat="48.00674" lon="-0.70064">
        <ele>59.472512</ele>
        <time>2011-06-26T08:00:23Z</time>
      </trkpt>
      <trkpt lat="48.00674" lon="-0.70064">
        <ele>59.497331</ele>
        <time>2011-06-26T08:00:24Z</time>
      </trkpt>
      <trkpt lat="48.00675" lon="-0.70057">
        <ele>59.53285</ele>
        <time>2011-06-26T08:00:26Z</time>
      </trkpt>
      <trkpt lat="48.00677" lon="-0.70049">
        <ele>59.583289</ele>
        <time>2011-06-26T08:00:30Z</time>
      </trkpt>
      <trkpt lat="48.00679" lon="-0.70043">
        <ele>59.653771</ele>
        <time>2011-06-26T08:00:33Z</time>
      </trkpt>
      <trkpt lat="48.00682" lon="-0.70037">
        <ele>59.737788</ele>
        <time>2011-06-26T08:00:36Z</time>
      </trkpt>
      <trkpt lat="48.00684" lon="-0.70031">
        <ele>59.831964</ele>
        <time>2011-06-26T08:00:40Z</time>
      </trkpt>
      <trkpt lat="48.00687" lon="-0.70025">
        <ele>59.933887</ele>
        <time>2011-06-26T08:00:44Z</time>
      </trkpt>
      <trkpt lat="48.0069" lon="-0.70019">
        <ele>60.034452</ele>
        <time>2011-06-26T08:00:48Z</time>
      </trkpt>
      <trkpt lat="48.00694" lon="-0.70013">
        <ele>60.127483</ele>
        <time>2011-06-26T08:00:52Z</time>
      </trkpt>
      <trkpt lat="48.00697" lon="-0.70007">
        <ele>60.220605</ele>
        <time>2011-06-26T08:00:56Z</time>
      </trkpt>
      <trkpt lat="48.007" lon="-0.70001">
        <ele>60.330796</ele>
        <time>2011-06-26T08:00:59Z</time>
      </trkpt>
      <trkpt lat="48.00703" lon="-0.69996">
        <ele>60.484827</ele>
        <time>2011-06-26T08:01:02Z</time>
      </trkpt>
      <trkpt lat="48.00707" lon="-0.6999">
        <ele>60.709354</ele>
        <time>2011-06-26T08:01:05Z</time>
      </trkpt>
      <trkpt lat="48.00712" lon="-0.69983">
        <ele>60.999107</ele>
        <time>2011-06-26T08:01:08Z</time>
      </trkpt>
      <trkpt lat="48.00717" lon="-0.69976">
        <ele>61.318663</ele>
        <time>2011-06-26T08:01:11Z</time>
      </trkpt>
      <trkpt lat="48.0072" lon="-0.6997">
        <ele>61.644696</ele>
        <time>2011-06-26T08:01:13Z</time>
      </trkpt>
      <trkpt lat="48.00726" lon="-0.6996">
        <ele>61.976398</ele>
        <time>2011-06-26T08:01:16Z</time>
      </trkpt>
      <trkpt lat="48.00726" lon="-0.6996">
        <ele>62.266626</ele>
        <time>2011-06-26T08:01:16Z</time>
      </trkpt>
      <trkpt lat="48.0073" lon="-0.69952">
        <ele>62.485302</ele>
        <time>2011-06-26T08:01:18Z</time>
      </trkpt>
      <trkpt lat="48.00733" lon="-0.69944">
        <ele>62.688537</ele>
        <time>2011-06-26T08:01:20Z</time>
      </trkpt>
      <trkpt lat="48.00737" lon="-0.69934">
        <ele>62.934784</ele>
        <time>2011-06-26T08:01:23Z</time>
      </trkpt>
      <trkpt lat="48.00739" lon="-0.69928">
        <ele>63.214558</ele>
        <time>2011-06-26T08:01:25Z</time>
      </trkpt>
      <trkpt lat="48.00742" lon="-0.6992">
        <ele>63.491918</ele>
        <time>2011-06-26T08:01:28Z</time>
      </trkpt>
      <trkpt lat="48.00744" lon="-0.69912">
        <ele>63.757551</ele>
        <time>2011-06-26T08:01:30Z</time>
      </trkpt>
      <trkpt lat="48.00747" lon="-0.699">
        <ele>64.032836</ele>
        <time>2011-06-26T08:01:33Z</time>
      </trkpt>
      <trkpt lat="48.00748" lon="-0.69888">
        <ele>64.325812</ele>
        <time>2011-06-26T08:01:36Z</time>
      </trkpt>
      <trkpt lat="48.0075" lon="-0.69881">
        <ele>64.625569</ele>
        <time>2011-06-26T08:01:38Z</time>
      </trkpt>
      <trkpt lat="48.00753" lon="-0.69871">
        <ele>64.919862</ele>
        <time>2011-06-26T08:01:41Z</time>
      </trkpt>
      <trkpt lat="48.00756" lon="-0.69863">
        <ele>65.211614</ele>
        <time>2011-06-26T08:01:44Z</time>
      </trkpt>
      <trkpt lat="48.00759" lon="-0.69856">
        <ele>65.497837</ele>
        <time>2011-06-26T08:01:46Z</time>
      </trkpt>
      <trkpt lat="48.00764" lon="-0.69848">
        <ele>65.768016</ele>
        <time>2011-06-26T08:01:49Z</time>
      </trkpt>
      <trkpt lat="48.00768" lon="-0.69837">
        <ele>66.04271</ele>
        <time>2011-06-26T08:01:52Z</time>
      </trkpt>
      <trkpt lat="48.00773" lon="-0.69826">
        <ele>66.324448</ele>
        <time>2011-06-26T08:01:55Z</time>
      </trkpt>
      <trkpt lat="48.00776" lon="-0.6982">
        <ele>66.588178</ele>
        <time>2011-06-26T08:01:57Z</time>
      </trkpt>
      <trkpt lat="48.0078" lon="-0.69811">
        <ele>66.834549</ele>
        <time>2011-06-26T08:02:00Z</time>
      </trkpt>
      <trkpt lat="48.00782" lon="-0.69804">
        <ele>67.079622</ele>
        <time>2011-06-26T08:02:02Z</time>
      </trkpt>
      <trkpt lat="48.00786" lon="-0.69798">
        <ele>67.316807</ele>
        <time>2011-06-26T08:02:04Z</time>
      </trkpt>
      <trkpt lat="48.0079" lon="-0.69788">
        <ele>67.537232</ele>
        <time>2011-06-26T08:02:07Z</time>
      </trkpt>
      <trkpt lat="48.00795" lon="-0.69778">
        <ele>67.74067</ele>
        <time>2011-06-26T08:02:10Z</time>
      </trkpt>
      <trkpt lat="48.00799" lon="-0.69768">
        <ele>67.921742</ele>
        <time>2011-06-26T08:02:13Z</time>
      </trkpt>
      <trkpt lat="48.00803" lon="-0.69757">
        <ele>68.08662</ele>
        <time>2011-06-26T08:02:16Z</time>
      </trkpt>
      <trkpt lat="48.00809" lon="-0.69749">
        <ele>68.264732</ele>
        <time>2011-06-26T08:02:19Z</time>
      </trkpt>
      <trkpt lat="48.00813" lon="-0.69743">
        <ele>68.472226</ele>
        <time>2011-06-26T08:02:21Z</time>
      </trkpt>
      <trkpt lat="48.00818" lon="-0.69738">
        <ele>68.703171</ele>
        <time>2011-06-26T08:02:23Z</time>
      </trkpt>
      <trkpt lat="48.00818" lon="-0.69738">
        <ele>68.912329</ele>
        <time>2011-06-26T08:02:24Z</time>
      </trkpt>
      <trkpt lat="48.00824" lon="-0.69731">
        <ele>69.077267</ele>
        <time>2011-06-26T08:02:26Z</time>
      </trkpt>
      <trkpt lat="48.00828" lon="-0.69725">
        <ele>69.246287</ele>
        <time>2011-06-26T08:02:29Z</time>
      </trkpt>
      <trkpt lat="48.00831" lon="-0.69719">
        <ele>69.454618</ele>
        <time>2011-06-26T08:02:32Z</time>
      </trkpt>
      <trkpt lat="48.00833" lon="-0.6971">
        <ele>69.700928</ele>
        <time>2011-06-26T08:02:35Z</time>
      </trkpt>
      <trkpt lat="48.00834" lon="-0.69701">
        <ele>69.997404</ele>
        <time>2011-06-26T08:02:38Z</time>
      </trkpt>
      <trkpt lat="48.00833" lon="-0.69693">
        <ele>70.338924</ele>
        <time>2011-06-26T08:02:41Z</time>
      </trkpt>
      <trkpt lat="48.00834" lon="-0.69686">
        <ele>70.700077</ele>
        <time>2011-06-26T08:02:44Z</time>
      </trkpt>
      <trkpt lat="48.00837" lon="-0.69677">
        <ele>71.059066</ele>
        <time>2011-06-26T08:02:47Z</time>
      </trkpt>
      <trkpt lat="48.0084" lon="-0.69667">
        <ele>71.403426</ele>
        <time>2011-06-26T08:02:50Z</time>
      </trkpt>
      <trkpt lat="48.00843" lon="-0.69662">
        <ele>71.723548</ele>
        <time>2011-06-26T08:02:52Z</time>
      </trkpt>
      <trkpt lat="48.00847" lon="-0.69649">
        <ele>72.004715</ele>
        <time>2011-06-26T08:02:55Z</time>
      </trkpt>
      <trkpt lat="48.00851" lon="-0.69634">
        <ele>72.235855</ele>
        <time>2011-06-26T08:02:58Z</time>
      </trkpt>
      <trkpt lat="48.00857" lon="-0.6962">
        <ele>72.415508</ele>
        <time>2011-06-26T08:03:01Z</time>
      </trkpt>
      <trkpt lat="48.00863" lon="-0.69604">
        <ele>72.547543</ele>
        <time>2011-06-26T08:03:04Z</time>
      </trkpt>
      <trkpt lat="48.00868" lon="-0.69588">
        <ele>72.636878</ele>
        <time>2011-06-26T08:03:07Z</time>
      </trkpt>
      <trkpt lat="48.00872" lon="-0.69578">
        <ele>72.694202</ele>
        <time>2011-06-26T08:03:09Z</time>
      </trkpt>
      <trkpt lat="48.00877" lon="-0.69562">
        <ele>72.733948</ele>
        <time>2011-06-26T08:03:12Z</time>
      </trkpt>
      <trkpt lat="48.0088" lon="-0.69553">
        <ele>72.76275</ele>
        <time>2011-06-26T08:03:14Z</time>
      </trkpt>
      <trkpt lat="48.00885" lon="-0.6954">
        <ele>72.779679</ele>
        <time>2011-06-26T08:03:17Z</time>
      </trkpt>
      <trkpt lat="48.0089" lon="-0.69527">
        <ele>72.788669</ele>
        <time>2011-06-26T08:03:20Z</time>
      </trkpt>
      <trkpt lat="48.00893" lon="-0.69518">
        <ele>72.796093</ele>
        <time>2011-06-26T08:03:22Z</time>
      </trkpt>
      <trkpt lat="48.00898" lon="-0.69506">
        <ele>72.806461</ele>
        <time>2011-06-26T08:03:25Z</time>
      </trkpt>
      <trkpt lat="48.009" lon="-0.69498">
        <ele>72.819187</ele>
        <time>2011-06-26T08:03:27Z</time>
      </trkpt>
      <trkpt lat="48.00903" lon="-0.69488">
        <ele>72.834636</ele>
        <time>2011-06-26T08:03:29Z</time>
      </trkpt>
      <trkpt lat="48.00908" lon="-0.69472">
        <ele>72.867149</ele>
        <time>2011-06-26T08:03:32Z</time>
      </trkpt>
      <trkpt lat="48.00914" lon="-0.69451">
        <ele>72.925732</ele>
        <time>2011-06-26T08:03:35Z</time>
      </trkpt>
      <trkpt lat="48.00921" lon="-0.69429">
        <ele>72.994204</ele>
        <time>2011-06-26T08:03:38Z</time>
      </trkpt>
      <trkpt lat="48.00928" lon="-0.69406">
        <ele>73.100813</ele>
        <time>2011-06-26T08:03:41Z</time>
      </trkpt>
      <trkpt lat="48.00934" lon="-0.69386">
        <ele>73.38139</ele>
        <time>2011-06-26T08:03:44Z</time>
      </trkpt>
      <trkpt lat="48.0094" lon="-0.69368">
        <ele>74.099203</ele>
        <time>2011-06-26T08:03:47Z</time>
      </trkpt>
      <trkpt lat="48.00944" lon="-0.69356">
        <ele>75.390887</ele>
        <time>2011-06-26T08:03:49Z</time>
      </trkpt>
      <trkpt lat="48.00949" lon="-0.69339">
        <ele>76.917675</ele>
        <time>2011-06-26T08:03:52Z</time>
      </trkpt>
      <trkpt lat="48.00953" lon="-0.69327">
        <ele>78.165312</ele>
        <time>2011-06-26T08:03:54Z</time>
      </trkpt>
      <trkpt lat="48.00959" lon="-0.69308">
        <ele>78.952198</ele>
        <time>2011-06-26T08:03:57Z</time>
      </trkpt>
      <trkpt lat="48.00966" lon="-0.69285">
        <ele>79.451608</ele>
        <time>2011-06-26T08:04:00Z</time>
      </trkpt>
      <trkpt lat="48.00972" lon="-0.69259">
        <ele>79.989267</ele>
        <time>2011-06-26T08:04:03Z</time>
      </trkpt>
      <trkpt lat="48.00977" lon="-0.69232">
        <ele>80.798617</ele>
        <time>2011-06-26T08:04:06Z</time>
      </trkpt>
      <trkpt lat="48.0098" lon="-0.69214">
        <ele>81.870282</ele>
        <time>2011-06-26T08:04:08Z</time>
      </trkpt>
      <trkpt lat="48.00984" lon="-0.69188">
        <ele>83.14937</ele>
        <time>2011-06-26T08:04:11Z</time>
      </trkpt>
      <trkpt lat="48.00988" lon="-0.69171">
        <ele>84.587095</ele>
        <time>2011-06-26T08:04:13Z</time>
      </trkpt>
      <trkpt lat="48.00993" lon="-0.69145">
        <ele>85.945894</ele>
        <time>2011-06-26T08:04:16Z</time>
      </trkpt>
      <trkpt lat="48.01" lon="-0.69119">
        <ele>86.935255</ele>
        <time>2011-06-26T08:04:19Z</time>
      </trkpt>
      <trkpt lat="48.01005" lon="-0.69093">
        <ele>87.505379</ele>
        <time>2011-06-26T08:04:22Z</time>
      </trkpt>
      <trkpt lat="48.01009" lon="-0.69077">
        <ele>87.770296</ele>
        <time>2011-06-26T08:04:24Z</time>
      </trkpt>
      <trkpt lat="48.01012" lon="-0.69061">
        <ele>87.867596</ele>
        <time>2011-06-26T08:04:26Z</time>
      </trkpt>
      <trkpt lat="48.01016" lon="-0.69039">
        <ele>87.93217</ele>
        <time>2011-06-26T08:04:29Z</time>
      </trkpt>
      <trkpt lat="48.01019" lon="-0.69024">
        <ele>88.035678</ele>
        <time>2011-06-26T08:04:31Z</time>
      </trkpt>
      <trkpt lat="48.01023" lon="-0.68994">
        <ele>88.175641</ele>
        <time>2011-06-26T08:04:34Z</time>
      </trkpt>
      <trkpt lat="48.01025" lon="-0.6898">
        <ele>88.357924</ele>
        <time>2011-06-26T08:04:36Z</time>
      </trkpt>
      <trkpt lat="48.01028" lon="-0.68961">
        <ele>88.592053</ele>
        <time>2011-06-26T08:04:39Z</time>
      </trkpt>
      <trkpt lat="48.01029" lon="-0.68949">
        <ele>88.8497</ele>
        <time>2011-06-26T08:04:41Z</time>
      </trkpt>
      <trkpt lat="48.01029" lon="-0.68949">
        <ele>89.076442</ele>
        <time>2011-06-26T08:04:43Z</time>
      </trkpt>
      <trkpt lat="48.01032" lon="-0.68932">
        <ele>89.244684</ele>
        <time>2011-06-26T08:04:44Z</time>
      </trkpt>
      <trkpt lat="48.01033" lon="-0.6892">
        <ele>89.361922</ele>
        <time>2011-06-26T08:04:46Z</time>
      </trkpt>
      <trkpt lat="48.01028" lon="-0.68906">
        <ele>89.432011</ele>
        <time>2011-06-26T08:04:49Z</time>
      </trkpt>
      <trkpt lat="48.01019" lon="-0.68902">
        <ele>89.441442</ele>
        <time>2011-06-26T08:04:52Z</time>
      </trkpt>
      <trkpt lat="48.01011" lon="-0.68901">
        <ele>89.398352</ele>
        <time>2011-06-26T08:04:54Z</time>
      </trkpt>
      <trkpt lat="48.01002" lon="-0.689">
        <ele>89.330768</ele>
        <time>2011-06-26T08:04:56Z</time>
      </trkpt>
      <trkpt lat="48.00988" lon="-0.68899">
        <ele>89.279845</ele>
        <time>2011-06-26T08:04:59Z</time>
      </trkpt>
      <trkpt lat="48.00979" lon="-0.68899">
        <ele>89.261261</ele>
        <time>2011-06-26T08:05:01Z</time>
      </trkpt>
      <trkpt lat="48.00969" lon="-0.68898">
        <ele>89.262324</ele>
        <time>2011-06-26T08:05:03Z</time>
      </trkpt>
      <trkpt lat="48.00955" lon="-0.68897">
        <ele>89.268419</ele>
        <time>2011-06-26T08:05:06Z</time>
      </trkpt>
      <trkpt lat="48.00942" lon="-0.68895">
        <ele>89.27217</ele>
        <time>2011-06-26T08:05:09Z</time>
      </trkpt>
      <trkpt lat="48.00932" lon="-0.68894">
        <ele>89.272273</ele>
        <time>2011-06-26T08:05:12Z</time>
      </trkpt>
      <trkpt lat="48.00922" lon="-0.68894">
        <ele>89.223754</ele>
        <time>2011-06-26T08:05:15Z</time>
      </trkpt>
      <trkpt lat="48.00915" lon="-0.68893">
        <ele>89.055843</ele>
        <time>2011-06-26T08:05:17Z</time>
      </trkpt>
      <trkpt lat="48.00907" lon="-0.68892">
        <ele>88.79275</ele>
        <time>2011-06-26T08:05:19Z</time>
      </trkpt>
      <trkpt lat="48.00898" lon="-0.68891">
        <ele>88.528417</ele>
        <time>2011-06-26T08:05:21Z</time>
      </trkpt>
      <trkpt lat="48.00882" lon="-0.6889">
        <ele>88.307516</ele>
        <time>2011-06-26T08:05:24Z</time>
      </trkpt>
      <trkpt lat="48.0087" lon="-0.68889">
        <ele>88.035468</ele>
        <time>2011-06-26T08:05:27Z</time>
      </trkpt>
      <trkpt lat="48.00856" lon="-0.68887">
        <ele>87.491704</ele>
        <time>2011-06-26T08:05:30Z</time>
      </trkpt>
      <trkpt lat="48.00839" lon="-0.68884">
        <ele>86.611599</ele>
        <time>2011-06-26T08:05:33Z</time>
      </trkpt>
      <trkpt lat="48.0082" lon="-0.68883">
        <ele>85.61343</ele>
        <time>2011-06-26T08:05:36Z</time>
      </trkpt>
      <trkpt lat="48.0082" lon="-0.68883">
        <ele>84.807881</ele>
        <time>2011-06-26T08:05:36Z</time>
      </trkpt>
      <trkpt lat="48.00801" lon="-0.68882">
        <ele>84.265027</ele>
        <time>2011-06-26T08:05:39Z</time>
      </trkpt>
      <trkpt lat="48.00783" lon="-0.6888">
        <ele>83.862826</ele>
        <time>2011-06-26T08:05:42Z</time>
      </trkpt>
      <trkpt lat="48.00766" lon="-0.68877">
        <ele>83.594408</ele>
        <time>2011-06-26T08:05:45Z</time>
      </trkpt>
      <trkpt lat="48.0075" lon="-0.68874">
        <ele>83.512538</ele>
        <time>2011-06-26T08:05:48Z</time>
      </trkpt>
      <trkpt lat="48.00741" lon="-0.68874">
        <ele>83.688365</ele>
        <time>2011-06-26T08:05:50Z</time>
      </trkpt>
      <trkpt lat="48.00732" lon="-0.68873">
        <ele>84.24108</ele>
        <time>2011-06-26T08:05:52Z</time>
      </trkpt>
      <trkpt lat="48.00718" lon="-0.68872">
        <ele>84.997376</ele>
        <time>2011-06-26T08:05:55Z</time>
      </trkpt>
      <trkpt lat="48.00709" lon="-0.68871">
        <ele>85.675446</ele>
        <time>2011-06-26T08:05:57Z</time>
      </trkpt>
      <trkpt lat="48.00699" lon="-0.6887">
        <ele>86.247149</ele>
        <time>2011-06-26T08:05:59Z</time>
      </trkpt>
      <trkpt lat="48.0069" lon="-0.68869">
        <ele>86.800613</ele>
        <time>2011-06-26T08:06:01Z</time>
      </trkpt>
      <trkpt lat="48.00677" lon="-0.68867">
        <ele>87.343502</ele>
        <time>2011-06-26T08:06:04Z</time>
      </trkpt>
      <trkpt lat="48.00668" lon="-0.68866">
        <ele>87.804176</ele>
        <time>2011-06-26T08:06:06Z</time>
      </trkpt>
      <trkpt lat="48.00656" lon="-0.68865">
        <ele>88.119801</ele>
        <time>2011-06-26T08:06:09Z</time>
      </trkpt>
      <trkpt lat="48.00648" lon="-0.68863">
        <ele>88.31607</ele>
        <time>2011-06-26T08:06:11Z</time>
      </trkpt>
      <trkpt lat="48.0064" lon="-0.68862">
        <ele>88.446182</ele>
        <time>2011-06-26T08:06:13Z</time>
      </trkpt>
      <trkpt lat="48.0063" lon="-0.6886">
        <ele>88.553023</ele>
        <time>2011-06-26T08:06:16Z</time>
      </trkpt>
      <trkpt lat="48.00622" lon="-0.6886">
        <ele>88.666963</ele>
        <time>2011-06-26T08:06:18Z</time>
      </trkpt>
      <trkpt lat="48.00615" lon="-0.68861">
        <ele>88.806261</ele>
        <time>2011-06-26T08:06:20Z</time>
      </trkpt>
      <trkpt lat="48.00602" lon="-0.68862">
        <ele>88.951664</ele>
        <time>2011-06-26T08:06:23Z</time>
      </trkpt>
      <trkpt lat="48.00594" lon="-0.68863">
        <ele>89.056645</ele>
        <time>2011-06-26T08:06:25Z</time>
      </trkpt>
      <trkpt lat="48.00582" lon="-0.68865">
        <ele>89.114781</ele>
        <time>2011-06-26T08:06:28Z</time>
      </trkpt>
      <trkpt lat="48.00571" lon="-0.68868">
        <ele>89.19359</ele>
        <time>2011-06-26T08:06:31Z</time>
      </trkpt>
      <trkpt lat="48.00563" lon="-0.6887">
        <ele>89.334871</ele>
        <time>2011-06-26T08:06:33Z</time>
      </trkpt>
      <trkpt lat="48.00551" lon="-0.68872">
        <ele>89.482181</ele>
        <time>2011-06-26T08:06:36Z</time>
      </trkpt>
      <trkpt lat="48.00542" lon="-0.68874">
        <ele>89.565985</ele>
        <time>2011-06-26T08:06:38Z</time>
      </trkpt>
      <trkpt lat="48.00535" lon="-0.68876">
        <ele>89.587031</ele>
        <time>2011-06-26T08:06:40Z</time>
      </trkpt>
      <trkpt lat="48.00527" lon="-0.68878">
        <ele>89.555786</ele>
        <time>2011-06-26T08:06:42Z</time>
      </trkpt>
      <trkpt lat="48.00519" lon="-0.68879">
        <ele>89.471202</ele>
        <time>2011-06-26T08:06:44Z</time>
      </trkpt>
      <trkpt lat="48.00511" lon="-0.6888">
        <ele>89.370844</ele>
        <time>2011-06-26T08:06:46Z</time>
      </trkpt>
      <trkpt lat="48.00499" lon="-0.68877">
        <ele>89.307353</ele>
        <time>2011-06-26T08:06:49Z</time>
      </trkpt>
      <trkpt lat="48.00489" lon="-0.68867">
        <ele>89.288203</ele>
        <time>2011-06-26T08:06:52Z</time>
      </trkpt>
      <trkpt lat="48.00483" lon="-0.68857">
        <ele>89.300412</ele>
        <time>2011-06-26T08:06:54Z</time>
      </trkpt>
      <trkpt lat="48.00477" lon="-0.68847">
        <ele>89.399463</ele>
        <time>2011-06-26T08:06:56Z</time>
      </trkpt>
      <trkpt lat="48.00469" lon="-0.68832">
        <ele>89.711763</ele>
        <time>2011-06-26T08:06:59Z</time>
      </trkpt>
      <trkpt lat="48.00461" lon="-0.68819">
        <ele>90.251885</ele>
        <time>2011-06-26T08:07:02Z</time>
      </trkpt>
      <trkpt lat="48.00453" lon="-0.68807">
        <ele>90.85084</ele>
        <time>2011-06-26T08:07:05Z</time>
      </trkpt>
      <trkpt lat="48.00444" lon="-0.688">
        <ele>91.370298</ele>
        <time>2011-06-26T08:07:08Z</time>
      </trkpt>
      <trkpt lat="48.00434" lon="-0.68802">
        <ele>91.807244</ele>
        <time>2011-06-26T08:07:11Z</time>
      </trkpt>
      <trkpt lat="48.00427" lon="-0.68804">
        <ele>92.168475</ele>
        <time>2011-06-26T08:07:13Z</time>
      </trkpt>
      <trkpt lat="48.00415" lon="-0.68809">
        <ele>92.413825</ele>
        <time>2011-06-26T08:07:16Z</time>
      </trkpt>
      <trkpt lat="48.00407" lon="-0.68812">
        <ele>92.527589</ele>
        <time>2011-06-26T08:07:18Z</time>
      </trkpt>
      <trkpt lat="48.00393" lon="-0.68817">
        <ele>92.550015</ele>
        <time>2011-06-26T08:07:21Z</time>
      </trkpt>
      <trkpt lat="48.00383" lon="-0.6882">
        <ele>92.536826</ele>
        <time>2011-06-26T08:07:23Z</time>
      </trkpt>
      <trkpt lat="48.00368" lon="-0.68824">
        <ele>92.520519</ele>
        <time>2011-06-26T08:07:26Z</time>
      </trkpt>
      <trkpt lat="48.00358" lon="-0.68828">
        <ele>92.49801</ele>
        <time>2011-06-26T08:07:28Z</time>
      </trkpt>
      <trkpt lat="48.00344" lon="-0.68832">
        <ele>92.43727</ele>
        <time>2011-06-26T08:07:31Z</time>
      </trkpt>
      <trkpt lat="48.00335" lon="-0.68835">
        <ele>92.307969</ele>
        <time>2011-06-26T08:07:33Z</time>
      </trkpt>
      <trkpt lat="48.0032" lon="-0.68838">
        <ele>92.12842</ele>
        <time>2011-06-26T08:07:36Z</time>
      </trkpt>
      <trkpt lat="48.00311" lon="-0.68841">
        <ele>91.95255</ele>
        <time>2011-06-26T08:07:38Z</time>
      </trkpt>
      <trkpt lat="48.00301" lon="-0.68844">
        <ele>91.817893</ele>
        <time>2011-06-26T08:07:40Z</time>
      </trkpt>
      <trkpt lat="48.00286" lon="-0.68849">
        <ele>91.736027</ele>
        <time>2011-06-26T08:07:43Z</time>
      </trkpt>
      <trkpt lat="48.00276" lon="-0.68853">
        <ele>91.704188</ele>
        <time>2011-06-26T08:07:45Z</time>
      </trkpt>
      <trkpt lat="48.00266" lon="-0.68857">
        <ele>91.696258</ele>
        <time>2011-06-26T08:07:47Z</time>
      </trkpt>
      <trkpt lat="48.00256" lon="-0.68861">
        <ele>91.661168</ele>
        <time>2011-06-26T08:07:49Z</time>
      </trkpt>
      <trkpt lat="48.00243" lon="-0.68866">
        <ele>91.557565</ele>
        <time>2011-06-26T08:07:52Z</time>
      </trkpt>
      <trkpt lat="48.00231" lon="-0.68871">
        <ele>91.389366</ele>
        <time>2011-06-26T08:07:55Z</time>
      </trkpt>
      <trkpt lat="48.00218" lon="-0.68876">
        <ele>91.17326</ele>
        <time>2011-06-26T08:07:58Z</time>
      </trkpt>
      <trkpt lat="48.00209" lon="-0.68878">
        <ele>90.90682</ele>
        <time>2011-06-26T08:08:00Z</time>
      </trkpt>
      <trkpt lat="48.00201" lon="-0.68879">
        <ele>90.632871</ele>
        <time>2011-06-26T08:08:02Z</time>
      </trkpt>
      <trkpt lat="48.00193" lon="-0.68881">
        <ele>90.421784</ele>
        <time>2011-06-26T08:08:05Z</time>
      </trkpt>
      <trkpt lat="48.00181" lon="-0.68886">
        <ele>90.282188</ele>
        <time>2011-06-26T08:08:08Z</time>
      </trkpt>
      <trkpt lat="48.00173" lon="-0.6889">
        <ele>90.186139</ele>
        <time>2011-06-26T08:08:10Z</time>
      </trkpt>
      <trkpt lat="48.00164" lon="-0.68894">
        <ele>90.130414</ele>
        <time>2011-06-26T08:08:12Z</time>
      </trkpt>
      <trkpt lat="48.00155" lon="-0.68897">
        <ele>90.088197</ele>
        <time>2011-06-26T08:08:14Z</time>
      </trkpt>
      <trkpt lat="48.00141" lon="-0.68904">
        <ele>89.998517</ele>
        <time>2011-06-26T08:08:17Z</time>
      </trkpt>
      <trkpt lat="48.00133" lon="-0.68909">
        <ele>89.837305</ele>
        <time>2011-06-26T08:08:19Z</time>
      </trkpt>
      <trkpt lat="48.00133" lon="-0.68909">
        <ele>89.66496</ele>
        <time>2011-06-26T08:08:21Z</time>
      </trkpt>
      <trkpt lat="48.00118" lon="-0.68917">
        <ele>89.546155</ele>
        <time>2011-06-26T08:08:22Z</time>
      </trkpt>
      <trkpt lat="48.00108" lon="-0.68922">
        <ele>89.477912</ele>
        <time>2011-06-26T08:08:24Z</time>
      </trkpt>
      <trkpt lat="48.00094" lon="-0.68927">
        <ele>89.43485</ele>
        <time>2011-06-26T08:08:27Z</time>
      </trkpt>
      <trkpt lat="48.0008" lon="-0.68931">
        <ele>89.412398</ele>
        <time>2011-06-26T08:08:30Z</time>
      </trkpt>
      <trkpt lat="48.00067" lon="-0.68933">
        <ele>89.407785</ele>
        <time>2011-06-26T08:08:33Z</time>
      </trkpt>
      <trkpt lat="48.00058" lon="-0.68934">
        <ele>89.41889</ele>
        <time>2011-06-26T08:08:35Z</time>
      </trkpt>
      <trkpt lat="48.00049" lon="-0.68934">
        <ele>89.440286</ele>
        <time>2011-06-26T08:08:37Z</time>
      </trkpt>
      <trkpt lat="48.00039" lon="-0.68934">
        <ele>89.487782</ele>
        <time>2011-06-26T08:08:39Z</time>
      </trkpt>
      <trkpt lat="48.00025" lon="-0.68937">
        <ele>89.581495</ele>
        <time>2011-06-26T08:08:42Z</time>
      </trkpt>
      <trkpt lat="48.00015" lon="-0.68939">
        <ele>89.702755</ele>
        <time>2011-06-26T08:08:44Z</time>
      </trkpt>
      <trkpt lat="48" lon="-0.68941">
        <ele>89.81363</ele>
        <time>2011-06-26T08:08:47Z</time>
      </trkpt>
      <trkpt lat="47.99986" lon="-0.68944">
        <ele>89.9083</ele>
        <time>2011-06-26T08:08:50Z</time>
      </trkpt>
      <trkpt lat="47.99971" lon="-0.68948">
        <ele>90.012201</ele>
        <time>2011-06-26T08:08:53Z</time>
      </trkpt>
      <trkpt lat="47.99955" lon="-0.68951">
        <ele>90.166175</ele>
        <time>2011-06-26T08:08:56Z</time>
      </trkpt>
      <trkpt lat="47.99945" lon="-0.68954">
        <ele>90.38723</ele>
        <time>2011-06-26T08:08:58Z</time>
      </trkpt>
      <trkpt lat="47.99934" lon="-0.68956">
        <ele>90.640651</ele>
        <time>2011-06-26T08:09:00Z</time>
      </trkpt>
      <trkpt lat="47.9992" lon="-0.68961">
        <ele>90.884137</ele>
        <time>2011-06-26T08:09:03Z</time>
      </trkpt>
      <trkpt lat="47.9992" lon="-0.68961">
        <ele>91.086139</ele>
        <time>2011-06-26T08:09:04Z</time>
      </trkpt>
      <trkpt lat="47.99909" lon="-0.68964">
        <ele>91.241509</ele>
        <time>2011-06-26T08:09:05Z</time>
      </trkpt>
      <trkpt lat="47.99894" lon="-0.68967">
        <ele>91.405471</ele>
        <time>2011-06-26T08:09:08Z</time>
      </trkpt>
      <trkpt lat="47.99884" lon="-0.6897">
        <ele>91.64272</ele>
        <time>2011-06-26T08:09:10Z</time>
      </trkpt>
      <trkpt lat="47.9987" lon="-0.68973">
        <ele>91.947764</ele>
        <time>2011-06-26T08:09:13Z</time>
      </trkpt>
      <trkpt lat="47.99855" lon="-0.68975">
        <ele>92.262539</ele>
        <time>2011-06-26T08:09:16Z</time>
      </trkpt>
      <trkpt lat="47.9984" lon="-0.68978">
        <ele>92.509561</ele>
        <time>2011-06-26T08:09:19Z</time>
      </trkpt>
      <trkpt lat="47.99829" lon="-0.6898">
        <ele>92.678324</ele>
        <time>2011-06-26T08:09:21Z</time>
      </trkpt>
      <trkpt lat="47.99819" lon="-0.68982">
        <ele>92.850627</ele>
        <time>2011-06-26T08:09:23Z</time>
      </trkpt>
      <trkpt lat="47.99803" lon="-0.68984">
        <ele>93.106636</ele>
        <time>2011-06-26T08:09:26Z</time>
      </trkpt>
      <trkpt lat="47.99786" lon="-0.68984">
        <ele>93.423914</ele>
        <time>2011-06-26T08:09:29Z</time>
      </trkpt>
      <trkpt lat="47.99776" lon="-0.68984">
        <ele>93.730243</ele>
        <time>2011-06-26T08:09:31Z</time>
      </trkpt>
      <trkpt lat="47.99765" lon="-0.68984">
        <ele>93.964356</ele>
        <time>2011-06-26T08:09:33Z</time>
      </trkpt>
      <trkpt lat="47.9975" lon="-0.68983">
        <ele>94.089055</ele>
        <time>2011-06-26T08:09:36Z</time>
      </trkpt>
      <trkpt lat="47.99739" lon="-0.68975">
        <ele>94.11612</ele>
        <time>2011-06-26T08:09:39Z</time>
      </trkpt>
      <trkpt lat="47.99735" lon="-0.68959">
        <ele>94.089328</ele>
        <time>2011-06-26T08:09:42Z</time>
      </trkpt>
      <trkpt lat="47.99735" lon="-0.68959">
        <ele>94.038824</ele>
        <time>2011-06-26T08:09:42Z</time>
      </trkpt>
      <trkpt lat="47.99735" lon="-0.68946">
        <ele>93.987895</ele>
        <time>2011-06-26T08:09:44Z</time>
      </trkpt>
      <trkpt lat="47.99734" lon="-0.68923">
        <ele>93.931298</ele>
        <time>2011-06-26T08:09:47Z</time>
      </trkpt>
      <trkpt lat="47.99733" lon="-0.689">
        <ele>93.798773</ele>
        <time>2011-06-26T08:09:50Z</time>
      </trkpt>
      <trkpt lat="47.99732" lon="-0.68886">
        <ele>93.519079</ele>
        <time>2011-06-26T08:09:52Z</time>
      </trkpt>
      <trkpt lat="47.99731" lon="-0.68864">
        <ele>93.140018</ele>
        <time>2011-06-26T08:09:55Z</time>
      </trkpt>
      <trkpt lat="47.99728" lon="-0.68845">
        <ele>92.789063</ele>
        <time>2011-06-26T08:09:58Z</time>
      </trkpt>
      <trkpt lat="47.99726" lon="-0.68832">
        <ele>92.471444</ele>
        <time>2011-06-26T08:10:00Z</time>
      </trkpt>
      <trkpt lat="47.99724" lon="-0.68811">
        <ele>92.049528</ele>
        <time>2011-06-26T08:10:03Z</time>
      </trkpt>
      <trkpt lat="47.99721" lon="-0.68788">
        <ele>91.48824</ele>
        <time>2011-06-26T08:10:06Z</time>
      </trkpt>
      <trkpt lat="47.99721" lon="-0.68788">
        <ele>90.976419</ele>
        <time>2011-06-26T08:10:09Z</time>
      </trkpt>
      <trkpt lat="47.99714" lon="-0.68767">
        <ele>90.665322</ele>
        <time>2011-06-26T08:10:09Z</time>
      </trkpt>
      <trkpt lat="47.9971" lon="-0.68752">
        <ele>90.434526</ele>
        <time>2011-06-26T08:10:11Z</time>
      </trkpt>
      <trkpt lat="47.99702" lon="-0.68729">
        <ele>90.081654</ele>
        <time>2011-06-26T08:10:14Z</time>
      </trkpt>
      <trkpt lat="47.99698" lon="-0.68713">
        <ele>89.479118</ele>
        <time>2011-06-26T08:10:16Z</time>
      </trkpt>
      <trkpt lat="47.9969" lon="-0.68693">
        <ele>88.630005</ele>
        <time>2011-06-26T08:10:19Z</time>
      </trkpt>
      <trkpt lat="47.99686" lon="-0.68678">
        <ele>87.6523</ele>
        <time>2011-06-26T08:10:21Z</time>
      </trkpt>
      <trkpt lat="47.99678" lon="-0.68655">
        <ele>86.759722</ele>
        <time>2011-06-26T08:10:24Z</time>
      </trkpt>
      <trkpt lat="47.99668" lon="-0.6863">
        <ele>86.182645</ele>
        <time>2011-06-26T08:10:27Z</time>
      </trkpt>
      <trkpt lat="47.9966" lon="-0.68613">
        <ele>85.97148</ele>
        <time>2011-06-26T08:10:29Z</time>
      </trkpt>
      <trkpt lat="47.9965" lon="-0.68588">
        <ele>85.907541</ele>
        <time>2011-06-26T08:10:32Z</time>
      </trkpt>
      <trkpt lat="47.99644" lon="-0.68571">
        <ele>85.814965</ele>
        <time>2011-06-26T08:10:34Z</time>
      </trkpt>
      <trkpt lat="47.99636" lon="-0.68548">
        <ele>85.700799</ele>
        <time>2011-06-26T08:10:37Z</time>
      </trkpt>
      <trkpt lat="47.99631" lon="-0.68536">
        <ele>85.584599</ele>
        <time>2011-06-26T08:10:39Z</time>
      </trkpt>
      <trkpt lat="47.99627" lon="-0.68527">
        <ele>85.353942</ele>
        <time>2011-06-26T08:10:42Z</time>
      </trkpt>
      <trkpt lat="47.99626" lon="-0.6852">
        <ele>84.864662</ele>
        <time>2011-06-26T08:10:50Z</time>
      </trkpt>
      <trkpt lat="47.99626" lon="-0.6852">
        <ele>84.216836</ele>
        <time>2011-06-26T08:10:52Z</time>
      </trkpt>
      <trkpt lat="47.99615" lon="-0.68499">
        <ele>83.658998</ele>
        <time>2011-06-26T08:11:02Z</time>
      </trkpt>
      <trkpt lat="47.99615" lon="-0.68499">
        <ele>83.290891</ele>
        <time>2011-06-26T08:11:02Z</time>
      </trkpt>
      <trkpt lat="47.9961" lon="-0.68489">
        <ele>83.078089</ele>
        <time>2011-06-26T08:11:04Z</time>
      </trkpt>
      <trkpt lat="47.99605" lon="-0.68478">
        <ele>82.919277</ele>
        <time>2011-06-26T08:11:06Z</time>
      </trkpt>
      <trkpt lat="47.99598" lon="-0.68461">
        <ele>82.648449</ele>
        <time>2011-06-26T08:11:09Z</time>
      </trkpt>
      <trkpt lat="47.99591" lon="-0.68442">
        <ele>82.22585</ele>
        <time>2011-06-26T08:11:12Z</time>
      </trkpt>
      <trkpt lat="47.99585" lon="-0.68422">
        <ele>81.756697</ele>
        <time>2011-06-26T08:11:15Z</time>
      </trkpt>
      <trkpt lat="47.99581" lon="-0.68409">
        <ele>81.387203</ele>
        <time>2011-06-26T08:11:17Z</time>
      </trkpt>
      <trkpt lat="47.99576" lon="-0.68388">
        <ele>81.189684</ele>
        <time>2011-06-26T08:11:20Z</time>
      </trkpt>
      <trkpt lat="47.99571" lon="-0.68366">
        <ele>81.128786</ele>
        <time>2011-06-26T08:11:23Z</time>
      </trkpt>
      <trkpt lat="47.99571" lon="-0.68366">
        <ele>81.11278</ele>
        <time>2011-06-26T08:11:25Z</time>
      </trkpt>
      <trkpt lat="47.99565" lon="-0.6834">
        <ele>81.070425</ele>
        <time>2011-06-26T08:11:26Z</time>
      </trkpt>
      <trkpt lat="47.99559" lon="-0.68313">
        <ele>80.94321</ele>
        <time>2011-06-26T08:11:29Z</time>
      </trkpt>
      <trkpt lat="47.99555" lon="-0.68296">
        <ele>80.664544</ele>
        <time>2011-06-26T08:11:31Z</time>
      </trkpt>
      <trkpt lat="47.99551" lon="-0.68271">
        <ele>80.220919</ele>
        <time>2011-06-26T08:11:34Z</time>
      </trkpt>
      <trkpt lat="47.99549" lon="-0.68246">
        <ele>79.721087</ele>
        <time>2011-06-26T08:11:37Z</time>
      </trkpt>
      <trkpt lat="47.99545" lon="-0.68224">
        <ele>79.320088</ele>
        <time>2011-06-26T08:11:40Z</time>
      </trkpt>
      <trkpt lat="47.99542" lon="-0.68209">
        <ele>79.033418</ele>
        <time>2011-06-26T08:11:42Z</time>
      </trkpt>
      <trkpt lat="47.99539" lon="-0.68194">
        <ele>78.709638</ele>
        <time>2011-06-26T08:11:44Z</time>
      </trkpt>
      <trkpt lat="47.99539" lon="-0.68194">
        <ele>78.323642</ele>
        <time>2011-06-26T08:11:44Z</time>
      </trkpt>
      <trkpt lat="47.99538" lon="-0.68176">
        <ele>77.963926</ele>
        <time>2011-06-26T08:11:47Z</time>
      </trkpt>
      <trkpt lat="47.99536" lon="-0.68161">
        <ele>77.611974</ele>
        <time>2011-06-26T08:11:50Z</time>
      </trkpt>
      <trkpt lat="47.9953" lon="-0.68151">
        <ele>77.224351</ele>
        <time>2011-06-26T08:11:52Z</time>
      </trkpt>
      <trkpt lat="47.99519" lon="-0.68135">
        <ele>76.849608</ele>
        <time>2011-06-26T08:11:55Z</time>
      </trkpt>
      <trkpt lat="47.9951" lon="-0.68125">
        <ele>76.553128</ele>
        <time>2011-06-26T08:11:57Z</time>
      </trkpt>
      <trkpt lat="47.99495" lon="-0.68105">
        <ele>76.273718</ele>
        <time>2011-06-26T08:12:00Z</time>
      </trkpt>
      <trkpt lat="47.99473" lon="-0.68078">
        <ele>75.824202</ele>
        <time>2011-06-26T08:12:03Z</time>
      </trkpt>
      <trkpt lat="47.9946" lon="-0.6806">
        <ele>75.194874</ele>
        <time>2011-06-26T08:12:05Z</time>
      </trkpt>
      <trkpt lat="47.9944" lon="-0.68034">
        <ele>74.539836</ele>
        <time>2011-06-26T08:12:08Z</time>
      </trkpt>
      <trkpt lat="47.99425" lon="-0.68016">
        <ele>73.839285</ele>
        <time>2011-06-26T08:12:10Z</time>
      </trkpt>
      <trkpt lat="47.9941" lon="-0.67998">
        <ele>73.030452</ele>
        <time>2011-06-26T08:12:12Z</time>
      </trkpt>
      <trkpt lat="47.99387" lon="-0.67971">
        <ele>72.229861</ele>
        <time>2011-06-26T08:12:15Z</time>
      </trkpt>
      <trkpt lat="47.99361" lon="-0.67952">
        <ele>71.503937</ele>
        <time>2011-06-26T08:12:18Z</time>
      </trkpt>
      <trkpt lat="47.99344" lon="-0.67949">
        <ele>70.697686</ele>
        <time>2011-06-26T08:12:20Z</time>
      </trkpt>
      <trkpt lat="47.99327" lon="-0.67952">
        <ele>69.534795</ele>
        <time>2011-06-26T08:12:22Z</time>
      </trkpt>
      <trkpt lat="47.99305" lon="-0.67974">
        <ele>67.854347</ele>
        <time>2011-06-26T08:12:25Z</time>
      </trkpt>
      <trkpt lat="47.99288" lon="-0.67991">
        <ele>65.937579</ele>
        <time>2011-06-26T08:12:28Z</time>
      </trkpt>
      <trkpt lat="47.9928" lon="-0.67992">
        <ele>64.328856</ele>
        <time>2011-06-26T08:12:31Z</time>
      </trkpt>
      <trkpt lat="47.9928" lon="-0.67992">
        <ele>63.35496</ele>
        <time>2011-06-26T08:12:40Z</time>
      </trkpt>
      <trkpt lat="47.9928" lon="-0.67992">
        <ele>62.991809</ele>
        <time>2011-06-26T08:12:50Z</time>
      </trkpt>
      <trkpt lat="47.99278" lon="-0.67967">
        <ele>62.901805</ele>
        <time>2011-06-26T08:12:54Z</time>
      </trkpt>
      <trkpt lat="47.9928" lon="-0.67956">
        <ele>62.560495</ele>
        <time>2011-06-26T08:12:56Z</time>
      </trkpt>
      <trkpt lat="47.99284" lon="-0.6794">
        <ele>61.770684</ele>
        <time>2011-06-26T08:12:59Z</time>
      </trkpt>
      <trkpt lat="47.99289" lon="-0.67927">
        <ele>60.677635</ele>
        <time>2011-06-26T08:13:01Z</time>
      </trkpt>
      <trkpt lat="47.99296" lon="-0.67911">
        <ele>59.530333</ele>
        <time>2011-06-26T08:13:04Z</time>
      </trkpt>
      <trkpt lat="47.99301" lon="-0.67901">
        <ele>58.456982</ele>
        <time>2011-06-26T08:13:06Z</time>
      </trkpt>
      <trkpt lat="47.99305" lon="-0.67892">
        <ele>57.271838</ele>
        <time>2011-06-26T08:13:08Z</time>
      </trkpt>
      <trkpt lat="47.99309" lon="-0.67879">
        <ele>55.807682</ele>
        <time>2011-06-26T08:13:11Z</time>
      </trkpt>
      <trkpt lat="47.99311" lon="-0.67865">
        <ele>54.395741</ele>
        <time>2011-06-26T08:13:14Z</time>
      </trkpt>
      <trkpt lat="47.99311" lon="-0.67852">
        <ele>53.458949</ele>
        <time>2011-06-26T08:13:17Z</time>
      </trkpt>
      <trkpt lat="47.99311" lon="-0.67843">
        <ele>53.077938</ele>
        <time>2011-06-26T08:13:19Z</time>
      </trkpt>
      <trkpt lat="47.9931" lon="-0.67836">
        <ele>53.028941</ele>
        <time>2011-06-26T08:13:21Z</time>
      </trkpt>
      <trkpt lat="47.99309" lon="-0.67826">
        <ele>53.071541</ele>
        <time>2011-06-26T08:13:24Z</time>
      </trkpt>
      <trkpt lat="47.99306" lon="-0.67819">
        <ele>53.084158</ele>
        <time>2011-06-26T08:13:26Z</time>
      </trkpt>
      <trkpt lat="47.99304" lon="-0.67811">
        <ele>53.05097</ele>
        <time>2011-06-26T08:13:28Z</time>
      </trkpt>
      <trkpt lat="47.99302" lon="-0.67804">
        <ele>52.984534</ele>
        <time>2011-06-26T08:13:30Z</time>
      </trkpt>
      <trkpt lat="47.99299" lon="-0.67797">
        <ele>52.89485</ele>
        <time>2011-06-26T08:13:32Z</time>
      </trkpt>
      <trkpt lat="47.99296" lon="-0.67787">
        <ele>52.802005</ele>
        <time>2011-06-26T08:13:35Z</time>
      </trkpt>
      <trkpt lat="47.99293" lon="-0.67778">
        <ele>52.726574</ele>
        <time>2011-06-26T08:13:38Z</time>
      </trkpt>
      <trkpt lat="47.99291" lon="-0.67769">
        <ele>52.673083</ele>
        <time>2011-06-26T08:13:41Z</time>
      </trkpt>
      <trkpt lat="47.99288" lon="-0.6776">
        <ele>52.632437</ele>
        <time>2011-06-26T08:13:44Z</time>
      </trkpt>
      <trkpt lat="47.99286" lon="-0.67751">
        <ele>52.588929</ele>
        <time>2011-06-26T08:13:47Z</time>
      </trkpt>
      <trkpt lat="47.99285" lon="-0.67743">
        <ele>52.533022</ele>
        <time>2011-06-26T08:13:50Z</time>
      </trkpt>
      <trkpt lat="47.99283" lon="-0.67736">
        <ele>52.465495</ele>
        <time>2011-06-26T08:13:53Z</time>
      </trkpt>
      <trkpt lat="47.99282" lon="-0.67729">
        <ele>52.392664</ele>
        <time>2011-06-26T08:13:56Z</time>
      </trkpt>
      <trkpt lat="47.9928" lon="-0.67721">
        <ele>52.322059</ele>
        <time>2011-06-26T08:13:59Z</time>
      </trkpt>
      <trkpt lat="47.99278" lon="-0.67712">
        <ele>52.258873</ele>
        <time>2011-06-26T08:14:02Z</time>
      </trkpt>
      <trkpt lat="47.99277" lon="-0.67702">
        <ele>52.206907</ele>
        <time>2011-06-26T08:14:05Z</time>
      </trkpt>
      <trkpt lat="47.99274" lon="-0.67695">
        <ele>52.171647</ele>
        <time>2011-06-26T08:14:08Z</time>
      </trkpt>
      <trkpt lat="47.99272" lon="-0.67688">
        <ele>52.155901</ele>
        <time>2011-06-26T08:14:11Z</time>
      </trkpt>
      <trkpt lat="47.99269" lon="-0.67683">
        <ele>52.154106</ele>
        <time>2011-06-26T08:14:14Z</time>
      </trkpt>
      <trkpt lat="47.99266" lon="-0.67677">
        <ele>52.157292</ele>
        <time>2011-06-26T08:14:17Z</time>
      </trkpt>
      <trkpt lat="47.99262" lon="-0.67671">
        <ele>52.161565</ele>
        <time>2011-06-26T08:14:20Z</time>
      </trkpt>
      <trkpt lat="47.99258" lon="-0.67665">
        <ele>52.167312</ele>
        <time>2011-06-26T08:14:23Z</time>
      </trkpt>
      <trkpt lat="47.99255" lon="-0.6766">
        <ele>52.174718</ele>
        <time>2011-06-26T08:14:26Z</time>
      </trkpt>
      <trkpt lat="47.99256" lon="-0.67653">
        <ele>52.183096</ele>
        <time>2011-06-26T08:14:30Z</time>
      </trkpt>
      <trkpt lat="47.9926" lon="-0.67648">
        <ele>52.192796</ele>
        <time>2011-06-26T08:14:33Z</time>
      </trkpt>
      <trkpt lat="47.99264" lon="-0.67642">
        <ele>52.208303</ele>
        <time>2011-06-26T08:14:36Z</time>
      </trkpt>
      <trkpt lat="47.99269" lon="-0.67637">
        <ele>52.240195</ele>
        <time>2011-06-26T08:14:39Z</time>
      </trkpt>
      <trkpt lat="47.99272" lon="-0.67633">
        <ele>52.295312</ele>
        <time>2011-06-26T08:14:42Z</time>
      </trkpt>
      <trkpt lat="47.99272" lon="-0.67633">
        <ele>52.357448</ele>
        <time>2011-06-26T08:14:56Z</time>
      </trkpt>
      <trkpt lat="47.99272" lon="-0.67633">
        <ele>52.398892</ele>
        <time>2011-06-26T08:15:14Z</time>
      </trkpt>
      <trkpt lat="47.99291" lon="-0.67617">
        <ele>52.424062</ele>
        <time>2011-06-26T08:21:50Z</time>
      </trkpt>
      <trkpt lat="47.99291" lon="-0.67617">
        <ele>52.452872</ele>
        <time>2011-06-26T08:21:51Z</time>
      </trkpt>
      <trkpt lat="47.99299" lon="-0.6761">
        <ele>52.491929</ele>
        <time>2011-06-26T08:21:53Z</time>
      </trkpt>
      <trkpt lat="47.99304" lon="-0.67606">
        <ele>52.554063</ele>
        <time>2011-06-26T08:21:55Z</time>
      </trkpt>
      <trkpt lat="47.99312" lon="-0.67599">
        <ele>53.721823</ele>
        <time>2011-06-26T08:21:58Z</time>
      </trkpt>
      <trkpt lat="47.99319" lon="-0.67592">
        <ele>56.624752</ele>
        <time>2011-06-26T08:22:01Z</time>
      </trkpt>
      <trkpt lat="47.99326" lon="-0.67584">
        <ele>59.58836</ele>
        <time>2011-06-26T08:22:04Z</time>
      </trkpt>
      <trkpt lat="47.9933" lon="-0.67576">
        <ele>61.020672</ele>
        <time>2011-06-26T08:22:07Z</time>
      </trkpt>
      <trkpt lat="47.99334" lon="-0.67572">
        <ele>61.284985</ele>
        <time>2011-06-26T08:22:09Z</time>
      </trkpt>
      <trkpt lat="47.99337" lon="-0.67567">
        <ele>61.113094</ele>
        <time>2011-06-26T08:22:11Z</time>
      </trkpt>
      <trkpt lat="47.99342" lon="-0.6756">
        <ele>60.95218</ele>
        <time>2011-06-26T08:22:14Z</time>
      </trkpt>
      <trkpt lat="47.99347" lon="-0.67554">
        <ele>60.925256</ele>
        <time>2011-06-26T08:22:17Z</time>
      </trkpt>
      <trkpt lat="47.99352" lon="-0.67547">
        <ele>60.990197</ele>
        <time>2011-06-26T08:22:20Z</time>
      </trkpt>
      <trkpt lat="47.99357" lon="-0.6754">
        <ele>61.084705</ele>
        <time>2011-06-26T08:22:22Z</time>
      </trkpt>
      <trkpt lat="47.99364" lon="-0.67527">
        <ele>61.181095</ele>
        <time>2011-06-26T08:22:25Z</time>
      </trkpt>
      <trkpt lat="47.99368" lon="-0.67518">
        <ele>61.270585</ele>
        <time>2011-06-26T08:22:27Z</time>
      </trkpt>
      <trkpt lat="47.99375" lon="-0.67503">
        <ele>61.339083</ele>
        <time>2011-06-26T08:22:30Z</time>
      </trkpt>
      <trkpt lat="47.99382" lon="-0.67487">
        <ele>61.37392</ele>
        <time>2011-06-26T08:22:33Z</time>
      </trkpt>
      <trkpt lat="47.99389" lon="-0.67468">
        <ele>61.3806</ele>
        <time>2011-06-26T08:22:36Z</time>
      </trkpt>
      <trkpt lat="47.99396" lon="-0.67449">
        <ele>61.348368</ele>
        <time>2011-06-26T08:22:39Z</time>
      </trkpt>
      <trkpt lat="47.99401" lon="-0.67438">
        <ele>61.168513</ele>
        <time>2011-06-26T08:22:41Z</time>
      </trkpt>
      <trkpt lat="47.99401" lon="-0.67438">
        <ele>60.824152</ele>
        <time>2011-06-26T08:22:43Z</time>
      </trkpt>
      <trkpt lat="47.994" lon="-0.67421">
        <ele>60.473734</ele>
        <time>2011-06-26T08:22:44Z</time>
      </trkpt>
      <trkpt lat="47.99399" lon="-0.67407">
        <ele>60.197391</ele>
        <time>2011-06-26T08:22:47Z</time>
      </trkpt>
      <trkpt lat="47.99399" lon="-0.67395">
        <ele>59.932752</ele>
        <time>2011-06-26T08:22:50Z</time>
      </trkpt>
      <trkpt lat="47.99399" lon="-0.67388">
        <ele>59.640498</ele>
        <time>2011-06-26T08:22:52Z</time>
      </trkpt>
      <trkpt lat="47.99399" lon="-0.67388">
        <ele>59.362595</ele>
        <time>2011-06-26T08:22:53Z</time>
      </trkpt>
      <trkpt lat="47.994" lon="-0.67381">
        <ele>59.17351</ele>
        <time>2011-06-26T08:22:54Z</time>
      </trkpt>
      <trkpt lat="47.99401" lon="-0.67371">
        <ele>59.059109</ele>
        <time>2011-06-26T08:22:57Z</time>
      </trkpt>
      <trkpt lat="47.99402" lon="-0.6736">
        <ele>58.955624</ele>
        <time>2011-06-26T08:23:00Z</time>
      </trkpt>
      <trkpt lat="47.99403" lon="-0.6735">
        <ele>58.842055</ele>
        <time>2011-06-26T08:23:03Z</time>
      </trkpt>
      <trkpt lat="47.99404" lon="-0.67343">
        <ele>58.715016</ele>
        <time>2011-06-26T08:23:05Z</time>
      </trkpt>
      <trkpt lat="47.99403" lon="-0.67334">
        <ele>58.566619</ele>
        <time>2011-06-26T08:23:07Z</time>
      </trkpt>
      <trkpt lat="47.99405" lon="-0.67327">
        <ele>58.401417</ele>
        <time>2011-06-26T08:23:09Z</time>
      </trkpt>
      <trkpt lat="47.99411" lon="-0.67316">
        <ele>58.23685</ele>
        <time>2011-06-26T08:23:12Z</time>
      </trkpt>
      <trkpt lat="47.99421" lon="-0.67307">
        <ele>58.071403</ele>
        <time>2011-06-26T08:23:14Z</time>
      </trkpt>
      <trkpt lat="47.99435" lon="-0.67286">
        <ele>57.884503</ele>
        <time>2011-06-26T08:23:17Z</time>
      </trkpt>
      <trkpt lat="47.99452" lon="-0.6727">
        <ele>57.652602</ele>
        <time>2011-06-26T08:23:20Z</time>
      </trkpt>
      <trkpt lat="47.99475" lon="-0.67259">
        <ele>57.12497</ele>
        <time>2011-06-26T08:23:23Z</time>
      </trkpt>
      <trkpt lat="47.99489" lon="-0.67252">
        <ele>55.834494</ele>
        <time>2011-06-26T08:23:25Z</time>
      </trkpt>
      <trkpt lat="47.99509" lon="-0.67241">
        <ele>53.878254</ele>
        <time>2011-06-26T08:23:28Z</time>
      </trkpt>
      <trkpt lat="47.99522" lon="-0.67234">
        <ele>52.131575</ele>
        <time>2011-06-26T08:23:30Z</time>
      </trkpt>
      <trkpt lat="47.99533" lon="-0.67229">
        <ele>51.235412</ele>
        <time>2011-06-26T08:23:32Z</time>
      </trkpt>
      <trkpt lat="47.99541" lon="-0.67224">
        <ele>51.059196</ele>
        <time>2011-06-26T08:23:34Z</time>
      </trkpt>
      <trkpt lat="47.9955" lon="-0.67219">
        <ele>51.286958</ele>
        <time>2011-06-26T08:23:36Z</time>
      </trkpt>
      <trkpt lat="47.99563" lon="-0.67211">
        <ele>51.774721</ele>
        <time>2011-06-26T08:23:39Z</time>
      </trkpt>
      <trkpt lat="47.99576" lon="-0.67204">
        <ele>52.314718</ele>
        <time>2011-06-26T08:23:42Z</time>
      </trkpt>
      <trkpt lat="47.99584" lon="-0.672">
        <ele>52.65369</ele>
        <time>2011-06-26T08:23:44Z</time>
      </trkpt>
      <trkpt lat="47.99598" lon="-0.67193">
        <ele>52.754728</ele>
        <time>2011-06-26T08:23:47Z</time>
      </trkpt>
      <trkpt lat="47.9961" lon="-0.67186">
        <ele>52.647504</ele>
        <time>2011-06-26T08:23:50Z</time>
      </trkpt>
      <trkpt lat="47.9961" lon="-0.67186">
        <ele>52.377614</ele>
        <time>2011-06-26T08:23:51Z</time>
      </trkpt>
      <trkpt lat="47.99618" lon="-0.67179">
        <ele>52.026545</ele>
        <time>2011-06-26T08:23:52Z</time>
      </trkpt>
      <trkpt lat="47.9963" lon="-0.67167">
        <ele>51.545899</ele>
        <time>2011-06-26T08:23:55Z</time>
      </trkpt>
      <trkpt lat="47.9964" lon="-0.67154">
        <ele>50.938942</ele>
        <time>2011-06-26T08:23:58Z</time>
      </trkpt>
      <trkpt lat="47.99647" lon="-0.67144">
        <ele>50.449026</ele>
        <time>2011-06-26T08:24:00Z</time>
      </trkpt>
      <trkpt lat="47.99661" lon="-0.67129">
        <ele>50.227957</ele>
        <time>2011-06-26T08:24:03Z</time>
      </trkpt>
      <trkpt lat="47.99676" lon="-0.67114">
        <ele>50.210165</ele>
        <time>2011-06-26T08:24:06Z</time>
      </trkpt>
      <trkpt lat="47.99685" lon="-0.67106">
        <ele>50.276181</ele>
        <time>2011-06-26T08:24:08Z</time>
      </trkpt>
      <trkpt lat="47.99698" lon="-0.67095">
        <ele>50.392196</ele>
        <time>2011-06-26T08:24:11Z</time>
      </trkpt>
      <trkpt lat="47.99706" lon="-0.67088">
        <ele>50.573789</ele>
        <time>2011-06-26T08:24:13Z</time>
      </trkpt>
      <trkpt lat="47.99719" lon="-0.6708">
        <ele>50.765692</ele>
        <time>2011-06-26T08:24:16Z</time>
      </trkpt>
      <trkpt lat="47.99728" lon="-0.67078">
        <ele>50.949324</ele>
        <time>2011-06-26T08:24:18Z</time>
      </trkpt>
      <trkpt lat="47.99738" lon="-0.67078">
        <ele>51.215659</ele>
        <time>2011-06-26T08:24:20Z</time>
      </trkpt>
      <trkpt lat="47.99752" lon="-0.67079">
        <ele>51.630813</ele>
        <time>2011-06-26T08:24:23Z</time>
      </trkpt>
      <trkpt lat="47.99766" lon="-0.6708">
        <ele>52.273269</ele>
        <time>2011-06-26T08:24:26Z</time>
      </trkpt>
      <trkpt lat="47.99775" lon="-0.67082">
        <ele>53.277219</ele>
        <time>2011-06-26T08:24:28Z</time>
      </trkpt>
      <trkpt lat="47.99786" lon="-0.67087">
        <ele>54.74909</ele>
        <time>2011-06-26T08:24:31Z</time>
      </trkpt>
      <trkpt lat="47.99796" lon="-0.6709">
        <ele>56.60312</ele>
        <time>2011-06-26T08:24:34Z</time>
      </trkpt>
      <trkpt lat="47.99802" lon="-0.67091">
        <ele>58.441912</ele>
        <time>2011-06-26T08:24:36Z</time>
      </trkpt>
      <trkpt lat="47.9981" lon="-0.67092">
        <ele>59.813776</ele>
        <time>2011-06-26T08:24:38Z</time>
      </trkpt>
      <trkpt lat="47.99819" lon="-0.67093">
        <ele>60.570901</ele>
        <time>2011-06-26T08:24:40Z</time>
      </trkpt>
      <trkpt lat="47.99833" lon="-0.67094">
        <ele>60.857081</ele>
        <time>2011-06-26T08:24:43Z</time>
      </trkpt>
      <trkpt lat="47.99847" lon="-0.67098">
        <ele>61.027723</ele>
        <time>2011-06-26T08:24:46Z</time>
      </trkpt>
      <trkpt lat="47.99857" lon="-0.67104">
        <ele>61.411096</ele>
        <time>2011-06-26T08:24:48Z</time>
      </trkpt>
      <trkpt lat="47.99871" lon="-0.67114">
        <ele>62.014672</ele>
        <time>2011-06-26T08:24:51Z</time>
      </trkpt>
      <trkpt lat="47.99885" lon="-0.67126">
        <ele>62.654825</ele>
        <time>2011-06-26T08:24:54Z</time>
      </trkpt>
      <trkpt lat="47.99885" lon="-0.67126">
        <ele>63.168175</ele>
        <time>2011-06-26T08:24:55Z</time>
      </trkpt>
      <trkpt lat="47.99894" lon="-0.67134">
        <ele>63.460844</ele>
        <time>2011-06-26T08:24:56Z</time>
      </trkpt>
      <trkpt lat="47.9991" lon="-0.67145">
        <ele>63.600923</ele>
        <time>2011-06-26T08:24:59Z</time>
      </trkpt>
      <trkpt lat="47.99921" lon="-0.67152">
        <ele>63.724274</ele>
        <time>2011-06-26T08:25:01Z</time>
      </trkpt>
      <trkpt lat="47.99932" lon="-0.67161">
        <ele>63.853751</ele>
        <time>2011-06-26T08:25:03Z</time>
      </trkpt>
      <trkpt lat="47.9995" lon="-0.67174">
        <ele>63.940386</ele>
        <time>2011-06-26T08:25:06Z</time>
      </trkpt>
      <trkpt lat="47.99964" lon="-0.67186">
        <ele>63.944667</ele>
        <time>2011-06-26T08:25:08Z</time>
      </trkpt>
      <trkpt lat="47.99986" lon="-0.67202">
        <ele>63.878786</ele>
        <time>2011-06-26T08:25:11Z</time>
      </trkpt>
      <trkpt lat="47.99999" lon="-0.67208">
        <ele>63.769222</ele>
        <time>2011-06-26T08:25:13Z</time>
      </trkpt>
      <trkpt lat="48.00015" lon="-0.67206">
        <ele>63.636585</ele>
        <time>2011-06-26T08:25:16Z</time>
      </trkpt>
      <trkpt lat="48.00024" lon="-0.67205">
        <ele>63.513481</ele>
        <time>2011-06-26T08:25:18Z</time>
      </trkpt>
      <trkpt lat="48.00032" lon="-0.67203">
        <ele>63.392267</ele>
        <time>2011-06-26T08:25:21Z</time>
      </trkpt>
      <trkpt lat="48.00039" lon="-0.67198">
        <ele>63.134226</ele>
        <time>2011-06-26T08:25:24Z</time>
      </trkpt>
      <trkpt lat="48.00048" lon="-0.67191">
        <ele>62.687892</ele>
        <time>2011-06-26T08:25:29Z</time>
      </trkpt>
      <trkpt lat="48.00066" lon="-0.67182">
        <ele>62.232409</ele>
        <time>2011-06-26T08:25:43Z</time>
      </trkpt>
      <trkpt lat="48.00075" lon="-0.6718">
        <ele>61.910472</ele>
        <time>2011-06-26T08:25:55Z</time>
      </trkpt>
      <trkpt lat="48.00075" lon="-0.6718">
        <ele>61.703728</ele>
        <time>2011-06-26T08:26:03Z</time>
      </trkpt>
      <trkpt lat="48.00098" lon="-0.67177">
        <ele>61.51774</ele>
        <time>2011-06-26T08:26:06Z</time>
      </trkpt>
      <trkpt lat="48.00109" lon="-0.67177">
        <ele>61.004367</ele>
        <time>2011-06-26T08:26:13Z</time>
      </trkpt>
      <trkpt lat="48.00118" lon="-0.67181">
        <ele>59.97298</ele>
        <time>2011-06-26T08:26:19Z</time>
      </trkpt>
      <trkpt lat="48.00118" lon="-0.67181">
        <ele>58.887865</ele>
        <time>2011-06-26T08:26:19Z</time>
      </trkpt>
      <trkpt lat="48.00127" lon="-0.67186">
        <ele>58.165132</ele>
        <time>2011-06-26T08:26:22Z</time>
      </trkpt>
      <trkpt lat="48.00137" lon="-0.67194">
        <ele>57.72568</ele>
        <time>2011-06-26T08:26:25Z</time>
      </trkpt>
      <trkpt lat="48.00145" lon="-0.67201">
        <ele>57.469427</ele>
        <time>2011-06-26T08:26:27Z</time>
      </trkpt>
      <trkpt lat="48.00154" lon="-0.6721">
        <ele>57.370078</ele>
        <time>2011-06-26T08:26:30Z</time>
      </trkpt>
      <trkpt lat="48.00163" lon="-0.67219">
        <ele>57.328924</ele>
        <time>2011-06-26T08:26:33Z</time>
      </trkpt>
      <trkpt lat="48.00171" lon="-0.6722">
        <ele>57.164017</ele>
        <time>2011-06-26T08:26:35Z</time>
      </trkpt>
      <trkpt lat="48.00189" lon="-0.67217">
        <ele>56.760005</ele>
        <time>2011-06-26T08:26:38Z</time>
      </trkpt>
      <trkpt lat="48.00203" lon="-0.67215">
        <ele>56.275413</ele>
        <time>2011-06-26T08:26:40Z</time>
      </trkpt>
      <trkpt lat="48.00214" lon="-0.6721">
        <ele>55.782597</ele>
        <time>2011-06-26T08:26:42Z</time>
      </trkpt>
      <trkpt lat="48.00227" lon="-0.67195">
        <ele>54.872258</ele>
        <time>2011-06-26T08:26:45Z</time>
      </trkpt>
      <trkpt lat="48.00241" lon="-0.67181">
        <ele>53.367943</ele>
        <time>2011-06-26T08:26:48Z</time>
      </trkpt>
      <trkpt lat="48.00256" lon="-0.67165">
        <ele>51.894536</ele>
        <time>2011-06-26T08:26:51Z</time>
      </trkpt>
      <trkpt lat="48.00268" lon="-0.67148">
        <ele>51.084736</ele>
        <time>2011-06-26T08:26:54Z</time>
      </trkpt>
      <trkpt lat="48.00277" lon="-0.67135">
        <ele>50.895599</ele>
        <time>2011-06-26T08:26:56Z</time>
      </trkpt>
      <trkpt lat="48.00289" lon="-0.67117">
        <ele>50.995563</ele>
        <time>2011-06-26T08:26:59Z</time>
      </trkpt>
      <trkpt lat="48.00297" lon="-0.67105">
        <ele>51.204794</ele>
        <time>2011-06-26T08:27:01Z</time>
      </trkpt>
      <trkpt lat="48.00308" lon="-0.67088">
        <ele>51.474787</ele>
        <time>2011-06-26T08:27:04Z</time>
      </trkpt>
      <trkpt lat="48.00318" lon="-0.6707">
        <ele>51.745691</ele>
        <time>2011-06-26T08:27:07Z</time>
      </trkpt>
      <trkpt lat="48.00326" lon="-0.6705">
        <ele>51.949653</ele>
        <time>2011-06-26T08:27:10Z</time>
      </trkpt>
      <trkpt lat="48.00333" lon="-0.6703">
        <ele>52.056444</ele>
        <time>2011-06-26T08:27:13Z</time>
      </trkpt>
      <trkpt lat="48.00338" lon="-0.67016">
        <ele>52.078634</ele>
        <time>2011-06-26T08:27:15Z</time>
      </trkpt>
      <trkpt lat="48.00344" lon="-0.67002">
        <ele>52.066676</ele>
        <time>2011-06-26T08:27:17Z</time>
      </trkpt>
      <trkpt lat="48.00353" lon="-0.66981">
        <ele>52.062476</ele>
        <time>2011-06-26T08:27:20Z</time>
      </trkpt>
      <trkpt lat="48.00359" lon="-0.66966">
        <ele>52.078977</ele>
        <time>2011-06-26T08:27:22Z</time>
      </trkpt>
      <trkpt lat="48.00367" lon="-0.66943">
        <ele>52.100391</ele>
        <time>2011-06-26T08:27:25Z</time>
      </trkpt>
      <trkpt lat="48.00367" lon="-0.66943">
        <ele>52.111792</ele>
        <time>2011-06-26T08:27:26Z</time>
      </trkpt>
      <trkpt lat="48.00374" lon="-0.6692">
        <ele>52.171381</ele>
        <time>2011-06-26T08:27:28Z</time>
      </trkpt>
      <trkpt lat="48.00376" lon="-0.66901">
        <ele>52.319782</ele>
        <time>2011-06-26T08:27:31Z</time>
      </trkpt>
      <trkpt lat="48.00376" lon="-0.66894">
        <ele>52.473416</ele>
        <time>2011-06-26T08:27:33Z</time>
      </trkpt>
      <trkpt lat="48.00384" lon="-0.66871">
        <ele>52.547147</ele>
        <time>2011-06-26T08:27:38Z</time>
      </trkpt>
      <trkpt lat="48.00384" lon="-0.66871">
        <ele>52.557325</ele>
        <time>2011-06-26T08:27:39Z</time>
      </trkpt>
      <trkpt lat="48.00387" lon="-0.6686">
        <ele>52.540029</ele>
        <time>2011-06-26T08:27:40Z</time>
      </trkpt>
      <trkpt lat="48.00396" lon="-0.66847">
        <ele>52.521506</ele>
        <time>2011-06-26T08:27:43Z</time>
      </trkpt>
      <trkpt lat="48.00404" lon="-0.66842">
        <ele>52.515123</ele>
        <time>2011-06-26T08:27:45Z</time>
      </trkpt>
      <trkpt lat="48.00411" lon="-0.66837">
        <ele>52.517725</ele>
        <time>2011-06-26T08:27:47Z</time>
      </trkpt>
      <trkpt lat="48.00423" lon="-0.66829">
        <ele>52.517915</ele>
        <time>2011-06-26T08:27:50Z</time>
      </trkpt>
      <trkpt lat="48.00434" lon="-0.66821">
        <ele>52.512871</ele>
        <time>2011-06-26T08:27:53Z</time>
      </trkpt>
      <trkpt lat="48.00434" lon="-0.66821">
        <ele>52.507312</ele>
        <time>2011-06-26T08:27:53Z</time>
      </trkpt>
      <trkpt lat="48.0044" lon="-0.66816">
        <ele>52.49728</ele>
        <time>2011-06-26T08:27:55Z</time>
      </trkpt>
      <trkpt lat="48.00445" lon="-0.66811">
        <ele>52.412572</ele>
        <time>2011-06-26T08:27:57Z</time>
      </trkpt>
      <trkpt lat="48.00452" lon="-0.66802">
        <ele>52.150074</ele>
        <time>2011-06-26T08:28:00Z</time>
      </trkpt>
      <trkpt lat="48.0046" lon="-0.66792">
        <ele>51.75443</ele>
        <time>2011-06-26T08:28:03Z</time>
      </trkpt>
      <trkpt lat="48.00471" lon="-0.66787">
        <ele>51.414251</ele>
        <time>2011-06-26T08:28:08Z</time>
      </trkpt>
      <trkpt lat="48.00471" lon="-0.66787">
        <ele>51.240766</ele>
        <time>2011-06-26T08:28:15Z</time>
      </trkpt>
      <trkpt lat="48.00484" lon="-0.66801">
        <ele>51.19385</ele>
        <time>2011-06-26T08:28:15Z</time>
      </trkpt>
      <trkpt lat="48.00488" lon="-0.66806">
        <ele>51.183122</ele>
        <time>2011-06-26T08:28:17Z</time>
      </trkpt>
      <trkpt lat="48.00494" lon="-0.66815">
        <ele>51.145193</ele>
        <time>2011-06-26T08:28:20Z</time>
      </trkpt>
      <trkpt lat="48.00499" lon="-0.66821">
        <ele>51.042632</ele>
        <time>2011-06-26T08:28:22Z</time>
      </trkpt>
      <trkpt lat="48.00503" lon="-0.66828">
        <ele>50.884817</ele>
        <time>2011-06-26T08:28:24Z</time>
      </trkpt>
      <trkpt lat="48.0051" lon="-0.66832">
        <ele>50.734465</ele>
        <time>2011-06-26T08:28:27Z</time>
      </trkpt>
      <trkpt lat="48.00516" lon="-0.66822">
        <ele>50.63331</ele>
        <time>2011-06-26T08:28:30Z</time>
      </trkpt>
      <trkpt lat="48.00519" lon="-0.66815">
        <ele>50.571858</ele>
        <time>2011-06-26T08:28:33Z</time>
      </trkpt>
      <trkpt lat="48.00524" lon="-0.66813">
        <ele>50.531353</ele>
        <time>2011-06-26T08:28:37Z</time>
      </trkpt>
      <trkpt lat="48.00528" lon="-0.66817">
        <ele>50.502156</ele>
        <time>2011-06-26T08:28:40Z</time>
      </trkpt>
      <trkpt lat="48.00532" lon="-0.66822">
        <ele>50.485058</ele>
        <time>2011-06-26T08:28:43Z</time>
      </trkpt>
      <trkpt lat="48.00532" lon="-0.66822">
        <ele>50.478279</ele>
        <time>2011-06-26T08:28:46Z</time>
      </trkpt>
      <trkpt lat="48.00537" lon="-0.66826">
        <ele>50.475867</ele>
        <time>2011-06-26T08:28:47Z</time>
      </trkpt>
      <trkpt lat="48.00542" lon="-0.66829">
        <ele>50.474806</ele>
        <time>2011-06-26T08:28:51Z</time>
      </trkpt>
      <trkpt lat="48.00545" lon="-0.66834">
        <ele>50.474695</ele>
        <time>2011-06-26T08:28:54Z</time>
      </trkpt>
      <trkpt lat="48.00547" lon="-0.66842">
        <ele>50.475973</ele>
        <time>2011-06-26T08:28:58Z</time>
      </trkpt>
      <trkpt lat="48.00548" lon="-0.66849">
        <ele>50.483724</ele>
        <time>2011-06-26T08:29:03Z</time>
      </trkpt>
      <trkpt lat="48.0055" lon="-0.66843">
        <ele>50.500925</ele>
        <time>2011-06-26T08:29:09Z</time>
      </trkpt>
      <trkpt lat="48.00555" lon="-0.66841">
        <ele>50.525196</ele>
        <time>2011-06-26T08:29:14Z</time>
      </trkpt>
      <trkpt lat="48.00556" lon="-0.66832">
        <ele>50.578097</ele>
        <time>2011-06-26T08:29:18Z</time>
      </trkpt>
      <trkpt lat="48.00556" lon="-0.66825">
        <ele>50.712697</ele>
        <time>2011-06-26T08:29:22Z</time>
      </trkpt>
      <trkpt lat="48.0056" lon="-0.66819">
        <ele>50.951466</ele>
        <time>2011-06-26T08:29:26Z</time>
      </trkpt>
      <trkpt lat="48.00563" lon="-0.66813">
        <ele>51.234945</ele>
        <time>2011-06-26T08:29:34Z</time>
      </trkpt>
      <trkpt lat="48.00568" lon="-0.66813">
        <ele>51.478527</ele>
        <time>2011-06-26T08:29:38Z</time>
      </trkpt>
      <trkpt lat="48.00572" lon="-0.66814">
        <ele>51.656319</ele>
        <time>2011-06-26T08:29:40Z</time>
      </trkpt>
      <trkpt lat="48.00572" lon="-0.66814">
        <ele>51.775736</ele>
        <time>2011-06-26T08:29:41Z</time>
      </trkpt>
      <trkpt lat="48.00576" lon="-0.66819">
        <ele>51.880102</ele>
        <time>2011-06-26T08:29:43Z</time>
      </trkpt>
      <trkpt lat="48.00574" lon="-0.66825">
        <ele>52.038753</ele>
        <time>2011-06-26T08:29:47Z</time>
      </trkpt>
      <trkpt lat="48.00572" lon="-0.66833">
        <ele>52.24357</ele>
        <time>2011-06-26T08:29:51Z</time>
      </trkpt>
      <trkpt lat="48.0057" lon="-0.6684">
        <ele>52.429184</ele>
        <time>2011-06-26T08:29:54Z</time>
      </trkpt>
      <trkpt lat="48.00567" lon="-0.66847">
        <ele>52.586555</ele>
        <time>2011-06-26T08:29:56Z</time>
      </trkpt>
      <trkpt lat="48.00564" lon="-0.66854">
        <ele>52.758891</ele>
        <time>2011-06-26T08:29:58Z</time>
      </trkpt>
      <trkpt lat="48.00562" lon="-0.66863">
        <ele>52.989298</ele>
        <time>2011-06-26T08:30:00Z</time>
      </trkpt>
      <trkpt lat="48.00557" lon="-0.66877">
        <ele>53.264272</ele>
        <time>2011-06-26T08:30:03Z</time>
      </trkpt>
      <trkpt lat="48.00557" lon="-0.66885">
        <ele>53.524612</ele>
        <time>2011-06-26T08:30:06Z</time>
      </trkpt>
      <trkpt lat="48.00557" lon="-0.66885">
        <ele>53.713915</ele>
        <time>2011-06-26T08:30:08Z</time>
      </trkpt>
      <trkpt lat="48.00557" lon="-0.66885">
        <ele>53.806129</ele>
        <time>2011-06-26T08:30:38Z</time>
      </trkpt>
      <trkpt lat="48.00576" lon="-0.66894">
        <ele>53.842581</ele>
        <time>2011-06-26T08:32:29Z</time>
      </trkpt>
      <trkpt lat="48.0058" lon="-0.66894">
        <ele>53.918629</ele>
        <time>2011-06-26T08:32:32Z</time>
      </trkpt>
      <trkpt lat="48.00585" lon="-0.66897">
        <ele>54.089337</ele>
        <time>2011-06-26T08:32:35Z</time>
      </trkpt>
      <trkpt lat="48.00592" lon="-0.66901">
        <ele>54.808301</ele>
        <time>2011-06-26T08:32:38Z</time>
      </trkpt>
      <trkpt lat="48.00597" lon="-0.66903">
        <ele>56.294548</ele>
        <time>2011-06-26T08:32:40Z</time>
      </trkpt>
      <trkpt lat="48.00603" lon="-0.66907">
        <ele>57.756559</ele>
        <time>2011-06-26T08:32:43Z</time>
      </trkpt>
      <trkpt lat="48.0061" lon="-0.66911">
        <ele>58.487518</ele>
        <time>2011-06-26T08:32:46Z</time>
      </trkpt>
      <trkpt lat="48.00615" lon="-0.66914">
        <ele>58.679138</ele>
        <time>2011-06-26T08:32:49Z</time>
      </trkpt>
      <trkpt lat="48.00619" lon="-0.6692">
        <ele>58.680796</ele>
        <time>2011-06-26T08:32:52Z</time>
      </trkpt>
      <trkpt lat="48.00624" lon="-0.66924">
        <ele>58.70017</ele>
        <time>2011-06-26T08:32:55Z</time>
      </trkpt>
      <trkpt lat="48.00628" lon="-0.66932">
        <ele>58.782055</ele>
        <time>2011-06-26T08:32:58Z</time>
      </trkpt>
      <trkpt lat="48.00632" lon="-0.66942">
        <ele>58.890174</ele>
        <time>2011-06-26T08:33:01Z</time>
      </trkpt>
      <trkpt lat="48.00636" lon="-0.66955">
        <ele>58.991381</ele>
        <time>2011-06-26T08:33:04Z</time>
      </trkpt>
      <trkpt lat="48.00638" lon="-0.66964">
        <ele>59.081399</ele>
        <time>2011-06-26T08:33:06Z</time>
      </trkpt>
      <trkpt lat="48.00639" lon="-0.66972">
        <ele>59.159528</ele>
        <time>2011-06-26T08:33:08Z</time>
      </trkpt>
      <trkpt lat="48.00639" lon="-0.66981">
        <ele>59.212598</ele>
        <time>2011-06-26T08:33:10Z</time>
      </trkpt>
      <trkpt lat="48.00642" lon="-0.66992">
        <ele>59.237113</ele>
        <time>2011-06-26T08:33:13Z</time>
      </trkpt>
      <trkpt lat="48.00647" lon="-0.66994">
        <ele>59.246221</ele>
        <time>2011-06-26T08:33:17Z</time>
      </trkpt>
      <trkpt lat="48.00652" lon="-0.66997">
        <ele>59.256135</ele>
        <time>2011-06-26T08:33:20Z</time>
      </trkpt>
      <trkpt lat="48.00662" lon="-0.67001">
        <ele>59.287837</ele>
        <time>2011-06-26T08:33:23Z</time>
      </trkpt>
      <trkpt lat="48.00669" lon="-0.67004">
        <ele>59.360564</ele>
        <time>2011-06-26T08:33:25Z</time>
      </trkpt>
      <trkpt lat="48.0068" lon="-0.67006">
        <ele>59.464252</ele>
        <time>2011-06-26T08:33:28Z</time>
      </trkpt>
      <trkpt lat="48.0069" lon="-0.67006">
        <ele>59.56518</ele>
        <time>2011-06-26T08:33:31Z</time>
      </trkpt>
      <trkpt lat="48.007" lon="-0.67006">
        <ele>59.643958</ele>
        <time>2011-06-26T08:33:34Z</time>
      </trkpt>
      <trkpt lat="48.00709" lon="-0.67007">
        <ele>59.70941</ele>
        <time>2011-06-26T08:33:37Z</time>
      </trkpt>
      <trkpt lat="48.00718" lon="-0.67009">
        <ele>59.781527</ele>
        <time>2011-06-26T08:33:40Z</time>
      </trkpt>
      <trkpt lat="48.00723" lon="-0.67011">
        <ele>59.877773</ele>
        <time>2011-06-26T08:33:42Z</time>
      </trkpt>
      <trkpt lat="48.00732" lon="-0.67014">
        <ele>60.011846</ele>
        <time>2011-06-26T08:33:45Z</time>
      </trkpt>
      <trkpt lat="48.00738" lon="-0.67017">
        <ele>60.196879</ele>
        <time>2011-06-26T08:33:48Z</time>
      </trkpt>
      <trkpt lat="48.00741" lon="-0.67025">
        <ele>60.423331</ele>
        <time>2011-06-26T08:33:51Z</time>
      </trkpt>
      <trkpt lat="48.00745" lon="-0.67035">
        <ele>60.669575</ele>
        <time>2011-06-26T08:33:54Z</time>
      </trkpt>
      <trkpt lat="48.00748" lon="-0.67043">
        <ele>60.931044</ele>
        <time>2011-06-26T08:33:57Z</time>
      </trkpt>
      <trkpt lat="48.00749" lon="-0.67053">
        <ele>61.204354</ele>
        <time>2011-06-26T08:34:00Z</time>
      </trkpt>
      <trkpt lat="48.00749" lon="-0.67061">
        <ele>61.469917</ele>
        <time>2011-06-26T08:34:02Z</time>
      </trkpt>
      <trkpt lat="48.00752" lon="-0.67072">
        <ele>61.71979</ele>
        <time>2011-06-26T08:34:05Z</time>
      </trkpt>
      <trkpt lat="48.00756" lon="-0.67077">
        <ele>61.974013</ele>
        <time>2011-06-26T08:34:07Z</time>
      </trkpt>
      <trkpt lat="48.00756" lon="-0.67077">
        <ele>62.213079</ele>
        <time>2011-06-26T08:34:09Z</time>
      </trkpt>
      <trkpt lat="48.00763" lon="-0.67084">
        <ele>62.396213</ele>
        <time>2011-06-26T08:34:10Z</time>
      </trkpt>
      <trkpt lat="48.00771" lon="-0.67091">
        <ele>62.574614</ele>
        <time>2011-06-26T08:34:13Z</time>
      </trkpt>
      <trkpt lat="48.00779" lon="-0.67099">
        <ele>62.819019</ele>
        <time>2011-06-26T08:34:16Z</time>
      </trkpt>
      <trkpt lat="48.00787" lon="-0.67106">
        <ele>63.12388</ele>
        <time>2011-06-26T08:34:19Z</time>
      </trkpt>
      <trkpt lat="48.00795" lon="-0.67113">
        <ele>63.468362</ele>
        <time>2011-06-26T08:34:22Z</time>
      </trkpt>
      <trkpt lat="48.00806" lon="-0.6712">
        <ele>63.835605</ele>
        <time>2011-06-26T08:34:25Z</time>
      </trkpt>
      <trkpt lat="48.00813" lon="-0.67125">
        <ele>64.207027</ele>
        <time>2011-06-26T08:34:27Z</time>
      </trkpt>
      <trkpt lat="48.00823" lon="-0.67134">
        <ele>64.579004</ele>
        <time>2011-06-26T08:34:30Z</time>
      </trkpt>
      <trkpt lat="48.0083" lon="-0.67139">
        <ele>64.955013</ele>
        <time>2011-06-26T08:34:32Z</time>
      </trkpt>
      <trkpt lat="48.0084" lon="-0.67148">
        <ele>65.325906</ele>
        <time>2011-06-26T08:34:35Z</time>
      </trkpt>
      <trkpt lat="48.00846" lon="-0.67154">
        <ele>65.692523</ele>
        <time>2011-06-26T08:34:37Z</time>
      </trkpt>
      <trkpt lat="48.00855" lon="-0.67162">
        <ele>66.068187</ele>
        <time>2011-06-26T08:34:40Z</time>
      </trkpt>
      <trkpt lat="48.0086" lon="-0.67165">
        <ele>66.469333</ele>
        <time>2011-06-26T08:34:42Z</time>
      </trkpt>
      <trkpt lat="48.00863" lon="-0.6716">
        <ele>66.896547</ele>
        <time>2011-06-26T08:34:47Z</time>
      </trkpt>
      <trkpt lat="48.00859" lon="-0.67153">
        <ele>67.348069</ele>
        <time>2011-06-26T08:34:50Z</time>
      </trkpt>
      <trkpt lat="48.00856" lon="-0.67147">
        <ele>67.81216</ele>
        <time>2011-06-26T08:34:52Z</time>
      </trkpt>
      <trkpt lat="48.00856" lon="-0.67134">
        <ele>68.328977</ele>
        <time>2011-06-26T08:34:55Z</time>
      </trkpt>
      <trkpt lat="48.00857" lon="-0.67126">
        <ele>68.938223</ele>
        <time>2011-06-26T08:34:57Z</time>
      </trkpt>
      <trkpt lat="48.00858" lon="-0.67116">
        <ele>69.555021</ele>
        <time>2011-06-26T08:35:00Z</time>
      </trkpt>
      <trkpt lat="48.00857" lon="-0.67107">
        <ele>70.074301</ele>
        <time>2011-06-26T08:35:03Z</time>
      </trkpt>
      <trkpt lat="48.00857" lon="-0.67107">
        <ele>70.463312</ele>
        <time>2011-06-26T08:35:05Z</time>
      </trkpt>
      <trkpt lat="48.00857" lon="-0.67107">
        <ele>70.676416</ele>
        <time>2011-06-26T08:35:31Z</time>
      </trkpt>
      <trkpt lat="48.00864" lon="-0.67127">
        <ele>70.770242</ele>
        <time>2011-06-26T08:38:34Z</time>
      </trkpt>
      <trkpt lat="48.00872" lon="-0.67135">
        <ele>70.927803</ele>
        <time>2011-06-26T08:38:37Z</time>
      </trkpt>
      <trkpt lat="48.00878" lon="-0.67143">
        <ele>71.251749</ele>
        <time>2011-06-26T08:38:39Z</time>
      </trkpt>
      <trkpt lat="48.00885" lon="-0.67151">
        <ele>72.914484</ele>
        <time>2011-06-26T08:38:41Z</time>
      </trkpt>
      <trkpt lat="48.00893" lon="-0.6716">
        <ele>76.553667</ele>
        <time>2011-06-26T08:38:43Z</time>
      </trkpt>
      <trkpt lat="48.00902" lon="-0.67167">
        <ele>80.36895</ele>
        <time>2011-06-26T08:38:45Z</time>
      </trkpt>
      <trkpt lat="48.00902" lon="-0.67167">
        <ele>82.588067</ele>
        <time>2011-06-26T08:38:47Z</time>
      </trkpt>
      <trkpt lat="48.00914" lon="-0.6718">
        <ele>83.58599</ele>
        <time>2011-06-26T08:38:48Z</time>
      </trkpt>
      <trkpt lat="48.00928" lon="-0.67192">
        <ele>84.270257</ele>
        <time>2011-06-26T08:38:51Z</time>
      </trkpt>
      <trkpt lat="48.00936" lon="-0.672">
        <ele>84.999087</ele>
        <time>2011-06-26T08:38:53Z</time>
      </trkpt>
      <trkpt lat="48.00944" lon="-0.67206">
        <ele>85.523637</ele>
        <time>2011-06-26T08:38:55Z</time>
      </trkpt>
      <trkpt lat="48.00954" lon="-0.67216">
        <ele>85.732811</ele>
        <time>2011-06-26T08:38:58Z</time>
      </trkpt>
      <trkpt lat="48.00965" lon="-0.67225">
        <ele>85.707421</ele>
        <time>2011-06-26T08:39:01Z</time>
      </trkpt>
      <trkpt lat="48.00973" lon="-0.6723">
        <ele>85.567174</ele>
        <time>2011-06-26T08:39:03Z</time>
      </trkpt>
      <trkpt lat="48.0098" lon="-0.67236">
        <ele>85.390436</ele>
        <time>2011-06-26T08:39:05Z</time>
      </trkpt>
      <trkpt lat="48.00994" lon="-0.67247">
        <ele>85.157332</ele>
        <time>2011-06-26T08:39:08Z</time>
      </trkpt>
      <trkpt lat="48.00994" lon="-0.67247">
        <ele>84.882878</ele>
        <time>2011-06-26T08:39:10Z</time>
      </trkpt>
      <trkpt lat="48.01009" lon="-0.67259">
        <ele>84.655097</ele>
        <time>2011-06-26T08:39:11Z</time>
      </trkpt>
      <trkpt lat="48.01023" lon="-0.67273">
        <ele>84.489924</ele>
        <time>2011-06-26T08:39:14Z</time>
      </trkpt>
      <trkpt lat="48.01037" lon="-0.67288">
        <ele>84.373799</ele>
        <time>2011-06-26T08:39:17Z</time>
      </trkpt>
      <trkpt lat="48.01048" lon="-0.67301">
        <ele>84.319897</ele>
        <time>2011-06-26T08:39:20Z</time>
      </trkpt>
      <trkpt lat="48.01048" lon="-0.67301">
        <ele>84.312451</ele>
        <time>2011-06-26T08:39:21Z</time>
      </trkpt>
      <trkpt lat="48.01059" lon="-0.67314">
        <ele>84.332301</ele>
        <time>2011-06-26T08:39:23Z</time>
      </trkpt>
      <trkpt lat="48.01066" lon="-0.67323">
        <ele>84.368043</ele>
        <time>2011-06-26T08:39:25Z</time>
      </trkpt>
      <trkpt lat="48.01077" lon="-0.67334">
        <ele>84.399355</ele>
        <time>2011-06-26T08:39:28Z</time>
      </trkpt>
      <trkpt lat="48.01088" lon="-0.67348">
        <ele>84.412717</ele>
        <time>2011-06-26T08:39:31Z</time>
      </trkpt>
      <trkpt lat="48.01094" lon="-0.6736">
        <ele>84.388277</ele>
        <time>2011-06-26T08:39:33Z</time>
      </trkpt>
      <trkpt lat="48.01103" lon="-0.67379">
        <ele>84.312548</ele>
        <time>2011-06-26T08:39:36Z</time>
      </trkpt>
      <trkpt lat="48.01112" lon="-0.67397">
        <ele>84.200704</ele>
        <time>2011-06-26T08:39:39Z</time>
      </trkpt>
      <trkpt lat="48.01118" lon="-0.67407">
        <ele>84.085969</ele>
        <time>2011-06-26T08:39:41Z</time>
      </trkpt>
      <trkpt lat="48.01118" lon="-0.67407">
        <ele>84.005415</ele>
        <time>2011-06-26T08:39:42Z</time>
      </trkpt>
      <trkpt lat="48.01123" lon="-0.67417">
        <ele>83.975128</ele>
        <time>2011-06-26T08:39:43Z</time>
      </trkpt>
      <trkpt lat="48.01131" lon="-0.67432">
        <ele>83.974007</ele>
        <time>2011-06-26T08:39:46Z</time>
      </trkpt>
      <trkpt lat="48.01138" lon="-0.67447">
        <ele>83.981794</ele>
        <time>2011-06-26T08:39:49Z</time>
      </trkpt>
      <trkpt lat="48.01142" lon="-0.67457">
        <ele>83.987969</ele>
        <time>2011-06-26T08:39:51Z</time>
      </trkpt>
      <trkpt lat="48.01144" lon="-0.67466">
        <ele>83.982161</ele>
        <time>2011-06-26T08:39:53Z</time>
      </trkpt>
      <trkpt lat="48.01146" lon="-0.67473">
        <ele>83.958179</ele>
        <time>2011-06-26T08:39:55Z</time>
      </trkpt>
      <trkpt lat="48.01146" lon="-0.67473">
        <ele>83.925174</ele>
        <time>2011-06-26T08:39:57Z</time>
      </trkpt>
      <trkpt lat="48.01141" lon="-0.67497">
        <ele>83.896361</ele>
        <time>2011-06-26T08:40:23Z</time>
      </trkpt>
      <trkpt lat="48.01141" lon="-0.67497">
        <ele>83.87711</ele>
        <time>2011-06-26T08:40:23Z</time>
      </trkpt>
      <trkpt lat="48.01139" lon="-0.67511">
        <ele>83.867221</ele>
        <time>2011-06-26T08:40:26Z</time>
      </trkpt>
      <trkpt lat="48.01136" lon="-0.67525">
        <ele>83.858886</ele>
        <time>2011-06-26T08:40:29Z</time>
      </trkpt>
      <trkpt lat="48.01135" lon="-0.67534">
        <ele>83.846555</ele>
        <time>2011-06-26T08:40:31Z</time>
      </trkpt>
      <trkpt lat="48.01135" lon="-0.67543">
        <ele>83.831346</ele>
        <time>2011-06-26T08:40:33Z</time>
      </trkpt>
      <trkpt lat="48.01134" lon="-0.67556">
        <ele>83.815927</ele>
        <time>2011-06-26T08:40:36Z</time>
      </trkpt>
      <trkpt lat="48.01132" lon="-0.6757">
        <ele>83.801756</ele>
        <time>2011-06-26T08:40:39Z</time>
      </trkpt>
      <trkpt lat="48.01132" lon="-0.6757">
        <ele>83.787394</ele>
        <time>2011-06-26T08:40:42Z</time>
      </trkpt>
      <trkpt lat="48.01132" lon="-0.6757">
        <ele>83.767478</ele>
        <time>2011-06-26T08:40:48Z</time>
      </trkpt>
      <trkpt lat="48.01132" lon="-0.6757">
        <ele>83.74141</ele>
        <time>2011-06-26T08:41:31Z</time>
      </trkpt>
      <trkpt lat="48.01126" lon="-0.676">
        <ele>83.717484</ele>
        <time>2011-06-26T08:51:33Z</time>
      </trkpt>
      <trkpt lat="48.01125" lon="-0.67609">
        <ele>83.70419</ele>
        <time>2011-06-26T08:51:36Z</time>
      </trkpt>
      <trkpt lat="48.01124" lon="-0.67618">
        <ele>83.70101</ele>
        <time>2011-06-26T08:51:38Z</time>
      </trkpt>
      <trkpt lat="48.01124" lon="-0.67631">
        <ele>83.902631</ele>
        <time>2011-06-26T08:51:41Z</time>
      </trkpt>
      <trkpt lat="48.01124" lon="-0.67631">
        <ele>84.426082</ele>
        <time>2011-06-26T08:51:42Z</time>
      </trkpt>
      <trkpt lat="48.01123" lon="-0.67644">
        <ele>84.9635</ele>
        <time>2011-06-26T08:51:44Z</time>
      </trkpt>
      <trkpt lat="48.01122" lon="-0.67664">
        <ele>85.220553</ele>
        <time>2011-06-26T08:51:47Z</time>
      </trkpt>
      <trkpt lat="48.01123" lon="-0.67676">
        <ele>85.262084</ele>
        <time>2011-06-26T08:51:49Z</time>
      </trkpt>
      <trkpt lat="48.01122" lon="-0.67695">
        <ele>85.226032</ele>
        <time>2011-06-26T08:51:52Z</time>
      </trkpt>
      <trkpt lat="48.0112" lon="-0.67713">
        <ele>85.197792</ele>
        <time>2011-06-26T08:51:55Z</time>
      </trkpt>
      <trkpt lat="48.01118" lon="-0.67725">
        <ele>85.192605</ele>
        <time>2011-06-26T08:51:57Z</time>
      </trkpt>
      <trkpt lat="48.01116" lon="-0.67737">
        <ele>85.196751</ele>
        <time>2011-06-26T08:51:59Z</time>
      </trkpt>
      <trkpt lat="48.01113" lon="-0.67756">
        <ele>85.175869</ele>
        <time>2011-06-26T08:52:02Z</time>
      </trkpt>
      <trkpt lat="48.01112" lon="-0.6777">
        <ele>85.096936</ele>
        <time>2011-06-26T08:52:04Z</time>
      </trkpt>
      <trkpt lat="48.01111" lon="-0.67793">
        <ele>84.952913</ele>
        <time>2011-06-26T08:52:07Z</time>
      </trkpt>
      <trkpt lat="48.01111" lon="-0.67807">
        <ele>84.683473</ele>
        <time>2011-06-26T08:52:09Z</time>
      </trkpt>
      <trkpt lat="48.0111" lon="-0.67822">
        <ele>84.248906</ele>
        <time>2011-06-26T08:52:11Z</time>
      </trkpt>
      <trkpt lat="48.0111" lon="-0.67837">
        <ele>83.744105</ele>
        <time>2011-06-26T08:52:13Z</time>
      </trkpt>
      <trkpt lat="48.0111" lon="-0.67861">
        <ele>83.289333</ele>
        <time>2011-06-26T08:52:16Z</time>
      </trkpt>
      <trkpt lat="48.01113" lon="-0.67885">
        <ele>82.927825</ele>
        <time>2011-06-26T08:52:19Z</time>
      </trkpt>
      <trkpt lat="48.01116" lon="-0.67899">
        <ele>82.65501</ele>
        <time>2011-06-26T08:52:21Z</time>
      </trkpt>
      <trkpt lat="48.01118" lon="-0.67918">
        <ele>82.461522</ele>
        <time>2011-06-26T08:52:24Z</time>
      </trkpt>
      <trkpt lat="48.01119" lon="-0.67932">
        <ele>82.357807</ele>
        <time>2011-06-26T08:52:26Z</time>
      </trkpt>
      <trkpt lat="48.0112" lon="-0.67954">
        <ele>82.304334</ele>
        <time>2011-06-26T08:52:29Z</time>
      </trkpt>
      <trkpt lat="48.01121" lon="-0.67976">
        <ele>82.2029</ele>
        <time>2011-06-26T08:52:32Z</time>
      </trkpt>
      <trkpt lat="48.01122" lon="-0.6799">
        <ele>82.033776</ele>
        <time>2011-06-26T08:52:34Z</time>
      </trkpt>
      <trkpt lat="48.01122" lon="-0.68003">
        <ele>81.887014</ele>
        <time>2011-06-26T08:52:36Z</time>
      </trkpt>
      <trkpt lat="48.01122" lon="-0.68003">
        <ele>81.814728</ele>
        <time>2011-06-26T08:52:37Z</time>
      </trkpt>
      <trkpt lat="48.01122" lon="-0.68016">
        <ele>81.789364</ele>
        <time>2011-06-26T08:52:38Z</time>
      </trkpt>
      <trkpt lat="48.01122" lon="-0.68036">
        <ele>81.783964</ele>
        <time>2011-06-26T08:52:41Z</time>
      </trkpt>
      <trkpt lat="48.01122" lon="-0.68049">
        <ele>81.787131</ele>
        <time>2011-06-26T08:52:43Z</time>
      </trkpt>
      <trkpt lat="48.0112" lon="-0.68072">
        <ele>81.811312</ele>
        <time>2011-06-26T08:52:46Z</time>
      </trkpt>
      <trkpt lat="48.01119" lon="-0.68086">
        <ele>81.899411</ele>
        <time>2011-06-26T08:52:48Z</time>
      </trkpt>
      <trkpt lat="48.01117" lon="-0.68108">
        <ele>82.084217</ele>
        <time>2011-06-26T08:52:51Z</time>
      </trkpt>
      <trkpt lat="48.01115" lon="-0.68129">
        <ele>82.406907</ele>
        <time>2011-06-26T08:52:54Z</time>
      </trkpt>
      <trkpt lat="48.01114" lon="-0.68143">
        <ele>82.860661</ele>
        <time>2011-06-26T08:52:56Z</time>
      </trkpt>
      <trkpt lat="48.01111" lon="-0.68164">
        <ele>83.337621</ele>
        <time>2011-06-26T08:52:59Z</time>
      </trkpt>
      <trkpt lat="48.01108" lon="-0.68185">
        <ele>83.768528</ele>
        <time>2011-06-26T08:53:02Z</time>
      </trkpt>
      <trkpt lat="48.01108" lon="-0.68185">
        <ele>84.124893</ele>
        <time>2011-06-26T08:53:05Z</time>
      </trkpt>
      <trkpt lat="48.01105" lon="-0.68205">
        <ele>84.348024</ele>
        <time>2011-06-26T08:53:05Z</time>
      </trkpt>
      <trkpt lat="48.01103" lon="-0.68218">
        <ele>84.440921</ele>
        <time>2011-06-26T08:53:07Z</time>
      </trkpt>
      <trkpt lat="48.01102" lon="-0.68231">
        <ele>84.461586</ele>
        <time>2011-06-26T08:53:09Z</time>
      </trkpt>
      <trkpt lat="48.01101" lon="-0.68253">
        <ele>84.4486</ele>
        <time>2011-06-26T08:53:12Z</time>
      </trkpt>
      <trkpt lat="48.011" lon="-0.68267">
        <ele>84.412378</ele>
        <time>2011-06-26T08:53:14Z</time>
      </trkpt>
      <trkpt lat="48.01098" lon="-0.68289">
        <ele>84.282802</ele>
        <time>2011-06-26T08:53:17Z</time>
      </trkpt>
      <trkpt lat="48.01098" lon="-0.68303">
        <ele>84.043818</ele>
        <time>2011-06-26T08:53:19Z</time>
      </trkpt>
      <trkpt lat="48.01097" lon="-0.68318">
        <ele>83.783435</ele>
        <time>2011-06-26T08:53:21Z</time>
      </trkpt>
      <trkpt lat="48.01097" lon="-0.68332">
        <ele>83.527029</ele>
        <time>2011-06-26T08:53:23Z</time>
      </trkpt>
      <trkpt lat="48.01097" lon="-0.68346">
        <ele>83.270237</ele>
        <time>2011-06-26T08:53:25Z</time>
      </trkpt>
      <trkpt lat="48.01096" lon="-0.68366">
        <ele>83.074212</ele>
        <time>2011-06-26T08:53:28Z</time>
      </trkpt>
      <trkpt lat="48.01095" lon="-0.68388">
        <ele>82.946043</ele>
        <time>2011-06-26T08:53:31Z</time>
      </trkpt>
      <trkpt lat="48.01094" lon="-0.6841">
        <ele>82.844105</ele>
        <time>2011-06-26T08:53:34Z</time>
      </trkpt>
      <trkpt lat="48.01092" lon="-0.68432">
        <ele>82.746289</ele>
        <time>2011-06-26T08:53:37Z</time>
      </trkpt>
      <trkpt lat="48.0109" lon="-0.68448">
        <ele>82.620894</ele>
        <time>2011-06-26T08:53:39Z</time>
      </trkpt>
      <trkpt lat="48.01089" lon="-0.68464">
        <ele>82.46557</ele>
        <time>2011-06-26T08:53:41Z</time>
      </trkpt>
      <trkpt lat="48.01088" lon="-0.68481">
        <ele>82.343598</ele>
        <time>2011-06-26T08:53:43Z</time>
      </trkpt>
      <trkpt lat="48.01088" lon="-0.68481">
        <ele>82.292072</ele>
        <time>2011-06-26T08:53:44Z</time>
      </trkpt>
      <trkpt lat="48.01086" lon="-0.68506">
        <ele>82.285689</ele>
        <time>2011-06-26T08:53:46Z</time>
      </trkpt>
      <trkpt lat="48.01082" lon="-0.68531">
        <ele>82.299221</ele>
        <time>2011-06-26T08:53:49Z</time>
      </trkpt>
      <trkpt lat="48.01078" lon="-0.68554">
        <ele>82.329382</ele>
        <time>2011-06-26T08:53:52Z</time>
      </trkpt>
      <trkpt lat="48.01074" lon="-0.68577">
        <ele>82.430284</ele>
        <time>2011-06-26T08:53:55Z</time>
      </trkpt>
      <trkpt lat="48.01072" lon="-0.68593">
        <ele>82.643666</ele>
        <time>2011-06-26T08:53:57Z</time>
      </trkpt>
      <trkpt lat="48.0107" lon="-0.68616">
        <ele>82.884054</ele>
        <time>2011-06-26T08:54:00Z</time>
      </trkpt>
      <trkpt lat="48.0107" lon="-0.68616">
        <ele>83.032093</ele>
        <time>2011-06-26T08:54:02Z</time>
      </trkpt>
      <trkpt lat="48.01067" lon="-0.68639">
        <ele>83.075026</ele>
        <time>2011-06-26T08:54:03Z</time>
      </trkpt>
      <trkpt lat="48.01065" lon="-0.68662">
        <ele>83.091395</ele>
        <time>2011-06-26T08:54:06Z</time>
      </trkpt>
      <trkpt lat="48.01063" lon="-0.68678">
        <ele>83.13987</ele>
        <time>2011-06-26T08:54:08Z</time>
      </trkpt>
      <trkpt lat="48.0106" lon="-0.68703">
        <ele>83.220494</ele>
        <time>2011-06-26T08:54:11Z</time>
      </trkpt>
      <trkpt lat="48.01059" lon="-0.68719">
        <ele>83.344813</ele>
        <time>2011-06-26T08:54:13Z</time>
      </trkpt>
      <trkpt lat="48.01057" lon="-0.68735">
        <ele>83.503538</ele>
        <time>2011-06-26T08:54:15Z</time>
      </trkpt>
      <trkpt lat="48.01054" lon="-0.68758">
        <ele>83.622799</ele>
        <time>2011-06-26T08:54:18Z</time>
      </trkpt>
      <trkpt lat="48.01051" lon="-0.68781">
        <ele>83.667255</ele>
        <time>2011-06-26T08:54:21Z</time>
      </trkpt>
      <trkpt lat="48.01051" lon="-0.68781">
        <ele>83.656818</ele>
        <time>2011-06-26T08:54:21Z</time>
      </trkpt>
      <trkpt lat="48.01049" lon="-0.68804">
        <ele>83.617986</ele>
        <time>2011-06-26T08:54:24Z</time>
      </trkpt>
      <trkpt lat="48.01046" lon="-0.68826">
        <ele>83.581872</ele>
        <time>2011-06-26T08:54:27Z</time>
      </trkpt>
      <trkpt lat="48.01044" lon="-0.68841">
        <ele>83.56578</ele>
        <time>2011-06-26T08:54:29Z</time>
      </trkpt>
      <trkpt lat="48.01042" lon="-0.68864">
        <ele>83.639342</ele>
        <time>2011-06-26T08:54:32Z</time>
      </trkpt>
      <trkpt lat="48.0104" lon="-0.68878">
        <ele>83.90442</ele>
        <time>2011-06-26T08:54:34Z</time>
      </trkpt>
      <trkpt lat="48.01037" lon="-0.68892">
        <ele>84.279587</ele>
        <time>2011-06-26T08:54:36Z</time>
      </trkpt>
      <trkpt lat="48.01035" lon="-0.68914">
        <ele>84.551715</ele>
        <time>2011-06-26T08:54:39Z</time>
      </trkpt>
      <trkpt lat="48.01034" lon="-0.68933">
        <ele>84.649453</ele>
        <time>2011-06-26T08:54:42Z</time>
      </trkpt>
      <trkpt lat="48.01033" lon="-0.68944">
        <ele>84.580379</ele>
        <time>2011-06-26T08:54:44Z</time>
      </trkpt>
      <trkpt lat="48.01031" lon="-0.68958">
        <ele>84.282268</ele>
        <time>2011-06-26T08:54:47Z</time>
      </trkpt>
      <trkpt lat="48.01032" lon="-0.68967">
        <ele>83.828368</ele>
        <time>2011-06-26T08:54:49Z</time>
      </trkpt>
      <trkpt lat="48.01031" lon="-0.68981">
        <ele>83.462728</ele>
        <time>2011-06-26T08:54:52Z</time>
      </trkpt>
      <trkpt lat="48.01029" lon="-0.68991">
        <ele>83.303214</ele>
        <time>2011-06-26T08:54:54Z</time>
      </trkpt>
      <trkpt lat="48.01026" lon="-0.6901">
        <ele>83.278244</ele>
        <time>2011-06-26T08:54:57Z</time>
      </trkpt>
      <trkpt lat="48.01024" lon="-0.69024">
        <ele>83.299106</ele>
        <time>2011-06-26T08:54:59Z</time>
      </trkpt>
      <trkpt lat="48.01019" lon="-0.69046">
        <ele>83.318636</ele>
        <time>2011-06-26T08:55:02Z</time>
      </trkpt>
      <trkpt lat="48.01015" lon="-0.69061">
        <ele>83.326748</ele>
        <time>2011-06-26T08:55:04Z</time>
      </trkpt>
      <trkpt lat="48.0101" lon="-0.69082">
        <ele>83.305297</ele>
        <time>2011-06-26T08:55:07Z</time>
      </trkpt>
      <trkpt lat="48.01005" lon="-0.69102">
        <ele>83.244542</ele>
        <time>2011-06-26T08:55:10Z</time>
      </trkpt>
      <trkpt lat="48.01" lon="-0.6912">
        <ele>83.172355</ele>
        <time>2011-06-26T08:55:13Z</time>
      </trkpt>
      <trkpt lat="48.00997" lon="-0.69132">
        <ele>83.114782</ele>
        <time>2011-06-26T08:55:15Z</time>
      </trkpt>
      <trkpt lat="48.00992" lon="-0.69151">
        <ele>83.029475</ele>
        <time>2011-06-26T08:55:18Z</time>
      </trkpt>
      <trkpt lat="48.00988" lon="-0.69171">
        <ele>82.821288</ele>
        <time>2011-06-26T08:55:21Z</time>
      </trkpt>
      <trkpt lat="48.00985" lon="-0.69183">
        <ele>82.470085</ele>
        <time>2011-06-26T08:55:23Z</time>
      </trkpt>
      <trkpt lat="48.00981" lon="-0.69203">
        <ele>82.042926</ele>
        <time>2011-06-26T08:55:26Z</time>
      </trkpt>
      <trkpt lat="48.00978" lon="-0.69215">
        <ele>81.57467</ele>
        <time>2011-06-26T08:55:28Z</time>
      </trkpt>
      <trkpt lat="48.00976" lon="-0.69226">
        <ele>81.097497</ele>
        <time>2011-06-26T08:55:30Z</time>
      </trkpt>
      <trkpt lat="48.00972" lon="-0.69245">
        <ele>80.719171</ele>
        <time>2011-06-26T08:55:33Z</time>
      </trkpt>
      <trkpt lat="48.00968" lon="-0.69258">
        <ele>80.525543</ele>
        <time>2011-06-26T08:55:35Z</time>
      </trkpt>
      <trkpt lat="48.00962" lon="-0.6928">
        <ele>80.487735</ele>
        <time>2011-06-26T08:55:38Z</time>
      </trkpt>
      <trkpt lat="48.00958" lon="-0.69295">
        <ele>80.555506</ele>
        <time>2011-06-26T08:55:40Z</time>
      </trkpt>
      <trkpt lat="48.00951" lon="-0.69315">
        <ele>80.77595</ele>
        <time>2011-06-26T08:55:43Z</time>
      </trkpt>
      <trkpt lat="48.00947" lon="-0.69328">
        <ele>81.271612</ele>
        <time>2011-06-26T08:55:45Z</time>
      </trkpt>
      <trkpt lat="48.00941" lon="-0.69346">
        <ele>81.951321</ele>
        <time>2011-06-26T08:55:48Z</time>
      </trkpt>
      <trkpt lat="48.00935" lon="-0.69365">
        <ele>82.476188</ele>
        <time>2011-06-26T08:55:51Z</time>
      </trkpt>
      <trkpt lat="48.00929" lon="-0.69386">
        <ele>82.677206</ele>
        <time>2011-06-26T08:55:54Z</time>
      </trkpt>
      <trkpt lat="48.00926" lon="-0.694">
        <ele>82.655425</ele>
        <time>2011-06-26T08:55:56Z</time>
      </trkpt>
      <trkpt lat="48.00921" lon="-0.69422">
        <ele>82.452256</ele>
        <time>2011-06-26T08:55:59Z</time>
      </trkpt>
      <trkpt lat="48.00918" lon="-0.69435">
        <ele>82.016357</ele>
        <time>2011-06-26T08:56:01Z</time>
      </trkpt>
      <trkpt lat="48.00912" lon="-0.69457">
        <ele>81.405806</ele>
        <time>2011-06-26T08:56:04Z</time>
      </trkpt>
      <trkpt lat="48.00908" lon="-0.69472">
        <ele>80.756404</ele>
        <time>2011-06-26T08:56:06Z</time>
      </trkpt>
      <trkpt lat="48.00902" lon="-0.69494">
        <ele>80.15644</ele>
        <time>2011-06-26T08:56:09Z</time>
      </trkpt>
      <trkpt lat="48.00897" lon="-0.69511">
        <ele>79.691816</ele>
        <time>2011-06-26T08:56:11Z</time>
      </trkpt>
      <trkpt lat="48.00891" lon="-0.69535">
        <ele>79.37971</ele>
        <time>2011-06-26T08:56:14Z</time>
      </trkpt>
      <trkpt lat="48.00883" lon="-0.6956">
        <ele>79.124257</ele>
        <time>2011-06-26T08:56:17Z</time>
      </trkpt>
      <trkpt lat="48.00878" lon="-0.69578">
        <ele>78.902635</ele>
        <time>2011-06-26T08:56:19Z</time>
      </trkpt>
      <trkpt lat="48.00869" lon="-0.69603">
        <ele>78.71707</ele>
        <time>2011-06-26T08:56:22Z</time>
      </trkpt>
      <trkpt lat="48.00863" lon="-0.69621">
        <ele>78.386958</ele>
        <time>2011-06-26T08:56:24Z</time>
      </trkpt>
      <trkpt lat="48.00858" lon="-0.69638">
        <ele>77.778079</ele>
        <time>2011-06-26T08:56:26Z</time>
      </trkpt>
      <trkpt lat="48.00851" lon="-0.69665">
        <ele>77.056545</ele>
        <time>2011-06-26T08:56:29Z</time>
      </trkpt>
      <trkpt lat="48.00846" lon="-0.69692">
        <ele>76.402734</ele>
        <time>2011-06-26T08:56:32Z</time>
      </trkpt>
      <trkpt lat="48.00844" lon="-0.69718">
        <ele>75.814082</ele>
        <time>2011-06-26T08:56:35Z</time>
      </trkpt>
      <trkpt lat="48.00846" lon="-0.69737">
        <ele>75.270352</ele>
        <time>2011-06-26T08:56:37Z</time>
      </trkpt>
      <trkpt lat="48.0085" lon="-0.69763">
        <ele>74.836586</ele>
        <time>2011-06-26T08:56:40Z</time>
      </trkpt>
      <trkpt lat="48.00854" lon="-0.69778">
        <ele>74.598484</ele>
        <time>2011-06-26T08:56:42Z</time>
      </trkpt>
      <trkpt lat="48.0086" lon="-0.69793">
        <ele>74.540613</ele>
        <time>2011-06-26T08:56:44Z</time>
      </trkpt>
      <trkpt lat="48.00867" lon="-0.69814">
        <ele>74.535502</ele>
        <time>2011-06-26T08:56:47Z</time>
      </trkpt>
      <trkpt lat="48.00871" lon="-0.69829">
        <ele>74.497171</ele>
        <time>2011-06-26T08:56:49Z</time>
      </trkpt>
      <trkpt lat="48.00878" lon="-0.69853">
        <ele>74.442717</ele>
        <time>2011-06-26T08:56:52Z</time>
      </trkpt>
      <trkpt lat="48.00882" lon="-0.69869">
        <ele>74.412691</ele>
        <time>2011-06-26T08:56:54Z</time>
      </trkpt>
      <trkpt lat="48.00882" lon="-0.69869">
        <ele>74.393396</ele>
        <time>2011-06-26T08:56:55Z</time>
      </trkpt>
      <trkpt lat="48.00891" lon="-0.69892">
        <ele>74.361508</ele>
        <time>2011-06-26T08:56:57Z</time>
      </trkpt>
      <trkpt lat="48.00897" lon="-0.69907">
        <ele>74.296692</ele>
        <time>2011-06-26T08:56:59Z</time>
      </trkpt>
      <trkpt lat="48.00907" lon="-0.69932">
        <ele>74.173245</ele>
        <time>2011-06-26T08:57:02Z</time>
      </trkpt>
      <trkpt lat="48.00918" lon="-0.69965">
        <ele>73.858429</ele>
        <time>2011-06-26T08:57:05Z</time>
      </trkpt>
      <trkpt lat="48.00928" lon="-0.70002">
        <ele>73.179822</ele>
        <time>2011-06-26T08:57:08Z</time>
      </trkpt>
      <trkpt lat="48.00934" lon="-0.70025">
        <ele>72.165541</ele>
        <time>2011-06-26T08:57:10Z</time>
      </trkpt>
      <trkpt lat="48.00934" lon="-0.70025">
        <ele>71.163939</ele>
        <time>2011-06-26T08:57:10Z</time>
      </trkpt>
      <trkpt lat="48.00942" lon="-0.70058">
        <ele>70.541858</ele>
        <time>2011-06-26T08:57:13Z</time>
      </trkpt>
      <trkpt lat="48.00948" lon="-0.70079">
        <ele>70.302113</ele>
        <time>2011-06-26T08:57:15Z</time>
      </trkpt>
      <trkpt lat="48.00958" lon="-0.70107">
        <ele>70.210311</ele>
        <time>2011-06-26T08:57:18Z</time>
      </trkpt>
      <trkpt lat="48.00966" lon="-0.70122">
        <ele>70.16555</ele>
        <time>2011-06-26T08:57:20Z</time>
      </trkpt>
      <trkpt lat="48.00979" lon="-0.70144">
        <ele>70.176004</ele>
        <time>2011-06-26T08:57:23Z</time>
      </trkpt>
      <trkpt lat="48.00988" lon="-0.70159">
        <ele>70.234723</ele>
        <time>2011-06-26T08:57:25Z</time>
      </trkpt>
      <trkpt lat="48.00988" lon="-0.70159">
        <ele>70.297979</ele>
        <time>2011-06-26T08:57:28Z</time>
      </trkpt>
      <trkpt lat="48.01002" lon="-0.70182">
        <ele>70.329528</ele>
        <time>2011-06-26T08:57:28Z</time>
      </trkpt>
      <trkpt lat="48.01016" lon="-0.70203">
        <ele>70.373921</ele>
        <time>2011-06-26T08:57:31Z</time>
      </trkpt>
      <trkpt lat="48.01032" lon="-0.70223">
        <ele>70.515711</ele>
        <time>2011-06-26T08:57:34Z</time>
      </trkpt>
      <trkpt lat="48.01043" lon="-0.70238">
        <ele>70.734135</ele>
        <time>2011-06-26T08:57:36Z</time>
      </trkpt>
      <trkpt lat="48.01059" lon="-0.7026">
        <ele>70.906501</ele>
        <time>2011-06-26T08:57:39Z</time>
      </trkpt>
      <trkpt lat="48.0107" lon="-0.70275">
        <ele>70.966256</ele>
        <time>2011-06-26T08:57:41Z</time>
      </trkpt>
      <trkpt lat="48.01085" lon="-0.70298">
        <ele>70.947955</ele>
        <time>2011-06-26T08:57:44Z</time>
      </trkpt>
      <trkpt lat="48.01095" lon="-0.70314">
        <ele>70.873813</ele>
        <time>2011-06-26T08:57:46Z</time>
      </trkpt>
      <trkpt lat="48.01105" lon="-0.7033">
        <ele>70.738988</ele>
        <time>2011-06-26T08:57:48Z</time>
      </trkpt>
      <trkpt lat="48.01122" lon="-0.70353">
        <ele>70.563996</ele>
        <time>2011-06-26T08:57:51Z</time>
      </trkpt>
      <trkpt lat="48.01133" lon="-0.70367">
        <ele>70.384392</ele>
        <time>2011-06-26T08:57:53Z</time>
      </trkpt>
      <trkpt lat="48.0115" lon="-0.70392">
        <ele>70.234565</ele>
        <time>2011-06-26T08:57:56Z</time>
      </trkpt>
      <trkpt lat="48.01162" lon="-0.70412">
        <ele>70.151941</ele>
        <time>2011-06-26T08:57:58Z</time>
      </trkpt>
      <trkpt lat="48.01185" lon="-0.70435">
        <ele>70.111377</ele>
        <time>2011-06-26T08:58:01Z</time>
      </trkpt>
      <trkpt lat="48.0121" lon="-0.70464">
        <ele>70.052696</ele>
        <time>2011-06-26T08:58:04Z</time>
      </trkpt>
      <trkpt lat="48.01233" lon="-0.70491">
        <ele>69.95275</ele>
        <time>2011-06-26T08:58:07Z</time>
      </trkpt>
      <trkpt lat="48.01252" lon="-0.70514">
        <ele>69.800987</ele>
        <time>2011-06-26T08:58:10Z</time>
      </trkpt>
      <trkpt lat="48.01271" lon="-0.70536">
        <ele>69.174807</ele>
        <time>2011-06-26T08:58:13Z</time>
      </trkpt>
      <trkpt lat="48.01288" lon="-0.70556">
        <ele>67.636242</ele>
        <time>2011-06-26T08:58:16Z</time>
      </trkpt>
      <trkpt lat="48.01299" lon="-0.70571">
        <ele>65.619442</ele>
        <time>2011-06-26T08:58:18Z</time>
      </trkpt>
      <trkpt lat="48.0131" lon="-0.70585">
        <ele>64.021312</ele>
        <time>2011-06-26T08:58:20Z</time>
      </trkpt>
      <trkpt lat="48.01322" lon="-0.70598">
        <ele>63.208922</ele>
        <time>2011-06-26T08:58:22Z</time>
      </trkpt>
      <trkpt lat="48.01343" lon="-0.70608">
        <ele>63.008336</ele>
        <time>2011-06-26T08:58:25Z</time>
      </trkpt>
      <trkpt lat="48.01366" lon="-0.70612">
        <ele>63.068351</ele>
        <time>2011-06-26T08:58:28Z</time>
      </trkpt>
      <trkpt lat="48.01391" lon="-0.70604">
        <ele>63.165183</ele>
        <time>2011-06-26T08:58:31Z</time>
      </trkpt>
      <trkpt lat="48.01415" lon="-0.70588">
        <ele>63.220898</ele>
        <time>2011-06-26T08:58:34Z</time>
      </trkpt>
      <trkpt lat="48.01428" lon="-0.70578">
        <ele>63.228476</ele>
        <time>2011-06-26T08:58:36Z</time>
      </trkpt>
      <trkpt lat="48.01428" lon="-0.70578">
        <ele>63.203955</ele>
        <time>2011-06-26T08:58:36Z</time>
      </trkpt>
      <trkpt lat="48.01445" lon="-0.70562">
        <ele>63.151205</ele>
        <time>2011-06-26T08:58:39Z</time>
      </trkpt>
      <trkpt lat="48.01456" lon="-0.70552">
        <ele>63.003303</ele>
        <time>2011-06-26T08:58:41Z</time>
      </trkpt>
      <trkpt lat="48.0147" lon="-0.70539">
        <ele>62.705941</ele>
        <time>2011-06-26T08:58:44Z</time>
      </trkpt>
      <trkpt lat="48.01478" lon="-0.70532">
        <ele>62.28564</ele>
        <time>2011-06-26T08:58:46Z</time>
      </trkpt>
      <trkpt lat="48.01485" lon="-0.70524">
        <ele>61.854894</ele>
        <time>2011-06-26T08:58:48Z</time>
      </trkpt>
      <trkpt lat="48.01495" lon="-0.70515">
        <ele>61.567147</ele>
        <time>2011-06-26T08:58:51Z</time>
      </trkpt>
      <trkpt lat="48.01503" lon="-0.70507">
        <ele>61.473501</ele>
        <time>2011-06-26T08:58:54Z</time>
      </trkpt>
      <trkpt lat="48.01503" lon="-0.70507">
        <ele>61.465354</ele>
        <time>2011-06-26T08:58:55Z</time>
      </trkpt>
      <trkpt lat="48.01508" lon="-0.70501">
        <ele>61.481307</ele>
        <time>2011-06-26T08:58:56Z</time>
      </trkpt>
      <trkpt lat="48.01513" lon="-0.70496">
        <ele>61.538938</ele>
        <time>2011-06-26T08:58:58Z</time>
      </trkpt>
      <trkpt lat="48.0152" lon="-0.70486">
        <ele>61.618609</ele>
        <time>2011-06-26T08:59:01Z</time>
      </trkpt>
      <trkpt lat="48.01528" lon="-0.70477">
        <ele>61.672926</ele>
        <time>2011-06-26T08:59:04Z</time>
      </trkpt>
      <trkpt lat="48.01534" lon="-0.70472">
        <ele>61.700313</ele>
        <time>2011-06-26T08:59:06Z</time>
      </trkpt>
      <trkpt lat="48.0154" lon="-0.70467">
        <ele>61.711103</ele>
        <time>2011-06-26T08:59:08Z</time>
      </trkpt>
      <trkpt lat="48.0154" lon="-0.70467">
        <ele>61.713494</ele>
        <time>2011-06-26T08:59:10Z</time>
      </trkpt>
      <trkpt lat="48.01561" lon="-0.7045">
        <ele>61.7171</ele>
        <time>2011-06-26T08:59:18Z</time>
      </trkpt>
      <trkpt lat="48.01569" lon="-0.70443">
        <ele>61.729841</ele>
        <time>2011-06-26T08:59:22Z</time>
      </trkpt>
      <trkpt lat="48.01585" lon="-0.7043">
        <ele>61.748275</ele>
        <time>2011-06-26T08:59:30Z</time>
      </trkpt>
      <trkpt lat="48.01585" lon="-0.7043">
        <ele>61.761662</ele>
        <time>2011-06-26T08:59:33Z</time>
      </trkpt>
      <trkpt lat="48.01603" lon="-0.70419">
        <ele>61.808848</ele>
        <time>2011-06-26T08:59:37Z</time>
      </trkpt>
      <trkpt lat="48.01603" lon="-0.70419">
        <ele>61.918961</ele>
        <time>2011-06-26T08:59:38Z</time>
      </trkpt>
      <trkpt lat="48.01612" lon="-0.70411">
        <ele>62.054319</ele>
        <time>2011-06-26T08:59:41Z</time>
      </trkpt>
      <trkpt lat="48.01629" lon="-0.70398">
        <ele>62.211393</ele>
        <time>2011-06-26T08:59:49Z</time>
      </trkpt>
      <trkpt lat="48.0164" lon="-0.70391">
        <ele>62.453669</ele>
        <time>2011-06-26T08:59:53Z</time>
      </trkpt>
      <trkpt lat="48.01649" lon="-0.70382">
        <ele>62.842535</ele>
        <time>2011-06-26T08:59:57Z</time>
      </trkpt>
      <trkpt lat="48.01649" lon="-0.70382">
        <ele>63.307143</ele>
        <time>2011-06-26T08:59:57Z</time>
      </trkpt>
      <trkpt lat="48.01659" lon="-0.70374">
        <ele>63.913673</ele>
        <time>2011-06-26T09:00:01Z</time>
      </trkpt>
      <trkpt lat="48.01667" lon="-0.70367">
        <ele>64.849036</ele>
        <time>2011-06-26T09:00:05Z</time>
      </trkpt>
      <trkpt lat="48.01676" lon="-0.70363">
        <ele>65.953699</ele>
        <time>2011-06-26T09:00:09Z</time>
      </trkpt>
      <trkpt lat="48.01686" lon="-0.70361">
        <ele>66.908337</ele>
        <time>2011-06-26T09:00:12Z</time>
      </trkpt>
      <trkpt lat="48.01696" lon="-0.70359">
        <ele>67.695499</ele>
        <time>2011-06-26T09:00:15Z</time>
      </trkpt>
      <trkpt lat="48.01705" lon="-0.70357">
        <ele>68.416776</ele>
        <time>2011-06-26T09:00:18Z</time>
      </trkpt>
      <trkpt lat="48.01711" lon="-0.70356">
        <ele>69.126631</ele>
        <time>2011-06-26T09:00:20Z</time>
      </trkpt>
      <trkpt lat="48.0172" lon="-0.70356">
        <ele>69.804611</ele>
        <time>2011-06-26T09:00:23Z</time>
      </trkpt>
      <trkpt lat="48.01725" lon="-0.70357">
        <ele>70.43112</ele>
        <time>2011-06-26T09:00:25Z</time>
      </trkpt>
      <trkpt lat="48.01731" lon="-0.70357">
        <ele>70.993058</ele>
        <time>2011-06-26T09:00:27Z</time>
      </trkpt>
      <trkpt lat="48.01739" lon="-0.70357">
        <ele>71.496877</ele>
        <time>2011-06-26T09:00:30Z</time>
      </trkpt>
      <trkpt lat="48.01748" lon="-0.70358">
        <ele>71.97375</ele>
        <time>2011-06-26T09:00:33Z</time>
      </trkpt>
      <trkpt lat="48.01754" lon="-0.70358">
        <ele>72.422772</ele>
        <time>2011-06-26T09:00:35Z</time>
      </trkpt>
      <trkpt lat="48.01763" lon="-0.70358">
        <ele>72.855859</ele>
        <time>2011-06-26T09:00:38Z</time>
      </trkpt>
      <trkpt lat="48.01769" lon="-0.70358">
        <ele>73.329809</ele>
        <time>2011-06-26T09:00:40Z</time>
      </trkpt>
      <trkpt lat="48.01778" lon="-0.70357">
        <ele>73.833333</ele>
        <time>2011-06-26T09:00:43Z</time>
      </trkpt>
      <trkpt lat="48.01784" lon="-0.70358">
        <ele>74.319492</ele>
        <time>2011-06-26T09:00:45Z</time>
      </trkpt>
      <trkpt lat="48.01792" lon="-0.70358">
        <ele>74.775617</ele>
        <time>2011-06-26T09:00:48Z</time>
      </trkpt>
      <trkpt lat="48.01797" lon="-0.70358">
        <ele>75.208746</ele>
        <time>2011-06-26T09:00:50Z</time>
      </trkpt>
      <trkpt lat="48.01805" lon="-0.70358">
        <ele>75.618624</ele>
        <time>2011-06-26T09:00:53Z</time>
      </trkpt>
      <trkpt lat="48.01812" lon="-0.70358">
        <ele>76.01227</ele>
        <time>2011-06-26T09:00:56Z</time>
      </trkpt>
      <trkpt lat="48.01818" lon="-0.70358">
        <ele>76.393251</ele>
        <time>2011-06-26T09:00:58Z</time>
      </trkpt>
      <trkpt lat="48.01826" lon="-0.70357">
        <ele>76.773092</ele>
        <time>2011-06-26T09:01:01Z</time>
      </trkpt>
      <trkpt lat="48.01833" lon="-0.70357">
        <ele>77.17371</ele>
        <time>2011-06-26T09:01:04Z</time>
      </trkpt>
      <trkpt lat="48.01841" lon="-0.70357">
        <ele>77.587716</ele>
        <time>2011-06-26T09:01:08Z</time>
      </trkpt>
      <trkpt lat="48.01848" lon="-0.70357">
        <ele>77.982328</ele>
        <time>2011-06-26T09:01:11Z</time>
      </trkpt>
      <trkpt lat="48.01853" lon="-0.70357">
        <ele>78.367779</ele>
        <time>2011-06-26T09:01:13Z</time>
      </trkpt>
      <trkpt lat="48.01858" lon="-0.70357">
        <ele>78.779744</ele>
        <time>2011-06-26T09:01:15Z</time>
      </trkpt>
      <trkpt lat="48.01865" lon="-0.70357">
        <ele>79.218256</ele>
        <time>2011-06-26T09:01:18Z</time>
      </trkpt>
      <trkpt lat="48.01872" lon="-0.70357">
        <ele>79.630196</ele>
        <time>2011-06-26T09:01:21Z</time>
      </trkpt>
      <trkpt lat="48.01879" lon="-0.70356">
        <ele>79.961279</ele>
        <time>2011-06-26T09:01:24Z</time>
      </trkpt>
      <trkpt lat="48.01887" lon="-0.70356">
        <ele>80.228953</ele>
        <time>2011-06-26T09:01:27Z</time>
      </trkpt>
      <trkpt lat="48.01894" lon="-0.70357">
        <ele>80.488465</ele>
        <time>2011-06-26T09:01:30Z</time>
      </trkpt>
      <trkpt lat="48.01902" lon="-0.70357">
        <ele>80.765698</ele>
        <time>2011-06-26T09:01:33Z</time>
      </trkpt>
      <trkpt lat="48.01911" lon="-0.70358">
        <ele>81.055778</ele>
        <time>2011-06-26T09:01:36Z</time>
      </trkpt>
      <trkpt lat="48.0192" lon="-0.70358">
        <ele>81.352522</ele>
        <time>2011-06-26T09:01:39Z</time>
      </trkpt>
      <trkpt lat="48.01927" lon="-0.70359">
        <ele>81.655419</ele>
        <time>2011-06-26T09:01:41Z</time>
      </trkpt>
      <trkpt lat="48.01934" lon="-0.70359">
        <ele>81.973832</ele>
        <time>2011-06-26T09:01:43Z</time>
      </trkpt>
      <trkpt lat="48.0194" lon="-0.70359">
        <ele>82.324625</ele>
        <time>2011-06-26T09:01:45Z</time>
      </trkpt>
      <trkpt lat="48.01951" lon="-0.7036">
        <ele>82.690475</ele>
        <time>2011-06-26T09:01:48Z</time>
      </trkpt>
      <trkpt lat="48.01951" lon="-0.7036">
        <ele>82.98685</ele>
        <time>2011-06-26T09:01:48Z</time>
      </trkpt>
      <trkpt lat="48.01962" lon="-0.70361">
        <ele>83.167892</ele>
        <time>2011-06-26T09:01:51Z</time>
      </trkpt>
      <trkpt lat="48.01973" lon="-0.70361">
        <ele>83.294999</ele>
        <time>2011-06-26T09:01:54Z</time>
      </trkpt>
      <trkpt lat="48.01983" lon="-0.70362">
        <ele>83.439862</ele>
        <time>2011-06-26T09:01:57Z</time>
      </trkpt>
      <trkpt lat="48.01991" lon="-0.70362">
        <ele>83.62623</ele>
        <time>2011-06-26T09:01:59Z</time>
      </trkpt>
      <trkpt lat="48.02004" lon="-0.70362">
        <ele>83.855807</ele>
        <time>2011-06-26T09:02:02Z</time>
      </trkpt>
      <trkpt lat="48.02013" lon="-0.70362">
        <ele>84.108952</ele>
        <time>2011-06-26T09:02:04Z</time>
      </trkpt>
      <trkpt lat="48.02026" lon="-0.70362">
        <ele>84.347486</ele>
        <time>2011-06-26T09:02:07Z</time>
      </trkpt>
      <trkpt lat="48.02039" lon="-0.70361">
        <ele>84.541496</ele>
        <time>2011-06-26T09:02:10Z</time>
      </trkpt>
      <trkpt lat="48.02051" lon="-0.70361">
        <ele>84.780706</ele>
        <time>2011-06-26T09:02:13Z</time>
      </trkpt>
      <trkpt lat="48.02062" lon="-0.70362">
        <ele>85.211237</ele>
        <time>2011-06-26T09:02:16Z</time>
      </trkpt>
      <trkpt lat="48.02074" lon="-0.70362">
        <ele>85.791758</ele>
        <time>2011-06-26T09:02:19Z</time>
      </trkpt>
      <trkpt lat="48.02082" lon="-0.70363">
        <ele>86.314094</ele>
        <time>2011-06-26T09:02:21Z</time>
      </trkpt>
      <trkpt lat="48.02094" lon="-0.70363">
        <ele>86.637324</ele>
        <time>2011-06-26T09:02:24Z</time>
      </trkpt>
      <trkpt lat="48.02107" lon="-0.70363">
        <ele>86.762926</ele>
        <time>2011-06-26T09:02:27Z</time>
      </trkpt>
      <trkpt lat="48.02119" lon="-0.70363">
        <ele>86.774233</ele>
        <time>2011-06-26T09:02:30Z</time>
      </trkpt>
      <trkpt lat="48.02133" lon="-0.70363">
        <ele>86.751462</ele>
        <time>2011-06-26T09:02:33Z</time>
      </trkpt>
      <trkpt lat="48.02146" lon="-0.70364">
        <ele>86.738467</ele>
        <time>2011-06-26T09:02:36Z</time>
      </trkpt>
      <trkpt lat="48.02154" lon="-0.70365">
        <ele>86.748564</ele>
        <time>2011-06-26T09:02:38Z</time>
      </trkpt>
      <trkpt lat="48.02166" lon="-0.70366">
        <ele>86.842717</ele>
        <time>2011-06-26T09:02:41Z</time>
      </trkpt>
      <trkpt lat="48.02174" lon="-0.70366">
        <ele>87.075719</ele>
        <time>2011-06-26T09:02:43Z</time>
      </trkpt>
      <trkpt lat="48.02182" lon="-0.70365">
        <ele>87.352918</ele>
        <time>2011-06-26T09:02:45Z</time>
      </trkpt>
      <trkpt lat="48.02194" lon="-0.70366">
        <ele>87.537971</ele>
        <time>2011-06-26T09:02:48Z</time>
      </trkpt>
      <trkpt lat="48.02202" lon="-0.70366">
        <ele>87.622158</ele>
        <time>2011-06-26T09:02:50Z</time>
      </trkpt>
      <trkpt lat="48.02209" lon="-0.70366">
        <ele>87.661305</ele>
        <time>2011-06-26T09:02:52Z</time>
      </trkpt>
      <trkpt lat="48.02221" lon="-0.70365">
        <ele>87.824638</ele>
        <time>2011-06-26T09:02:55Z</time>
      </trkpt>
      <trkpt lat="48.0223" lon="-0.70366">
        <ele>88.252834</ele>
        <time>2011-06-26T09:02:57Z</time>
      </trkpt>
      <trkpt lat="48.02238" lon="-0.70367">
        <ele>88.803094</ele>
        <time>2011-06-26T09:02:59Z</time>
      </trkpt>
      <trkpt lat="48.02247" lon="-0.70368">
        <ele>89.264626</ele>
        <time>2011-06-26T09:03:01Z</time>
      </trkpt>
      <trkpt lat="48.02258" lon="-0.70372">
        <ele>89.597236</ele>
        <time>2011-06-26T09:03:04Z</time>
      </trkpt>
      <trkpt lat="48.02261" lon="-0.70377">
        <ele>89.793181</ele>
        <time>2011-06-26T09:03:06Z</time>
      </trkpt>
      <trkpt lat="48.02261" lon="-0.70377">
        <ele>89.859039</ele>
        <time>2011-06-26T09:03:14Z</time>
      </trkpt>
      <trkpt lat="48.02261" lon="-0.70377">
        <ele>89.852734</ele>
        <time>2011-06-26T09:03:43Z</time>
      </trkpt>
      <trkpt lat="48.02263" lon="-0.70404">
        <ele>89.829227</ele>
        <time>2011-06-26T09:03:43Z</time>
      </trkpt>
      <trkpt lat="48.02264" lon="-0.70423">
        <ele>89.813348</ele>
        <time>2011-06-26T09:03:46Z</time>
      </trkpt>
      <trkpt lat="48.02263" lon="-0.70438">
        <ele>89.808105</ele>
        <time>2011-06-26T09:03:49Z</time>
      </trkpt>
      <trkpt lat="48.02263" lon="-0.70438">
        <ele>89.806972</ele>
        <time>2011-06-26T09:03:58Z</time>
      </trkpt>
      <trkpt lat="48.02263" lon="-0.70438">
        <ele>89.798357</ele>
        <time>2011-06-26T09:04:21Z</time>
      </trkpt>
      <trkpt lat="48.02273" lon="-0.70426">
        <ele>90.102756</ele>
        <time>2011-06-26T09:04:28Z</time>
      </trkpt>
      <trkpt lat="48.02278" lon="-0.70423">
        <ele>91.037019</ele>
        <time>2011-06-26T09:04:30Z</time>
      </trkpt>
      <trkpt lat="48.02278" lon="-0.70423">
        <ele>92.17943</ele>
        <time>2011-06-26T09:04:32Z</time>
      </trkpt>
      <trkpt lat="48.02286" lon="-0.70419">
        <ele>92.876015</ele>
        <time>2011-06-26T09:04:33Z</time>
      </trkpt>
      <trkpt lat="48.02296" lon="-0.70415">
        <ele>93.051361</ele>
        <time>2011-06-26T09:04:36Z</time>
      </trkpt>
      <trkpt lat="48.02303" lon="-0.70414">
        <ele>92.956535</ele>
        <time>2011-06-26T09:04:38Z</time>
      </trkpt>
      <trkpt lat="48.0231" lon="-0.70411">
        <ele>92.823223</ele>
        <time>2011-06-26T09:04:40Z</time>
      </trkpt>
      <trkpt lat="48.02321" lon="-0.70409">
        <ele>92.745171</ele>
        <time>2011-06-26T09:04:43Z</time>
      </trkpt>
      <trkpt lat="48.02332" lon="-0.70404">
        <ele>92.704375</ele>
        <time>2011-06-26T09:04:46Z</time>
      </trkpt>
      <trkpt lat="48.02344" lon="-0.704">
        <ele>92.670458</ele>
        <time>2011-06-26T09:04:49Z</time>
      </trkpt>
      <trkpt lat="48.02358" lon="-0.70395">
        <ele>92.635322</ele>
        <time>2011-06-26T09:04:52Z</time>
      </trkpt>
      <trkpt lat="48.02368" lon="-0.70393">
        <ele>92.599843</ele>
        <time>2011-06-26T09:04:54Z</time>
      </trkpt>
      <trkpt lat="48.02384" lon="-0.70388">
        <ele>92.571028</ele>
        <time>2011-06-26T09:04:57Z</time>
      </trkpt>
      <trkpt lat="48.02393" lon="-0.70384">
        <ele>92.555575</ele>
        <time>2011-06-26T09:04:59Z</time>
      </trkpt>
      <trkpt lat="48.024" lon="-0.70379">
        <ele>92.543374</ele>
        <time>2011-06-26T09:05:01Z</time>
      </trkpt>
      <trkpt lat="48.02403" lon="-0.70369">
        <ele>92.51347</ele>
        <time>2011-06-26T09:05:04Z</time>
      </trkpt>
      <trkpt lat="48.02403" lon="-0.70362">
        <ele>92.462728</ele>
        <time>2011-06-26T09:05:07Z</time>
      </trkpt>
      <trkpt lat="48.02401" lon="-0.70355">
        <ele>92.417437</ele>
        <time>2011-06-26T09:05:10Z</time>
      </trkpt>
      <trkpt lat="48.02397" lon="-0.70344">
        <ele>92.389178</ele>
        <time>2011-06-26T09:05:13Z</time>
      </trkpt>
      <trkpt lat="48.02391" lon="-0.70334">
        <ele>92.352266</ele>
        <time>2011-06-26T09:05:16Z</time>
      </trkpt>
      <trkpt lat="48.02386" lon="-0.70328">
        <ele>92.27428</ele>
        <time>2011-06-26T09:05:18Z</time>
      </trkpt>
      <trkpt lat="48.02381" lon="-0.70322">
        <ele>92.139488</ele>
        <time>2011-06-26T09:05:20Z</time>
      </trkpt>
      <trkpt lat="48.02372" lon="-0.70315">
        <ele>91.937455</ele>
        <time>2011-06-26T09:05:23Z</time>
      </trkpt>
      <trkpt lat="48.02361" lon="-0.70307">
        <ele>91.673698</ele>
        <time>2011-06-26T09:05:26Z</time>
      </trkpt>
      <trkpt lat="48.02349" lon="-0.703">
        <ele>91.38547</ele>
        <time>2011-06-26T09:05:29Z</time>
      </trkpt>
      <trkpt lat="48.02339" lon="-0.70291">
        <ele>91.094164</ele>
        <time>2011-06-26T09:05:32Z</time>
      </trkpt>
      <trkpt lat="48.02334" lon="-0.70283">
        <ele>90.78045</ele>
        <time>2011-06-26T09:05:34Z</time>
      </trkpt>
      <trkpt lat="48.02329" lon="-0.70272">
        <ele>90.429843</ele>
        <time>2011-06-26T09:05:37Z</time>
      </trkpt>
      <trkpt lat="48.02325" lon="-0.7026">
        <ele>90.053515</ele>
        <time>2011-06-26T09:05:40Z</time>
      </trkpt>
      <trkpt lat="48.0232" lon="-0.70248">
        <ele>89.69233</ele>
        <time>2011-06-26T09:05:43Z</time>
      </trkpt>
      <trkpt lat="48.02317" lon="-0.70239">
        <ele>89.378728</ele>
        <time>2011-06-26T09:05:45Z</time>
      </trkpt>
      <trkpt lat="48.02313" lon="-0.70224">
        <ele>89.094979</ele>
        <time>2011-06-26T09:05:48Z</time>
      </trkpt>
      <trkpt lat="48.02309" lon="-0.70214">
        <ele>88.8012</ele>
        <time>2011-06-26T09:05:50Z</time>
      </trkpt>
      <trkpt lat="48.02307" lon="-0.70205">
        <ele>88.482911</ele>
        <time>2011-06-26T09:05:52Z</time>
      </trkpt>
      <trkpt lat="48.02304" lon="-0.70191">
        <ele>88.133183</ele>
        <time>2011-06-26T09:05:55Z</time>
      </trkpt>
      <trkpt lat="48.02302" lon="-0.70183">
        <ele>87.771272</ele>
        <time>2011-06-26T09:05:57Z</time>
      </trkpt>
      <trkpt lat="48.02299" lon="-0.7017">
        <ele>87.454892</ele>
        <time>2011-06-26T09:06:00Z</time>
      </trkpt>
      <trkpt lat="48.02297" lon="-0.70159">
        <ele>87.20412</ele>
        <time>2011-06-26T09:06:03Z</time>
      </trkpt>
      <trkpt lat="48.02297" lon="-0.70159">
        <ele>87.009474</ele>
        <time>2011-06-26T09:06:03Z</time>
      </trkpt>
      <trkpt lat="48.02293" lon="-0.70143">
        <ele>86.873409</ele>
        <time>2011-06-26T09:06:06Z</time>
      </trkpt>
      <trkpt lat="48.02289" lon="-0.70127">
        <ele>86.754726</ele>
        <time>2011-06-26T09:06:09Z</time>
      </trkpt>
      <trkpt lat="48.02284" lon="-0.7011">
        <ele>86.627432</ele>
        <time>2011-06-26T09:06:12Z</time>
      </trkpt>
      <trkpt lat="48.02284" lon="-0.7011">
        <ele>86.536546</ele>
        <time>2011-06-26T09:06:14Z</time>
      </trkpt>
      <trkpt lat="48.02281" lon="-0.70094">
        <ele>86.50486</ele>
        <time>2011-06-26T09:06:15Z</time>
      </trkpt>
      <trkpt lat="48.02278" lon="-0.70084">
        <ele>86.507647</ele>
        <time>2011-06-26T09:06:17Z</time>
      </trkpt>
      <trkpt lat="48.02274" lon="-0.70068">
        <ele>86.515555</ele>
        <time>2011-06-26T09:06:20Z</time>
      </trkpt>
      <trkpt lat="48.02268" lon="-0.70051">
        <ele>86.514033</ele>
        <time>2011-06-26T09:06:23Z</time>
      </trkpt>
      <trkpt lat="48.02264" lon="-0.70039">
        <ele>86.507032</ele>
        <time>2011-06-26T09:06:25Z</time>
      </trkpt>
      <trkpt lat="48.02258" lon="-0.70026">
        <ele>86.489044</ele>
        <time>2011-06-26T09:06:27Z</time>
      </trkpt>
      <trkpt lat="48.0225" lon="-0.70007">
        <ele>86.348058</ele>
        <time>2011-06-26T09:06:30Z</time>
      </trkpt>
      <trkpt lat="48.02242" lon="-0.69988">
        <ele>85.891633</ele>
        <time>2011-06-26T09:06:33Z</time>
      </trkpt>
      <trkpt lat="48.02237" lon="-0.69976">
        <ele>85.036659</ele>
        <time>2011-06-26T09:06:35Z</time>
      </trkpt>
      <trkpt lat="48.02234" lon="-0.69965">
        <ele>84.04544</ele>
        <time>2011-06-26T09:06:37Z</time>
      </trkpt>
      <trkpt lat="48.02235" lon="-0.69953">
        <ele>83.35041</ele>
        <time>2011-06-26T09:06:40Z</time>
      </trkpt>
      <trkpt lat="48.02242" lon="-0.69944">
        <ele>83.096767</ele>
        <time>2011-06-26T09:06:43Z</time>
      </trkpt>
      <trkpt lat="48.02251" lon="-0.69934">
        <ele>83.102084</ele>
        <time>2011-06-26T09:06:46Z</time>
      </trkpt>
      <trkpt lat="48.02257" lon="-0.69928">
        <ele>83.180332</ele>
        <time>2011-06-26T09:06:48Z</time>
      </trkpt>
      <trkpt lat="48.02265" lon="-0.69922">
        <ele>83.241329</ele>
        <time>2011-06-26T09:06:51Z</time>
      </trkpt>
      <trkpt lat="48.02273" lon="-0.69917">
        <ele>83.266884</ele>
        <time>2011-06-26T09:06:54Z</time>
      </trkpt>
      <trkpt lat="48.02278" lon="-0.69913">
        <ele>83.266739</ele>
        <time>2011-06-26T09:06:56Z</time>
      </trkpt>
      <trkpt lat="48.02287" lon="-0.69907">
        <ele>83.245778</ele>
        <time>2011-06-26T09:06:59Z</time>
      </trkpt>
      <trkpt lat="48.02298" lon="-0.69902">
        <ele>83.209737</ele>
        <time>2011-06-26T09:07:02Z</time>
      </trkpt>
      <trkpt lat="48.02305" lon="-0.69898">
        <ele>83.178708</ele>
        <time>2011-06-26T09:07:04Z</time>
      </trkpt>
      <trkpt lat="48.02313" lon="-0.69894">
        <ele>83.165645</ele>
        <time>2011-06-26T09:07:07Z</time>
      </trkpt>
      <trkpt lat="48.02321" lon="-0.6989">
        <ele>83.180378</ele>
        <time>2011-06-26T09:07:10Z</time>
      </trkpt>
      <trkpt lat="48.02331" lon="-0.69886">
        <ele>83.261587</ele>
        <time>2011-06-26T09:07:13Z</time>
      </trkpt>
      <trkpt lat="48.02339" lon="-0.69884">
        <ele>83.454349</ele>
        <time>2011-06-26T09:07:15Z</time>
      </trkpt>
      <trkpt lat="48.02352" lon="-0.69883">
        <ele>83.754377</ele>
        <time>2011-06-26T09:07:18Z</time>
      </trkpt>
      <trkpt lat="48.0236" lon="-0.69883">
        <ele>84.107273</ele>
        <time>2011-06-26T09:07:20Z</time>
      </trkpt>
      <trkpt lat="48.02374" lon="-0.69883">
        <ele>84.442595</ele>
        <time>2011-06-26T09:07:23Z</time>
      </trkpt>
      <trkpt lat="48.02382" lon="-0.69883">
        <ele>84.686039</ele>
        <time>2011-06-26T09:07:25Z</time>
      </trkpt>
      <trkpt lat="48.02391" lon="-0.69881">
        <ele>84.798631</ele>
        <time>2011-06-26T09:07:27Z</time>
      </trkpt>
      <trkpt lat="48.02402" lon="-0.69877">
        <ele>84.813934</ele>
        <time>2011-06-26T09:07:30Z</time>
      </trkpt>
      <trkpt lat="48.02412" lon="-0.69869">
        <ele>84.766578</ele>
        <time>2011-06-26T09:07:33Z</time>
      </trkpt>
      <trkpt lat="48.02419" lon="-0.69864">
        <ele>84.641883</ele>
        <time>2011-06-26T09:07:35Z</time>
      </trkpt>
      <trkpt lat="48.0243" lon="-0.69854">
        <ele>84.469684</ele>
        <time>2011-06-26T09:07:38Z</time>
      </trkpt>
      <trkpt lat="48.0244" lon="-0.69844">
        <ele>84.335167</ele>
        <time>2011-06-26T09:07:41Z</time>
      </trkpt>
      <trkpt lat="48.0245" lon="-0.6983">
        <ele>84.252582</ele>
        <time>2011-06-26T09:07:44Z</time>
      </trkpt>
      <trkpt lat="48.0246" lon="-0.69814">
        <ele>84.172601</ele>
        <time>2011-06-26T09:07:47Z</time>
      </trkpt>
      <trkpt lat="48.02466" lon="-0.69804">
        <ele>84.09183</ele>
        <time>2011-06-26T09:07:49Z</time>
      </trkpt>
      <trkpt lat="48.02476" lon="-0.6979">
        <ele>84.041198</ele>
        <time>2011-06-26T09:07:52Z</time>
      </trkpt>
      <trkpt lat="48.02486" lon="-0.69778">
        <ele>84.026137</ele>
        <time>2011-06-26T09:07:55Z</time>
      </trkpt>
      <trkpt lat="48.02493" lon="-0.6977">
        <ele>84.113989</ele>
        <time>2011-06-26T09:07:57Z</time>
      </trkpt>
      <trkpt lat="48.025" lon="-0.69763">
        <ele>84.512376</ele>
        <time>2011-06-26T09:07:59Z</time>
      </trkpt>
      <trkpt lat="48.0251" lon="-0.69754">
        <ele>85.428423</ele>
        <time>2011-06-26T09:08:02Z</time>
      </trkpt>
      <trkpt lat="48.02519" lon="-0.69746">
        <ele>86.803176</ele>
        <time>2011-06-26T09:08:05Z</time>
      </trkpt>
      <trkpt lat="48.02528" lon="-0.69735">
        <ele>88.332842</ele>
        <time>2011-06-26T09:08:08Z</time>
      </trkpt>
      <trkpt lat="48.02538" lon="-0.69723">
        <ele>89.685366</ele>
        <time>2011-06-26T09:08:11Z</time>
      </trkpt>
      <trkpt lat="48.02548" lon="-0.69709">
        <ele>90.631862</ele>
        <time>2011-06-26T09:08:14Z</time>
      </trkpt>
      <trkpt lat="48.02557" lon="-0.69695">
        <ele>91.247144</ele>
        <time>2011-06-26T09:08:17Z</time>
      </trkpt>
      <trkpt lat="48.02564" lon="-0.69686">
        <ele>91.919619</ele>
        <time>2011-06-26T09:08:19Z</time>
      </trkpt>
      <trkpt lat="48.02575" lon="-0.69674">
        <ele>92.773535</ele>
        <time>2011-06-26T09:08:22Z</time>
      </trkpt>
      <trkpt lat="48.02587" lon="-0.69663">
        <ele>93.49832</ele>
        <time>2011-06-26T09:08:25Z</time>
      </trkpt>
      <trkpt lat="48.02598" lon="-0.69654">
        <ele>93.955724</ele>
        <time>2011-06-26T09:08:28Z</time>
      </trkpt>
      <trkpt lat="48.02607" lon="-0.69649">
        <ele>94.358945</ele>
        <time>2011-06-26T09:08:30Z</time>
      </trkpt>
      <trkpt lat="48.02622" lon="-0.6964">
        <ele>94.782762</ele>
        <time>2011-06-26T09:08:33Z</time>
      </trkpt>
      <trkpt lat="48.02632" lon="-0.69633">
        <ele>95.075508</ele>
        <time>2011-06-26T09:08:35Z</time>
      </trkpt>
      <trkpt lat="48.02645" lon="-0.69622">
        <ele>95.183292</ele>
        <time>2011-06-26T09:08:38Z</time>
      </trkpt>
      <trkpt lat="48.02657" lon="-0.69614">
        <ele>95.220233</ele>
        <time>2011-06-26T09:08:41Z</time>
      </trkpt>
      <trkpt lat="48.02671" lon="-0.69607">
        <ele>95.300371</ele>
        <time>2011-06-26T09:08:44Z</time>
      </trkpt>
      <trkpt lat="48.0268" lon="-0.69602">
        <ele>95.42424</ele>
        <time>2011-06-26T09:08:46Z</time>
      </trkpt>
      <trkpt lat="48.02694" lon="-0.69599">
        <ele>95.5192</ele>
        <time>2011-06-26T09:08:49Z</time>
      </trkpt>
      <trkpt lat="48.02701" lon="-0.69604">
        <ele>95.555313</ele>
        <time>2011-06-26T09:08:51Z</time>
      </trkpt>
      <trkpt lat="48.02706" lon="-0.69617">
        <ele>95.451852</ele>
        <time>2011-06-26T09:08:54Z</time>
      </trkpt>
      <trkpt lat="48.0271" lon="-0.69638">
        <ele>95.040919</ele>
        <time>2011-06-26T09:08:57Z</time>
      </trkpt>
      <trkpt lat="48.02712" lon="-0.69655">
        <ele>94.386429</ele>
        <time>2011-06-26T09:08:59Z</time>
      </trkpt>
      <trkpt lat="48.02716" lon="-0.69679">
        <ele>93.752344</ele>
        <time>2011-06-26T09:09:02Z</time>
      </trkpt>
      <trkpt lat="48.02718" lon="-0.69695">
        <ele>93.259616</ele>
        <time>2011-06-26T09:09:04Z</time>
      </trkpt>
      <trkpt lat="48.02719" lon="-0.6972">
        <ele>92.915103</ele>
        <time>2011-06-26T09:09:07Z</time>
      </trkpt>
      <trkpt lat="48.02718" lon="-0.69736">
        <ele>92.733541</ele>
        <time>2011-06-26T09:09:09Z</time>
      </trkpt>
      <trkpt lat="48.02717" lon="-0.69759">
        <ele>92.675925</ele>
        <time>2011-06-26T09:09:12Z</time>
      </trkpt>
      <trkpt lat="48.02715" lon="-0.69781">
        <ele>92.640909</ele>
        <time>2011-06-26T09:09:14Z</time>
      </trkpt>
      <trkpt lat="48.02714" lon="-0.69802">
        <ele>92.520161</ele>
        <time>2011-06-26T09:09:17Z</time>
      </trkpt>
      <trkpt lat="48.02714" lon="-0.69818">
        <ele>92.278899</ele>
        <time>2011-06-26T09:09:19Z</time>
      </trkpt>
      <trkpt lat="48.02716" lon="-0.69841">
        <ele>91.961528</ele>
        <time>2011-06-26T09:09:22Z</time>
      </trkpt>
      <trkpt lat="48.0272" lon="-0.69864">
        <ele>91.591818</ele>
        <time>2011-06-26T09:09:25Z</time>
      </trkpt>
      <trkpt lat="48.02722" lon="-0.69878">
        <ele>91.099534</ele>
        <time>2011-06-26T09:09:27Z</time>
      </trkpt>
      <trkpt lat="48.02726" lon="-0.69898">
        <ele>90.44466</ele>
        <time>2011-06-26T09:09:30Z</time>
      </trkpt>
      <trkpt lat="48.02731" lon="-0.69917">
        <ele>89.801688</ele>
        <time>2011-06-26T09:09:33Z</time>
      </trkpt>
      <trkpt lat="48.02734" lon="-0.69929">
        <ele>89.389939</ele>
        <time>2011-06-26T09:09:35Z</time>
      </trkpt>
      <trkpt lat="48.02738" lon="-0.69942">
        <ele>89.219469</ele>
        <time>2011-06-26T09:09:37Z</time>
      </trkpt>
      <trkpt lat="48.02744" lon="-0.69959">
        <ele>89.173547</ele>
        <time>2011-06-26T09:09:40Z</time>
      </trkpt>
      <trkpt lat="48.0275" lon="-0.69971">
        <ele>89.17687</ele>
        <time>2011-06-26T09:09:42Z</time>
      </trkpt>
      <trkpt lat="48.02762" lon="-0.69986">
        <ele>89.192452</ele>
        <time>2011-06-26T09:09:45Z</time>
      </trkpt>
      <trkpt lat="48.02769" lon="-0.69994">
        <ele>89.172518</ele>
        <time>2011-06-26T09:09:47Z</time>
      </trkpt>
      <trkpt lat="48.02777" lon="-0.70001">
        <ele>89.071937</ele>
        <time>2011-06-26T09:09:49Z</time>
      </trkpt>
      <trkpt lat="48.0279" lon="-0.70013">
        <ele>88.926319</ele>
        <time>2011-06-26T09:09:52Z</time>
      </trkpt>
      <trkpt lat="48.02802" lon="-0.70026">
        <ele>88.821209</ele>
        <time>2011-06-26T09:09:55Z</time>
      </trkpt>
      <trkpt lat="48.02811" lon="-0.70035">
        <ele>88.78366</ele>
        <time>2011-06-26T09:09:57Z</time>
      </trkpt>
      <trkpt lat="48.02824" lon="-0.70048">
        <ele>88.802454</ele>
        <time>2011-06-26T09:10:00Z</time>
      </trkpt>
      <trkpt lat="48.02833" lon="-0.70056">
        <ele>88.858933</ele>
        <time>2011-06-26T09:10:02Z</time>
      </trkpt>
      <trkpt lat="48.02833" lon="-0.70056">
        <ele>88.91313</ele>
        <time>2011-06-26T09:10:04Z</time>
      </trkpt>
      <trkpt lat="48.02849" lon="-0.70069">
        <ele>88.937793</ele>
        <time>2011-06-26T09:10:05Z</time>
      </trkpt>
      <trkpt lat="48.02866" lon="-0.70078">
        <ele>88.940896</ele>
        <time>2011-06-26T09:10:08Z</time>
      </trkpt>
      <trkpt lat="48.02883" lon="-0.70083">
        <ele>88.935526</ele>
        <time>2011-06-26T09:10:11Z</time>
      </trkpt>
      <trkpt lat="48.02901" lon="-0.70082">
        <ele>88.92935</ele>
        <time>2011-06-26T09:10:14Z</time>
      </trkpt>
      <trkpt lat="48.02917" lon="-0.70079">
        <ele>88.925559</ele>
        <time>2011-06-26T09:10:17Z</time>
      </trkpt>
      <trkpt lat="48.0293" lon="-0.70077">
        <ele>88.933931</ele>
        <time>2011-06-26T09:10:19Z</time>
      </trkpt>
      <trkpt lat="48.02949" lon="-0.70075">
        <ele>89.053075</ele>
        <time>2011-06-26T09:10:22Z</time>
      </trkpt>
      <trkpt lat="48.02962" lon="-0.70075">
        <ele>89.441998</ele>
        <time>2011-06-26T09:10:24Z</time>
      </trkpt>
      <trkpt lat="48.02981" lon="-0.70077">
        <ele>90.0708</ele>
        <time>2011-06-26T09:10:27Z</time>
      </trkpt>
      <trkpt lat="48.02994" lon="-0.70081">
        <ele>90.748564</ele>
        <time>2011-06-26T09:10:29Z</time>
      </trkpt>
      <trkpt lat="48.03013" lon="-0.70086">
        <ele>91.358085</ele>
        <time>2011-06-26T09:10:32Z</time>
      </trkpt>
      <trkpt lat="48.03033" lon="-0.70093">
        <ele>91.812548</ele>
        <time>2011-06-26T09:10:35Z</time>
      </trkpt>
      <trkpt lat="48.03051" lon="-0.70094">
        <ele>92.033913</ele>
        <time>2011-06-26T09:10:38Z</time>
      </trkpt>
      <trkpt lat="48.03059" lon="-0.70093">
        <ele>92.070886</ele>
        <time>2011-06-26T09:10:40Z</time>
      </trkpt>
      <trkpt lat="48.0307" lon="-0.70091">
        <ele>91.895584</ele>
        <time>2011-06-26T09:10:44Z</time>
      </trkpt>
      <trkpt lat="48.0307" lon="-0.70091">
        <ele>91.493809</ele>
        <time>2011-06-26T09:10:49Z</time>
      </trkpt>
      <trkpt lat="48.03092" lon="-0.70102">
        <ele>91.003365</ele>
        <time>2011-06-26T09:11:01Z</time>
      </trkpt>
      <trkpt lat="48.03092" lon="-0.70102">
        <ele>90.567048</ele>
        <time>2011-06-26T09:11:02Z</time>
      </trkpt>
      <trkpt lat="48.03102" lon="-0.70112">
        <ele>90.237167</ele>
        <time>2011-06-26T09:11:04Z</time>
      </trkpt>
      <trkpt lat="48.03111" lon="-0.70123">
        <ele>89.954957</ele>
        <time>2011-06-26T09:11:06Z</time>
      </trkpt>
      <trkpt lat="48.03125" lon="-0.70144">
        <ele>89.382008</ele>
        <time>2011-06-26T09:11:09Z</time>
      </trkpt>
      <trkpt lat="48.0314" lon="-0.70171">
        <ele>88.219994</ele>
        <time>2011-06-26T09:11:12Z</time>
      </trkpt>
      <trkpt lat="48.03157" lon="-0.702">
        <ele>86.545684</ele>
        <time>2011-06-26T09:11:15Z</time>
      </trkpt>
      <trkpt lat="48.03168" lon="-0.70215">
        <ele>84.737289</ele>
        <time>2011-06-26T09:11:17Z</time>
      </trkpt>
      <trkpt lat="48.03177" lon="-0.70227">
        <ele>83.253772</ele>
        <time>2011-06-26T09:11:20Z</time>
      </trkpt>
      <trkpt lat="48.03183" lon="-0.70233">
        <ele>82.277015</ele>
        <time>2011-06-26T09:11:22Z</time>
      </trkpt>
      <trkpt lat="48.03192" lon="-0.70243">
        <ele>81.50973</ele>
        <time>2011-06-26T09:11:25Z</time>
      </trkpt>
      <trkpt lat="48.032" lon="-0.70254">
        <ele>80.698445</ele>
        <time>2011-06-26T09:11:27Z</time>
      </trkpt>
      <trkpt lat="48.03213" lon="-0.70273">
        <ele>79.979529</ele>
        <time>2011-06-26T09:11:30Z</time>
      </trkpt>
      <trkpt lat="48.03223" lon="-0.70287">
        <ele>79.446892</ele>
        <time>2011-06-26T09:11:32Z</time>
      </trkpt>
      <trkpt lat="48.03238" lon="-0.70308">
        <ele>78.903599</ele>
        <time>2011-06-26T09:11:35Z</time>
      </trkpt>
      <trkpt lat="48.03253" lon="-0.70325">
        <ele>78.186704</ele>
        <time>2011-06-26T09:11:38Z</time>
      </trkpt>
      <trkpt lat="48.03261" lon="-0.70337">
        <ele>77.462698</ele>
        <time>2011-06-26T09:11:40Z</time>
      </trkpt>
      <trkpt lat="48.03274" lon="-0.70361">
        <ele>76.960946</ele>
        <time>2011-06-26T09:11:43Z</time>
      </trkpt>
      <trkpt lat="48.03283" lon="-0.70379">
        <ele>76.675033</ele>
        <time>2011-06-26T09:11:45Z</time>
      </trkpt>
      <trkpt lat="48.03297" lon="-0.70408">
        <ele>76.458578</ele>
        <time>2011-06-26T09:11:48Z</time>
      </trkpt>
      <trkpt lat="48.03306" lon="-0.70426">
        <ele>76.25612</ele>
        <time>2011-06-26T09:11:50Z</time>
      </trkpt>
      <trkpt lat="48.03316" lon="-0.70446">
        <ele>76.030018</ele>
        <time>2011-06-26T09:11:52Z</time>
      </trkpt>
      <trkpt lat="48.03331" lon="-0.70476">
        <ele>75.645564</ele>
        <time>2011-06-26T09:11:55Z</time>
      </trkpt>
      <trkpt lat="48.03346" lon="-0.70505">
        <ele>75.051302</ele>
        <time>2011-06-26T09:11:58Z</time>
      </trkpt>
      <trkpt lat="48.03353" lon="-0.7052">
        <ele>74.390499</ele>
        <time>2011-06-26T09:12:00Z</time>
      </trkpt>
      <trkpt lat="48.03363" lon="-0.70538">
        <ele>73.784503</ele>
        <time>2011-06-26T09:12:03Z</time>
      </trkpt>
      <trkpt lat="48.03374" lon="-0.70555">
        <ele>73.197102</ele>
        <time>2011-06-26T09:12:06Z</time>
      </trkpt>
      <trkpt lat="48.03384" lon="-0.70569">
        <ele>72.592074</ele>
        <time>2011-06-26T09:12:09Z</time>
      </trkpt>
      <trkpt lat="48.03393" lon="-0.70582">
        <ele>72.00971</ele>
        <time>2011-06-26T09:12:12Z</time>
      </trkpt>
      <trkpt lat="48.03399" lon="-0.70593">
        <ele>71.437702</ele>
        <time>2011-06-26T09:12:14Z</time>
      </trkpt>
      <trkpt lat="48.03406" lon="-0.70608">
        <ele>70.798207</ele>
        <time>2011-06-26T09:12:17Z</time>
      </trkpt>
      <trkpt lat="48.03413" lon="-0.70625">
        <ele>70.115498</ele>
        <time>2011-06-26T09:12:20Z</time>
      </trkpt>
      <trkpt lat="48.03421" lon="-0.70642">
        <ele>69.490795</ele>
        <time>2011-06-26T09:12:23Z</time>
      </trkpt>
      <trkpt lat="48.03427" lon="-0.70653">
        <ele>68.895628</ele>
        <time>2011-06-26T09:12:25Z</time>
      </trkpt>
      <trkpt lat="48.03436" lon="-0.70669">
        <ele>68.180594</ele>
        <time>2011-06-26T09:12:28Z</time>
      </trkpt>
      <trkpt lat="48.03442" lon="-0.7068">
        <ele>67.321228</ele>
        <time>2011-06-26T09:12:30Z</time>
      </trkpt>
      <trkpt lat="48.03447" lon="-0.70691">
        <ele>66.482913</ele>
        <time>2011-06-26T09:12:32Z</time>
      </trkpt>
      <trkpt lat="48.03455" lon="-0.70706">
        <ele>65.806382</ele>
        <time>2011-06-26T09:12:35Z</time>
      </trkpt>
      <trkpt lat="48.03464" lon="-0.70721">
        <ele>65.309197</ele>
        <time>2011-06-26T09:12:38Z</time>
      </trkpt>
      <trkpt lat="48.03471" lon="-0.70736">
        <ele>64.96471</ele>
        <time>2011-06-26T09:12:41Z</time>
      </trkpt>
      <trkpt lat="48.03474" lon="-0.70752">
        <ele>64.719947</ele>
        <time>2011-06-26T09:12:44Z</time>
      </trkpt>
      <trkpt lat="48.03474" lon="-0.7077">
        <ele>64.481326</ele>
        <time>2011-06-26T09:12:47Z</time>
      </trkpt>
      <trkpt lat="48.03473" lon="-0.70785">
        <ele>64.199841</ele>
        <time>2011-06-26T09:12:49Z</time>
      </trkpt>
      <trkpt lat="48.03472" lon="-0.70809">
        <ele>63.919048</ele>
        <time>2011-06-26T09:12:52Z</time>
      </trkpt>
      <trkpt lat="48.03469" lon="-0.70834">
        <ele>63.641467</ele>
        <time>2011-06-26T09:12:55Z</time>
      </trkpt>
      <trkpt lat="48.03466" lon="-0.70849">
        <ele>63.261896</ele>
        <time>2011-06-26T09:12:57Z</time>
      </trkpt>
      <trkpt lat="48.03461" lon="-0.7087">
        <ele>62.65932</ele>
        <time>2011-06-26T09:13:00Z</time>
      </trkpt>
      <trkpt lat="48.03457" lon="-0.70883">
        <ele>61.763901</ele>
        <time>2011-06-26T09:13:02Z</time>
      </trkpt>
      <trkpt lat="48.03451" lon="-0.709">
        <ele>60.713617</ele>
        <time>2011-06-26T09:13:05Z</time>
      </trkpt>
      <trkpt lat="48.03446" lon="-0.70918">
        <ele>59.799202</ele>
        <time>2011-06-26T09:13:08Z</time>
      </trkpt>
      <trkpt lat="48.0344" lon="-0.70936">
        <ele>59.156293</ele>
        <time>2011-06-26T09:13:11Z</time>
      </trkpt>
      <trkpt lat="48.03437" lon="-0.70947">
        <ele>58.742924</ele>
        <time>2011-06-26T09:13:13Z</time>
      </trkpt>
      <trkpt lat="48.03434" lon="-0.70959">
        <ele>58.437761</ele>
        <time>2011-06-26T09:13:15Z</time>
      </trkpt>
      <trkpt lat="48.03434" lon="-0.70959">
        <ele>58.162259</ele>
        <time>2011-06-26T09:13:18Z</time>
      </trkpt>
      <trkpt lat="48.03429" lon="-0.70978">
        <ele>57.90438</ele>
        <time>2011-06-26T09:13:18Z</time>
      </trkpt>
      <trkpt lat="48.03426" lon="-0.7099">
        <ele>57.616015</ele>
        <time>2011-06-26T09:13:20Z</time>
      </trkpt>
      <trkpt lat="48.03423" lon="-0.71001">
        <ele>57.297777</ele>
        <time>2011-06-26T09:13:22Z</time>
      </trkpt>
      <trkpt lat="48.0342" lon="-0.71018">
        <ele>57.034048</ele>
        <time>2011-06-26T09:13:25Z</time>
      </trkpt>
      <trkpt lat="48.03417" lon="-0.71035">
        <ele>56.86184</ele>
        <time>2011-06-26T09:13:28Z</time>
      </trkpt>
      <trkpt lat="48.03416" lon="-0.7105">
        <ele>56.767863</ele>
        <time>2011-06-26T09:13:31Z</time>
      </trkpt>
      <trkpt lat="48.03415" lon="-0.71066">
        <ele>56.723361</ele>
        <time>2011-06-26T09:13:34Z</time>
      </trkpt>
      <trkpt lat="48.03413" lon="-0.7108">
        <ele>56.708189</ele>
        <time>2011-06-26T09:13:37Z</time>
      </trkpt>
      <trkpt lat="48.03412" lon="-0.71095">
        <ele>56.704848</ele>
        <time>2011-06-26T09:13:40Z</time>
      </trkpt>
      <trkpt lat="48.03411" lon="-0.71103">
        <ele>56.695864</ele>
        <time>2011-06-26T09:13:42Z</time>
      </trkpt>
      <trkpt lat="48.03411" lon="-0.71103">
        <ele>56.679618</ele>
        <time>2011-06-26T09:13:48Z</time>
      </trkpt>
      <trkpt lat="48.03409" lon="-0.71121">
        <ele>56.66184</ele>
        <time>2011-06-26T09:13:49Z</time>
      </trkpt>
      <trkpt lat="48.034" lon="-0.71151">
        <ele>56.644061</ele>
        <time>2011-06-26T09:14:02Z</time>
      </trkpt>
      <trkpt lat="48.03399" lon="-0.71163">
        <ele>56.624951</ele>
        <time>2011-06-26T09:14:07Z</time>
      </trkpt>
      <trkpt lat="48.0339" lon="-0.71187">
        <ele>56.580862</ele>
        <time>2011-06-26T09:14:19Z</time>
      </trkpt>
      <trkpt lat="48.03382" lon="-0.71198">
        <ele>56.450135</ele>
        <time>2011-06-26T09:14:24Z</time>
      </trkpt>
      <trkpt lat="48.03374" lon="-0.71202">
        <ele>56.237498</ele>
        <time>2011-06-26T09:14:28Z</time>
      </trkpt>
      <trkpt lat="48.03374" lon="-0.71202">
        <ele>56.052364</ele>
        <time>2011-06-26T09:14:29Z</time>
      </trkpt>
      <trkpt lat="48.03364" lon="-0.71206">
        <ele>55.96816</ele>
        <time>2011-06-26T09:14:33Z</time>
      </trkpt>
      <trkpt lat="48.03358" lon="-0.71208">
        <ele>55.963165</ele>
        <time>2011-06-26T09:14:36Z</time>
      </trkpt>
      <trkpt lat="48.03351" lon="-0.71211">
        <ele>55.994082</ele>
        <time>2011-06-26T09:14:39Z</time>
      </trkpt>
      <trkpt lat="48.03344" lon="-0.71224">
        <ele>56.043878</ele>
        <time>2011-06-26T09:14:44Z</time>
      </trkpt>
      <trkpt lat="48.03346" lon="-0.71237">
        <ele>56.110532</ele>
        <time>2011-06-26T09:14:48Z</time>
      </trkpt>
      <trkpt lat="48.03349" lon="-0.71244">
        <ele>56.176622</ele>
        <time>2011-06-26T09:14:51Z</time>
      </trkpt>
      <trkpt lat="48.03355" lon="-0.71255">
        <ele>56.223991</ele>
        <time>2011-06-26T09:14:57Z</time>
      </trkpt>
      <trkpt lat="48.0336" lon="-0.7126">
        <ele>56.255797</ele>
        <time>2011-06-26T09:15:00Z</time>
      </trkpt>
      <trkpt lat="48.03364" lon="-0.71265">
        <ele>56.27989</ele>
        <time>2011-06-26T09:15:03Z</time>
      </trkpt>
      <trkpt lat="48.03367" lon="-0.71272">
        <ele>56.300707</ele>
        <time>2011-06-26T09:15:07Z</time>
      </trkpt>
      <trkpt lat="48.0337" lon="-0.71279">
        <ele>56.315434</ele>
        <time>2011-06-26T09:15:10Z</time>
      </trkpt>
      <trkpt lat="48.03373" lon="-0.71287">
        <ele>56.335854</ele>
        <time>2011-06-26T09:15:13Z</time>
      </trkpt>
      <trkpt lat="48.03375" lon="-0.71295">
        <ele>56.430218</ele>
        <time>2011-06-26T09:15:16Z</time>
      </trkpt>
      <trkpt lat="48.03378" lon="-0.71303">
        <ele>56.680075</ele>
        <time>2011-06-26T09:15:19Z</time>
      </trkpt>
      <trkpt lat="48.03379" lon="-0.71313">
        <ele>57.080545</ele>
        <time>2011-06-26T09:15:22Z</time>
      </trkpt>
      <trkpt lat="48.0338" lon="-0.71322">
        <ele>57.557695</ele>
        <time>2011-06-26T09:15:24Z</time>
      </trkpt>
      <trkpt lat="48.0338" lon="-0.71331">
        <ele>58.067625</ele>
        <time>2011-06-26T09:15:26Z</time>
      </trkpt>
      <trkpt lat="48.03379" lon="-0.71343">
        <ele>58.613509</ele>
        <time>2011-06-26T09:15:29Z</time>
      </trkpt>
      <trkpt lat="48.03379" lon="-0.7135">
        <ele>59.171203</ele>
        <time>2011-06-26T09:15:31Z</time>
      </trkpt>
      <trkpt lat="48.03378" lon="-0.71361">
        <ele>59.677768</ele>
        <time>2011-06-26T09:15:34Z</time>
      </trkpt>
      <trkpt lat="48.03378" lon="-0.71369">
        <ele>60.139022</ele>
        <time>2011-06-26T09:15:36Z</time>
      </trkpt>
      <trkpt lat="48.03376" lon="-0.71377">
        <ele>60.605609</ele>
        <time>2011-06-26T09:15:38Z</time>
      </trkpt>
      <trkpt lat="48.03376" lon="-0.71389">
        <ele>61.101998</ele>
        <time>2011-06-26T09:15:41Z</time>
      </trkpt>
      <trkpt lat="48.03374" lon="-0.71402">
        <ele>61.625012</ele>
        <time>2011-06-26T09:15:44Z</time>
      </trkpt>
      <trkpt lat="48.03374" lon="-0.71402">
        <ele>62.078221</ele>
        <time>2011-06-26T09:15:45Z</time>
      </trkpt>
      <trkpt lat="48.03372" lon="-0.71414">
        <ele>62.390261</ele>
        <time>2011-06-26T09:15:47Z</time>
      </trkpt>
      <trkpt lat="48.03377" lon="-0.71419">
        <ele>62.692565</ele>
        <time>2011-06-26T09:15:50Z</time>
      </trkpt>
      <trkpt lat="48.03384" lon="-0.71418">
        <ele>63.13273</ele>
        <time>2011-06-26T09:15:53Z</time>
      </trkpt>
      <trkpt lat="48.03391" lon="-0.71417">
        <ele>63.695172</ele>
        <time>2011-06-26T09:15:56Z</time>
      </trkpt>
      <trkpt lat="48.03398" lon="-0.71417">
        <ele>64.294662</ele>
        <time>2011-06-26T09:15:58Z</time>
      </trkpt>
      <trkpt lat="48.03408" lon="-0.71418">
        <ele>64.864621</ele>
        <time>2011-06-26T09:16:01Z</time>
      </trkpt>
      <trkpt lat="48.03418" lon="-0.71417">
        <ele>65.375079</ele>
        <time>2011-06-26T09:16:04Z</time>
      </trkpt>
      <trkpt lat="48.03418" lon="-0.71417">
        <ele>65.772029</ele>
        <time>2011-06-26T09:16:04Z</time>
      </trkpt>
      <trkpt lat="48.03425" lon="-0.71411">
        <ele>66.024582</ele>
        <time>2011-06-26T09:16:06Z</time>
      </trkpt>
      <trkpt lat="48.03432" lon="-0.71403">
        <ele>66.229301</ele>
        <time>2011-06-26T09:16:08Z</time>
      </trkpt>
      <trkpt lat="48.03445" lon="-0.71386">
        <ele>66.506294</ele>
        <time>2011-06-26T09:16:11Z</time>
      </trkpt>
      <trkpt lat="48.03454" lon="-0.71375">
        <ele>67.146441</ele>
        <time>2011-06-26T09:16:13Z</time>
      </trkpt>
      <trkpt lat="48.03471" lon="-0.71355">
        <ele>68.440471</ele>
        <time>2011-06-26T09:16:16Z</time>
      </trkpt>
      <trkpt lat="48.03489" lon="-0.71335">
        <ele>70.154164</ele>
        <time>2011-06-26T09:16:19Z</time>
      </trkpt>
      <trkpt lat="48.03501" lon="-0.71323">
        <ele>71.70963</ele>
        <time>2011-06-26T09:16:21Z</time>
      </trkpt>
      <trkpt lat="48.03518" lon="-0.71308">
        <ele>72.75688</ele>
        <time>2011-06-26T09:16:24Z</time>
      </trkpt>
      <trkpt lat="48.03527" lon="-0.71309">
        <ele>73.270488</ele>
        <time>2011-06-26T09:16:26Z</time>
      </trkpt>
      <trkpt lat="48.03536" lon="-0.71322">
        <ele>73.432327</ele>
        <time>2011-06-26T09:16:29Z</time>
      </trkpt>
      <trkpt lat="48.03546" lon="-0.71336">
        <ele>73.426795</ele>
        <time>2011-06-26T09:16:32Z</time>
      </trkpt>
      <trkpt lat="48.03556" lon="-0.71352">
        <ele>73.378656</ele>
        <time>2011-06-26T09:16:35Z</time>
      </trkpt>
      <trkpt lat="48.03562" lon="-0.71363">
        <ele>73.344034</ele>
        <time>2011-06-26T09:16:37Z</time>
      </trkpt>
      <trkpt lat="48.03572" lon="-0.7138">
        <ele>73.249971</ele>
        <time>2011-06-26T09:16:40Z</time>
      </trkpt>
      <trkpt lat="48.0358" lon="-0.7139">
        <ele>72.99</ele>
        <time>2011-06-26T09:16:42Z</time>
      </trkpt>
      <trkpt lat="48.03594" lon="-0.71404">
        <ele>72.62779</ele>
        <time>2011-06-26T09:16:45Z</time>
      </trkpt>
      <trkpt lat="48.0361" lon="-0.71417">
        <ele>72.31238</ele>
        <time>2011-06-26T09:16:48Z</time>
      </trkpt>
      <trkpt lat="48.03626" lon="-0.71436">
        <ele>72.086448</ele>
        <time>2011-06-26T09:16:51Z</time>
      </trkpt>
      <trkpt lat="48.03642" lon="-0.71453">
        <ele>71.906415</ele>
        <time>2011-06-26T09:16:54Z</time>
      </trkpt>
      <trkpt lat="48.03655" lon="-0.71467">
        <ele>71.736257</ele>
        <time>2011-06-26T09:16:57Z</time>
      </trkpt>
      <trkpt lat="48.03655" lon="-0.71467">
        <ele>71.601902</ele>
        <time>2011-06-26T09:16:59Z</time>
      </trkpt>
      <trkpt lat="48.03666" lon="-0.7148">
        <ele>71.529376</ele>
        <time>2011-06-26T09:17:00Z</time>
      </trkpt>
      <trkpt lat="48.03674" lon="-0.71494">
        <ele>71.497537</ele>
        <time>2011-06-26T09:17:03Z</time>
      </trkpt>
      <trkpt lat="48.03679" lon="-0.71502">
        <ele>71.485848</ele>
        <time>2011-06-26T09:17:05Z</time>
      </trkpt>
      <trkpt lat="48.03688" lon="-0.71513">
        <ele>71.491245</ele>
        <time>2011-06-26T09:17:08Z</time>
      </trkpt>
      <trkpt lat="48.03695" lon="-0.71525">
        <ele>71.509711</ele>
        <time>2011-06-26T09:17:11Z</time>
      </trkpt>
      <trkpt lat="48.03695" lon="-0.71525">
        <ele>71.530136</ele>
        <time>2011-06-26T09:17:11Z</time>
      </trkpt>
      <trkpt lat="48.03702" lon="-0.71535">
        <ele>71.541831</ele>
        <time>2011-06-26T09:17:14Z</time>
      </trkpt>
      <trkpt lat="48.03707" lon="-0.71542">
        <ele>71.544833</ele>
        <time>2011-06-26T09:17:16Z</time>
      </trkpt>
      <trkpt lat="48.03711" lon="-0.71547">
        <ele>71.545384</ele>
        <time>2011-06-26T09:17:18Z</time>
      </trkpt>
      <trkpt lat="48.03713" lon="-0.71554">
        <ele>71.552389</ele>
        <time>2011-06-26T09:17:21Z</time>
      </trkpt>
      <trkpt lat="48.03709" lon="-0.71563">
        <ele>71.571944</ele>
        <time>2011-06-26T09:17:24Z</time>
      </trkpt>
      <trkpt lat="48.03701" lon="-0.71577">
        <ele>71.597555</ele>
        <time>2011-06-26T09:17:27Z</time>
      </trkpt>
      <trkpt lat="48.03701" lon="-0.71577">
        <ele>71.615781</ele>
        <time>2011-06-26T09:17:28Z</time>
      </trkpt>
      <trkpt lat="48.03689" lon="-0.71589">
        <ele>71.622189</ele>
        <time>2011-06-26T09:17:30Z</time>
      </trkpt>
      <trkpt lat="48.03681" lon="-0.71597">
        <ele>71.607581</ele>
        <time>2011-06-26T09:17:32Z</time>
      </trkpt>
      <trkpt lat="48.0367" lon="-0.71612">
        <ele>71.562549</ele>
        <time>2011-06-26T09:17:35Z</time>
      </trkpt>
      <trkpt lat="48.03663" lon="-0.71622">
        <ele>71.46075</ele>
        <time>2011-06-26T09:17:37Z</time>
      </trkpt>
      <trkpt lat="48.03654" lon="-0.71636">
        <ele>71.28863</ele>
        <time>2011-06-26T09:17:40Z</time>
      </trkpt>
      <trkpt lat="48.03644" lon="-0.71646">
        <ele>71.082123</ele>
        <time>2011-06-26T09:17:43Z</time>
      </trkpt>
      <trkpt lat="48.03635" lon="-0.71654">
        <ele>70.88297</ele>
        <time>2011-06-26T09:17:46Z</time>
      </trkpt>
      <trkpt lat="48.03629" lon="-0.7166">
        <ele>70.721326</ele>
        <time>2011-06-26T09:17:48Z</time>
      </trkpt>
      <trkpt lat="48.03621" lon="-0.7167">
        <ele>70.629658</ele>
        <time>2011-06-26T09:17:51Z</time>
      </trkpt>
      <trkpt lat="48.03612" lon="-0.71681">
        <ele>70.597281</ele>
        <time>2011-06-26T09:17:54Z</time>
      </trkpt>
      <trkpt lat="48.03603" lon="-0.71694">
        <ele>70.59104</ele>
        <time>2011-06-26T09:17:57Z</time>
      </trkpt>
      <trkpt lat="48.03595" lon="-0.71705">
        <ele>70.588319</ele>
        <time>2011-06-26T09:18:00Z</time>
      </trkpt>
      <trkpt lat="48.03589" lon="-0.71718">
        <ele>70.5667</ele>
        <time>2011-06-26T09:18:03Z</time>
      </trkpt>
      <trkpt lat="48.03586" lon="-0.71727">
        <ele>70.40526</ele>
        <time>2011-06-26T09:18:05Z</time>
      </trkpt>
      <trkpt lat="48.03582" lon="-0.71741">
        <ele>70.048004</ele>
        <time>2011-06-26T09:18:08Z</time>
      </trkpt>
      <trkpt lat="48.03579" lon="-0.71755">
        <ele>69.675959</ele>
        <time>2011-06-26T09:18:11Z</time>
      </trkpt>
      <trkpt lat="48.03576" lon="-0.71767">
        <ele>69.459493</ele>
        <time>2011-06-26T09:18:14Z</time>
      </trkpt>
      <trkpt lat="48.03573" lon="-0.71781">
        <ele>69.366996</ele>
        <time>2011-06-26T09:18:17Z</time>
      </trkpt>
      <trkpt lat="48.03571" lon="-0.71793">
        <ele>69.317619</ele>
        <time>2011-06-26T09:18:20Z</time>
      </trkpt>
      <trkpt lat="48.03569" lon="-0.71802">
        <ele>69.267231</ele>
        <time>2011-06-26T09:18:22Z</time>
      </trkpt>
      <trkpt lat="48.03568" lon="-0.71809">
        <ele>69.219462</ele>
        <time>2011-06-26T09:18:24Z</time>
      </trkpt>
      <trkpt lat="48.03564" lon="-0.7182">
        <ele>69.18489</ele>
        <time>2011-06-26T09:18:27Z</time>
      </trkpt>
      <trkpt lat="48.03561" lon="-0.71831">
        <ele>69.158247</ele>
        <time>2011-06-26T09:18:30Z</time>
      </trkpt>
      <trkpt lat="48.0356" lon="-0.71838">
        <ele>69.126941</ele>
        <time>2011-06-26T09:18:32Z</time>
      </trkpt>
      <trkpt lat="48.03558" lon="-0.71844">
        <ele>69.074834</ele>
        <time>2011-06-26T09:18:34Z</time>
      </trkpt>
      <trkpt lat="48.03555" lon="-0.71857">
        <ele>68.989463</ele>
        <time>2011-06-26T09:18:38Z</time>
      </trkpt>
      <trkpt lat="48.03552" lon="-0.71864">
        <ele>68.882291</ele>
        <time>2011-06-26T09:18:40Z</time>
      </trkpt>
      <trkpt lat="48.03547" lon="-0.71875">
        <ele>68.779905</ele>
        <time>2011-06-26T09:18:43Z</time>
      </trkpt>
      <trkpt lat="48.03542" lon="-0.71885">
        <ele>68.692892</ele>
        <time>2011-06-26T09:18:46Z</time>
      </trkpt>
      <trkpt lat="48.03537" lon="-0.71894">
        <ele>68.621101</ele>
        <time>2011-06-26T09:18:49Z</time>
      </trkpt>
      <trkpt lat="48.03532" lon="-0.71902">
        <ele>68.570195</ele>
        <time>2011-06-26T09:18:52Z</time>
      </trkpt>
      <trkpt lat="48.03527" lon="-0.71911">
        <ele>68.543869</ele>
        <time>2011-06-26T09:18:55Z</time>
      </trkpt>
      <trkpt lat="48.03522" lon="-0.71919">
        <ele>68.536233</ele>
        <time>2011-06-26T09:18:58Z</time>
      </trkpt>
      <trkpt lat="48.03518" lon="-0.71927">
        <ele>68.537991</ele>
        <time>2011-06-26T09:19:01Z</time>
      </trkpt>
      <trkpt lat="48.03518" lon="-0.71927">
        <ele>68.541489</ele>
        <time>2011-06-26T09:19:13Z</time>
      </trkpt>
      <trkpt lat="48.03502" lon="-0.71941">
        <ele>68.554942</ele>
        <time>2011-06-26T09:19:25Z</time>
      </trkpt>
      <trkpt lat="48.03502" lon="-0.71941">
        <ele>68.585039</ele>
        <time>2011-06-26T09:19:29Z</time>
      </trkpt>
      <trkpt lat="48.03502" lon="-0.71941">
        <ele>68.615161</ele>
        <time>2011-06-26T09:19:31Z</time>
      </trkpt>
      <trkpt lat="48.03489" lon="-0.7196">
        <ele>68.645623</ele>
        <time>2011-06-26T09:19:42Z</time>
      </trkpt>
      <trkpt lat="48.03488" lon="-0.71968">
        <ele>68.715383</ele>
        <time>2011-06-26T09:19:45Z</time>
      </trkpt>
      <trkpt lat="48.03488" lon="-0.71978">
        <ele>68.943307</ele>
        <time>2011-06-26T09:19:48Z</time>
      </trkpt>
      <trkpt lat="48.03488" lon="-0.71989">
        <ele>69.537171</ele>
        <time>2011-06-26T09:19:51Z</time>
      </trkpt>
      <trkpt lat="48.03488" lon="-0.72001">
        <ele>70.428048</ele>
        <time>2011-06-26T09:19:54Z</time>
      </trkpt>
      <trkpt lat="48.03487" lon="-0.72009">
        <ele>71.213724</ele>
        <time>2011-06-26T09:19:56Z</time>
      </trkpt>
      <trkpt lat="48.03485" lon="-0.7202">
        <ele>71.689958</ele>
        <time>2011-06-26T09:19:59Z</time>
      </trkpt>
      <trkpt lat="48.03484" lon="-0.72031">
        <ele>71.98709</ele>
        <time>2011-06-26T09:20:02Z</time>
      </trkpt>
      <trkpt lat="48.03484" lon="-0.72031">
        <ele>72.205539</ele>
        <time>2011-06-26T09:20:03Z</time>
      </trkpt>
      <trkpt lat="48.03484" lon="-0.72041">
        <ele>72.360141</ele>
        <time>2011-06-26T09:20:05Z</time>
      </trkpt>
      <trkpt lat="48.03485" lon="-0.72051">
        <ele>72.509736</ele>
        <time>2011-06-26T09:20:08Z</time>
      </trkpt>
      <trkpt lat="48.03487" lon="-0.7206">
        <ele>72.735159</ele>
        <time>2011-06-26T09:20:11Z</time>
      </trkpt>
      <trkpt lat="48.03487" lon="-0.7206">
        <ele>72.995209</ele>
        <time>2011-06-26T09:20:14Z</time>
      </trkpt>
      <trkpt lat="48.03488" lon="-0.72068">
        <ele>73.223162</ele>
        <time>2011-06-26T09:20:14Z</time>
      </trkpt>
      <trkpt lat="48.0349" lon="-0.72077">
        <ele>73.462238</ele>
        <time>2011-06-26T09:20:17Z</time>
      </trkpt>
      <trkpt lat="48.03493" lon="-0.72086">
        <ele>73.777592</ele>
        <time>2011-06-26T09:20:20Z</time>
      </trkpt>
      <trkpt lat="48.03495" lon="-0.72092">
        <ele>74.151935</ele>
        <time>2011-06-26T09:20:22Z</time>
      </trkpt>
      <trkpt lat="48.03497" lon="-0.72101">
        <ele>74.546233</ele>
        <time>2011-06-26T09:20:25Z</time>
      </trkpt>
      <trkpt lat="48.03497" lon="-0.72101">
        <ele>74.885916</ele>
        <time>2011-06-26T09:20:26Z</time>
      </trkpt>
      <trkpt lat="48.035" lon="-0.72108">
        <ele>75.137347</ele>
        <time>2011-06-26T09:20:28Z</time>
      </trkpt>
      <trkpt lat="48.03502" lon="-0.72116">
        <ele>75.366468</ele>
        <time>2011-06-26T09:20:31Z</time>
      </trkpt>
      <trkpt lat="48.03504" lon="-0.72123">
        <ele>75.642322</ele>
        <time>2011-06-26T09:20:34Z</time>
      </trkpt>
      <trkpt lat="48.03507" lon="-0.7213">
        <ele>75.976687</ele>
        <time>2011-06-26T09:20:37Z</time>
      </trkpt>
      <trkpt lat="48.03509" lon="-0.72136">
        <ele>76.364297</ele>
        <time>2011-06-26T09:20:40Z</time>
      </trkpt>
      <trkpt lat="48.03511" lon="-0.72142">
        <ele>76.781561</ele>
        <time>2011-06-26T09:20:43Z</time>
      </trkpt>
      <trkpt lat="48.03512" lon="-0.72151">
        <ele>77.211263</ele>
        <time>2011-06-26T09:20:47Z</time>
      </trkpt>
      <trkpt lat="48.03514" lon="-0.72157">
        <ele>77.647919</ele>
        <time>2011-06-26T09:20:51Z</time>
      </trkpt>
      <trkpt lat="48.03516" lon="-0.72164">
        <ele>78.09446</ele>
        <time>2011-06-26T09:20:55Z</time>
      </trkpt>
      <trkpt lat="48.03518" lon="-0.72172">
        <ele>78.567638</ele>
        <time>2011-06-26T09:20:59Z</time>
      </trkpt>
      <trkpt lat="48.03519" lon="-0.72179">
        <ele>79.090422</ele>
        <time>2011-06-26T09:21:02Z</time>
      </trkpt>
      <trkpt lat="48.03521" lon="-0.72187">
        <ele>79.668877</ele>
        <time>2011-06-26T09:21:06Z</time>
      </trkpt>
      <trkpt lat="48.03522" lon="-0.72193">
        <ele>80.289341</ele>
        <time>2011-06-26T09:21:09Z</time>
      </trkpt>
      <trkpt lat="48.03525" lon="-0.722">
        <ele>80.915813</ele>
        <time>2011-06-26T09:21:13Z</time>
      </trkpt>
      <trkpt lat="48.03527" lon="-0.72208">
        <ele>81.538212</ele>
        <time>2011-06-26T09:21:17Z</time>
      </trkpt>
      <trkpt lat="48.03527" lon="-0.72215">
        <ele>82.178572</ele>
        <time>2011-06-26T09:21:20Z</time>
      </trkpt>
      <trkpt lat="48.03527" lon="-0.72223">
        <ele>82.847522</ele>
        <time>2011-06-26T09:21:23Z</time>
      </trkpt>
      <trkpt lat="48.03528" lon="-0.72233">
        <ele>83.557315</ele>
        <time>2011-06-26T09:21:26Z</time>
      </trkpt>
      <trkpt lat="48.03529" lon="-0.72242">
        <ele>84.286967</ele>
        <time>2011-06-26T09:21:29Z</time>
      </trkpt>
      <trkpt lat="48.0353" lon="-0.72252">
        <ele>84.964324</ele>
        <time>2011-06-26T09:21:32Z</time>
      </trkpt>
      <trkpt lat="48.0353" lon="-0.72252">
        <ele>85.48913</ele>
        <time>2011-06-26T09:21:34Z</time>
      </trkpt>
      <trkpt lat="48.03532" lon="-0.72267">
        <ele>85.850078</ele>
        <time>2011-06-26T09:21:35Z</time>
      </trkpt>
      <trkpt lat="48.03533" lon="-0.72277">
        <ele>86.201055</ele>
        <time>2011-06-26T09:21:37Z</time>
      </trkpt>
      <trkpt lat="48.03534" lon="-0.72289">
        <ele>86.675495</ele>
        <time>2011-06-26T09:21:39Z</time>
      </trkpt>
      <trkpt lat="48.03536" lon="-0.723">
        <ele>87.250121</ele>
        <time>2011-06-26T09:21:41Z</time>
      </trkpt>
      <trkpt lat="48.03538" lon="-0.7232">
        <ele>87.839321</ele>
        <time>2011-06-26T09:21:44Z</time>
      </trkpt>
      <trkpt lat="48.03541" lon="-0.72332">
        <ele>88.363938</ele>
        <time>2011-06-26T09:21:46Z</time>
      </trkpt>
      <trkpt lat="48.03543" lon="-0.72349">
        <ele>88.813079</ele>
        <time>2011-06-26T09:21:49Z</time>
      </trkpt>
      <trkpt lat="48.03546" lon="-0.72367">
        <ele>89.703143</ele>
        <time>2011-06-26T09:21:52Z</time>
      </trkpt>
      <trkpt lat="48.03548" lon="-0.72379">
        <ele>91.330848</ele>
        <time>2011-06-26T09:21:54Z</time>
      </trkpt>
      <trkpt lat="48.03551" lon="-0.72398">
        <ele>92.950945</ele>
        <time>2011-06-26T09:21:57Z</time>
      </trkpt>
      <trkpt lat="48.03554" lon="-0.7241">
        <ele>94.211254</ele>
        <time>2011-06-26T09:21:59Z</time>
      </trkpt>
      <trkpt lat="48.03554" lon="-0.7241">
        <ele>95.451226</ele>
        <time>2011-06-26T09:22:01Z</time>
      </trkpt>
      <trkpt lat="48.03557" lon="-0.72427">
        <ele>96.547544</ele>
        <time>2011-06-26T09:22:02Z</time>
      </trkpt>
      <trkpt lat="48.0356" lon="-0.72443">
        <ele>97.389646</ele>
        <time>2011-06-26T09:22:05Z</time>
      </trkpt>
      <trkpt lat="48.03561" lon="-0.72454">
        <ele>98.086753</ele>
        <time>2011-06-26T09:22:07Z</time>
      </trkpt>
      <trkpt lat="48.03563" lon="-0.72473">
        <ele>98.579627</ele>
        <time>2011-06-26T09:22:10Z</time>
      </trkpt>
      <trkpt lat="48.03564" lon="-0.72495">
        <ele>98.853676</ele>
        <time>2011-06-26T09:22:13Z</time>
      </trkpt>
      <trkpt lat="48.03564" lon="-0.72509">
        <ele>98.955324</ele>
        <time>2011-06-26T09:22:15Z</time>
      </trkpt>
      <trkpt lat="48.03564" lon="-0.72522">
        <ele>98.953677</ele>
        <time>2011-06-26T09:22:17Z</time>
      </trkpt>
      <trkpt lat="48.03566" lon="-0.72538">
        <ele>98.910624</ele>
        <time>2011-06-26T09:22:20Z</time>
      </trkpt>
      <trkpt lat="48.0357" lon="-0.72553">
        <ele>98.8522</ele>
        <time>2011-06-26T09:22:23Z</time>
      </trkpt>
      <trkpt lat="48.03574" lon="-0.72562">
        <ele>98.797884</ele>
        <time>2011-06-26T09:22:25Z</time>
      </trkpt>
      <trkpt lat="48.03582" lon="-0.72572">
        <ele>98.761814</ele>
        <time>2011-06-26T09:22:28Z</time>
      </trkpt>
      <trkpt lat="48.03587" lon="-0.7258">
        <ele>98.74367</ele>
        <time>2011-06-26T09:22:30Z</time>
      </trkpt>
      <trkpt lat="48.03596" lon="-0.7259">
        <ele>98.737617</ele>
        <time>2011-06-26T09:22:33Z</time>
      </trkpt>
      <trkpt lat="48.03605" lon="-0.726">
        <ele>98.736622</ele>
        <time>2011-06-26T09:22:36Z</time>
      </trkpt>
      <trkpt lat="48.03614" lon="-0.72612">
        <ele>98.737347</ele>
        <time>2011-06-26T09:22:39Z</time>
      </trkpt>
      <trkpt lat="48.03624" lon="-0.72626">
        <ele>98.735797</ele>
        <time>2011-06-26T09:22:42Z</time>
      </trkpt>
      <trkpt lat="48.03624" lon="-0.72626">
        <ele>98.728236</ele>
        <time>2011-06-26T09:22:43Z</time>
      </trkpt>
      <trkpt lat="48.0363" lon="-0.72633">
        <ele>98.705378</ele>
        <time>2011-06-26T09:22:44Z</time>
      </trkpt>
      <trkpt lat="48.03641" lon="-0.72644">
        <ele>98.665948</ele>
        <time>2011-06-26T09:22:47Z</time>
      </trkpt>
      <trkpt lat="48.03649" lon="-0.7265">
        <ele>98.604667</ele>
        <time>2011-06-26T09:22:49Z</time>
      </trkpt>
      <trkpt lat="48.03662" lon="-0.72659">
        <ele>98.511348</ele>
        <time>2011-06-26T09:22:52Z</time>
      </trkpt>
      <trkpt lat="48.03676" lon="-0.72667">
        <ele>98.36165</ele>
        <time>2011-06-26T09:22:55Z</time>
      </trkpt>
      <trkpt lat="48.03688" lon="-0.72673">
        <ele>98.119697</ele>
        <time>2011-06-26T09:22:58Z</time>
      </trkpt>
      <trkpt lat="48.03702" lon="-0.72679">
        <ele>97.744136</ele>
        <time>2011-06-26T09:23:01Z</time>
      </trkpt>
      <trkpt lat="48.03719" lon="-0.72686">
        <ele>97.200156</ele>
        <time>2011-06-26T09:23:04Z</time>
      </trkpt>
      <trkpt lat="48.03733" lon="-0.72691">
        <ele>96.597501</ele>
        <time>2011-06-26T09:23:07Z</time>
      </trkpt>
      <trkpt lat="48.03746" lon="-0.72696">
        <ele>96.179573</ele>
        <time>2011-06-26T09:23:10Z</time>
      </trkpt>
      <trkpt lat="48.03759" lon="-0.727">
        <ele>96.031513</ele>
        <time>2011-06-26T09:23:13Z</time>
      </trkpt>
      <trkpt lat="48.03759" lon="-0.727">
        <ele>96.019648</ele>
        <time>2011-06-26T09:23:14Z</time>
      </trkpt>
      <trkpt lat="48.03772" lon="-0.72706">
        <ele>96.036195</ele>
        <time>2011-06-26T09:23:16Z</time>
      </trkpt>
      <trkpt lat="48.03782" lon="-0.72707">
        <ele>96.073399</ele>
        <time>2011-06-26T09:23:18Z</time>
      </trkpt>
      <trkpt lat="48.03798" lon="-0.72707">
        <ele>96.136201</ele>
        <time>2011-06-26T09:23:21Z</time>
      </trkpt>
      <trkpt lat="48.03814" lon="-0.72703">
        <ele>96.205757</ele>
        <time>2011-06-26T09:23:24Z</time>
      </trkpt>
      <trkpt lat="48.03814" lon="-0.72703">
        <ele>96.265062</ele>
        <time>2011-06-26T09:23:24Z</time>
      </trkpt>
      <trkpt lat="48.03827" lon="-0.72698">
        <ele>96.305127</ele>
        <time>2011-06-26T09:23:26Z</time>
      </trkpt>
      <trkpt lat="48.03847" lon="-0.72689">
        <ele>96.341029</ele>
        <time>2011-06-26T09:23:29Z</time>
      </trkpt>
      <trkpt lat="48.03859" lon="-0.72683">
        <ele>96.469591</ele>
        <time>2011-06-26T09:23:31Z</time>
      </trkpt>
      <trkpt lat="48.03877" lon="-0.72674">
        <ele>96.857876</ele>
        <time>2011-06-26T09:23:34Z</time>
      </trkpt>
      <trkpt lat="48.03896" lon="-0.72666">
        <ele>97.65064</ele>
        <time>2011-06-26T09:23:37Z</time>
      </trkpt>
      <trkpt lat="48.03896" lon="-0.72666">
        <ele>98.656576</ele>
        <time>2011-06-26T09:23:39Z</time>
      </trkpt>
      <trkpt lat="48.03908" lon="-0.72662">
        <ele>99.489867</ele>
        <time>2011-06-26T09:23:39Z</time>
      </trkpt>
      <trkpt lat="48.03928" lon="-0.72656">
        <ele>100.033547</ele>
        <time>2011-06-26T09:23:42Z</time>
      </trkpt>
      <trkpt lat="48.0394" lon="-0.72653">
        <ele>100.363066</ele>
        <time>2011-06-26T09:23:44Z</time>
      </trkpt>
      <trkpt lat="48.03958" lon="-0.72649">
        <ele>100.492636</ele>
        <time>2011-06-26T09:23:47Z</time>
      </trkpt>
      <trkpt lat="48.0397" lon="-0.72647">
        <ele>100.451051</ele>
        <time>2011-06-26T09:23:49Z</time>
      </trkpt>
      <trkpt lat="48.03987" lon="-0.7264">
        <ele>100.247629</ele>
        <time>2011-06-26T09:23:52Z</time>
      </trkpt>
      <trkpt lat="48.04004" lon="-0.72633">
        <ele>99.965735</ele>
        <time>2011-06-26T09:23:55Z</time>
      </trkpt>
      <trkpt lat="48.04019" lon="-0.72627">
        <ele>99.715177</ele>
        <time>2011-06-26T09:23:58Z</time>
      </trkpt>
      <trkpt lat="48.04028" lon="-0.72623">
        <ele>99.462019</ele>
        <time>2011-06-26T09:24:00Z</time>
      </trkpt>
      <trkpt lat="48.04043" lon="-0.72619">
        <ele>99.158749</ele>
        <time>2011-06-26T09:24:03Z</time>
      </trkpt>
      <trkpt lat="48.04054" lon="-0.72616">
        <ele>98.86946</ele>
        <time>2011-06-26T09:24:05Z</time>
      </trkpt>
      <trkpt lat="48.0407" lon="-0.72611">
        <ele>98.650001</ele>
        <time>2011-06-26T09:24:08Z</time>
      </trkpt>
      <trkpt lat="48.04086" lon="-0.72601">
        <ele>98.492741</ele>
        <time>2011-06-26T09:24:11Z</time>
      </trkpt>
      <trkpt lat="48.04086" lon="-0.72601">
        <ele>98.38534</ele>
        <time>2011-06-26T09:24:11Z</time>
      </trkpt>
      <trkpt lat="48.04096" lon="-0.72594">
        <ele>98.330194</ele>
        <time>2011-06-26T09:24:13Z</time>
      </trkpt>
      <trkpt lat="48.04111" lon="-0.72582">
        <ele>98.319327</ele>
        <time>2011-06-26T09:24:16Z</time>
      </trkpt>
      <trkpt lat="48.04126" lon="-0.72572">
        <ele>98.329995</ele>
        <time>2011-06-26T09:24:19Z</time>
      </trkpt>
      <trkpt lat="48.04136" lon="-0.72565">
        <ele>98.349329</ele>
        <time>2011-06-26T09:24:21Z</time>
      </trkpt>
      <trkpt lat="48.04152" lon="-0.72553">
        <ele>98.390774</ele>
        <time>2011-06-26T09:24:24Z</time>
      </trkpt>
      <trkpt lat="48.04163" lon="-0.72544">
        <ele>98.487672</ele>
        <time>2011-06-26T09:24:26Z</time>
      </trkpt>
      <trkpt lat="48.04172" lon="-0.72535">
        <ele>98.630985</ele>
        <time>2011-06-26T09:24:28Z</time>
      </trkpt>
      <trkpt lat="48.04182" lon="-0.72526">
        <ele>98.757461</ele>
        <time>2011-06-26T09:24:30Z</time>
      </trkpt>
      <trkpt lat="48.04182" lon="-0.72526">
        <ele>98.824628</ele>
        <time>2011-06-26T09:24:33Z</time>
      </trkpt>
      <trkpt lat="48.04197" lon="-0.72514">
        <ele>98.841436</ele>
        <time>2011-06-26T09:24:33Z</time>
      </trkpt>
      <trkpt lat="48.04206" lon="-0.72506">
        <ele>98.835728</ele>
        <time>2011-06-26T09:24:35Z</time>
      </trkpt>
      <trkpt lat="48.0422" lon="-0.72494">
        <ele>98.827456</ele>
        <time>2011-06-26T09:24:38Z</time>
      </trkpt>
      <trkpt lat="48.04234" lon="-0.72483">
        <ele>98.823153</ele>
        <time>2011-06-26T09:24:41Z</time>
      </trkpt>
      <trkpt lat="48.04243" lon="-0.72476">
        <ele>98.827138</ele>
        <time>2011-06-26T09:24:43Z</time>
      </trkpt>
      <trkpt lat="48.04258" lon="-0.72467">
        <ele>98.866707</ele>
        <time>2011-06-26T09:24:46Z</time>
      </trkpt>
      <trkpt lat="48.04267" lon="-0.72461">
        <ele>98.992791</ele>
        <time>2011-06-26T09:24:48Z</time>
      </trkpt>
      <trkpt lat="48.0428" lon="-0.72452">
        <ele>99.216646</ele>
        <time>2011-06-26T09:24:51Z</time>
      </trkpt>
      <trkpt lat="48.04294" lon="-0.72446">
        <ele>99.489379</ele>
        <time>2011-06-26T09:24:54Z</time>
      </trkpt>
      <trkpt lat="48.04303" lon="-0.72444">
        <ele>99.759006</ele>
        <time>2011-06-26T09:24:56Z</time>
      </trkpt>
      <trkpt lat="48.04318" lon="-0.7244">
        <ele>100.018692</ele>
        <time>2011-06-26T09:24:59Z</time>
      </trkpt>
      <trkpt lat="48.04333" lon="-0.72437">
        <ele>100.278515</ele>
        <time>2011-06-26T09:25:02Z</time>
      </trkpt>
      <trkpt lat="48.04343" lon="-0.72435">
        <ele>100.513109</ele>
        <time>2011-06-26T09:25:04Z</time>
      </trkpt>
      <trkpt lat="48.04359" lon="-0.7243">
        <ele>100.672358</ele>
        <time>2011-06-26T09:25:07Z</time>
      </trkpt>
      <trkpt lat="48.04373" lon="-0.72429">
        <ele>100.746978</ele>
        <time>2011-06-26T09:25:10Z</time>
      </trkpt>
      <trkpt lat="48.04377" lon="-0.72444">
        <ele>100.768899</ele>
        <time>2011-06-26T09:25:13Z</time>
      </trkpt>
      <trkpt lat="48.04366" lon="-0.72457">
        <ele>100.770077</ele>
        <time>2011-06-26T09:25:16Z</time>
      </trkpt>
      <trkpt lat="48.04357" lon="-0.72466">
        <ele>100.766851</ele>
        <time>2011-06-26T09:25:18Z</time>
      </trkpt>
      <trkpt lat="48.04344" lon="-0.72478">
        <ele>100.773849</ele>
        <time>2011-06-26T09:25:21Z</time>
      </trkpt>
      <trkpt lat="48.04331" lon="-0.7249">
        <ele>100.836987</ele>
        <time>2011-06-26T09:25:24Z</time>
      </trkpt>
      <trkpt lat="48.04322" lon="-0.72498">
        <ele>101.02129</ele>
        <time>2011-06-26T09:25:26Z</time>
      </trkpt>
      <trkpt lat="48.04313" lon="-0.72506">
        <ele>101.335057</ele>
        <time>2011-06-26T09:25:28Z</time>
      </trkpt>
      <trkpt lat="48.04303" lon="-0.72514">
        <ele>101.66887</ele>
        <time>2011-06-26T09:25:30Z</time>
      </trkpt>
      <trkpt lat="48.04288" lon="-0.72527">
        <ele>101.883168</ele>
        <time>2011-06-26T09:25:33Z</time>
      </trkpt>
      <trkpt lat="48.04272" lon="-0.7254">
        <ele>101.949203</ele>
        <time>2011-06-26T09:25:36Z</time>
      </trkpt>
      <trkpt lat="48.04257" lon="-0.72553">
        <ele>101.933522</ele>
        <time>2011-06-26T09:25:39Z</time>
      </trkpt>
      <trkpt lat="48.04241" lon="-0.72566">
        <ele>101.878397</ele>
        <time>2011-06-26T09:25:42Z</time>
      </trkpt>
      <trkpt lat="48.0423" lon="-0.72576">
        <ele>101.775798</ele>
        <time>2011-06-26T09:25:44Z</time>
      </trkpt>
      <trkpt lat="48.0423" lon="-0.72576">
        <ele>101.64108</ele>
        <time>2011-06-26T09:25:45Z</time>
      </trkpt>
      <trkpt lat="48.04219" lon="-0.72586">
        <ele>101.502288</ele>
        <time>2011-06-26T09:25:46Z</time>
      </trkpt>
      <trkpt lat="48.04203" lon="-0.72602">
        <ele>101.32756</ele>
        <time>2011-06-26T09:25:49Z</time>
      </trkpt>
      <trkpt lat="48.04188" lon="-0.7262">
        <ele>101.091602</ele>
        <time>2011-06-26T09:25:52Z</time>
      </trkpt>
      <trkpt lat="48.04174" lon="-0.72637">
        <ele>100.835884</ele>
        <time>2011-06-26T09:25:55Z</time>
      </trkpt>
      <trkpt lat="48.0416" lon="-0.72653">
        <ele>100.593328</ele>
        <time>2011-06-26T09:25:58Z</time>
      </trkpt>
      <trkpt lat="48.04151" lon="-0.72664">
        <ele>100.387295</ele>
        <time>2011-06-26T09:26:00Z</time>
      </trkpt>
      <trkpt lat="48.04143" lon="-0.72675">
        <ele>100.252454</ele>
        <time>2011-06-26T09:26:02Z</time>
      </trkpt>
      <trkpt lat="48.04134" lon="-0.72686">
        <ele>100.175061</ele>
        <time>2011-06-26T09:26:04Z</time>
      </trkpt>
      <trkpt lat="48.04126" lon="-0.72697">
        <ele>100.081896</ele>
        <time>2011-06-26T09:26:06Z</time>
      </trkpt>
      <trkpt lat="48.04114" lon="-0.72715">
        <ele>99.923081</ele>
        <time>2011-06-26T09:26:09Z</time>
      </trkpt>
      <trkpt lat="48.04102" lon="-0.72731">
        <ele>99.692446</ele>
        <time>2011-06-26T09:26:12Z</time>
      </trkpt>
      <trkpt lat="48.04095" lon="-0.72743">
        <ele>99.426093</ele>
        <time>2011-06-26T09:26:14Z</time>
      </trkpt>
      <trkpt lat="48.04085" lon="-0.72762">
        <ele>99.20943</ele>
        <time>2011-06-26T09:26:17Z</time>
      </trkpt>
      <trkpt lat="48.04079" lon="-0.72774">
        <ele>99.103172</ele>
        <time>2011-06-26T09:26:19Z</time>
      </trkpt>
      <trkpt lat="48.04073" lon="-0.72788">
        <ele>99.085002</ele>
        <time>2011-06-26T09:26:21Z</time>
      </trkpt>
      <trkpt lat="48.04065" lon="-0.7281">
        <ele>99.117124</ele>
        <time>2011-06-26T09:26:24Z</time>
      </trkpt>
      <trkpt lat="48.04058" lon="-0.7283">
        <ele>99.193044</ele>
        <time>2011-06-26T09:26:27Z</time>
      </trkpt>
      <trkpt lat="48.04056" lon="-0.72844">
        <ele>99.304953</ele>
        <time>2011-06-26T09:26:29Z</time>
      </trkpt>
      <trkpt lat="48.04053" lon="-0.72858">
        <ele>99.413824</ele>
        <time>2011-06-26T09:26:31Z</time>
      </trkpt>
      <trkpt lat="48.0405" lon="-0.72872">
        <ele>99.479187</ele>
        <time>2011-06-26T09:26:33Z</time>
      </trkpt>
      <trkpt lat="48.04045" lon="-0.72894">
        <ele>99.497318</ele>
        <time>2011-06-26T09:26:36Z</time>
      </trkpt>
      <trkpt lat="48.04041" lon="-0.72916">
        <ele>99.442063</ele>
        <time>2011-06-26T09:26:39Z</time>
      </trkpt>
      <trkpt lat="48.04038" lon="-0.7293">
        <ele>99.302228</ele>
        <time>2011-06-26T09:26:41Z</time>
      </trkpt>
      <trkpt lat="48.04033" lon="-0.72951">
        <ele>99.162554</ele>
        <time>2011-06-26T09:26:44Z</time>
      </trkpt>
      <trkpt lat="48.0403" lon="-0.72965">
        <ele>99.097367</ele>
        <time>2011-06-26T09:26:46Z</time>
      </trkpt>
      <trkpt lat="48.04025" lon="-0.72986">
        <ele>99.113721</ele>
        <time>2011-06-26T09:26:49Z</time>
      </trkpt>
      <trkpt lat="48.04022" lon="-0.73">
        <ele>99.249622</ele>
        <time>2011-06-26T09:26:51Z</time>
      </trkpt>
      <trkpt lat="48.04019" lon="-0.73014">
        <ele>99.513886</ele>
        <time>2011-06-26T09:26:53Z</time>
      </trkpt>
      <trkpt lat="48.04016" lon="-0.73028">
        <ele>99.838753</ele>
        <time>2011-06-26T09:26:55Z</time>
      </trkpt>
      <trkpt lat="48.04012" lon="-0.73051">
        <ele>100.152403</ele>
        <time>2011-06-26T09:26:58Z</time>
      </trkpt>
      <trkpt lat="48.04007" lon="-0.73075">
        <ele>100.412412</ele>
        <time>2011-06-26T09:27:01Z</time>
      </trkpt>
      <trkpt lat="48.04002" lon="-0.73099">
        <ele>100.595207</ele>
        <time>2011-06-26T09:27:04Z</time>
      </trkpt>
      <trkpt lat="48.03996" lon="-0.73124">
        <ele>100.712433</ele>
        <time>2011-06-26T09:27:07Z</time>
      </trkpt>
      <trkpt lat="48.03991" lon="-0.73148">
        <ele>100.795938</ele>
        <time>2011-06-26T09:27:10Z</time>
      </trkpt>
      <trkpt lat="48.03991" lon="-0.73148">
        <ele>100.861536</ele>
        <time>2011-06-26T09:27:11Z</time>
      </trkpt>
      <trkpt lat="48.03986" lon="-0.73174">
        <ele>100.902945</ele>
        <time>2011-06-26T09:27:13Z</time>
      </trkpt>
      <trkpt lat="48.03983" lon="-0.73191">
        <ele>100.92349</ele>
        <time>2011-06-26T09:27:15Z</time>
      </trkpt>
      <trkpt lat="48.03978" lon="-0.73215">
        <ele>100.936245</ele>
        <time>2011-06-26T09:27:18Z</time>
      </trkpt>
      <trkpt lat="48.03974" lon="-0.73238">
        <ele>100.943588</ele>
        <time>2011-06-26T09:27:21Z</time>
      </trkpt>
      <trkpt lat="48.03974" lon="-0.73238">
        <ele>100.939446</ele>
        <time>2011-06-26T09:27:22Z</time>
      </trkpt>
      <trkpt lat="48.03969" lon="-0.73262">
        <ele>100.913083</ele>
        <time>2011-06-26T09:27:24Z</time>
      </trkpt>
      <trkpt lat="48.03966" lon="-0.73278">
        <ele>100.869912</ele>
        <time>2011-06-26T09:27:26Z</time>
      </trkpt>
      <trkpt lat="48.03961" lon="-0.73304">
        <ele>100.7883</ele>
        <time>2011-06-26T09:27:29Z</time>
      </trkpt>
      <trkpt lat="48.03958" lon="-0.73328">
        <ele>100.544523</ele>
        <time>2011-06-26T09:27:32Z</time>
      </trkpt>
      <trkpt lat="48.03955" lon="-0.73343">
        <ele>100.067135</ele>
        <time>2011-06-26T09:27:34Z</time>
      </trkpt>
      <trkpt lat="48.03955" lon="-0.73343">
        <ele>99.539447</ele>
        <time>2011-06-26T09:27:35Z</time>
      </trkpt>
      <trkpt lat="48.03951" lon="-0.73367">
        <ele>99.118795</ele>
        <time>2011-06-26T09:27:37Z</time>
      </trkpt>
      <trkpt lat="48.03947" lon="-0.73391">
        <ele>98.649491</ele>
        <time>2011-06-26T09:27:40Z</time>
      </trkpt>
      <trkpt lat="48.03942" lon="-0.73417">
        <ele>98.001049</ele>
        <time>2011-06-26T09:27:43Z</time>
      </trkpt>
      <trkpt lat="48.03939" lon="-0.73435">
        <ele>97.339238</ele>
        <time>2011-06-26T09:27:45Z</time>
      </trkpt>
      <trkpt lat="48.03934" lon="-0.73462">
        <ele>96.866526</ele>
        <time>2011-06-26T09:27:48Z</time>
      </trkpt>
      <trkpt lat="48.03934" lon="-0.73462">
        <ele>96.628868</ele>
        <time>2011-06-26T09:27:48Z</time>
      </trkpt>
      <trkpt lat="48.03928" lon="-0.73489">
        <ele>96.532021</ele>
        <time>2011-06-26T09:27:51Z</time>
      </trkpt>
      <trkpt lat="48.03924" lon="-0.73507">
        <ele>96.37803</ele>
        <time>2011-06-26T09:27:53Z</time>
      </trkpt>
      <trkpt lat="48.03919" lon="-0.73534">
        <ele>96.091747</ele>
        <time>2011-06-26T09:27:56Z</time>
      </trkpt>
      <trkpt lat="48.03915" lon="-0.73553">
        <ele>95.802153</ele>
        <time>2011-06-26T09:27:58Z</time>
      </trkpt>
      <trkpt lat="48.03911" lon="-0.73573">
        <ele>95.589277</ele>
        <time>2011-06-26T09:28:00Z</time>
      </trkpt>
      <trkpt lat="48.03903" lon="-0.73605">
        <ele>95.36582</ele>
        <time>2011-06-26T09:28:03Z</time>
      </trkpt>
      <trkpt lat="48.03894" lon="-0.73639">
        <ele>94.990994</ele>
        <time>2011-06-26T09:28:06Z</time>
      </trkpt>
      <trkpt lat="48.03885" lon="-0.73671">
        <ele>94.393852</ele>
        <time>2011-06-26T09:28:09Z</time>
      </trkpt>
      <trkpt lat="48.03879" lon="-0.737">
        <ele>93.582689</ele>
        <time>2011-06-26T09:28:12Z</time>
      </trkpt>
      <trkpt lat="48.03872" lon="-0.73731">
        <ele>92.57001</ele>
        <time>2011-06-26T09:28:15Z</time>
      </trkpt>
      <trkpt lat="48.03872" lon="-0.73731">
        <ele>91.56821</ele>
        <time>2011-06-26T09:28:17Z</time>
      </trkpt>
      <trkpt lat="48.03865" lon="-0.73763">
        <ele>90.866286</ele>
        <time>2011-06-26T09:28:18Z</time>
      </trkpt>
      <trkpt lat="48.03859" lon="-0.73795">
        <ele>90.493659</ele>
        <time>2011-06-26T09:28:21Z</time>
      </trkpt>
      <trkpt lat="48.03855" lon="-0.73816">
        <ele>90.343148</ele>
        <time>2011-06-26T09:28:23Z</time>
      </trkpt>
      <trkpt lat="48.03849" lon="-0.73847">
        <ele>90.344508</ele>
        <time>2011-06-26T09:28:26Z</time>
      </trkpt>
      <trkpt lat="48.03841" lon="-0.73878">
        <ele>90.486768</ele>
        <time>2011-06-26T09:28:29Z</time>
      </trkpt>
      <trkpt lat="48.03836" lon="-0.73899">
        <ele>90.886497</ele>
        <time>2011-06-26T09:28:31Z</time>
      </trkpt>
      <trkpt lat="48.03831" lon="-0.73919">
        <ele>91.472616</ele>
        <time>2011-06-26T09:28:33Z</time>
      </trkpt>
      <trkpt lat="48.03824" lon="-0.73948">
        <ele>92.112977</ele>
        <time>2011-06-26T09:28:36Z</time>
      </trkpt>
      <trkpt lat="48.0382" lon="-0.73967">
        <ele>92.920871</ele>
        <time>2011-06-26T09:28:38Z</time>
      </trkpt>
      <trkpt lat="48.03814" lon="-0.73994">
        <ele>93.914389</ele>
        <time>2011-06-26T09:28:41Z</time>
      </trkpt>
      <trkpt lat="48.03808" lon="-0.7402">
        <ele>94.868769</ele>
        <time>2011-06-26T09:28:44Z</time>
      </trkpt>
      <trkpt lat="48.03804" lon="-0.74035">
        <ele>95.641834</ele>
        <time>2011-06-26T09:28:46Z</time>
      </trkpt>
      <trkpt lat="48.03801" lon="-0.74046">
        <ele>96.158431</ele>
        <time>2011-06-26T09:28:49Z</time>
      </trkpt>
      <trkpt lat="48.03799" lon="-0.74054">
        <ele>96.392196</ele>
        <time>2011-06-26T09:28:52Z</time>
      </trkpt>
      <trkpt lat="48.03798" lon="-0.74063">
        <ele>96.426979</ele>
        <time>2011-06-26T09:28:54Z</time>
      </trkpt>
      <trkpt lat="48.03798" lon="-0.74063">
        <ele>96.38653</ele>
        <time>2011-06-26T09:28:56Z</time>
      </trkpt>
      <trkpt lat="48.03795" lon="-0.74078">
        <ele>96.343926</ele>
        <time>2011-06-26T09:28:57Z</time>
      </trkpt>
      <trkpt lat="48.03791" lon="-0.74092">
        <ele>96.312459</ele>
        <time>2011-06-26T09:28:59Z</time>
      </trkpt>
      <trkpt lat="48.03786" lon="-0.74115">
        <ele>96.279786</ele>
        <time>2011-06-26T09:29:02Z</time>
      </trkpt>
      <trkpt lat="48.03782" lon="-0.74132">
        <ele>96.201198</ele>
        <time>2011-06-26T09:29:04Z</time>
      </trkpt>
      <trkpt lat="48.03775" lon="-0.74163">
        <ele>95.967589</ele>
        <time>2011-06-26T09:29:07Z</time>
      </trkpt>
      <trkpt lat="48.03775" lon="-0.74163">
        <ele>95.593609</ele>
        <time>2011-06-26T09:29:07Z</time>
      </trkpt>
      <trkpt lat="48.03768" lon="-0.742">
        <ele>95.116609</ele>
        <time>2011-06-26T09:29:10Z</time>
      </trkpt>
      <trkpt lat="48.03762" lon="-0.74225">
        <ele>94.500312</ele>
        <time>2011-06-26T09:29:12Z</time>
      </trkpt>
      <trkpt lat="48.03752" lon="-0.74266">
        <ele>93.877096</ele>
        <time>2011-06-26T09:29:15Z</time>
      </trkpt>
      <trkpt lat="48.03746" lon="-0.74293">
        <ele>93.457754</ele>
        <time>2011-06-26T09:29:17Z</time>
      </trkpt>
      <trkpt lat="48.03738" lon="-0.74331">
        <ele>93.243858</ele>
        <time>2011-06-26T09:29:20Z</time>
      </trkpt>
      <trkpt lat="48.03738" lon="-0.74331">
        <ele>93.155892</ele>
        <time>2011-06-26T09:29:21Z</time>
      </trkpt>
      <trkpt lat="48.03733" lon="-0.74352">
        <ele>93.124159</ele>
        <time>2011-06-26T09:29:22Z</time>
      </trkpt>
      <trkpt lat="48.03726" lon="-0.74378">
        <ele>93.10052</ele>
        <time>2011-06-26T09:29:25Z</time>
      </trkpt>
      <trkpt lat="48.03722" lon="-0.74402">
        <ele>93.049088</ele>
        <time>2011-06-26T09:29:28Z</time>
      </trkpt>
      <trkpt lat="48.03723" lon="-0.74425">
        <ele>92.972577</ele>
        <time>2011-06-26T09:29:31Z</time>
      </trkpt>
      <trkpt lat="48.03725" lon="-0.7444">
        <ele>92.911924</ele>
        <time>2011-06-26T09:29:33Z</time>
      </trkpt>
      <trkpt lat="48.03725" lon="-0.7444">
        <ele>92.888114</ele>
        <time>2011-06-26T09:29:33Z</time>
      </trkpt>
      <trkpt lat="48.03728" lon="-0.74455">
        <ele>92.882212</ele>
        <time>2011-06-26T09:29:35Z</time>
      </trkpt>
      <trkpt lat="48.03734" lon="-0.74476">
        <ele>92.872856</ele>
        <time>2011-06-26T09:29:38Z</time>
      </trkpt>
      <trkpt lat="48.0374" lon="-0.74496">
        <ele>92.85277</ele>
        <time>2011-06-26T09:29:41Z</time>
      </trkpt>
      <trkpt lat="48.03747" lon="-0.74517">
        <ele>92.827491</ele>
        <time>2011-06-26T09:29:44Z</time>
      </trkpt>
      <trkpt lat="48.03751" lon="-0.74531">
        <ele>92.80831</ele>
        <time>2011-06-26T09:29:46Z</time>
      </trkpt>
      <trkpt lat="48.03755" lon="-0.74546">
        <ele>92.80109</ele>
        <time>2011-06-26T09:29:48Z</time>
      </trkpt>
      <trkpt lat="48.03761" lon="-0.74567">
        <ele>92.80894</ele>
        <time>2011-06-26T09:29:51Z</time>
      </trkpt>
      <trkpt lat="48.03763" lon="-0.7458">
        <ele>92.841603</ele>
        <time>2011-06-26T09:29:53Z</time>
      </trkpt>
      <trkpt lat="48.03766" lon="-0.74594">
        <ele>92.920644</ele>
        <time>2011-06-26T09:29:55Z</time>
      </trkpt>
      <trkpt lat="48.03768" lon="-0.74608">
        <ele>93.097373</ele>
        <time>2011-06-26T09:29:57Z</time>
      </trkpt>
      <trkpt lat="48.03773" lon="-0.74627">
        <ele>93.405071</ele>
        <time>2011-06-26T09:30:00Z</time>
      </trkpt>
      <trkpt lat="48.03777" lon="-0.74638">
        <ele>93.798945</ele>
        <time>2011-06-26T09:30:02Z</time>
      </trkpt>
      <trkpt lat="48.03784" lon="-0.74653">
        <ele>94.166644</ele>
        <time>2011-06-26T09:30:05Z</time>
      </trkpt>
      <trkpt lat="48.03792" lon="-0.7467">
        <ele>94.401045</ele>
        <time>2011-06-26T09:30:08Z</time>
      </trkpt>
      <trkpt lat="48.038" lon="-0.74687">
        <ele>94.482955</ele>
        <time>2011-06-26T09:30:11Z</time>
      </trkpt>
      <trkpt lat="48.03808" lon="-0.74705">
        <ele>94.477762</ele>
        <time>2011-06-26T09:30:14Z</time>
      </trkpt>
      <trkpt lat="48.03816" lon="-0.74722">
        <ele>94.395255</ele>
        <time>2011-06-26T09:30:17Z</time>
      </trkpt>
      <trkpt lat="48.03822" lon="-0.74732">
        <ele>94.169701</ele>
        <time>2011-06-26T09:30:19Z</time>
      </trkpt>
      <trkpt lat="48.03831" lon="-0.7475">
        <ele>93.852346</ele>
        <time>2011-06-26T09:30:22Z</time>
      </trkpt>
      <trkpt lat="48.03837" lon="-0.74761">
        <ele>93.615361</ele>
        <time>2011-06-26T09:30:24Z</time>
      </trkpt>
      <trkpt lat="48.03847" lon="-0.74779">
        <ele>93.527578</ele>
        <time>2011-06-26T09:30:27Z</time>
      </trkpt>
      <trkpt lat="48.03853" lon="-0.74791">
        <ele>93.569887</ele>
        <time>2011-06-26T09:30:29Z</time>
      </trkpt>
      <trkpt lat="48.03861" lon="-0.74809">
        <ele>93.759115</ele>
        <time>2011-06-26T09:30:32Z</time>
      </trkpt>
      <trkpt lat="48.03868" lon="-0.74828">
        <ele>94.08568</ele>
        <time>2011-06-26T09:30:35Z</time>
      </trkpt>
      <trkpt lat="48.03872" lon="-0.74846">
        <ele>94.427264</ele>
        <time>2011-06-26T09:30:38Z</time>
      </trkpt>
      <trkpt lat="48.03876" lon="-0.74863">
        <ele>94.641336</ele>
        <time>2011-06-26T09:30:41Z</time>
      </trkpt>
      <trkpt lat="48.03881" lon="-0.74872">
        <ele>94.704986</ele>
        <time>2011-06-26T09:30:43Z</time>
      </trkpt>
      <trkpt lat="48.03886" lon="-0.74882">
        <ele>94.623449</ele>
        <time>2011-06-26T09:30:45Z</time>
      </trkpt>
      <trkpt lat="48.03893" lon="-0.74898">
        <ele>94.402031</ele>
        <time>2011-06-26T09:30:48Z</time>
      </trkpt>
      <trkpt lat="48.03898" lon="-0.74909">
        <ele>94.149614</ele>
        <time>2011-06-26T09:30:50Z</time>
      </trkpt>
      <trkpt lat="48.03906" lon="-0.74925">
        <ele>93.984479</ele>
        <time>2011-06-26T09:30:53Z</time>
      </trkpt>
      <trkpt lat="48.03912" lon="-0.74937">
        <ele>93.919715</ele>
        <time>2011-06-26T09:30:55Z</time>
      </trkpt>
      <trkpt lat="48.03912" lon="-0.74937">
        <ele>93.909668</ele>
        <time>2011-06-26T09:30:57Z</time>
      </trkpt>
      <trkpt lat="48.03921" lon="-0.74953">
        <ele>93.913405</ele>
        <time>2011-06-26T09:30:58Z</time>
      </trkpt>
      <trkpt lat="48.03934" lon="-0.74961">
        <ele>93.999515</ele>
        <time>2011-06-26T09:31:01Z</time>
      </trkpt>
      <trkpt lat="48.03949" lon="-0.74961">
        <ele>94.288527</ele>
        <time>2011-06-26T09:31:04Z</time>
      </trkpt>
      <trkpt lat="48.0396" lon="-0.74959">
        <ele>94.81204</ele>
        <time>2011-06-26T09:31:06Z</time>
      </trkpt>
      <trkpt lat="48.03976" lon="-0.74955">
        <ele>95.402869</ele>
        <time>2011-06-26T09:31:09Z</time>
      </trkpt>
      <trkpt lat="48.03976" lon="-0.74955">
        <ele>95.805049</ele>
        <time>2011-06-26T09:31:09Z</time>
      </trkpt>
      <trkpt lat="48.03988" lon="-0.74967">
        <ele>95.939135</ele>
        <time>2011-06-26T09:31:12Z</time>
      </trkpt>
      <trkpt lat="48.03994" lon="-0.74983">
        <ele>95.919125</ele>
        <time>2011-06-26T09:31:14Z</time>
      </trkpt>
      <trkpt lat="48.03998" lon="-0.75002">
        <ele>95.797827</ele>
        <time>2011-06-26T09:31:16Z</time>
      </trkpt>
      <trkpt lat="48.04002" lon="-0.75022">
        <ele>95.588283</ele>
        <time>2011-06-26T09:31:18Z</time>
      </trkpt>
      <trkpt lat="48.04007" lon="-0.7505">
        <ele>95.35694</ele>
        <time>2011-06-26T09:31:21Z</time>
      </trkpt>
      <trkpt lat="48.04014" lon="-0.7508">
        <ele>95.133511</ele>
        <time>2011-06-26T09:31:24Z</time>
      </trkpt>
      <trkpt lat="48.0402" lon="-0.75113">
        <ele>94.86403</ele>
        <time>2011-06-26T09:31:27Z</time>
      </trkpt>
      <trkpt lat="48.04026" lon="-0.75147">
        <ele>94.481926</ele>
        <time>2011-06-26T09:31:30Z</time>
      </trkpt>
      <trkpt lat="48.04029" lon="-0.7517">
        <ele>93.981312</ele>
        <time>2011-06-26T09:31:32Z</time>
      </trkpt>
      <trkpt lat="48.04029" lon="-0.7517">
        <ele>93.508466</ele>
        <time>2011-06-26T09:31:33Z</time>
      </trkpt>
      <trkpt lat="48.04031" lon="-0.75191">
        <ele>93.20116</ele>
        <time>2011-06-26T09:31:34Z</time>
      </trkpt>
      <trkpt lat="48.04034" lon="-0.75211">
        <ele>93.001986</ele>
        <time>2011-06-26T09:31:36Z</time>
      </trkpt>
      <trkpt lat="48.04038" lon="-0.75239">
        <ele>92.793219</ele>
        <time>2011-06-26T09:31:39Z</time>
      </trkpt>
      <trkpt lat="48.04041" lon="-0.75266">
        <ele>92.548215</ele>
        <time>2011-06-26T09:31:42Z</time>
      </trkpt>
      <trkpt lat="48.04044" lon="-0.75293">
        <ele>92.306311</ele>
        <time>2011-06-26T09:31:45Z</time>
      </trkpt>
      <trkpt lat="48.04045" lon="-0.75313">
        <ele>92.107289</ele>
        <time>2011-06-26T09:31:47Z</time>
      </trkpt>
      <trkpt lat="48.04047" lon="-0.75344">
        <ele>91.931985</ele>
        <time>2011-06-26T09:31:50Z</time>
      </trkpt>
      <trkpt lat="48.04048" lon="-0.75363">
        <ele>91.737491</ele>
        <time>2011-06-26T09:31:52Z</time>
      </trkpt>
      <trkpt lat="48.0405" lon="-0.75382">
        <ele>91.515149</ele>
        <time>2011-06-26T09:31:54Z</time>
      </trkpt>
      <trkpt lat="48.04053" lon="-0.75401">
        <ele>91.210914</ele>
        <time>2011-06-26T09:31:57Z</time>
      </trkpt>
      <trkpt lat="48.04059" lon="-0.75403">
        <ele>90.775919</ele>
        <time>2011-06-26T09:31:59Z</time>
      </trkpt>
      <trkpt lat="48.04071" lon="-0.75395">
        <ele>90.312932</ele>
        <time>2011-06-26T09:32:02Z</time>
      </trkpt>
      <trkpt lat="48.04084" lon="-0.75383">
        <ele>89.970612</ele>
        <time>2011-06-26T09:32:05Z</time>
      </trkpt>
      <trkpt lat="48.041" lon="-0.75367">
        <ele>89.784988</ele>
        <time>2011-06-26T09:32:08Z</time>
      </trkpt>
      <trkpt lat="48.04117" lon="-0.75351">
        <ele>89.553639</ele>
        <time>2011-06-26T09:32:11Z</time>
      </trkpt>
      <trkpt lat="48.04129" lon="-0.7534">
        <ele>88.99868</ele>
        <time>2011-06-26T09:32:13Z</time>
      </trkpt>
      <trkpt lat="48.04147" lon="-0.75324">
        <ele>88.17886</ele>
        <time>2011-06-26T09:32:16Z</time>
      </trkpt>
      <trkpt lat="48.04159" lon="-0.75315">
        <ele>87.374336</ele>
        <time>2011-06-26T09:32:18Z</time>
      </trkpt>
      <trkpt lat="48.04177" lon="-0.75302">
        <ele>86.700736</ele>
        <time>2011-06-26T09:32:21Z</time>
      </trkpt>
      <trkpt lat="48.04195" lon="-0.75292">
        <ele>86.012203</ele>
        <time>2011-06-26T09:32:24Z</time>
      </trkpt>
      <trkpt lat="48.04207" lon="-0.75286">
        <ele>85.137637</ele>
        <time>2011-06-26T09:32:26Z</time>
      </trkpt>
      <trkpt lat="48.04219" lon="-0.75281">
        <ele>84.152664</ele>
        <time>2011-06-26T09:32:28Z</time>
      </trkpt>
      <trkpt lat="48.0423" lon="-0.75276">
        <ele>83.265087</ele>
        <time>2011-06-26T09:32:30Z</time>
      </trkpt>
      <trkpt lat="48.04248" lon="-0.75269">
        <ele>82.633496</ele>
        <time>2011-06-26T09:32:33Z</time>
      </trkpt>
      <trkpt lat="48.04266" lon="-0.75263">
        <ele>82.331911</ele>
        <time>2011-06-26T09:32:36Z</time>
      </trkpt>
      <trkpt lat="48.04279" lon="-0.75261">
        <ele>82.267087</ele>
        <time>2011-06-26T09:32:38Z</time>
      </trkpt>
      <trkpt lat="48.043" lon="-0.75255">
        <ele>82.281505</ele>
        <time>2011-06-26T09:32:41Z</time>
      </trkpt>
      <trkpt lat="48.04314" lon="-0.75252">
        <ele>82.292848</ele>
        <time>2011-06-26T09:32:43Z</time>
      </trkpt>
      <trkpt lat="48.04336" lon="-0.75247">
        <ele>82.258296</ele>
        <time>2011-06-26T09:32:46Z</time>
      </trkpt>
      <trkpt lat="48.0435" lon="-0.75245">
        <ele>82.079564</ele>
        <time>2011-06-26T09:32:48Z</time>
      </trkpt>
      <trkpt lat="48.04372" lon="-0.75242">
        <ele>81.695208</ele>
        <time>2011-06-26T09:32:51Z</time>
      </trkpt>
      <trkpt lat="48.04395" lon="-0.75238">
        <ele>81.199939</ele>
        <time>2011-06-26T09:32:54Z</time>
      </trkpt>
      <trkpt lat="48.04418" lon="-0.75234">
        <ele>80.741953</ele>
        <time>2011-06-26T09:32:57Z</time>
      </trkpt>
      <trkpt lat="48.04418" lon="-0.75234">
        <ele>80.421179</ele>
        <time>2011-06-26T09:32:57Z</time>
      </trkpt>
      <trkpt lat="48.0444" lon="-0.75232">
        <ele>80.229292</ele>
        <time>2011-06-26T09:33:00Z</time>
      </trkpt>
      <trkpt lat="48.04454" lon="-0.7523">
        <ele>80.033845</ele>
        <time>2011-06-26T09:33:02Z</time>
      </trkpt>
      <trkpt lat="48.04468" lon="-0.75229">
        <ele>79.655353</ele>
        <time>2011-06-26T09:33:04Z</time>
      </trkpt>
      <trkpt lat="48.04481" lon="-0.75228">
        <ele>79.007312</ele>
        <time>2011-06-26T09:33:06Z</time>
      </trkpt>
      <trkpt lat="48.045" lon="-0.75225">
        <ele>78.22681</ele>
        <time>2011-06-26T09:33:09Z</time>
      </trkpt>
      <trkpt lat="48.04514" lon="-0.75223">
        <ele>77.55184</ele>
        <time>2011-06-26T09:33:12Z</time>
      </trkpt>
      <trkpt lat="48.04519" lon="-0.75227">
        <ele>77.095226</ele>
        <time>2011-06-26T09:33:14Z</time>
      </trkpt>
      <trkpt lat="48.04524" lon="-0.75236">
        <ele>76.860311</ele>
        <time>2011-06-26T09:33:18Z</time>
      </trkpt>
      <trkpt lat="48.04524" lon="-0.75236">
        <ele>76.793382</ele>
        <time>2011-06-26T09:33:20Z</time>
      </trkpt>
      <trkpt lat="48.04523" lon="-0.75246">
        <ele>76.800303</ele>
        <time>2011-06-26T09:33:20Z</time>
      </trkpt>
      <trkpt lat="48.04523" lon="-0.75257">
        <ele>76.812529</ele>
        <time>2011-06-26T09:33:22Z</time>
      </trkpt>
      <trkpt lat="48.04526" lon="-0.75274">
        <ele>76.813354</ele>
        <time>2011-06-26T09:33:25Z</time>
      </trkpt>
      <trkpt lat="48.04529" lon="-0.75294">
        <ele>76.805556</ele>
        <time>2011-06-26T09:33:28Z</time>
      </trkpt>
      <trkpt lat="48.0453" lon="-0.75318">
        <ele>76.745779</ele>
        <time>2011-06-26T09:33:31Z</time>
      </trkpt>
      <trkpt lat="48.04533" lon="-0.75343">
        <ele>76.551744</ele>
        <time>2011-06-26T09:33:34Z</time>
      </trkpt>
      <trkpt lat="48.04539" lon="-0.75365">
        <ele>76.153978</ele>
        <time>2011-06-26T09:33:37Z</time>
      </trkpt>
      <trkpt lat="48.04543" lon="-0.75381">
        <ele>75.375515</ele>
        <time>2011-06-26T09:33:39Z</time>
      </trkpt>
      <trkpt lat="48.04546" lon="-0.75395">
        <ele>74.267807</ele>
        <time>2011-06-26T09:33:41Z</time>
      </trkpt>
      <trkpt lat="48.04552" lon="-0.75421">
        <ele>73.316128</ele>
        <time>2011-06-26T09:33:44Z</time>
      </trkpt>
      <trkpt lat="48.04558" lon="-0.7545">
        <ele>72.836878</ele>
        <time>2011-06-26T09:33:47Z</time>
      </trkpt>
      <trkpt lat="48.04562" lon="-0.75469">
        <ele>72.663395</ele>
        <time>2011-06-26T09:33:49Z</time>
      </trkpt>
      <trkpt lat="48.04564" lon="-0.75488">
        <ele>72.583622</ele>
        <time>2011-06-26T09:33:51Z</time>
      </trkpt>
      <trkpt lat="48.04568" lon="-0.75509">
        <ele>72.481841</ele>
        <time>2011-06-26T09:33:54Z</time>
      </trkpt>
      <trkpt lat="48.04571" lon="-0.75522">
        <ele>72.272394</ele>
        <time>2011-06-26T09:33:56Z</time>
      </trkpt>
      <trkpt lat="48.04574" lon="-0.7554">
        <ele>71.85492</ele>
        <time>2011-06-26T09:33:59Z</time>
      </trkpt>
      <trkpt lat="48.04578" lon="-0.75554">
        <ele>71.234805</ele>
        <time>2011-06-26T09:34:02Z</time>
      </trkpt>
      <trkpt lat="48.04584" lon="-0.75563">
        <ele>70.613956</ele>
        <time>2011-06-26T09:34:05Z</time>
      </trkpt>
      <trkpt lat="48.04591" lon="-0.7557">
        <ele>70.230241</ele>
        <time>2011-06-26T09:34:08Z</time>
      </trkpt>
      <trkpt lat="48.04599" lon="-0.75578">
        <ele>70.109978</ele>
        <time>2011-06-26T09:34:11Z</time>
      </trkpt>
      <trkpt lat="48.04604" lon="-0.75584">
        <ele>70.128873</ele>
        <time>2011-06-26T09:34:13Z</time>
      </trkpt>
      <trkpt lat="48.04614" lon="-0.756">
        <ele>70.178397</ele>
        <time>2011-06-26T09:34:18Z</time>
      </trkpt>
      <trkpt lat="48.04624" lon="-0.75615">
        <ele>70.257282</ele>
        <time>2011-06-26T09:34:24Z</time>
      </trkpt>
      <trkpt lat="48.04629" lon="-0.7562">
        <ele>70.426326</ele>
        <time>2011-06-26T09:34:26Z</time>
      </trkpt>
      <trkpt lat="48.04638" lon="-0.75629">
        <ele>70.767051</ele>
        <time>2011-06-26T09:34:29Z</time>
      </trkpt>
      <trkpt lat="48.04646" lon="-0.75639">
        <ele>71.373708</ele>
        <time>2011-06-26T09:34:32Z</time>
      </trkpt>
      <trkpt lat="48.0465" lon="-0.75645">
        <ele>72.152315</ele>
        <time>2011-06-26T09:34:34Z</time>
      </trkpt>
      <trkpt lat="48.04658" lon="-0.75659">
        <ele>72.831386</ele>
        <time>2011-06-26T09:34:39Z</time>
      </trkpt>
      <trkpt lat="48.04665" lon="-0.75668">
        <ele>73.295952</ele>
        <time>2011-06-26T09:34:42Z</time>
      </trkpt>
      <trkpt lat="48.04671" lon="-0.75676">
        <ele>73.607094</ele>
        <time>2011-06-26T09:34:44Z</time>
      </trkpt>
      <trkpt lat="48.04677" lon="-0.75685">
        <ele>73.839701</ele>
        <time>2011-06-26T09:34:46Z</time>
      </trkpt>
      <trkpt lat="48.04683" lon="-0.75694">
        <ele>74.048529</ele>
        <time>2011-06-26T09:34:48Z</time>
      </trkpt>
      <trkpt lat="48.04689" lon="-0.75703">
        <ele>74.240086</ele>
        <time>2011-06-26T09:34:50Z</time>
      </trkpt>
      <trkpt lat="48.047" lon="-0.75715">
        <ele>74.394181</ele>
        <time>2011-06-26T09:34:53Z</time>
      </trkpt>
      <trkpt lat="48.0471" lon="-0.75725">
        <ele>74.508144</ele>
        <time>2011-06-26T09:34:56Z</time>
      </trkpt>
      <trkpt lat="48.04716" lon="-0.75732">
        <ele>74.600931</ele>
        <time>2011-06-26T09:34:58Z</time>
      </trkpt>
      <trkpt lat="48.04726" lon="-0.75742">
        <ele>74.749652</ele>
        <time>2011-06-26T09:35:01Z</time>
      </trkpt>
      <trkpt lat="48.04732" lon="-0.7575">
        <ele>75.084797</ele>
        <time>2011-06-26T09:35:03Z</time>
      </trkpt>
      <trkpt lat="48.04741" lon="-0.75763">
        <ele>75.638781</ele>
        <time>2011-06-26T09:35:06Z</time>
      </trkpt>
      <trkpt lat="48.04749" lon="-0.75773">
        <ele>76.324074</ele>
        <time>2011-06-26T09:35:08Z</time>
      </trkpt>
      <trkpt lat="48.04758" lon="-0.75787">
        <ele>77.038216</ele>
        <time>2011-06-26T09:35:11Z</time>
      </trkpt>
      <trkpt lat="48.04766" lon="-0.758">
        <ele>77.731238</ele>
        <time>2011-06-26T09:35:14Z</time>
      </trkpt>
      <trkpt lat="48.04766" lon="-0.758">
        <ele>78.319304</ele>
        <time>2011-06-26T09:35:15Z</time>
      </trkpt>
      <trkpt lat="48.04772" lon="-0.75807">
        <ele>78.736727</ele>
        <time>2011-06-26T09:35:16Z</time>
      </trkpt>
      <trkpt lat="48.04783" lon="-0.75814">
        <ele>79.090857</ele>
        <time>2011-06-26T09:35:19Z</time>
      </trkpt>
      <trkpt lat="48.04798" lon="-0.7582">
        <ele>79.464015</ele>
        <time>2011-06-26T09:35:22Z</time>
      </trkpt>
      <trkpt lat="48.04811" lon="-0.75821">
        <ele>79.730274</ele>
        <time>2011-06-26T09:35:25Z</time>
      </trkpt>
      <trkpt lat="48.04819" lon="-0.7582">
        <ele>79.807423</ele>
        <time>2011-06-26T09:35:27Z</time>
      </trkpt>
      <trkpt lat="48.04827" lon="-0.75819">
        <ele>79.653578</ele>
        <time>2011-06-26T09:35:29Z</time>
      </trkpt>
      <trkpt lat="48.04838" lon="-0.75817">
        <ele>79.304696</ele>
        <time>2011-06-26T09:35:32Z</time>
      </trkpt>
      <trkpt lat="48.04847" lon="-0.75817">
        <ele>78.96022</ele>
        <time>2011-06-26T09:35:34Z</time>
      </trkpt>
      <trkpt lat="48.04847" lon="-0.75817">
        <ele>78.761702</ele>
        <time>2011-06-26T09:35:34Z</time>
      </trkpt>
      <trkpt lat="48.04861" lon="-0.75816">
        <ele>78.670983</ele>
        <time>2011-06-26T09:35:37Z</time>
      </trkpt>
      <trkpt lat="48.04874" lon="-0.75812">
        <ele>78.565886</ele>
        <time>2011-06-26T09:35:39Z</time>
      </trkpt>
      <trkpt lat="48.04895" lon="-0.75805">
        <ele>78.339138</ele>
        <time>2011-06-26T09:35:42Z</time>
      </trkpt>
      <trkpt lat="48.04913" lon="-0.75798">
        <ele>78.026961</ele>
        <time>2011-06-26T09:35:44Z</time>
      </trkpt>
      <trkpt lat="48.04929" lon="-0.7579">
        <ele>77.662472</ele>
        <time>2011-06-26T09:35:46Z</time>
      </trkpt>
      <trkpt lat="48.04955" lon="-0.75777">
        <ele>77.051314</ele>
        <time>2011-06-26T09:35:49Z</time>
      </trkpt>
      <trkpt lat="48.04974" lon="-0.75769">
        <ele>75.901061</ele>
        <time>2011-06-26T09:35:51Z</time>
      </trkpt>
      <trkpt lat="48.04999" lon="-0.75755">
        <ele>74.297998</ele>
        <time>2011-06-26T09:35:54Z</time>
      </trkpt>
      <trkpt lat="48.05011" lon="-0.75748">
        <ele>72.824091</ele>
        <time>2011-06-26T09:35:56Z</time>
      </trkpt>
      <trkpt lat="48.05029" lon="-0.75741">
        <ele>71.945638</ele>
        <time>2011-06-26T09:35:59Z</time>
      </trkpt>
      <trkpt lat="48.05041" lon="-0.75738">
        <ele>71.55519</ele>
        <time>2011-06-26T09:36:01Z</time>
      </trkpt>
      <trkpt lat="48.0506" lon="-0.75735">
        <ele>71.318999</ele>
        <time>2011-06-26T09:36:07Z</time>
      </trkpt>
      <trkpt lat="48.0506" lon="-0.75735">
        <ele>71.150171</ele>
        <time>2011-06-26T09:36:11Z</time>
      </trkpt>
      <trkpt lat="48.0506" lon="-0.75735">
        <ele>71.091466</ele>
        <time>2011-06-26T09:36:17Z</time>
      </trkpt>
      <trkpt lat="48.05069" lon="-0.75752">
        <ele>70.669861</ele>
        <time>2011-06-26T09:36:17Z</time>
      </trkpt>
      <trkpt lat="48.0507" lon="-0.75762">
        <ele>69.194865</ele>
        <time>2011-06-26T09:36:19Z</time>
      </trkpt>
      <trkpt lat="48.05072" lon="-0.75772">
        <ele>66.82278</ele>
        <time>2011-06-26T09:36:21Z</time>
      </trkpt>
      <trkpt lat="48.05075" lon="-0.75787">
        <ele>64.535938</ele>
        <time>2011-06-26T09:36:24Z</time>
      </trkpt>
      <trkpt lat="48.05077" lon="-0.75798">
        <ele>63.113211</ele>
        <time>2011-06-26T09:36:26Z</time>
      </trkpt>
      <trkpt lat="48.05084" lon="-0.75817">
        <ele>62.609413</ele>
        <time>2011-06-26T09:36:29Z</time>
      </trkpt>
      <trkpt lat="48.05094" lon="-0.75837">
        <ele>62.592612</ele>
        <time>2011-06-26T09:36:32Z</time>
      </trkpt>
      <trkpt lat="48.05103" lon="-0.75858">
        <ele>62.667489</ele>
        <time>2011-06-26T09:36:35Z</time>
      </trkpt>
      <trkpt lat="48.05103" lon="-0.75858">
        <ele>62.677979</ele>
        <time>2011-06-26T09:36:35Z</time>
      </trkpt>
      <trkpt lat="48.05107" lon="-0.75874">
        <ele>62.461169</ele>
        <time>2011-06-26T09:36:37Z</time>
      </trkpt>
      <trkpt lat="48.05109" lon="-0.759">
        <ele>61.72313</ele>
        <time>2011-06-26T09:36:40Z</time>
      </trkpt>
      <trkpt lat="48.05105" lon="-0.75917">
        <ele>60.502467</ele>
        <time>2011-06-26T09:36:42Z</time>
      </trkpt>
      <trkpt lat="48.05093" lon="-0.75947">
        <ele>59.322995</ele>
        <time>2011-06-26T09:36:45Z</time>
      </trkpt>
      <trkpt lat="48.05084" lon="-0.75968">
        <ele>58.421093</ele>
        <time>2011-06-26T09:36:47Z</time>
      </trkpt>
      <trkpt lat="48.05075" lon="-0.75988">
        <ele>57.534705</ele>
        <time>2011-06-26T09:36:49Z</time>
      </trkpt>
      <trkpt lat="48.0507" lon="-0.76008">
        <ele>56.468707</ele>
        <time>2011-06-26T09:36:51Z</time>
      </trkpt>
      <trkpt lat="48.05068" lon="-0.76024">
        <ele>55.308481</ele>
        <time>2011-06-26T09:36:53Z</time>
      </trkpt>
      <trkpt lat="48.05066" lon="-0.7604">
        <ele>54.142543</ele>
        <time>2011-06-26T09:36:56Z</time>
      </trkpt>
      <trkpt lat="48.05067" lon="-0.76052">
        <ele>53.020514</ele>
        <time>2011-06-26T09:36:59Z</time>
      </trkpt>
      <trkpt lat="48.05081" lon="-0.76047">
        <ele>52.049854</ele>
        <time>2011-06-26T09:37:05Z</time>
      </trkpt>
      <trkpt lat="48.05086" lon="-0.76042">
        <ele>51.385246</ele>
        <time>2011-06-26T09:37:08Z</time>
      </trkpt>
      <trkpt lat="48.05092" lon="-0.76039">
        <ele>51.055096</ele>
        <time>2011-06-26T09:37:15Z</time>
      </trkpt>
      <trkpt lat="48.05098" lon="-0.76034">
        <ele>50.922671</ele>
        <time>2011-06-26T09:37:18Z</time>
      </trkpt>
      <trkpt lat="48.05108" lon="-0.7603">
        <ele>50.809116</ele>
        <time>2011-06-26T09:37:21Z</time>
      </trkpt>
      <trkpt lat="48.05115" lon="-0.76028">
        <ele>50.584979</ele>
        <time>2011-06-26T09:37:23Z</time>
      </trkpt>
      <trkpt lat="48.05124" lon="-0.76026">
        <ele>50.208897</ele>
        <time>2011-06-26T09:37:26Z</time>
      </trkpt>
      <trkpt lat="48.05135" lon="-0.76024">
        <ele>49.76797</ele>
        <time>2011-06-26T09:37:29Z</time>
      </trkpt>
      <trkpt lat="48.05147" lon="-0.76021">
        <ele>49.377553</ele>
        <time>2011-06-26T09:37:32Z</time>
      </trkpt>
      <trkpt lat="48.05155" lon="-0.76019">
        <ele>49.049671</ele>
        <time>2011-06-26T09:37:34Z</time>
      </trkpt>
      <trkpt lat="48.05169" lon="-0.76017">
        <ele>48.732121</ele>
        <time>2011-06-26T09:37:37Z</time>
      </trkpt>
      <trkpt lat="48.05178" lon="-0.76016">
        <ele>48.159941</ele>
        <time>2011-06-26T09:37:39Z</time>
      </trkpt>
      <trkpt lat="48.0519" lon="-0.76012">
        <ele>46.8866</ele>
        <time>2011-06-26T09:37:42Z</time>
      </trkpt>
      <trkpt lat="48.05198" lon="-0.76011">
        <ele>44.775784</ele>
        <time>2011-06-26T09:37:44Z</time>
      </trkpt>
      <trkpt lat="48.05209" lon="-0.7601">
        <ele>42.392883</ele>
        <time>2011-06-26T09:37:47Z</time>
      </trkpt>
      <trkpt lat="48.05217" lon="-0.76009">
        <ele>40.532921</ele>
        <time>2011-06-26T09:37:49Z</time>
      </trkpt>
      <trkpt lat="48.05228" lon="-0.76006">
        <ele>39.544982</ele>
        <time>2011-06-26T09:37:52Z</time>
      </trkpt>
      <trkpt lat="48.05235" lon="-0.76003">
        <ele>39.255289</ele>
        <time>2011-06-26T09:37:54Z</time>
      </trkpt>
      <trkpt lat="48.05246" lon="-0.76001">
        <ele>39.316643</ele>
        <time>2011-06-26T09:37:57Z</time>
      </trkpt>
      <trkpt lat="48.05254" lon="-0.76">
        <ele>39.442333</ele>
        <time>2011-06-26T09:37:59Z</time>
      </trkpt>
      <trkpt lat="48.05266" lon="-0.75997">
        <ele>39.516545</ele>
        <time>2011-06-26T09:38:02Z</time>
      </trkpt>
      <trkpt lat="48.05279" lon="-0.75993">
        <ele>39.533699</ele>
        <time>2011-06-26T09:38:05Z</time>
      </trkpt>
      <trkpt lat="48.05292" lon="-0.75991">
        <ele>39.510601</ele>
        <time>2011-06-26T09:38:08Z</time>
      </trkpt>
      <trkpt lat="48.05305" lon="-0.75989">
        <ele>39.434422</ele>
        <time>2011-06-26T09:38:11Z</time>
      </trkpt>
      <trkpt lat="48.05313" lon="-0.75988">
        <ele>39.195035</ele>
        <time>2011-06-26T09:38:13Z</time>
      </trkpt>
      <trkpt lat="48.05328" lon="-0.75985">
        <ele>38.677345</ele>
        <time>2011-06-26T09:38:16Z</time>
      </trkpt>
      <trkpt lat="48.05343" lon="-0.7598">
        <ele>37.988276</ele>
        <time>2011-06-26T09:38:19Z</time>
      </trkpt>
      <trkpt lat="48.05358" lon="-0.75974">
        <ele>37.410997</ele>
        <time>2011-06-26T09:38:22Z</time>
      </trkpt>
      <trkpt lat="48.0537" lon="-0.75972">
        <ele>37.087155</ele>
        <time>2011-06-26T09:38:25Z</time>
      </trkpt>
      <trkpt lat="48.05377" lon="-0.7597">
        <ele>36.898299</ele>
        <time>2011-06-26T09:38:27Z</time>
      </trkpt>
      <trkpt lat="48.05386" lon="-0.75965">
        <ele>36.661953</ele>
        <time>2011-06-26T09:38:30Z</time>
      </trkpt>
      <trkpt lat="48.05393" lon="-0.75962">
        <ele>36.345103</ele>
        <time>2011-06-26T09:38:32Z</time>
      </trkpt>
      <trkpt lat="48.05405" lon="-0.75957">
        <ele>36.04872</ele>
        <time>2011-06-26T09:38:35Z</time>
      </trkpt>
      <trkpt lat="48.05414" lon="-0.75954">
        <ele>35.854402</ele>
        <time>2011-06-26T09:38:37Z</time>
      </trkpt>
      <trkpt lat="48.05423" lon="-0.75951">
        <ele>35.749324</ele>
        <time>2011-06-26T09:38:39Z</time>
      </trkpt>
      <trkpt lat="48.0543" lon="-0.75948">
        <ele>35.627504</ele>
        <time>2011-06-26T09:38:41Z</time>
      </trkpt>
      <trkpt lat="48.05441" lon="-0.75941">
        <ele>35.433532</ele>
        <time>2011-06-26T09:38:44Z</time>
      </trkpt>
      <trkpt lat="48.0545" lon="-0.75936">
        <ele>35.252194</ele>
        <time>2011-06-26T09:38:46Z</time>
      </trkpt>
      <trkpt lat="48.05458" lon="-0.75932">
        <ele>35.164033</ele>
        <time>2011-06-26T09:38:48Z</time>
      </trkpt>
      <trkpt lat="48.05471" lon="-0.75927">
        <ele>35.129735</ele>
        <time>2011-06-26T09:38:51Z</time>
      </trkpt>
      <trkpt lat="48.05484" lon="-0.75922">
        <ele>35.072894</ele>
        <time>2011-06-26T09:38:54Z</time>
      </trkpt>
      <trkpt lat="48.05494" lon="-0.75918">
        <ele>34.936017</ele>
        <time>2011-06-26T09:38:56Z</time>
      </trkpt>
      <trkpt lat="48.05507" lon="-0.75911">
        <ele>34.709954</ele>
        <time>2011-06-26T09:38:59Z</time>
      </trkpt>
      <trkpt lat="48.05518" lon="-0.75904">
        <ele>34.392421</ele>
        <time>2011-06-26T09:39:02Z</time>
      </trkpt>
      <trkpt lat="48.0553" lon="-0.75898">
        <ele>33.956715</ele>
        <time>2011-06-26T09:39:05Z</time>
      </trkpt>
      <trkpt lat="48.05543" lon="-0.75892">
        <ele>33.422576</ele>
        <time>2011-06-26T09:39:08Z</time>
      </trkpt>
      <trkpt lat="48.05554" lon="-0.75885">
        <ele>32.834747</ele>
        <time>2011-06-26T09:39:11Z</time>
      </trkpt>
      <trkpt lat="48.05562" lon="-0.75877">
        <ele>32.196397</ele>
        <time>2011-06-26T09:39:14Z</time>
      </trkpt>
      <trkpt lat="48.05568" lon="-0.75871">
        <ele>31.496366</ele>
        <time>2011-06-26T09:39:16Z</time>
      </trkpt>
      <trkpt lat="48.0558" lon="-0.75865">
        <ele>30.767686</ele>
        <time>2011-06-26T09:39:19Z</time>
      </trkpt>
      <trkpt lat="48.05585" lon="-0.7586">
        <ele>30.146215</ele>
        <time>2011-06-26T09:39:21Z</time>
      </trkpt>
      <trkpt lat="48.056" lon="-0.75847">
        <ele>29.771964</ele>
        <time>2011-06-26T09:39:27Z</time>
      </trkpt>
      <trkpt lat="48.05611" lon="-0.75839">
        <ele>29.575793</ele>
        <time>2011-06-26T09:39:30Z</time>
      </trkpt>
      <trkpt lat="48.0562" lon="-0.75834">
        <ele>29.378499</ele>
        <time>2011-06-26T09:39:32Z</time>
      </trkpt>
      <trkpt lat="48.05629" lon="-0.75829">
        <ele>29.074709</ele>
        <time>2011-06-26T09:39:34Z</time>
      </trkpt>
      <trkpt lat="48.05643" lon="-0.75823">
        <ele>28.694358</ele>
        <time>2011-06-26T09:39:37Z</time>
      </trkpt>
      <trkpt lat="48.05652" lon="-0.75819">
        <ele>28.381535</ele>
        <time>2011-06-26T09:39:39Z</time>
      </trkpt>
      <trkpt lat="48.05659" lon="-0.75815">
        <ele>28.236056</ele>
        <time>2011-06-26T09:39:41Z</time>
      </trkpt>
      <trkpt lat="48.05666" lon="-0.75809">
        <ele>28.215792</ele>
        <time>2011-06-26T09:39:44Z</time>
      </trkpt>
      <trkpt lat="48.05676" lon="-0.75807">
        <ele>28.314875</ele>
        <time>2011-06-26T09:39:47Z</time>
      </trkpt>
      <trkpt lat="48.05694" lon="-0.75804">
        <ele>28.537361</ele>
        <time>2011-06-26T09:39:50Z</time>
      </trkpt>
      <trkpt lat="48.05703" lon="-0.75803">
        <ele>28.772193</ele>
        <time>2011-06-26T09:39:53Z</time>
      </trkpt>
      <trkpt lat="48.05708" lon="-0.75803">
        <ele>28.974018</ele>
        <time>2011-06-26T09:39:56Z</time>
      </trkpt>
      <trkpt lat="48.05708" lon="-0.75803">
        <ele>29.186511</ele>
        <time>2011-06-26T09:40:00Z</time>
      </trkpt>
      <trkpt lat="48.05729" lon="-0.75813">
        <ele>29.413849</ele>
        <time>2011-06-26T09:40:06Z</time>
      </trkpt>
      <trkpt lat="48.0574" lon="-0.75816">
        <ele>29.642237</ele>
        <time>2011-06-26T09:40:09Z</time>
      </trkpt>
      <trkpt lat="48.0574" lon="-0.75816">
        <ele>29.818661</ele>
        <time>2011-06-26T09:40:10Z</time>
      </trkpt>
      <trkpt lat="48.05749" lon="-0.75816">
        <ele>29.930467</ele>
        <time>2011-06-26T09:40:11Z</time>
      </trkpt>
      <trkpt lat="48.05762" lon="-0.7581">
        <ele>30.141638</ele>
        <time>2011-06-26T09:40:14Z</time>
      </trkpt>
      <trkpt lat="48.05771" lon="-0.75799">
        <ele>30.555578</ele>
        <time>2011-06-26T09:40:17Z</time>
      </trkpt>
      <trkpt lat="48.05777" lon="-0.75792">
        <ele>31.248596</ele>
        <time>2011-06-26T09:40:19Z</time>
      </trkpt>
      <trkpt lat="48.05785" lon="-0.75781">
        <ele>32.19596</ele>
        <time>2011-06-26T09:40:22Z</time>
      </trkpt>
      <trkpt lat="48.0579" lon="-0.75775">
        <ele>33.086039</ele>
        <time>2011-06-26T09:40:24Z</time>
      </trkpt>
      <trkpt lat="48.05797" lon="-0.75765">
        <ele>33.644628</ele>
        <time>2011-06-26T09:40:27Z</time>
      </trkpt>
      <trkpt lat="48.05805" lon="-0.75755">
        <ele>33.945988</ele>
        <time>2011-06-26T09:40:30Z</time>
      </trkpt>
      <trkpt lat="48.05813" lon="-0.75744">
        <ele>34.143107</ele>
        <time>2011-06-26T09:40:33Z</time>
      </trkpt>
      <trkpt lat="48.05819" lon="-0.75736">
        <ele>34.330838</ele>
        <time>2011-06-26T09:40:35Z</time>
      </trkpt>
      <trkpt lat="48.05827" lon="-0.75727">
        <ele>34.539487</ele>
        <time>2011-06-26T09:40:38Z</time>
      </trkpt>
      <trkpt lat="48.05836" lon="-0.75725">
        <ele>34.764667</ele>
        <time>2011-06-26T09:40:41Z</time>
      </trkpt>
      <trkpt lat="48.05836" lon="-0.75725">
        <ele>34.957917</ele>
        <time>2011-06-26T09:40:43Z</time>
      </trkpt>
      <trkpt lat="48.05846" lon="-0.75726">
        <ele>35.084021</ele>
        <time>2011-06-26T09:40:44Z</time>
      </trkpt>
      <trkpt lat="48.05854" lon="-0.75729">
        <ele>35.178108</ele>
        <time>2011-06-26T09:40:46Z</time>
      </trkpt>
      <trkpt lat="48.05865" lon="-0.75733">
        <ele>35.291252</ele>
        <time>2011-06-26T09:40:49Z</time>
      </trkpt>
      <trkpt lat="48.05874" lon="-0.75734">
        <ele>35.421954</ele>
        <time>2011-06-26T09:40:51Z</time>
      </trkpt>
      <trkpt lat="48.05889" lon="-0.75731">
        <ele>35.542969</ele>
        <time>2011-06-26T09:40:54Z</time>
      </trkpt>
      <trkpt lat="48.05903" lon="-0.75726">
        <ele>35.634612</ele>
        <time>2011-06-26T09:40:57Z</time>
      </trkpt>
      <trkpt lat="48.05909" lon="-0.75717">
        <ele>35.695852</ele>
        <time>2011-06-26T09:40:59Z</time>
      </trkpt>
      <trkpt lat="48.05919" lon="-0.7572">
        <ele>35.737287</ele>
        <time>2011-06-26T09:41:02Z</time>
      </trkpt>
      <trkpt lat="48.05923" lon="-0.75729">
        <ele>35.775592</ele>
        <time>2011-06-26T09:41:04Z</time>
      </trkpt>
      <trkpt lat="48.05926" lon="-0.75741">
        <ele>35.819441</ele>
        <time>2011-06-26T09:41:06Z</time>
      </trkpt>
      <trkpt lat="48.05931" lon="-0.75759">
        <ele>35.856794</ele>
        <time>2011-06-26T09:41:09Z</time>
      </trkpt>
      <trkpt lat="48.05938" lon="-0.75772">
        <ele>35.881069</ele>
        <time>2011-06-26T09:41:12Z</time>
      </trkpt>
      <trkpt lat="48.05942" lon="-0.7578">
        <ele>36.034687</ele>
        <time>2011-06-26T09:41:15Z</time>
      </trkpt>
      <trkpt lat="48.05941" lon="-0.75791">
        <ele>36.504903</ele>
        <time>2011-06-26T09:41:18Z</time>
      </trkpt>
      <trkpt lat="48.05939" lon="-0.75803">
        <ele>37.163866</ele>
        <time>2011-06-26T09:41:21Z</time>
      </trkpt>
      <trkpt lat="48.05943" lon="-0.75814">
        <ele>37.668217</ele>
        <time>2011-06-26T09:41:24Z</time>
      </trkpt>
      <trkpt lat="48.05948" lon="-0.75822">
        <ele>37.884449</ele>
        <time>2011-06-26T09:41:26Z</time>
      </trkpt>
      <trkpt lat="48.05955" lon="-0.75833">
        <ele>37.90923</ele>
        <time>2011-06-26T09:41:29Z</time>
      </trkpt>
      <trkpt lat="48.0596" lon="-0.75843">
        <ele>37.880962</ele>
        <time>2011-06-26T09:41:32Z</time>
      </trkpt>
      <trkpt lat="48.05966" lon="-0.75847">
        <ele>37.892696</ele>
        <time>2011-06-26T09:41:34Z</time>
      </trkpt>
      <trkpt lat="48.05972" lon="-0.75851">
        <ele>37.984443</ele>
        <time>2011-06-26T09:41:36Z</time>
      </trkpt>
      <trkpt lat="48.05982" lon="-0.75856">
        <ele>38.159033</ele>
        <time>2011-06-26T09:41:39Z</time>
      </trkpt>
      <trkpt lat="48.05989" lon="-0.75859">
        <ele>38.380402</ele>
        <time>2011-06-26T09:41:41Z</time>
      </trkpt>
      <trkpt lat="48.05996" lon="-0.75862">
        <ele>38.597228</ele>
        <time>2011-06-26T09:41:43Z</time>
      </trkpt>
      <trkpt lat="48.06006" lon="-0.75866">
        <ele>38.799797</ele>
        <time>2011-06-26T09:41:46Z</time>
      </trkpt>
      <trkpt lat="48.06016" lon="-0.7587">
        <ele>39.000748</ele>
        <time>2011-06-26T09:41:49Z</time>
      </trkpt>
      <trkpt lat="48.06027" lon="-0.75875">
        <ele>39.190058</ele>
        <time>2011-06-26T09:41:52Z</time>
      </trkpt>
      <trkpt lat="48.06034" lon="-0.75877">
        <ele>39.366901</ele>
        <time>2011-06-26T09:41:54Z</time>
      </trkpt>
      <trkpt lat="48.06044" lon="-0.75883">
        <ele>39.55633</ele>
        <time>2011-06-26T09:41:57Z</time>
      </trkpt>
      <trkpt lat="48.06051" lon="-0.75885">
        <ele>39.770148</ele>
        <time>2011-06-26T09:41:59Z</time>
      </trkpt>
      <trkpt lat="48.06062" lon="-0.7589">
        <ele>39.988478</ele>
        <time>2011-06-26T09:42:02Z</time>
      </trkpt>
      <trkpt lat="48.06069" lon="-0.75893">
        <ele>40.191567</ele>
        <time>2011-06-26T09:42:04Z</time>
      </trkpt>
      <trkpt lat="48.06075" lon="-0.75895">
        <ele>40.374937</ele>
        <time>2011-06-26T09:42:06Z</time>
      </trkpt>
      <trkpt lat="48.06085" lon="-0.75901">
        <ele>40.538041</ele>
        <time>2011-06-26T09:42:09Z</time>
      </trkpt>
      <trkpt lat="48.06091" lon="-0.75904">
        <ele>40.679162</ele>
        <time>2011-06-26T09:42:11Z</time>
      </trkpt>
      <trkpt lat="48.06098" lon="-0.75909">
        <ele>40.797688</ele>
        <time>2011-06-26T09:42:13Z</time>
      </trkpt>
      <trkpt lat="48.06106" lon="-0.75914">
        <ele>40.898501</ele>
        <time>2011-06-26T09:42:16Z</time>
      </trkpt>
      <trkpt lat="48.06112" lon="-0.75917">
        <ele>40.991323</ele>
        <time>2011-06-26T09:42:18Z</time>
      </trkpt>
      <trkpt lat="48.06117" lon="-0.75922">
        <ele>41.078738</ele>
        <time>2011-06-26T09:42:20Z</time>
      </trkpt>
      <trkpt lat="48.06116" lon="-0.7593">
        <ele>41.181964</ele>
        <time>2011-06-26T09:42:23Z</time>
      </trkpt>
      <trkpt lat="48.06113" lon="-0.75937">
        <ele>41.328917</ele>
        <time>2011-06-26T09:42:25Z</time>
      </trkpt>
      <trkpt lat="48.0611" lon="-0.75943">
        <ele>41.514683</ele>
        <time>2011-06-26T09:42:27Z</time>
      </trkpt>
      <trkpt lat="48.06105" lon="-0.75949">
        <ele>41.733057</ele>
        <time>2011-06-26T09:42:29Z</time>
      </trkpt>
      <trkpt lat="48.06096" lon="-0.75959">
        <ele>41.979647</ele>
        <time>2011-06-26T09:42:32Z</time>
      </trkpt>
      <trkpt lat="48.06096" lon="-0.75959">
        <ele>42.195784</ele>
        <time>2011-06-26T09:42:33Z</time>
      </trkpt>
      <trkpt lat="48.0609" lon="-0.75967">
        <ele>42.338886</ele>
        <time>2011-06-26T09:42:34Z</time>
      </trkpt>
      <trkpt lat="48.06084" lon="-0.75974">
        <ele>42.451659</ele>
        <time>2011-06-26T09:42:36Z</time>
      </trkpt>
      <trkpt lat="48.06077" lon="-0.75987">
        <ele>42.587836</ele>
        <time>2011-06-26T09:42:39Z</time>
      </trkpt>
      <trkpt lat="48.06068" lon="-0.76001">
        <ele>42.747067</ele>
        <time>2011-06-26T09:42:42Z</time>
      </trkpt>
      <trkpt lat="48.06062" lon="-0.76011">
        <ele>42.902135</ele>
        <time>2011-06-26T09:42:44Z</time>
      </trkpt>
      <trkpt lat="48.06062" lon="-0.76011">
        <ele>43.020081</ele>
        <time>2011-06-26T09:42:46Z</time>
      </trkpt>
      <trkpt lat="48.06053" lon="-0.76026">
        <ele>43.273366</ele>
        <time>2011-06-26T09:42:47Z</time>
      </trkpt>
      <trkpt lat="48.06047" lon="-0.76035">
        <ele>43.98605</ele>
        <time>2011-06-26T09:42:49Z</time>
      </trkpt>
      <trkpt lat="48.06037" lon="-0.7605">
        <ele>45.098883</ele>
        <time>2011-06-26T09:42:52Z</time>
      </trkpt>
      <trkpt lat="48.06031" lon="-0.7606">
        <ele>46.219888</ele>
        <time>2011-06-26T09:42:54Z</time>
      </trkpt>
      <trkpt lat="48.06025" lon="-0.76069">
        <ele>47.133201</ele>
        <time>2011-06-26T09:42:56Z</time>
      </trkpt>
      <trkpt lat="48.06017" lon="-0.76084">
        <ele>47.813586</ele>
        <time>2011-06-26T09:42:59Z</time>
      </trkpt>
      <trkpt lat="48.06009" lon="-0.76099">
        <ele>48.267734</ele>
        <time>2011-06-26T09:43:02Z</time>
      </trkpt>
      <trkpt lat="48.06" lon="-0.76114">
        <ele>48.512818</ele>
        <time>2011-06-26T09:43:05Z</time>
      </trkpt>
      <trkpt lat="48.05992" lon="-0.76129">
        <ele>48.585991</ele>
        <time>2011-06-26T09:43:08Z</time>
      </trkpt>
      <trkpt lat="48.05983" lon="-0.76144">
        <ele>48.571184</ele>
        <time>2011-06-26T09:43:11Z</time>
      </trkpt>
      <trkpt lat="48.05974" lon="-0.76158">
        <ele>48.504244</ele>
        <time>2011-06-26T09:43:14Z</time>
      </trkpt>
      <trkpt lat="48.05964" lon="-0.76172">
        <ele>48.369087</ele>
        <time>2011-06-26T09:43:17Z</time>
      </trkpt>
      <trkpt lat="48.05958" lon="-0.76182">
        <ele>48.168192</ele>
        <time>2011-06-26T09:43:19Z</time>
      </trkpt>
      <trkpt lat="48.0595" lon="-0.76196">
        <ele>47.957021</ele>
        <time>2011-06-26T09:43:22Z</time>
      </trkpt>
      <trkpt lat="48.05945" lon="-0.76204">
        <ele>47.810238</ele>
        <time>2011-06-26T09:43:24Z</time>
      </trkpt>
      <trkpt lat="48.05945" lon="-0.76204">
        <ele>47.751223</ele>
        <time>2011-06-26T09:43:24Z</time>
      </trkpt>
      <trkpt lat="48.0594" lon="-0.76212">
        <ele>47.735553</ele>
        <time>2011-06-26T09:43:27Z</time>
      </trkpt>
      <trkpt lat="48.05934" lon="-0.76212">
        <ele>47.712371</ele>
        <time>2011-06-26T09:43:30Z</time>
      </trkpt>
      <trkpt lat="48.05928" lon="-0.76201">
        <ele>47.65451</ele>
        <time>2011-06-26T09:43:33Z</time>
      </trkpt>
      <trkpt lat="48.05923" lon="-0.76187">
        <ele>47.577791</ele>
        <time>2011-06-26T09:43:35Z</time>
      </trkpt>
      <trkpt lat="48.05915" lon="-0.76166">
        <ele>47.512661</ele>
        <time>2011-06-26T09:43:38Z</time>
      </trkpt>
      <trkpt lat="48.05905" lon="-0.76146">
        <ele>47.460668</ele>
        <time>2011-06-26T09:43:41Z</time>
      </trkpt>
      <trkpt lat="48.05894" lon="-0.76127">
        <ele>47.416337</ele>
        <time>2011-06-26T09:43:44Z</time>
      </trkpt>
      <trkpt lat="48.05881" lon="-0.76111">
        <ele>47.388835</ele>
        <time>2011-06-26T09:43:47Z</time>
      </trkpt>
      <trkpt lat="48.05872" lon="-0.76102">
        <ele>47.380786</ele>
        <time>2011-06-26T09:43:49Z</time>
      </trkpt>
      <trkpt lat="48.05859" lon="-0.76093">
        <ele>47.418043</ele>
        <time>2011-06-26T09:43:52Z</time>
      </trkpt>
      <trkpt lat="48.05853" lon="-0.76088">
        <ele>47.541916</ele>
        <time>2011-06-26T09:43:54Z</time>
      </trkpt>
      <trkpt lat="48.05852" lon="-0.7608">
        <ele>47.71545</ele>
        <time>2011-06-26T09:43:57Z</time>
      </trkpt>
      <trkpt lat="48.05857" lon="-0.76068">
        <ele>47.845798</ele>
        <time>2011-06-26T09:44:00Z</time>
      </trkpt>
      <trkpt lat="48.05865" lon="-0.76055">
        <ele>47.898315</ele>
        <time>2011-06-26T09:44:03Z</time>
      </trkpt>
      <trkpt lat="48.0587" lon="-0.76046">
        <ele>47.900667</ele>
        <time>2011-06-26T09:44:05Z</time>
      </trkpt>
      <trkpt lat="48.05875" lon="-0.76046">
        <ele>47.868832</ele>
        <time>2011-06-26T09:44:07Z</time>
      </trkpt>
      <trkpt lat="48.05882" lon="-0.76056">
        <ele>47.789748</ele>
        <time>2011-06-26T09:44:10Z</time>
      </trkpt>
      <trkpt lat="48.05891" lon="-0.76069">
        <ele>47.620001</ele>
        <time>2011-06-26T09:44:13Z</time>
      </trkpt>
      <trkpt lat="48.05902" lon="-0.76082">
        <ele>47.369311</ele>
        <time>2011-06-26T09:44:16Z</time>
      </trkpt>
      <trkpt lat="48.05908" lon="-0.76092">
        <ele>47.144492</ele>
        <time>2011-06-26T09:44:18Z</time>
      </trkpt>
      <trkpt lat="48.05914" lon="-0.76102">
        <ele>47.000119</ele>
        <time>2011-06-26T09:44:20Z</time>
      </trkpt>
      <trkpt lat="48.05919" lon="-0.76112">
        <ele>46.895548</ele>
        <time>2011-06-26T09:44:22Z</time>
      </trkpt>
      <trkpt lat="48.05928" lon="-0.76127">
        <ele>46.821022</ele>
        <time>2011-06-26T09:44:25Z</time>
      </trkpt>
      <trkpt lat="48.05928" lon="-0.76127">
        <ele>46.782467</ele>
        <time>2011-06-26T09:44:26Z</time>
      </trkpt>
      <trkpt lat="48.05935" lon="-0.76137">
        <ele>46.760345</ele>
        <time>2011-06-26T09:44:27Z</time>
      </trkpt>
      <trkpt lat="48.05945" lon="-0.76154">
        <ele>46.714853</ele>
        <time>2011-06-26T09:44:30Z</time>
      </trkpt>
      <trkpt lat="48.05951" lon="-0.76163">
        <ele>46.588802</ele>
        <time>2011-06-26T09:44:32Z</time>
      </trkpt>
      <trkpt lat="48.05956" lon="-0.76171">
        <ele>46.373378</ele>
        <time>2011-06-26T09:44:34Z</time>
      </trkpt>
      <trkpt lat="48.05958" lon="-0.76183">
        <ele>46.134096</ele>
        <time>2011-06-26T09:44:37Z</time>
      </trkpt>
      <trkpt lat="48.0596" lon="-0.76191">
        <ele>45.949862</ele>
        <time>2011-06-26T09:44:39Z</time>
      </trkpt>
      <trkpt lat="48.05963" lon="-0.76205">
        <ele>45.857615</ele>
        <time>2011-06-26T09:44:42Z</time>
      </trkpt>
      <trkpt lat="48.05965" lon="-0.76211">
        <ele>45.840741</ele>
        <time>2011-06-26T09:44:44Z</time>
      </trkpt>
      <trkpt lat="48.05974" lon="-0.76216">
        <ele>45.854335</ele>
        <time>2011-06-26T09:44:47Z</time>
      </trkpt>
      <trkpt lat="48.05981" lon="-0.76222">
        <ele>45.869366</ele>
        <time>2011-06-26T09:44:49Z</time>
      </trkpt>
      <trkpt lat="48.05988" lon="-0.76232">
        <ele>45.876795</ele>
        <time>2011-06-26T09:44:51Z</time>
      </trkpt>
      <trkpt lat="48.05997" lon="-0.76241">
        <ele>45.86949</ele>
        <time>2011-06-26T09:44:53Z</time>
      </trkpt>
      <trkpt lat="48.0601" lon="-0.76255">
        <ele>45.829661</ele>
        <time>2011-06-26T09:44:56Z</time>
      </trkpt>
      <trkpt lat="48.06018" lon="-0.76263">
        <ele>45.749592</ele>
        <time>2011-06-26T09:44:58Z</time>
      </trkpt>
      <trkpt lat="48.06025" lon="-0.76271">
        <ele>45.545236</ele>
        <time>2011-06-26T09:45:00Z</time>
      </trkpt>
      <trkpt lat="48.06034" lon="-0.76282">
        <ele>45.114986</ele>
        <time>2011-06-26T09:45:03Z</time>
      </trkpt>
      <trkpt lat="48.0604" lon="-0.76289">
        <ele>44.571851</ele>
        <time>2011-06-26T09:45:05Z</time>
      </trkpt>
      <trkpt lat="48.0604" lon="-0.76289">
        <ele>44.163498</ele>
        <time>2011-06-26T09:45:06Z</time>
      </trkpt>
      <trkpt lat="48.06046" lon="-0.76298">
        <ele>43.943379</ele>
        <time>2011-06-26T09:45:07Z</time>
      </trkpt>
      <trkpt lat="48.06056" lon="-0.76312">
        <ele>43.799058</ele>
        <time>2011-06-26T09:45:10Z</time>
      </trkpt>
      <trkpt lat="48.06062" lon="-0.76321">
        <ele>43.634835</ele>
        <time>2011-06-26T09:45:12Z</time>
      </trkpt>
      <trkpt lat="48.06073" lon="-0.76337">
        <ele>43.395937</ele>
        <time>2011-06-26T09:45:15Z</time>
      </trkpt>
      <trkpt lat="48.06084" lon="-0.76352">
        <ele>42.951586</ele>
        <time>2011-06-26T09:45:18Z</time>
      </trkpt>
      <trkpt lat="48.06095" lon="-0.76367">
        <ele>42.268038</ele>
        <time>2011-06-26T09:45:21Z</time>
      </trkpt>
      <trkpt lat="48.06102" lon="-0.76377">
        <ele>41.582616</ele>
        <time>2011-06-26T09:45:23Z</time>
      </trkpt>
      <trkpt lat="48.06112" lon="-0.7639">
        <ele>41.15063</ele>
        <time>2011-06-26T09:45:26Z</time>
      </trkpt>
      <trkpt lat="48.06119" lon="-0.76399">
        <ele>40.960764</ele>
        <time>2011-06-26T09:45:28Z</time>
      </trkpt>
      <trkpt lat="48.06131" lon="-0.76413">
        <ele>40.889475</ele>
        <time>2011-06-26T09:45:31Z</time>
      </trkpt>
      <trkpt lat="48.06138" lon="-0.76423">
        <ele>40.866181</ele>
        <time>2011-06-26T09:45:33Z</time>
      </trkpt>
      <trkpt lat="48.06146" lon="-0.76432">
        <ele>40.868977</ele>
        <time>2011-06-26T09:45:35Z</time>
      </trkpt>
      <trkpt lat="48.06157" lon="-0.76447">
        <ele>40.959185</ele>
        <time>2011-06-26T09:45:38Z</time>
      </trkpt>
      <trkpt lat="48.06168" lon="-0.76462">
        <ele>41.252676</ele>
        <time>2011-06-26T09:45:41Z</time>
      </trkpt>
      <trkpt lat="48.06175" lon="-0.76472">
        <ele>41.736201</ele>
        <time>2011-06-26T09:45:43Z</time>
      </trkpt>
      <trkpt lat="48.06186" lon="-0.76484">
        <ele>42.314273</ele>
        <time>2011-06-26T09:45:46Z</time>
      </trkpt>
      <trkpt lat="48.06196" lon="-0.76492">
        <ele>42.9471</ele>
        <time>2011-06-26T09:45:49Z</time>
      </trkpt>
      <trkpt lat="48.06202" lon="-0.76499">
        <ele>43.548509</ele>
        <time>2011-06-26T09:45:51Z</time>
      </trkpt>
      <trkpt lat="48.0621" lon="-0.76505">
        <ele>43.998746</ele>
        <time>2011-06-26T09:45:53Z</time>
      </trkpt>
      <trkpt lat="48.06221" lon="-0.76514">
        <ele>44.259618</ele>
        <time>2011-06-26T09:45:56Z</time>
      </trkpt>
      <trkpt lat="48.06233" lon="-0.76524">
        <ele>44.361254</ele>
        <time>2011-06-26T09:45:59Z</time>
      </trkpt>
      <trkpt lat="48.06233" lon="-0.76524">
        <ele>44.363353</ele>
        <time>2011-06-26T09:45:59Z</time>
      </trkpt>
      <trkpt lat="48.06242" lon="-0.76531">
        <ele>44.335883</ele>
        <time>2011-06-26T09:46:01Z</time>
      </trkpt>
      <trkpt lat="48.06252" lon="-0.76538">
        <ele>44.239632</ele>
        <time>2011-06-26T09:46:03Z</time>
      </trkpt>
      <trkpt lat="48.06262" lon="-0.76547">
        <ele>44.036359</ele>
        <time>2011-06-26T09:46:05Z</time>
      </trkpt>
      <trkpt lat="48.06276" lon="-0.76559">
        <ele>43.836098</ele>
        <time>2011-06-26T09:46:08Z</time>
      </trkpt>
      <trkpt lat="48.06285" lon="-0.76566">
        <ele>43.752905</ele>
        <time>2011-06-26T09:46:10Z</time>
      </trkpt>
      <trkpt lat="48.06297" lon="-0.76576">
        <ele>43.824013</ele>
        <time>2011-06-26T09:46:13Z</time>
      </trkpt>
      <trkpt lat="48.06297" lon="-0.76576">
        <ele>43.961008</ele>
        <time>2011-06-26T09:46:14Z</time>
      </trkpt>
      <trkpt lat="48.06305" lon="-0.76582">
        <ele>44.052467</ele>
        <time>2011-06-26T09:46:15Z</time>
      </trkpt>
      <trkpt lat="48.06318" lon="-0.7659">
        <ele>44.132547</ele>
        <time>2011-06-26T09:46:18Z</time>
      </trkpt>
      <trkpt lat="48.06327" lon="-0.76596">
        <ele>44.22575</ele>
        <time>2011-06-26T09:46:20Z</time>
      </trkpt>
      <trkpt lat="48.06338" lon="-0.76605">
        <ele>44.205091</ele>
        <time>2011-06-26T09:46:23Z</time>
      </trkpt>
      <trkpt lat="48.06344" lon="-0.76612">
        <ele>44.025061</ele>
        <time>2011-06-26T09:46:25Z</time>
      </trkpt>
      <trkpt lat="48.06354" lon="-0.76621">
        <ele>43.691979</ele>
        <time>2011-06-26T09:46:28Z</time>
      </trkpt>
      <trkpt lat="48.06367" lon="-0.76629">
        <ele>43.216425</ele>
        <time>2011-06-26T09:46:31Z</time>
      </trkpt>
      <trkpt lat="48.0638" lon="-0.7664">
        <ele>42.731329</ele>
        <time>2011-06-26T09:46:34Z</time>
      </trkpt>
      <trkpt lat="48.06393" lon="-0.76651">
        <ele>42.418743</ele>
        <time>2011-06-26T09:46:37Z</time>
      </trkpt>
      <trkpt lat="48.06406" lon="-0.76661">
        <ele>42.161414</ele>
        <time>2011-06-26T09:46:40Z</time>
      </trkpt>
      <trkpt lat="48.0642" lon="-0.76672">
        <ele>41.605192</ele>
        <time>2011-06-26T09:46:43Z</time>
      </trkpt>
      <trkpt lat="48.06433" lon="-0.76683">
        <ele>40.660588</ele>
        <time>2011-06-26T09:46:46Z</time>
      </trkpt>
      <trkpt lat="48.06441" lon="-0.76689">
        <ele>39.648191</ele>
        <time>2011-06-26T09:46:48Z</time>
      </trkpt>
      <trkpt lat="48.06448" lon="-0.76696">
        <ele>38.7342</ele>
        <time>2011-06-26T09:46:50Z</time>
      </trkpt>
      <trkpt lat="48.06455" lon="-0.76702">
        <ele>37.880297</ele>
        <time>2011-06-26T09:46:52Z</time>
      </trkpt>
      <trkpt lat="48.06465" lon="-0.7671">
        <ele>37.238211</ele>
        <time>2011-06-26T09:46:55Z</time>
      </trkpt>
      <trkpt lat="48.06473" lon="-0.76715">
        <ele>36.955249</ele>
        <time>2011-06-26T09:46:57Z</time>
      </trkpt>
      <trkpt lat="48.06483" lon="-0.76725">
        <ele>36.925377</ele>
        <time>2011-06-26T09:47:00Z</time>
      </trkpt>
      <trkpt lat="48.06495" lon="-0.76735">
        <ele>36.983538</ele>
        <time>2011-06-26T09:47:03Z</time>
      </trkpt>
      <trkpt lat="48.06504" lon="-0.76741">
        <ele>37.035783</ele>
        <time>2011-06-26T09:47:05Z</time>
      </trkpt>
      <trkpt lat="48.06517" lon="-0.76751">
        <ele>37.055062</ele>
        <time>2011-06-26T09:47:08Z</time>
      </trkpt>
      <trkpt lat="48.06526" lon="-0.76758">
        <ele>36.982586</ele>
        <time>2011-06-26T09:47:10Z</time>
      </trkpt>
      <trkpt lat="48.06533" lon="-0.76765">
        <ele>36.688997</ele>
        <time>2011-06-26T09:47:12Z</time>
      </trkpt>
      <trkpt lat="48.06548" lon="-0.76776">
        <ele>36.139845</ele>
        <time>2011-06-26T09:47:15Z</time>
      </trkpt>
      <trkpt lat="48.06548" lon="-0.76776">
        <ele>35.549342</ele>
        <time>2011-06-26T09:47:16Z</time>
      </trkpt>
      <trkpt lat="48.06564" lon="-0.76788">
        <ele>35.156773</ele>
        <time>2011-06-26T09:47:18Z</time>
      </trkpt>
      <trkpt lat="48.06578" lon="-0.76801">
        <ele>34.98811</ele>
        <time>2011-06-26T09:47:21Z</time>
      </trkpt>
      <trkpt lat="48.06587" lon="-0.76809">
        <ele>34.950616</ele>
        <time>2011-06-26T09:47:23Z</time>
      </trkpt>
      <trkpt lat="48.06603" lon="-0.76821">
        <ele>35.121312</ele>
        <time>2011-06-26T09:47:26Z</time>
      </trkpt>
      <trkpt lat="48.0662" lon="-0.76834">
        <ele>35.539784</ele>
        <time>2011-06-26T09:47:29Z</time>
      </trkpt>
      <trkpt lat="48.06636" lon="-0.76847">
        <ele>35.95666</ele>
        <time>2011-06-26T09:47:32Z</time>
      </trkpt>
      <trkpt lat="48.06645" lon="-0.76855">
        <ele>36.081753</ele>
        <time>2011-06-26T09:47:34Z</time>
      </trkpt>
      <trkpt lat="48.06659" lon="-0.76866">
        <ele>35.928931</ele>
        <time>2011-06-26T09:47:37Z</time>
      </trkpt>
      <trkpt lat="48.06666" lon="-0.76872">
        <ele>35.647989</ele>
        <time>2011-06-26T09:47:39Z</time>
      </trkpt>
      <trkpt lat="48.06672" lon="-0.76879">
        <ele>35.355984</ele>
        <time>2011-06-26T09:47:41Z</time>
      </trkpt>
      <trkpt lat="48.06678" lon="-0.76886">
        <ele>35.132533</ele>
        <time>2011-06-26T09:47:43Z</time>
      </trkpt>
      <trkpt lat="48.06687" lon="-0.76895">
        <ele>35.032069</ele>
        <time>2011-06-26T09:47:46Z</time>
      </trkpt>
      <trkpt lat="48.06694" lon="-0.76901">
        <ele>35.017607</ele>
        <time>2011-06-26T09:47:48Z</time>
      </trkpt>
      <trkpt lat="48.06706" lon="-0.76909">
        <ele>35.035357</ele>
        <time>2011-06-26T09:47:51Z</time>
      </trkpt>
      <trkpt lat="48.06714" lon="-0.76914">
        <ele>35.08721</ele>
        <time>2011-06-26T09:47:53Z</time>
      </trkpt>
      <trkpt lat="48.06723" lon="-0.76919">
        <ele>35.208996</ele>
        <time>2011-06-26T09:47:55Z</time>
      </trkpt>
      <trkpt lat="48.0673" lon="-0.76925">
        <ele>35.401276</ele>
        <time>2011-06-26T09:47:57Z</time>
      </trkpt>
      <trkpt lat="48.06742" lon="-0.76933">
        <ele>35.753824</ele>
        <time>2011-06-26T09:48:00Z</time>
      </trkpt>
      <trkpt lat="48.06753" lon="-0.76941">
        <ele>36.478911</ele>
        <time>2011-06-26T09:48:03Z</time>
      </trkpt>
      <trkpt lat="48.06753" lon="-0.76941">
        <ele>37.442351</ele>
        <time>2011-06-26T09:48:04Z</time>
      </trkpt>
      <trkpt lat="48.06764" lon="-0.7695">
        <ele>38.29671</ele>
        <time>2011-06-26T09:48:06Z</time>
      </trkpt>
      <trkpt lat="48.06772" lon="-0.76955">
        <ele>39.085446</ele>
        <time>2011-06-26T09:48:08Z</time>
      </trkpt>
      <trkpt lat="48.06779" lon="-0.76961">
        <ele>40.027823</ele>
        <time>2011-06-26T09:48:10Z</time>
      </trkpt>
      <trkpt lat="48.06786" lon="-0.76967">
        <ele>41.090834</ele>
        <time>2011-06-26T09:48:12Z</time>
      </trkpt>
      <trkpt lat="48.06796" lon="-0.76976">
        <ele>42.092964</ele>
        <time>2011-06-26T09:48:15Z</time>
      </trkpt>
      <trkpt lat="48.06801" lon="-0.76982">
        <ele>42.849409</ele>
        <time>2011-06-26T09:48:17Z</time>
      </trkpt>
      <trkpt lat="48.06801" lon="-0.76982">
        <ele>43.281683</ele>
        <time>2011-06-26T09:48:18Z</time>
      </trkpt>
      <trkpt lat="48.06806" lon="-0.76987">
        <ele>43.466082</ele>
        <time>2011-06-26T09:48:19Z</time>
      </trkpt>
      <trkpt lat="48.0681" lon="-0.76994">
        <ele>43.559432</ele>
        <time>2011-06-26T09:48:22Z</time>
      </trkpt>
      <trkpt lat="48.06807" lon="-0.77008">
        <ele>43.647987</ele>
        <time>2011-06-26T09:48:25Z</time>
      </trkpt>
      <trkpt lat="48.06803" lon="-0.77015">
        <ele>43.710569</ele>
        <time>2011-06-26T09:48:27Z</time>
      </trkpt>
      <trkpt lat="48.06799" lon="-0.7703">
        <ele>43.741205</ele>
        <time>2011-06-26T09:48:30Z</time>
      </trkpt>
      <trkpt lat="48.06799" lon="-0.7703">
        <ele>43.76168</ele>
        <time>2011-06-26T09:48:32Z</time>
      </trkpt>
      <trkpt lat="48.06797" lon="-0.77043">
        <ele>43.796808</ele>
        <time>2011-06-26T09:48:33Z</time>
      </trkpt>
      <trkpt lat="48.06797" lon="-0.7705">
        <ele>43.870312</ele>
        <time>2011-06-26T09:48:35Z</time>
      </trkpt>
      <trkpt lat="48.06797" lon="-0.7706">
        <ele>43.988919</ele>
        <time>2011-06-26T09:48:38Z</time>
      </trkpt>
      <trkpt lat="48.06796" lon="-0.7707">
        <ele>44.140942</ele>
        <time>2011-06-26T09:48:41Z</time>
      </trkpt>
      <trkpt lat="48.06796" lon="-0.77079">
        <ele>44.301422</ele>
        <time>2011-06-26T09:48:44Z</time>
      </trkpt>
      <trkpt lat="48.06798" lon="-0.77087">
        <ele>44.439731</ele>
        <time>2011-06-26T09:48:47Z</time>
      </trkpt>
      <trkpt lat="48.06797" lon="-0.77095">
        <ele>44.542168</ele>
        <time>2011-06-26T09:48:51Z</time>
      </trkpt>
      <trkpt lat="48.06799" lon="-0.77102">
        <ele>44.606398</ele>
        <time>2011-06-26T09:48:54Z</time>
      </trkpt>
      <trkpt lat="48.06799" lon="-0.7711">
        <ele>44.636787</ele>
        <time>2011-06-26T09:48:57Z</time>
      </trkpt>
      <trkpt lat="48.068" lon="-0.77119">
        <ele>44.648565</ele>
        <time>2011-06-26T09:49:00Z</time>
      </trkpt>
      <trkpt lat="48.06803" lon="-0.77127">
        <ele>44.656177</ele>
        <time>2011-06-26T09:49:03Z</time>
      </trkpt>
      <trkpt lat="48.06805" lon="-0.77134">
        <ele>44.670769</ele>
        <time>2011-06-26T09:49:06Z</time>
      </trkpt>
      <trkpt lat="48.06808" lon="-0.77142">
        <ele>44.705193</ele>
        <time>2011-06-26T09:49:10Z</time>
      </trkpt>
      <trkpt lat="48.06807" lon="-0.7715">
        <ele>44.766552</ele>
        <time>2011-06-26T09:49:13Z</time>
      </trkpt>
      <trkpt lat="48.06807" lon="-0.77159">
        <ele>44.848735</ele>
        <time>2011-06-26T09:49:17Z</time>
      </trkpt>
      <trkpt lat="48.06806" lon="-0.77166">
        <ele>44.945902</ele>
        <time>2011-06-26T09:49:22Z</time>
      </trkpt>
      <trkpt lat="48.06808" lon="-0.77173">
        <ele>45.054536</ele>
        <time>2011-06-26T09:49:26Z</time>
      </trkpt>
      <trkpt lat="48.0681" lon="-0.7718">
        <ele>45.171546</ele>
        <time>2011-06-26T09:49:30Z</time>
      </trkpt>
      <trkpt lat="48.06811" lon="-0.77188">
        <ele>45.314117</ele>
        <time>2011-06-26T09:49:35Z</time>
      </trkpt>
      <trkpt lat="48.06814" lon="-0.77195">
        <ele>45.497534</ele>
        <time>2011-06-26T09:49:40Z</time>
      </trkpt>
      <trkpt lat="48.06814" lon="-0.77202">
        <ele>45.690266</ele>
        <time>2011-06-26T09:49:44Z</time>
      </trkpt>
      <trkpt lat="48.06813" lon="-0.77208">
        <ele>45.851199</ele>
        <time>2011-06-26T09:49:48Z</time>
      </trkpt>
      <trkpt lat="48.06813" lon="-0.77208">
        <ele>45.96325</ele>
        <time>2011-06-26T09:49:50Z</time>
      </trkpt>
      <trkpt lat="48.06812" lon="-0.77216">
        <ele>46.051067</ele>
        <time>2011-06-26T09:49:54Z</time>
      </trkpt>
      <trkpt lat="48.06808" lon="-0.77221">
        <ele>46.162301</ele>
        <time>2011-06-26T09:49:58Z</time>
      </trkpt>
      <trkpt lat="48.06805" lon="-0.77228">
        <ele>46.307159</ele>
        <time>2011-06-26T09:50:03Z</time>
      </trkpt>
      <trkpt lat="48.06801" lon="-0.77233">
        <ele>46.481354</ele>
        <time>2011-06-26T09:50:06Z</time>
      </trkpt>
      <trkpt lat="48.06797" lon="-0.77237">
        <ele>46.680576</ele>
        <time>2011-06-26T09:50:09Z</time>
      </trkpt>
      <trkpt lat="48.06794" lon="-0.77243">
        <ele>46.855147</ele>
        <time>2011-06-26T09:50:13Z</time>
      </trkpt>
      <trkpt lat="48.06793" lon="-0.77252">
        <ele>46.960413</ele>
        <time>2011-06-26T09:50:17Z</time>
      </trkpt>
      <trkpt lat="48.06794" lon="-0.7726">
        <ele>47.003549</ele>
        <time>2011-06-26T09:50:20Z</time>
      </trkpt>
      <trkpt lat="48.06797" lon="-0.77268">
        <ele>47.029327</ele>
        <time>2011-06-26T09:50:23Z</time>
      </trkpt>
      <trkpt lat="48.06799" lon="-0.77275">
        <ele>47.090379</ele>
        <time>2011-06-26T09:50:26Z</time>
      </trkpt>
      <trkpt lat="48.06801" lon="-0.77282">
        <ele>47.20186</ele>
        <time>2011-06-26T09:50:29Z</time>
      </trkpt>
      <trkpt lat="48.06802" lon="-0.7729">
        <ele>47.35658</ele>
        <time>2011-06-26T09:50:32Z</time>
      </trkpt>
      <trkpt lat="48.06804" lon="-0.77297">
        <ele>47.569784</ele>
        <time>2011-06-26T09:50:35Z</time>
      </trkpt>
      <trkpt lat="48.06807" lon="-0.77303">
        <ele>47.857988</ele>
        <time>2011-06-26T09:50:38Z</time>
      </trkpt>
      <trkpt lat="48.06812" lon="-0.77305">
        <ele>48.210364</ele>
        <time>2011-06-26T09:50:41Z</time>
      </trkpt>
      <trkpt lat="48.06807" lon="-0.77308">
        <ele>48.603796</ele>
        <time>2011-06-26T09:50:46Z</time>
      </trkpt>
      <trkpt lat="48.06802" lon="-0.77311">
        <ele>49.020484</ele>
        <time>2011-06-26T09:50:49Z</time>
      </trkpt>
      <trkpt lat="48.06798" lon="-0.77316">
        <ele>49.449358</ele>
        <time>2011-06-26T09:50:52Z</time>
      </trkpt>
      <trkpt lat="48.06793" lon="-0.77325">
        <ele>49.914047</ele>
        <time>2011-06-26T09:50:55Z</time>
      </trkpt>
      <trkpt lat="48.06788" lon="-0.77336">
        <ele>50.414388</ele>
        <time>2011-06-26T09:50:58Z</time>
      </trkpt>
      <trkpt lat="48.06783" lon="-0.77345">
        <ele>50.877743</ele>
        <time>2011-06-26T09:51:01Z</time>
      </trkpt>
      <trkpt lat="48.06779" lon="-0.7735">
        <ele>51.262681</ele>
        <time>2011-06-26T09:51:04Z</time>
      </trkpt>
      <trkpt lat="48.06775" lon="-0.77356">
        <ele>51.626172</ele>
        <time>2011-06-26T09:51:07Z</time>
      </trkpt>
      <trkpt lat="48.06771" lon="-0.77361">
        <ele>52.040621</ele>
        <time>2011-06-26T09:51:10Z</time>
      </trkpt>
      <trkpt lat="48.06767" lon="-0.77367">
        <ele>52.5372</ele>
        <time>2011-06-26T09:51:13Z</time>
      </trkpt>
      <trkpt lat="48.06764" lon="-0.77372">
        <ele>53.096337</ele>
        <time>2011-06-26T09:51:16Z</time>
      </trkpt>
      <trkpt lat="48.06762" lon="-0.77378">
        <ele>53.685504</ele>
        <time>2011-06-26T09:51:19Z</time>
      </trkpt>
      <trkpt lat="48.0676" lon="-0.77386">
        <ele>54.291915</ele>
        <time>2011-06-26T09:51:22Z</time>
      </trkpt>
      <trkpt lat="48.06759" lon="-0.77392">
        <ele>54.910308</ele>
        <time>2011-06-26T09:51:25Z</time>
      </trkpt>
      <trkpt lat="48.06757" lon="-0.774">
        <ele>55.524419</ele>
        <time>2011-06-26T09:51:28Z</time>
      </trkpt>
      <trkpt lat="48.06755" lon="-0.77408">
        <ele>56.118054</ele>
        <time>2011-06-26T09:51:31Z</time>
      </trkpt>
      <trkpt lat="48.06753" lon="-0.77416">
        <ele>56.688524</ele>
        <time>2011-06-26T09:51:41Z</time>
      </trkpt>
      <trkpt lat="48.06752" lon="-0.77425">
        <ele>57.258339</ele>
        <time>2011-06-26T09:51:44Z</time>
      </trkpt>
      <trkpt lat="48.06752" lon="-0.77425">
        <ele>57.768916</ele>
        <time>2011-06-26T09:51:45Z</time>
      </trkpt>
      <trkpt lat="48.06751" lon="-0.77432">
        <ele>58.177812</ele>
        <time>2011-06-26T09:51:46Z</time>
      </trkpt>
      <trkpt lat="48.0675" lon="-0.77439">
        <ele>58.793298</ele>
        <time>2011-06-26T09:51:48Z</time>
      </trkpt>
      <trkpt lat="48.06748" lon="-0.77449">
        <ele>59.829282</ele>
        <time>2011-06-26T09:51:51Z</time>
      </trkpt>
      <trkpt lat="48.06745" lon="-0.77459">
        <ele>60.928301</ele>
        <time>2011-06-26T09:51:54Z</time>
      </trkpt>
      <trkpt lat="48.06742" lon="-0.7747">
        <ele>61.731136</ele>
        <time>2011-06-26T09:51:57Z</time>
      </trkpt>
      <trkpt lat="48.06739" lon="-0.7748">
        <ele>62.316999</ele>
        <time>2011-06-26T09:52:00Z</time>
      </trkpt>
      <trkpt lat="48.06737" lon="-0.77491">
        <ele>62.887896</ele>
        <time>2011-06-26T09:52:03Z</time>
      </trkpt>
      <trkpt lat="48.06734" lon="-0.77502">
        <ele>63.530227</ele>
        <time>2011-06-26T09:52:06Z</time>
      </trkpt>
      <trkpt lat="48.06732" lon="-0.77515">
        <ele>64.213831</ele>
        <time>2011-06-26T09:52:09Z</time>
      </trkpt>
      <trkpt lat="48.0673" lon="-0.77527">
        <ele>64.883558</ele>
        <time>2011-06-26T09:52:12Z</time>
      </trkpt>
      <trkpt lat="48.06727" lon="-0.77538">
        <ele>65.490695</ele>
        <time>2011-06-26T09:52:15Z</time>
      </trkpt>
      <trkpt lat="48.06725" lon="-0.77546">
        <ele>66.010402</ele>
        <time>2011-06-26T09:52:17Z</time>
      </trkpt>
      <trkpt lat="48.06721" lon="-0.77559">
        <ele>66.447177</ele>
        <time>2011-06-26T09:52:20Z</time>
      </trkpt>
      <trkpt lat="48.06716" lon="-0.77573">
        <ele>66.824863</ele>
        <time>2011-06-26T09:52:23Z</time>
      </trkpt>
      <trkpt lat="48.06709" lon="-0.77589">
        <ele>67.156895</ele>
        <time>2011-06-26T09:52:26Z</time>
      </trkpt>
      <trkpt lat="48.06702" lon="-0.77605">
        <ele>67.456364</ele>
        <time>2011-06-26T09:52:29Z</time>
      </trkpt>
      <trkpt lat="48.06699" lon="-0.77618">
        <ele>67.750925</ele>
        <time>2011-06-26T09:52:31Z</time>
      </trkpt>
      <trkpt lat="48.06693" lon="-0.77635">
        <ele>68.284936</ele>
        <time>2011-06-26T09:52:34Z</time>
      </trkpt>
      <trkpt lat="48.06687" lon="-0.77653">
        <ele>69.37467</ele>
        <time>2011-06-26T09:52:37Z</time>
      </trkpt>
      <trkpt lat="48.0668" lon="-0.77671">
        <ele>70.837495</ele>
        <time>2011-06-26T09:52:40Z</time>
      </trkpt>
      <trkpt lat="48.0667" lon="-0.77691">
        <ele>72.115946</ele>
        <time>2011-06-26T09:52:43Z</time>
      </trkpt>
      <trkpt lat="48.0667" lon="-0.77691">
        <ele>72.893206</ele>
        <time>2011-06-26T09:52:44Z</time>
      </trkpt>
      <trkpt lat="48.06659" lon="-0.77709">
        <ele>73.237141</ele>
        <time>2011-06-26T09:52:46Z</time>
      </trkpt>
      <trkpt lat="48.06652" lon="-0.77721">
        <ele>73.396532</ele>
        <time>2011-06-26T09:52:48Z</time>
      </trkpt>
      <trkpt lat="48.06643" lon="-0.77738">
        <ele>73.529779</ele>
        <time>2011-06-26T09:52:51Z</time>
      </trkpt>
      <trkpt lat="48.06634" lon="-0.77754">
        <ele>73.729027</ele>
        <time>2011-06-26T09:52:54Z</time>
      </trkpt>
      <trkpt lat="48.06628" lon="-0.77767">
        <ele>74.081327</ele>
        <time>2011-06-26T09:52:56Z</time>
      </trkpt>
      <trkpt lat="48.06618" lon="-0.77784">
        <ele>74.530119</ele>
        <time>2011-06-26T09:52:59Z</time>
      </trkpt>
      <trkpt lat="48.06618" lon="-0.77784">
        <ele>74.912082</ele>
        <time>2011-06-26T09:53:00Z</time>
      </trkpt>
      <trkpt lat="48.06612" lon="-0.77796">
        <ele>75.13878</ele>
        <time>2011-06-26T09:53:01Z</time>
      </trkpt>
      <trkpt lat="48.06608" lon="-0.7781">
        <ele>75.235357</ele>
        <time>2011-06-26T09:53:03Z</time>
      </trkpt>
      <trkpt lat="48.06604" lon="-0.77831">
        <ele>75.279964</ele>
        <time>2011-06-26T09:53:06Z</time>
      </trkpt>
      <trkpt lat="48.06602" lon="-0.77846">
        <ele>75.328189</ele>
        <time>2011-06-26T09:53:08Z</time>
      </trkpt>
      <trkpt lat="48.066" lon="-0.77866">
        <ele>75.402575</ele>
        <time>2011-06-26T09:53:11Z</time>
      </trkpt>
      <trkpt lat="48.06598" lon="-0.77878">
        <ele>75.518508</ele>
        <time>2011-06-26T09:53:13Z</time>
      </trkpt>
      <trkpt lat="48.06596" lon="-0.77897">
        <ele>75.716121</ele>
        <time>2011-06-26T09:53:16Z</time>
      </trkpt>
      <trkpt lat="48.06595" lon="-0.77915">
        <ele>76.012246</ele>
        <time>2011-06-26T09:53:19Z</time>
      </trkpt>
      <trkpt lat="48.06593" lon="-0.77933">
        <ele>76.395889</ele>
        <time>2011-06-26T09:53:22Z</time>
      </trkpt>
      <trkpt lat="48.0659" lon="-0.7795">
        <ele>76.863776</ele>
        <time>2011-06-26T09:53:25Z</time>
      </trkpt>
      <trkpt lat="48.06588" lon="-0.77966">
        <ele>77.414231</ele>
        <time>2011-06-26T09:53:28Z</time>
      </trkpt>
      <trkpt lat="48.06587" lon="-0.77981">
        <ele>77.973695</ele>
        <time>2011-06-26T09:53:31Z</time>
      </trkpt>
      <trkpt lat="48.06586" lon="-0.77995">
        <ele>78.401941</ele>
        <time>2011-06-26T09:53:34Z</time>
      </trkpt>
      <trkpt lat="48.0659" lon="-0.78005">
        <ele>78.636276</ele>
        <time>2011-06-26T09:53:37Z</time>
      </trkpt>
      <trkpt lat="48.06593" lon="-0.7801">
        <ele>78.747521</ele>
        <time>2011-06-26T09:53:40Z</time>
      </trkpt>
      <trkpt lat="48.0659" lon="-0.78019">
        <ele>78.827651</ele>
        <time>2011-06-26T09:53:43Z</time>
      </trkpt>
      <trkpt lat="48.06587" lon="-0.78031">
        <ele>78.924517</ele>
        <time>2011-06-26T09:53:46Z</time>
      </trkpt>
      <trkpt lat="48.06586" lon="-0.78041">
        <ele>79.049714</ele>
        <time>2011-06-26T09:53:48Z</time>
      </trkpt>
      <trkpt lat="48.06585" lon="-0.78056">
        <ele>79.195517</ele>
        <time>2011-06-26T09:53:51Z</time>
      </trkpt>
      <trkpt lat="48.06583" lon="-0.78071">
        <ele>79.344038</ele>
        <time>2011-06-26T09:53:54Z</time>
      </trkpt>
      <trkpt lat="48.06582" lon="-0.78081">
        <ele>79.473362</ele>
        <time>2011-06-26T09:53:56Z</time>
      </trkpt>
      <trkpt lat="48.06581" lon="-0.78095">
        <ele>79.57475</ele>
        <time>2011-06-26T09:53:59Z</time>
      </trkpt>
      <trkpt lat="48.0658" lon="-0.78105">
        <ele>79.658582</ele>
        <time>2011-06-26T09:54:01Z</time>
      </trkpt>
      <trkpt lat="48.06579" lon="-0.78115">
        <ele>79.73279</ele>
        <time>2011-06-26T09:54:03Z</time>
      </trkpt>
      <trkpt lat="48.06578" lon="-0.7813">
        <ele>79.797018</ele>
        <time>2011-06-26T09:54:06Z</time>
      </trkpt>
      <trkpt lat="48.06577" lon="-0.78143">
        <ele>79.853164</ele>
        <time>2011-06-26T09:54:09Z</time>
      </trkpt>
      <trkpt lat="48.06576" lon="-0.78157">
        <ele>79.902391</ele>
        <time>2011-06-26T09:54:12Z</time>
      </trkpt>
      <trkpt lat="48.06575" lon="-0.7817">
        <ele>79.948209</ele>
        <time>2011-06-26T09:54:15Z</time>
      </trkpt>
      <trkpt lat="48.06574" lon="-0.78178">
        <ele>79.999038</ele>
        <time>2011-06-26T09:54:17Z</time>
      </trkpt>
      <trkpt lat="48.06573" lon="-0.78192">
        <ele>80.057349</ele>
        <time>2011-06-26T09:54:20Z</time>
      </trkpt>
      <trkpt lat="48.06573" lon="-0.78201">
        <ele>80.120495</ele>
        <time>2011-06-26T09:54:22Z</time>
      </trkpt>
      <trkpt lat="48.06572" lon="-0.78215">
        <ele>80.185121</ele>
        <time>2011-06-26T09:54:25Z</time>
      </trkpt>
      <trkpt lat="48.06573" lon="-0.78229">
        <ele>80.250384</ele>
        <time>2011-06-26T09:54:28Z</time>
      </trkpt>
      <trkpt lat="48.06578" lon="-0.78239">
        <ele>80.31734</ele>
        <time>2011-06-26T09:54:31Z</time>
      </trkpt>
      <trkpt lat="48.06584" lon="-0.78251">
        <ele>80.387959</ele>
        <time>2011-06-26T09:54:34Z</time>
      </trkpt>
      <trkpt lat="48.06588" lon="-0.7826">
        <ele>80.465219</ele>
        <time>2011-06-26T09:54:36Z</time>
      </trkpt>
      <trkpt lat="48.06593" lon="-0.78272">
        <ele>80.551041</ele>
        <time>2011-06-26T09:54:39Z</time>
      </trkpt>
      <trkpt lat="48.06598" lon="-0.78285">
        <ele>80.645501</ele>
        <time>2011-06-26T09:54:42Z</time>
      </trkpt>
      <trkpt lat="48.06601" lon="-0.78293">
        <ele>80.744108</ele>
        <time>2011-06-26T09:54:44Z</time>
      </trkpt>
      <trkpt lat="48.06607" lon="-0.78306">
        <ele>80.841063</ele>
        <time>2011-06-26T09:54:47Z</time>
      </trkpt>
      <trkpt lat="48.06612" lon="-0.7832">
        <ele>80.940476</ele>
        <time>2011-06-26T09:54:50Z</time>
      </trkpt>
      <trkpt lat="48.06617" lon="-0.78333">
        <ele>81.043776</ele>
        <time>2011-06-26T09:54:53Z</time>
      </trkpt>
      <trkpt lat="48.06622" lon="-0.78348">
        <ele>81.148361</ele>
        <time>2011-06-26T09:54:56Z</time>
      </trkpt>
      <trkpt lat="48.06625" lon="-0.78357">
        <ele>81.259395</ele>
        <time>2011-06-26T09:54:58Z</time>
      </trkpt>
      <trkpt lat="48.06631" lon="-0.78369">
        <ele>81.378186</ele>
        <time>2011-06-26T09:55:01Z</time>
      </trkpt>
      <trkpt lat="48.06634" lon="-0.78379">
        <ele>81.499194</ele>
        <time>2011-06-26T09:55:03Z</time>
      </trkpt>
      <trkpt lat="48.06638" lon="-0.7839">
        <ele>81.615246</ele>
        <time>2011-06-26T09:55:05Z</time>
      </trkpt>
      <trkpt lat="48.06643" lon="-0.78405">
        <ele>81.725166</ele>
        <time>2011-06-26T09:55:08Z</time>
      </trkpt>
      <trkpt lat="48.06648" lon="-0.78421">
        <ele>81.835575</ele>
        <time>2011-06-26T09:55:11Z</time>
      </trkpt>
      <trkpt lat="48.06651" lon="-0.78432">
        <ele>81.948006</ele>
        <time>2011-06-26T09:55:14Z</time>
      </trkpt>
      <trkpt lat="48.06654" lon="-0.78443">
        <ele>82.198371</ele>
        <time>2011-06-26T09:55:16Z</time>
      </trkpt>
      <trkpt lat="48.0666" lon="-0.78458">
        <ele>82.766292</ele>
        <time>2011-06-26T09:55:19Z</time>
      </trkpt>
      <trkpt lat="48.06665" lon="-0.78469">
        <ele>83.580002</ele>
        <time>2011-06-26T09:55:21Z</time>
      </trkpt>
      <trkpt lat="48.06671" lon="-0.78484">
        <ele>84.374573</ele>
        <time>2011-06-26T09:55:24Z</time>
      </trkpt>
      <trkpt lat="48.06675" lon="-0.78494">
        <ele>84.979358</ele>
        <time>2011-06-26T09:55:26Z</time>
      </trkpt>
      <trkpt lat="48.06681" lon="-0.78509">
        <ele>85.381299</ele>
        <time>2011-06-26T09:55:29Z</time>
      </trkpt>
      <trkpt lat="48.06688" lon="-0.78525">
        <ele>85.687817</ele>
        <time>2011-06-26T09:55:32Z</time>
      </trkpt>
      <trkpt lat="48.06694" lon="-0.78544">
        <ele>86.006237</ele>
        <time>2011-06-26T09:55:35Z</time>
      </trkpt>
      <trkpt lat="48.06699" lon="-0.78556">
        <ele>86.371675</ele>
        <time>2011-06-26T09:55:37Z</time>
      </trkpt>
      <trkpt lat="48.06705" lon="-0.78576">
        <ele>86.712134</ele>
        <time>2011-06-26T09:55:40Z</time>
      </trkpt>
      <trkpt lat="48.06712" lon="-0.78595">
        <ele>86.921252</ele>
        <time>2011-06-26T09:55:43Z</time>
      </trkpt>
      <trkpt lat="48.06717" lon="-0.78613">
        <ele>86.981811</ele>
        <time>2011-06-26T09:55:46Z</time>
      </trkpt>
      <trkpt lat="48.06724" lon="-0.78631">
        <ele>86.967767</ele>
        <time>2011-06-26T09:55:49Z</time>
      </trkpt>
      <trkpt lat="48.06724" lon="-0.78631">
        <ele>86.93229</ele>
        <time>2011-06-26T09:55:50Z</time>
      </trkpt>
      <trkpt lat="48.0673" lon="-0.78648">
        <ele>86.848903</ele>
        <time>2011-06-26T09:55:52Z</time>
      </trkpt>
      <trkpt lat="48.06734" lon="-0.7866">
        <ele>86.607138</ele>
        <time>2011-06-26T09:55:54Z</time>
      </trkpt>
      <trkpt lat="48.06739" lon="-0.78676">
        <ele>86.131595</ele>
        <time>2011-06-26T09:55:57Z</time>
      </trkpt>
      <trkpt lat="48.06744" lon="-0.78692">
        <ele>85.523522</ele>
        <time>2011-06-26T09:56:00Z</time>
      </trkpt>
      <trkpt lat="48.06744" lon="-0.78692">
        <ele>85.016247</ele>
        <time>2011-06-26T09:56:03Z</time>
      </trkpt>
      <trkpt lat="48.06751" lon="-0.78707">
        <ele>84.7373</ele>
        <time>2011-06-26T09:56:03Z</time>
      </trkpt>
      <trkpt lat="48.06755" lon="-0.78716">
        <ele>84.607197</ele>
        <time>2011-06-26T09:56:05Z</time>
      </trkpt>
      <trkpt lat="48.0676" lon="-0.78731">
        <ele>84.497026</ele>
        <time>2011-06-26T09:56:08Z</time>
      </trkpt>
      <trkpt lat="48.06765" lon="-0.78746">
        <ele>84.36505</ele>
        <time>2011-06-26T09:56:11Z</time>
      </trkpt>
      <trkpt lat="48.06769" lon="-0.78756">
        <ele>84.212408</ele>
        <time>2011-06-26T09:56:13Z</time>
      </trkpt>
      <trkpt lat="48.06771" lon="-0.78768">
        <ele>84.032673</ele>
        <time>2011-06-26T09:56:15Z</time>
      </trkpt>
      <trkpt lat="48.06775" lon="-0.78787">
        <ele>83.853113</ele>
        <time>2011-06-26T09:56:18Z</time>
      </trkpt>
      <trkpt lat="48.06777" lon="-0.78799">
        <ele>83.734092</ele>
        <time>2011-06-26T09:56:20Z</time>
      </trkpt>
      <trkpt lat="48.06781" lon="-0.78817">
        <ele>83.684832</ele>
        <time>2011-06-26T09:56:23Z</time>
      </trkpt>
      <trkpt lat="48.06783" lon="-0.78834">
        <ele>83.669049</ele>
        <time>2011-06-26T09:56:26Z</time>
      </trkpt>
      <trkpt lat="48.06786" lon="-0.78851">
        <ele>83.665536</ele>
        <time>2011-06-26T09:56:29Z</time>
      </trkpt>
      <trkpt lat="48.06789" lon="-0.78868">
        <ele>83.667392</ele>
        <time>2011-06-26T09:56:32Z</time>
      </trkpt>
      <trkpt lat="48.06792" lon="-0.78884">
        <ele>83.717339</ele>
        <time>2011-06-26T09:56:35Z</time>
      </trkpt>
      <trkpt lat="48.06793" lon="-0.78895">
        <ele>83.871685</ele>
        <time>2011-06-26T09:56:37Z</time>
      </trkpt>
      <trkpt lat="48.06795" lon="-0.78907">
        <ele>84.116597</ele>
        <time>2011-06-26T09:56:39Z</time>
      </trkpt>
      <trkpt lat="48.06796" lon="-0.78919">
        <ele>84.426776</ele>
        <time>2011-06-26T09:56:41Z</time>
      </trkpt>
      <trkpt lat="48.06799" lon="-0.78937">
        <ele>84.784475</ele>
        <time>2011-06-26T09:56:44Z</time>
      </trkpt>
      <trkpt lat="48.06802" lon="-0.78954">
        <ele>85.126384</ele>
        <time>2011-06-26T09:56:47Z</time>
      </trkpt>
      <trkpt lat="48.06804" lon="-0.78965">
        <ele>85.401157</ele>
        <time>2011-06-26T09:56:49Z</time>
      </trkpt>
      <trkpt lat="48.06808" lon="-0.7898">
        <ele>85.595168</ele>
        <time>2011-06-26T09:56:52Z</time>
      </trkpt>
      <trkpt lat="48.06814" lon="-0.78996">
        <ele>85.704454</ele>
        <time>2011-06-26T09:56:55Z</time>
      </trkpt>
      <trkpt lat="48.0682" lon="-0.7901">
        <ele>85.74802</ele>
        <time>2011-06-26T09:56:58Z</time>
      </trkpt>
      <trkpt lat="48.06826" lon="-0.79025">
        <ele>85.78388</ele>
        <time>2011-06-26T09:57:01Z</time>
      </trkpt>
      <trkpt lat="48.06831" lon="-0.79034">
        <ele>85.899681</ele>
        <time>2011-06-26T09:57:03Z</time>
      </trkpt>
      <trkpt lat="48.06838" lon="-0.79049">
        <ele>86.168274</ele>
        <time>2011-06-26T09:57:06Z</time>
      </trkpt>
      <trkpt lat="48.06846" lon="-0.79059">
        <ele>86.601448</ele>
        <time>2011-06-26T09:57:09Z</time>
      </trkpt>
      <trkpt lat="48.06852" lon="-0.79072">
        <ele>87.114589</ele>
        <time>2011-06-26T09:57:12Z</time>
      </trkpt>
      <trkpt lat="48.06857" lon="-0.79081">
        <ele>87.557652</ele>
        <time>2011-06-26T09:57:14Z</time>
      </trkpt>
      <trkpt lat="48.06857" lon="-0.79081">
        <ele>87.823747</ele>
        <time>2011-06-26T09:57:15Z</time>
      </trkpt>
      <trkpt lat="48.06864" lon="-0.79097">
        <ele>87.915966</ele>
        <time>2011-06-26T09:57:17Z</time>
      </trkpt>
      <trkpt lat="48.06869" lon="-0.79105">
        <ele>87.909494</ele>
        <time>2011-06-26T09:57:19Z</time>
      </trkpt>
      <trkpt lat="48.06878" lon="-0.79115">
        <ele>87.86776</ele>
        <time>2011-06-26T09:57:22Z</time>
      </trkpt>
      <trkpt lat="48.06888" lon="-0.79126">
        <ele>87.814496</ele>
        <time>2011-06-26T09:57:25Z</time>
      </trkpt>
      <trkpt lat="48.06895" lon="-0.79133">
        <ele>87.727833</ele>
        <time>2011-06-26T09:57:27Z</time>
      </trkpt>
      <trkpt lat="48.06905" lon="-0.79143">
        <ele>87.491435</ele>
        <time>2011-06-26T09:57:30Z</time>
      </trkpt>
      <trkpt lat="48.06915" lon="-0.79154">
        <ele>86.878493</ele>
        <time>2011-06-26T09:57:33Z</time>
      </trkpt>
      <trkpt lat="48.06926" lon="-0.79164">
        <ele>85.860176</ele>
        <time>2011-06-26T09:57:36Z</time>
      </trkpt>
      <trkpt lat="48.06936" lon="-0.79174">
        <ele>84.721469</ele>
        <time>2011-06-26T09:57:39Z</time>
      </trkpt>
      <trkpt lat="48.06945" lon="-0.79183">
        <ele>83.795951</ele>
        <time>2011-06-26T09:57:42Z</time>
      </trkpt>
      <trkpt lat="48.06955" lon="-0.79193">
        <ele>83.265165</ele>
        <time>2011-06-26T09:57:45Z</time>
      </trkpt>
      <trkpt lat="48.06965" lon="-0.79205">
        <ele>83.111264</ele>
        <time>2011-06-26T09:57:48Z</time>
      </trkpt>
      <trkpt lat="48.06972" lon="-0.79214">
        <ele>83.146769</ele>
        <time>2011-06-26T09:57:50Z</time>
      </trkpt>
      <trkpt lat="48.06981" lon="-0.7923">
        <ele>83.341143</ele>
        <time>2011-06-26T09:57:53Z</time>
      </trkpt>
      <trkpt lat="48.06987" lon="-0.7924">
        <ele>83.963106</ele>
        <time>2011-06-26T09:57:55Z</time>
      </trkpt>
      <trkpt lat="48.06993" lon="-0.7925">
        <ele>85.089611</ele>
        <time>2011-06-26T09:57:57Z</time>
      </trkpt>
      <trkpt lat="48.07002" lon="-0.79265">
        <ele>86.370571</ele>
        <time>2011-06-26T09:58:00Z</time>
      </trkpt>
      <trkpt lat="48.07013" lon="-0.79276">
        <ele>87.478044</ele>
        <time>2011-06-26T09:58:03Z</time>
      </trkpt>
      <trkpt lat="48.07025" lon="-0.79284">
        <ele>88.329443</ele>
        <time>2011-06-26T09:58:06Z</time>
      </trkpt>
      <trkpt lat="48.07037" lon="-0.79292">
        <ele>88.971732</ele>
        <time>2011-06-26T09:58:09Z</time>
      </trkpt>
      <trkpt lat="48.07048" lon="-0.79298">
        <ele>89.472415</ele>
        <time>2011-06-26T09:58:12Z</time>
      </trkpt>
      <trkpt lat="48.0706" lon="-0.79305">
        <ele>89.803867</ele>
        <time>2011-06-26T09:58:15Z</time>
      </trkpt>
      <trkpt lat="48.07069" lon="-0.79311">
        <ele>89.954511</ele>
        <time>2011-06-26T09:58:17Z</time>
      </trkpt>
      <trkpt lat="48.07077" lon="-0.79316">
        <ele>90.032578</ele>
        <time>2011-06-26T09:58:19Z</time>
      </trkpt>
      <trkpt lat="48.07086" lon="-0.79323">
        <ele>90.143179</ele>
        <time>2011-06-26T09:58:21Z</time>
      </trkpt>
      <trkpt lat="48.07098" lon="-0.79333">
        <ele>90.274481</ele>
        <time>2011-06-26T09:58:24Z</time>
      </trkpt>
      <trkpt lat="48.07106" lon="-0.79339">
        <ele>90.377117</ele>
        <time>2011-06-26T09:58:26Z</time>
      </trkpt>
      <trkpt lat="48.07118" lon="-0.79348">
        <ele>90.447438</ele>
        <time>2011-06-26T09:58:29Z</time>
      </trkpt>
      <trkpt lat="48.07126" lon="-0.79354">
        <ele>90.502699</ele>
        <time>2011-06-26T09:58:31Z</time>
      </trkpt>
      <trkpt lat="48.07134" lon="-0.79361">
        <ele>90.560181</ele>
        <time>2011-06-26T09:58:33Z</time>
      </trkpt>
      <trkpt lat="48.07143" lon="-0.79367">
        <ele>90.621956</ele>
        <time>2011-06-26T09:58:35Z</time>
      </trkpt>
      <trkpt lat="48.07152" lon="-0.79373">
        <ele>90.685021</ele>
        <time>2011-06-26T09:58:37Z</time>
      </trkpt>
      <trkpt lat="48.07166" lon="-0.79382">
        <ele>90.764888</ele>
        <time>2011-06-26T09:58:40Z</time>
      </trkpt>
      <trkpt lat="48.07176" lon="-0.79389">
        <ele>90.883386</ele>
        <time>2011-06-26T09:58:42Z</time>
      </trkpt>
      <trkpt lat="48.07191" lon="-0.79399">
        <ele>91.050479</ele>
        <time>2011-06-26T09:58:45Z</time>
      </trkpt>
      <trkpt lat="48.07205" lon="-0.79409">
        <ele>91.271641</ele>
        <time>2011-06-26T09:58:48Z</time>
      </trkpt>
      <trkpt lat="48.07214" lon="-0.79416">
        <ele>91.539468</ele>
        <time>2011-06-26T09:58:50Z</time>
      </trkpt>
      <trkpt lat="48.07223" lon="-0.79423">
        <ele>91.815914</ele>
        <time>2011-06-26T09:58:52Z</time>
      </trkpt>
      <trkpt lat="48.07238" lon="-0.79433">
        <ele>92.034685</ele>
        <time>2011-06-26T09:58:55Z</time>
      </trkpt>
      <trkpt lat="48.07248" lon="-0.79441">
        <ele>92.14891</ele>
        <time>2011-06-26T09:58:57Z</time>
      </trkpt>
      <trkpt lat="48.07263" lon="-0.79452">
        <ele>92.172469</ele>
        <time>2011-06-26T09:59:00Z</time>
      </trkpt>
      <trkpt lat="48.07278" lon="-0.79462">
        <ele>92.15764</ele>
        <time>2011-06-26T09:59:03Z</time>
      </trkpt>
      <trkpt lat="48.07288" lon="-0.79468">
        <ele>92.139777</ele>
        <time>2011-06-26T09:59:05Z</time>
      </trkpt>
      <trkpt lat="48.07302" lon="-0.79479">
        <ele>92.130569</ele>
        <time>2011-06-26T09:59:08Z</time>
      </trkpt>
      <trkpt lat="48.07317" lon="-0.7949">
        <ele>92.152271</ele>
        <time>2011-06-26T09:59:11Z</time>
      </trkpt>
      <trkpt lat="48.07328" lon="-0.79496">
        <ele>92.234101</ele>
        <time>2011-06-26T09:59:13Z</time>
      </trkpt>
      <trkpt lat="48.07352" lon="-0.79507">
        <ele>92.370146</ele>
        <time>2011-06-26T09:59:16Z</time>
      </trkpt>
      <trkpt lat="48.07364" lon="-0.79512">
        <ele>92.517643</ele>
        <time>2011-06-26T09:59:18Z</time>
      </trkpt>
      <trkpt lat="48.07382" lon="-0.79519">
        <ele>92.629072</ele>
        <time>2011-06-26T09:59:21Z</time>
      </trkpt>
      <trkpt lat="48.07399" lon="-0.79526">
        <ele>92.682407</ele>
        <time>2011-06-26T09:59:24Z</time>
      </trkpt>
      <trkpt lat="48.07407" lon="-0.79528">
        <ele>92.694047</ele>
        <time>2011-06-26T09:59:26Z</time>
      </trkpt>
      <trkpt lat="48.07413" lon="-0.79529">
        <ele>92.689262</ele>
        <time>2011-06-26T09:59:29Z</time>
      </trkpt>
      <trkpt lat="48.07413" lon="-0.79529">
        <ele>92.682346</ele>
        <time>2011-06-26T10:00:03Z</time>
      </trkpt>
      <trkpt lat="48.07432" lon="-0.79539">
        <ele>92.665197</ele>
        <time>2011-06-26T10:00:16Z</time>
      </trkpt>
      <trkpt lat="48.07438" lon="-0.79542">
        <ele>92.629604</ele>
        <time>2011-06-26T10:00:18Z</time>
      </trkpt>
      <trkpt lat="48.0745" lon="-0.79546">
        <ele>92.589169</ele>
        <time>2011-06-26T10:00:21Z</time>
      </trkpt>
      <trkpt lat="48.07457" lon="-0.79549">
        <ele>92.496306</ele>
        <time>2011-06-26T10:00:23Z</time>
      </trkpt>
      <trkpt lat="48.07465" lon="-0.79551">
        <ele>92.312195</ele>
        <time>2011-06-26T10:00:25Z</time>
      </trkpt>
      <trkpt lat="48.07476" lon="-0.79554">
        <ele>92.089246</ele>
        <time>2011-06-26T10:00:28Z</time>
      </trkpt>
      <trkpt lat="48.07484" lon="-0.79555">
        <ele>91.88128</ele>
        <time>2011-06-26T10:00:30Z</time>
      </trkpt>
      <trkpt lat="48.07492" lon="-0.79555">
        <ele>91.722697</ele>
        <time>2011-06-26T10:00:32Z</time>
      </trkpt>
      <trkpt lat="48.07499" lon="-0.79555">
        <ele>91.649117</ele>
        <time>2011-06-26T10:00:34Z</time>
      </trkpt>
      <trkpt lat="48.07509" lon="-0.79554">
        <ele>91.638972</ele>
        <time>2011-06-26T10:00:37Z</time>
      </trkpt>
      <trkpt lat="48.07515" lon="-0.79555">
        <ele>91.657566</ele>
        <time>2011-06-26T10:00:39Z</time>
      </trkpt>
      <trkpt lat="48.07523" lon="-0.79556">
        <ele>91.699509</ele>
        <time>2011-06-26T10:00:42Z</time>
      </trkpt>
      <trkpt lat="48.07528" lon="-0.79556">
        <ele>91.762828</ele>
        <time>2011-06-26T10:00:44Z</time>
      </trkpt>
      <trkpt lat="48.07537" lon="-0.79557">
        <ele>91.822373</ele>
        <time>2011-06-26T10:00:47Z</time>
      </trkpt>
      <trkpt lat="48.07548" lon="-0.79556">
        <ele>91.859796</ele>
        <time>2011-06-26T10:00:50Z</time>
      </trkpt>
      <trkpt lat="48.0756" lon="-0.79553">
        <ele>91.881401</ele>
        <time>2011-06-26T10:00:53Z</time>
      </trkpt>
      <trkpt lat="48.07569" lon="-0.7955">
        <ele>91.898702</ele>
        <time>2011-06-26T10:00:55Z</time>
      </trkpt>
      <trkpt lat="48.07579" lon="-0.79548">
        <ele>91.920673</ele>
        <time>2011-06-26T10:00:57Z</time>
      </trkpt>
      <trkpt lat="48.07593" lon="-0.79546">
        <ele>92.013635</ele>
        <time>2011-06-26T10:01:00Z</time>
      </trkpt>
      <trkpt lat="48.07602" lon="-0.79545">
        <ele>92.253395</ele>
        <time>2011-06-26T10:01:02Z</time>
      </trkpt>
      <trkpt lat="48.07611" lon="-0.79545">
        <ele>92.59814</ele>
        <time>2011-06-26T10:01:04Z</time>
      </trkpt>
      <trkpt lat="48.07625" lon="-0.79545">
        <ele>92.947151</ele>
        <time>2011-06-26T10:01:07Z</time>
      </trkpt>
      <trkpt lat="48.07639" lon="-0.79545">
        <ele>93.240627</ele>
        <time>2011-06-26T10:01:10Z</time>
      </trkpt>
      <trkpt lat="48.07647" lon="-0.79545">
        <ele>93.430774</ele>
        <time>2011-06-26T10:01:12Z</time>
      </trkpt>
      <trkpt lat="48.07656" lon="-0.79545">
        <ele>93.505565</ele>
        <time>2011-06-26T10:01:14Z</time>
      </trkpt>
      <trkpt lat="48.07669" lon="-0.79544">
        <ele>93.507629</ele>
        <time>2011-06-26T10:01:17Z</time>
      </trkpt>
      <trkpt lat="48.07682" lon="-0.79544">
        <ele>93.487871</ele>
        <time>2011-06-26T10:01:20Z</time>
      </trkpt>
      <trkpt lat="48.0769" lon="-0.79544">
        <ele>93.472425</ele>
        <time>2011-06-26T10:01:22Z</time>
      </trkpt>
      <trkpt lat="48.07701" lon="-0.79544">
        <ele>93.46644</ele>
        <time>2011-06-26T10:01:25Z</time>
      </trkpt>
      <trkpt lat="48.07712" lon="-0.79541">
        <ele>93.465464</ele>
        <time>2011-06-26T10:01:28Z</time>
      </trkpt>
      <trkpt lat="48.07724" lon="-0.79539">
        <ele>93.461893</ele>
        <time>2011-06-26T10:01:31Z</time>
      </trkpt>
      <trkpt lat="48.07731" lon="-0.79536">
        <ele>93.452065</ele>
        <time>2011-06-26T10:01:33Z</time>
      </trkpt>
      <trkpt lat="48.07737" lon="-0.79531">
        <ele>93.460984</ele>
        <time>2011-06-26T10:01:35Z</time>
      </trkpt>
      <trkpt lat="48.07747" lon="-0.79523">
        <ele>93.507003</ele>
        <time>2011-06-26T10:01:38Z</time>
      </trkpt>
      <trkpt lat="48.07758" lon="-0.79519">
        <ele>93.559391</ele>
        <time>2011-06-26T10:01:41Z</time>
      </trkpt>
      <trkpt lat="48.07766" lon="-0.79519">
        <ele>93.589747</ele>
        <time>2011-06-26T10:01:43Z</time>
      </trkpt>
      <trkpt lat="48.07773" lon="-0.79523">
        <ele>93.609919</ele>
        <time>2011-06-26T10:01:45Z</time>
      </trkpt>
      <trkpt lat="48.07784" lon="-0.79531">
        <ele>93.698249</ele>
        <time>2011-06-26T10:01:48Z</time>
      </trkpt>
      <trkpt lat="48.07791" lon="-0.79537">
        <ele>93.921303</ele>
        <time>2011-06-26T10:01:50Z</time>
      </trkpt>
      <trkpt lat="48.07799" lon="-0.79535">
        <ele>94.233837</ele>
        <time>2011-06-26T10:01:53Z</time>
      </trkpt>
      <trkpt lat="48.07803" lon="-0.79528">
        <ele>94.59792</ele>
        <time>2011-06-26T10:01:55Z</time>
      </trkpt>
      <trkpt lat="48.07806" lon="-0.79522">
        <ele>94.986452</ele>
        <time>2011-06-26T10:01:57Z</time>
      </trkpt>
      <trkpt lat="48.07806" lon="-0.79522">
        <ele>95.277763</ele>
        <time>2011-06-26T10:01:57Z</time>
      </trkpt>
      <trkpt lat="48.07814" lon="-0.79519">
        <ele>95.39947</ele>
        <time>2011-06-26T10:02:00Z</time>
      </trkpt>
      <trkpt lat="48.07819" lon="-0.79519">
        <ele>95.407989</ele>
        <time>2011-06-26T10:02:02Z</time>
      </trkpt>
      <trkpt lat="48.07827" lon="-0.7952">
        <ele>95.375819</ele>
        <time>2011-06-26T10:02:05Z</time>
      </trkpt>
      <trkpt lat="48.07832" lon="-0.79519">
        <ele>95.337564</ele>
        <time>2011-06-26T10:02:07Z</time>
      </trkpt>
      <trkpt lat="48.07837" lon="-0.79518">
        <ele>95.300895</ele>
        <time>2011-06-26T10:02:09Z</time>
      </trkpt>
      <trkpt lat="48.07843" lon="-0.79511">
        <ele>95.267113</ele>
        <time>2011-06-26T10:02:12Z</time>
      </trkpt>
      <trkpt lat="48.07848" lon="-0.79506">
        <ele>95.240781</ele>
        <time>2011-06-26T10:02:14Z</time>
      </trkpt>
      <trkpt lat="48.07852" lon="-0.79503">
        <ele>95.223729</ele>
        <time>2011-06-26T10:02:16Z</time>
      </trkpt>
      <trkpt lat="48.07852" lon="-0.79503">
        <ele>95.211169</ele>
        <time>2011-06-26T10:02:17Z</time>
      </trkpt>
      <trkpt lat="48.07857" lon="-0.79499">
        <ele>95.201398</ele>
        <time>2011-06-26T10:02:18Z</time>
      </trkpt>
      <trkpt lat="48.07864" lon="-0.79492">
        <ele>95.196541</ele>
        <time>2011-06-26T10:02:21Z</time>
      </trkpt>
      <trkpt lat="48.07865" lon="-0.7948">
        <ele>95.195564</ele>
        <time>2011-06-26T10:02:24Z</time>
      </trkpt>
      <trkpt lat="48.07862" lon="-0.7947">
        <ele>95.196322</ele>
        <time>2011-06-26T10:02:26Z</time>
      </trkpt>
      <trkpt lat="48.07856" lon="-0.79451">
        <ele>95.199201</ele>
        <time>2011-06-26T10:02:29Z</time>
      </trkpt>
      <trkpt lat="48.0785" lon="-0.79431">
        <ele>95.216609</ele>
        <time>2011-06-26T10:02:32Z</time>
      </trkpt>
      <trkpt lat="48.07846" lon="-0.79418">
        <ele>95.302299</ele>
        <time>2011-06-26T10:02:34Z</time>
      </trkpt>
      <trkpt lat="48.07838" lon="-0.79399">
        <ele>95.556171</ele>
        <time>2011-06-26T10:02:37Z</time>
      </trkpt>
      <trkpt lat="48.07832" lon="-0.79389">
        <ele>95.968945</ele>
        <time>2011-06-26T10:02:39Z</time>
      </trkpt>
      <trkpt lat="48.07823" lon="-0.79372">
        <ele>96.368323</ele>
        <time>2011-06-26T10:02:42Z</time>
      </trkpt>
      <trkpt lat="48.07816" lon="-0.79359">
        <ele>96.63466</ele>
        <time>2011-06-26T10:02:44Z</time>
      </trkpt>
      <trkpt lat="48.07809" lon="-0.79345">
        <ele>96.780393</ele>
        <time>2011-06-26T10:02:46Z</time>
      </trkpt>
      <trkpt lat="48.07799" lon="-0.79326">
        <ele>96.836572</ele>
        <time>2011-06-26T10:02:49Z</time>
      </trkpt>
      <trkpt lat="48.07793" lon="-0.79311">
        <ele>96.837293</ele>
        <time>2011-06-26T10:02:51Z</time>
      </trkpt>
      <trkpt lat="48.07782" lon="-0.79288">
        <ele>96.803815</ele>
        <time>2011-06-26T10:02:54Z</time>
      </trkpt>
      <trkpt lat="48.07774" lon="-0.79271">
        <ele>96.72605</ele>
        <time>2011-06-26T10:02:56Z</time>
      </trkpt>
      <trkpt lat="48.07768" lon="-0.79254">
        <ele>96.598641</ele>
        <time>2011-06-26T10:02:58Z</time>
      </trkpt>
      <trkpt lat="48.07758" lon="-0.79228">
        <ele>96.423479</ele>
        <time>2011-06-26T10:03:01Z</time>
      </trkpt>
      <trkpt lat="48.07752" lon="-0.7921">
        <ele>96.210575</ele>
        <time>2011-06-26T10:03:03Z</time>
      </trkpt>
      <trkpt lat="48.07742" lon="-0.79198">
        <ele>95.974652</ele>
        <time>2011-06-26T10:03:05Z</time>
      </trkpt>
      <trkpt lat="48.07726" lon="-0.792">
        <ele>95.69066</ele>
        <time>2011-06-26T10:03:08Z</time>
      </trkpt>
      <trkpt lat="48.07713" lon="-0.79213">
        <ele>95.338759</ele>
        <time>2011-06-26T10:03:11Z</time>
      </trkpt>
      <trkpt lat="48.077" lon="-0.79224">
        <ele>94.949193</ele>
        <time>2011-06-26T10:03:14Z</time>
      </trkpt>
      <trkpt lat="48.07686" lon="-0.79229">
        <ele>94.525418</ele>
        <time>2011-06-26T10:03:17Z</time>
      </trkpt>
      <trkpt lat="48.07676" lon="-0.79216">
        <ele>94.109699</ele>
        <time>2011-06-26T10:03:20Z</time>
      </trkpt>
      <trkpt lat="48.07672" lon="-0.79206">
        <ele>93.830712</ele>
        <time>2011-06-26T10:03:22Z</time>
      </trkpt>
      <trkpt lat="48.07666" lon="-0.79192">
        <ele>93.734841</ele>
        <time>2011-06-26T10:03:25Z</time>
      </trkpt>
      <trkpt lat="48.07662" lon="-0.79183">
        <ele>93.742238</ele>
        <time>2011-06-26T10:03:27Z</time>
      </trkpt>
      <trkpt lat="48.07659" lon="-0.79174">
        <ele>93.793957</ele>
        <time>2011-06-26T10:03:29Z</time>
      </trkpt>
      <trkpt lat="48.07662" lon="-0.79158">
        <ele>93.876097</ele>
        <time>2011-06-26T10:03:32Z</time>
      </trkpt>
      <trkpt lat="48.07668" lon="-0.79148">
        <ele>93.961533</ele>
        <time>2011-06-26T10:03:34Z</time>
      </trkpt>
      <trkpt lat="48.0768" lon="-0.79138">
        <ele>94.013201</ele>
        <time>2011-06-26T10:03:37Z</time>
      </trkpt>
      <trkpt lat="48.0768" lon="-0.79138">
        <ele>94.027913</ele>
        <time>2011-06-26T10:03:39Z</time>
      </trkpt>
    </trkseg>
  </trk>
</gpx>